<?xml version="1.0" encoding="UTF-8" standalone="no" ?>
<gpx xmlns="http://www.topografix.com/GPX/1/1" xmlns:xsi="http://www.w3.org/2001/XMLSchema-instance" xsi:schemaLocation="http://www.topografix.com/GPX/1/1 http://www.topografix.com/GPX/1/1/gpx.xsd" version="1.1" creator="VisuGPX - https://www.visugpx.com">
  <metadata>
    <name>Rando - 1er jour boucle sur les balcons Est du Vercors</name>
    <desc><![CDATA[1er partie d\'un week-end génial sur les hauts plateaux du Vercors et ses balcons Est. Fabuleux.]]></desc>
  </metadata>
  <trk>
    <name><![CDATA[04-OCT-14 17:46:22]]></name>
    <trkseg>
      <trkpt lat="45.02044" lon="5.52984">
        <ele>1198.9</ele>
        <time>2014-10-04T06:35:05Z</time>
      </trkpt>
      <trkpt lat="45.02046" lon="5.52983">
        <ele>1201.3</ele>
        <time>2014-10-04T06:35:07Z</time>
      </trkpt>
      <trkpt lat="45.02046" lon="5.52983">
        <ele>1204.19</ele>
        <time>2014-10-04T06:35:10Z</time>
      </trkpt>
      <trkpt lat="45.02046" lon="5.52982">
        <ele>1205.15</ele>
        <time>2014-10-04T06:35:12Z</time>
      </trkpt>
      <trkpt lat="45.02046" lon="5.52982">
        <ele>1207.07</ele>
        <time>2014-10-04T06:35:14Z</time>
      </trkpt>
      <trkpt lat="45.02045" lon="5.52982">
        <ele>1210.92</ele>
        <time>2014-10-04T06:35:18Z</time>
      </trkpt>
      <trkpt lat="45.02045" lon="5.5298">
        <ele>1211.4</ele>
        <time>2014-10-04T06:35:21Z</time>
      </trkpt>
      <trkpt lat="45.02054" lon="5.52958">
        <ele>1213.8</ele>
        <time>2014-10-04T06:40:40Z</time>
      </trkpt>
      <trkpt lat="45.02053" lon="5.52965">
        <ele>1214.28</ele>
        <time>2014-10-04T06:40:41Z</time>
      </trkpt>
      <trkpt lat="45.02045" lon="5.52975">
        <ele>1213.8</ele>
        <time>2014-10-04T06:40:50Z</time>
      </trkpt>
      <trkpt lat="45.02047" lon="5.52971">
        <ele>1213.8</ele>
        <time>2014-10-04T06:40:54Z</time>
      </trkpt>
      <trkpt lat="45.02043" lon="5.52963">
        <ele>1213.8</ele>
        <time>2014-10-04T06:41:01Z</time>
      </trkpt>
      <trkpt lat="45.02037" lon="5.52956">
        <ele>1214.28</ele>
        <time>2014-10-04T06:41:07Z</time>
      </trkpt>
      <trkpt lat="45.02024" lon="5.52943">
        <ele>1216.21</ele>
        <time>2014-10-04T06:41:19Z</time>
      </trkpt>
      <trkpt lat="45.02017" lon="5.5294">
        <ele>1218.13</ele>
        <time>2014-10-04T06:41:26Z</time>
      </trkpt>
      <trkpt lat="45.02012" lon="5.5294">
        <ele>1218.61</ele>
        <time>2014-10-04T06:41:30Z</time>
      </trkpt>
      <trkpt lat="45.02002" lon="5.52939">
        <ele>1220.53</ele>
        <time>2014-10-04T06:41:38Z</time>
      </trkpt>
      <trkpt lat="45.01993" lon="5.52936">
        <ele>1222.45</ele>
        <time>2014-10-04T06:41:46Z</time>
      </trkpt>
      <trkpt lat="45.01988" lon="5.52937">
        <ele>1224.38</ele>
        <time>2014-10-04T06:41:51Z</time>
      </trkpt>
      <trkpt lat="45.01982" lon="5.52938">
        <ele>1226.3</ele>
        <time>2014-10-04T06:41:58Z</time>
      </trkpt>
      <trkpt lat="45.0198" lon="5.52939">
        <ele>1226.78</ele>
        <time>2014-10-04T06:42:00Z</time>
      </trkpt>
      <trkpt lat="45.01975" lon="5.52939">
        <ele>1227.74</ele>
        <time>2014-10-04T06:42:05Z</time>
      </trkpt>
      <trkpt lat="45.01971" lon="5.52939">
        <ele>1229.18</ele>
        <time>2014-10-04T06:42:09Z</time>
      </trkpt>
      <trkpt lat="45.01953" lon="5.52944">
        <ele>1232.55</ele>
        <time>2014-10-04T06:42:23Z</time>
      </trkpt>
      <trkpt lat="45.01938" lon="5.52945">
        <ele>1234.95</ele>
        <time>2014-10-04T06:42:36Z</time>
      </trkpt>
      <trkpt lat="45.01933" lon="5.52944">
        <ele>1235.43</ele>
        <time>2014-10-04T06:42:41Z</time>
      </trkpt>
      <trkpt lat="45.01914" lon="5.52945">
        <ele>1236.39</ele>
        <time>2014-10-04T06:42:55Z</time>
      </trkpt>
      <trkpt lat="45.01912" lon="5.52945">
        <ele>1236.39</ele>
        <time>2014-10-04T06:42:57Z</time>
      </trkpt>
      <trkpt lat="45.01907" lon="5.52945">
        <ele>1236.39</ele>
        <time>2014-10-04T06:43:01Z</time>
      </trkpt>
      <trkpt lat="45.01902" lon="5.52943">
        <ele>1236.39</ele>
        <time>2014-10-04T06:43:06Z</time>
      </trkpt>
      <trkpt lat="45.01897" lon="5.52936">
        <ele>1236.87</ele>
        <time>2014-10-04T06:43:14Z</time>
      </trkpt>
      <trkpt lat="45.01887" lon="5.52927">
        <ele>1236.87</ele>
        <time>2014-10-04T06:43:22Z</time>
      </trkpt>
      <trkpt lat="45.01876" lon="5.52926">
        <ele>1235.91</ele>
        <time>2014-10-04T06:43:33Z</time>
      </trkpt>
      <trkpt lat="45.01873" lon="5.52926">
        <ele>1236.39</ele>
        <time>2014-10-04T06:43:36Z</time>
      </trkpt>
      <trkpt lat="45.01856" lon="5.52919">
        <ele>1235.91</ele>
        <time>2014-10-04T06:43:51Z</time>
      </trkpt>
      <trkpt lat="45.01855" lon="5.52919">
        <ele>1235.91</ele>
        <time>2014-10-04T06:43:52Z</time>
      </trkpt>
      <trkpt lat="45.01844" lon="5.52921">
        <ele>1235.43</ele>
        <time>2014-10-04T06:44:05Z</time>
      </trkpt>
      <trkpt lat="45.0183" lon="5.52935">
        <ele>1235.91</ele>
        <time>2014-10-04T06:44:17Z</time>
      </trkpt>
      <trkpt lat="45.01816" lon="5.5295">
        <ele>1235.91</ele>
        <time>2014-10-04T06:44:28Z</time>
      </trkpt>
      <trkpt lat="45.01813" lon="5.52953">
        <ele>1235.91</ele>
        <time>2014-10-04T06:44:31Z</time>
      </trkpt>
      <trkpt lat="45.01802" lon="5.52951">
        <ele>1234.95</ele>
        <time>2014-10-04T06:44:42Z</time>
      </trkpt>
      <trkpt lat="45.01797" lon="5.52951">
        <ele>1235.43</ele>
        <time>2014-10-04T06:44:46Z</time>
      </trkpt>
      <trkpt lat="45.01789" lon="5.52958">
        <ele>1236.39</ele>
        <time>2014-10-04T06:44:58Z</time>
      </trkpt>
      <trkpt lat="45.01776" lon="5.52966">
        <ele>1236.87</ele>
        <time>2014-10-04T06:45:10Z</time>
      </trkpt>
      <trkpt lat="45.01771" lon="5.52971">
        <ele>1237.35</ele>
        <time>2014-10-04T06:45:16Z</time>
      </trkpt>
      <trkpt lat="45.01765" lon="5.52977">
        <ele>1237.35</ele>
        <time>2014-10-04T06:45:22Z</time>
      </trkpt>
      <trkpt lat="45.01758" lon="5.52985">
        <ele>1237.83</ele>
        <time>2014-10-04T06:45:29Z</time>
      </trkpt>
      <trkpt lat="45.01752" lon="5.52989">
        <ele>1238.32</ele>
        <time>2014-10-04T06:45:35Z</time>
      </trkpt>
      <trkpt lat="45.01749" lon="5.52991">
        <ele>1238.8</ele>
        <time>2014-10-04T06:45:38Z</time>
      </trkpt>
      <trkpt lat="45.01739" lon="5.52998">
        <ele>1239.76</ele>
        <time>2014-10-04T06:45:47Z</time>
      </trkpt>
      <trkpt lat="45.01736" lon="5.53">
        <ele>1240.24</ele>
        <time>2014-10-04T06:45:50Z</time>
      </trkpt>
      <trkpt lat="45.0173" lon="5.53002">
        <ele>1241.2</ele>
        <time>2014-10-04T06:45:56Z</time>
      </trkpt>
      <trkpt lat="45.01726" lon="5.53004">
        <ele>1241.68</ele>
        <time>2014-10-04T06:45:59Z</time>
      </trkpt>
      <trkpt lat="45.01711" lon="5.53009">
        <ele>1244.56</ele>
        <time>2014-10-04T06:46:13Z</time>
      </trkpt>
      <trkpt lat="45.01701" lon="5.53014">
        <ele>1246.97</ele>
        <time>2014-10-04T06:46:25Z</time>
      </trkpt>
      <trkpt lat="45.01695" lon="5.53018">
        <ele>1248.41</ele>
        <time>2014-10-04T06:46:32Z</time>
      </trkpt>
      <trkpt lat="45.01693" lon="5.53019">
        <ele>1249.37</ele>
        <time>2014-10-04T06:46:35Z</time>
      </trkpt>
      <trkpt lat="45.01681" lon="5.53021">
        <ele>1250.81</ele>
        <time>2014-10-04T06:46:46Z</time>
      </trkpt>
      <trkpt lat="45.01681" lon="5.53022">
        <ele>1251.77</ele>
        <time>2014-10-04T06:46:47Z</time>
      </trkpt>
      <trkpt lat="45.01674" lon="5.53024">
        <ele>1252.74</ele>
        <time>2014-10-04T06:46:54Z</time>
      </trkpt>
      <trkpt lat="45.01666" lon="5.53025">
        <ele>1255.62</ele>
        <time>2014-10-04T06:47:07Z</time>
      </trkpt>
      <trkpt lat="45.01663" lon="5.53026">
        <ele>1256.58</ele>
        <time>2014-10-04T06:47:12Z</time>
      </trkpt>
      <trkpt lat="45.01658" lon="5.53027">
        <ele>1257.06</ele>
        <time>2014-10-04T06:47:16Z</time>
      </trkpt>
      <trkpt lat="45.01648" lon="5.53031">
        <ele>1258.5</ele>
        <time>2014-10-04T06:47:30Z</time>
      </trkpt>
      <trkpt lat="45.01638" lon="5.53032">
        <ele>1259.46</ele>
        <time>2014-10-04T06:47:41Z</time>
      </trkpt>
      <trkpt lat="45.01623" lon="5.53031">
        <ele>1262.35</ele>
        <time>2014-10-04T06:47:55Z</time>
      </trkpt>
      <trkpt lat="45.01613" lon="5.53031">
        <ele>1263.79</ele>
        <time>2014-10-04T06:48:04Z</time>
      </trkpt>
      <trkpt lat="45.01595" lon="5.53028">
        <ele>1266.19</ele>
        <time>2014-10-04T06:48:19Z</time>
      </trkpt>
      <trkpt lat="45.0158" lon="5.53025">
        <ele>1269.56</ele>
        <time>2014-10-04T06:48:34Z</time>
      </trkpt>
      <trkpt lat="45.01577" lon="5.53024">
        <ele>1270.04</ele>
        <time>2014-10-04T06:48:36Z</time>
      </trkpt>
      <trkpt lat="45.01575" lon="5.53025">
        <ele>1270.52</ele>
        <time>2014-10-04T06:48:40Z</time>
      </trkpt>
      <trkpt lat="45.01566" lon="5.53028">
        <ele>1271.96</ele>
        <time>2014-10-04T06:48:47Z</time>
      </trkpt>
      <trkpt lat="45.01559" lon="5.53031">
        <ele>1273.4</ele>
        <time>2014-10-04T06:48:54Z</time>
      </trkpt>
      <trkpt lat="45.01557" lon="5.53035">
        <ele>1274.36</ele>
        <time>2014-10-04T06:48:58Z</time>
      </trkpt>
      <trkpt lat="45.0155" lon="5.53038">
        <ele>1277.73</ele>
        <time>2014-10-04T06:49:12Z</time>
      </trkpt>
      <trkpt lat="45.01544" lon="5.53041">
        <ele>1279.65</ele>
        <time>2014-10-04T06:49:23Z</time>
      </trkpt>
      <trkpt lat="45.01536" lon="5.53046">
        <ele>1283.02</ele>
        <time>2014-10-04T06:49:36Z</time>
      </trkpt>
      <trkpt lat="45.0152" lon="5.53053">
        <ele>1284.94</ele>
        <time>2014-10-04T06:49:48Z</time>
      </trkpt>
      <trkpt lat="45.01515" lon="5.53054">
        <ele>1285.9</ele>
        <time>2014-10-04T06:49:55Z</time>
      </trkpt>
      <trkpt lat="45.01513" lon="5.53057">
        <ele>1286.38</ele>
        <time>2014-10-04T06:49:58Z</time>
      </trkpt>
      <trkpt lat="45.0151" lon="5.53062">
        <ele>1288.3</ele>
        <time>2014-10-04T06:50:05Z</time>
      </trkpt>
      <trkpt lat="45.01508" lon="5.53065">
        <ele>1288.78</ele>
        <time>2014-10-04T06:50:08Z</time>
      </trkpt>
      <trkpt lat="45.01498" lon="5.5307">
        <ele>1290.71</ele>
        <time>2014-10-04T06:50:21Z</time>
      </trkpt>
      <trkpt lat="45.01494" lon="5.53074">
        <ele>1291.67</ele>
        <time>2014-10-04T06:50:24Z</time>
      </trkpt>
      <trkpt lat="45.01491" lon="5.53079">
        <ele>1292.63</ele>
        <time>2014-10-04T06:50:29Z</time>
      </trkpt>
      <trkpt lat="45.01484" lon="5.5308">
        <ele>1294.55</ele>
        <time>2014-10-04T06:50:39Z</time>
      </trkpt>
      <trkpt lat="45.01477" lon="5.53088">
        <ele>1296.96</ele>
        <time>2014-10-04T06:50:50Z</time>
      </trkpt>
      <trkpt lat="45.01473" lon="5.53093">
        <ele>1297.92</ele>
        <time>2014-10-04T06:50:55Z</time>
      </trkpt>
      <trkpt lat="45.01471" lon="5.53098">
        <ele>1298.88</ele>
        <time>2014-10-04T06:50:58Z</time>
      </trkpt>
      <trkpt lat="45.01466" lon="5.53112">
        <ele>1301.28</ele>
        <time>2014-10-04T06:51:11Z</time>
      </trkpt>
      <trkpt lat="45.01462" lon="5.53115">
        <ele>1303.2</ele>
        <time>2014-10-04T06:51:18Z</time>
      </trkpt>
      <trkpt lat="45.0145" lon="5.53123">
        <ele>1306.09</ele>
        <time>2014-10-04T06:51:33Z</time>
      </trkpt>
      <trkpt lat="45.01441" lon="5.53125">
        <ele>1308.97</ele>
        <time>2014-10-04T06:51:47Z</time>
      </trkpt>
      <trkpt lat="45.01428" lon="5.5313">
        <ele>1311.38</ele>
        <time>2014-10-04T06:52:01Z</time>
      </trkpt>
      <trkpt lat="45.01422" lon="5.53134">
        <ele>1312.82</ele>
        <time>2014-10-04T06:52:11Z</time>
      </trkpt>
      <trkpt lat="45.01411" lon="5.53139">
        <ele>1315.7</ele>
        <time>2014-10-04T06:52:26Z</time>
      </trkpt>
      <trkpt lat="45.01404" lon="5.53141">
        <ele>1316.66</ele>
        <time>2014-10-04T06:52:33Z</time>
      </trkpt>
      <trkpt lat="45.0139" lon="5.53144">
        <ele>1318.1</ele>
        <time>2014-10-04T06:52:48Z</time>
      </trkpt>
      <trkpt lat="45.0138" lon="5.53146">
        <ele>1319.55</ele>
        <time>2014-10-04T06:53:04Z</time>
      </trkpt>
      <trkpt lat="45.01363" lon="5.53146">
        <ele>1321.95</ele>
        <time>2014-10-04T06:53:19Z</time>
      </trkpt>
      <trkpt lat="45.01348" lon="5.53148">
        <ele>1323.87</ele>
        <time>2014-10-04T06:53:34Z</time>
      </trkpt>
      <trkpt lat="45.0133" lon="5.5315">
        <ele>1324.83</ele>
        <time>2014-10-04T06:53:49Z</time>
      </trkpt>
      <trkpt lat="45.01318" lon="5.5315">
        <ele>1325.8</ele>
        <time>2014-10-04T06:54:03Z</time>
      </trkpt>
      <trkpt lat="45.01312" lon="5.53152">
        <ele>1327.72</ele>
        <time>2014-10-04T06:54:16Z</time>
      </trkpt>
      <trkpt lat="45.01305" lon="5.53152">
        <ele>1329.16</ele>
        <time>2014-10-04T06:54:29Z</time>
      </trkpt>
      <trkpt lat="45.01291" lon="5.53147">
        <ele>1331.08</ele>
        <time>2014-10-04T06:54:41Z</time>
      </trkpt>
      <trkpt lat="45.01267" lon="5.53135">
        <ele>1333.97</ele>
        <time>2014-10-04T06:54:58Z</time>
      </trkpt>
      <trkpt lat="45.0125" lon="5.5313">
        <ele>1336.85</ele>
        <time>2014-10-04T06:55:12Z</time>
      </trkpt>
      <trkpt lat="45.0124" lon="5.53132">
        <ele>1338.29</ele>
        <time>2014-10-04T06:55:27Z</time>
      </trkpt>
      <trkpt lat="45.01232" lon="5.5314">
        <ele>1339.73</ele>
        <time>2014-10-04T06:55:48Z</time>
      </trkpt>
      <trkpt lat="45.0122" lon="5.53154">
        <ele>1342.62</ele>
        <time>2014-10-04T06:56:03Z</time>
      </trkpt>
      <trkpt lat="45.01212" lon="5.53165">
        <ele>1343.1</ele>
        <time>2014-10-04T06:56:07Z</time>
      </trkpt>
      <trkpt lat="45.01201" lon="5.53177">
        <ele>1345.5</ele>
        <time>2014-10-04T06:56:22Z</time>
      </trkpt>
      <trkpt lat="45.01193" lon="5.53187">
        <ele>1349.35</ele>
        <time>2014-10-04T06:56:37Z</time>
      </trkpt>
      <trkpt lat="45.01189" lon="5.53192">
        <ele>1352.71</ele>
        <time>2014-10-04T06:56:52Z</time>
      </trkpt>
      <trkpt lat="45.01178" lon="5.53194">
        <ele>1355.6</ele>
        <time>2014-10-04T06:57:08Z</time>
      </trkpt>
      <trkpt lat="45.01173" lon="5.53195">
        <ele>1358</ele>
        <time>2014-10-04T06:57:21Z</time>
      </trkpt>
      <trkpt lat="45.01159" lon="5.53194">
        <ele>1360.4</ele>
        <time>2014-10-04T06:57:34Z</time>
      </trkpt>
      <trkpt lat="45.01153" lon="5.53196">
        <ele>1363.29</ele>
        <time>2014-10-04T06:57:49Z</time>
      </trkpt>
      <trkpt lat="45.01139" lon="5.53195">
        <ele>1366.17</ele>
        <time>2014-10-04T06:58:03Z</time>
      </trkpt>
      <trkpt lat="45.01125" lon="5.532">
        <ele>1369.05</ele>
        <time>2014-10-04T06:58:17Z</time>
      </trkpt>
      <trkpt lat="45.01111" lon="5.53208">
        <ele>1371.94</ele>
        <time>2014-10-04T06:58:34Z</time>
      </trkpt>
      <trkpt lat="45.01105" lon="5.53215">
        <ele>1373.38</ele>
        <time>2014-10-04T06:58:49Z</time>
      </trkpt>
      <trkpt lat="45.01087" lon="5.53225">
        <ele>1376.75</ele>
        <time>2014-10-04T06:59:06Z</time>
      </trkpt>
      <trkpt lat="45.01074" lon="5.53231">
        <ele>1379.15</ele>
        <time>2014-10-04T06:59:20Z</time>
      </trkpt>
      <trkpt lat="45.01066" lon="5.53243">
        <ele>1382.51</ele>
        <time>2014-10-04T06:59:32Z</time>
      </trkpt>
      <trkpt lat="45.01062" lon="5.53251">
        <ele>1384.44</ele>
        <time>2014-10-04T06:59:48Z</time>
      </trkpt>
      <trkpt lat="45.01048" lon="5.53266">
        <ele>1387.32</ele>
        <time>2014-10-04T07:00:03Z</time>
      </trkpt>
      <trkpt lat="45.01036" lon="5.53281">
        <ele>1390.2</ele>
        <time>2014-10-04T07:00:18Z</time>
      </trkpt>
      <trkpt lat="45.01027" lon="5.53294">
        <ele>1392.61</ele>
        <time>2014-10-04T07:00:33Z</time>
      </trkpt>
      <trkpt lat="45.01023" lon="5.53298">
        <ele>1396.45</ele>
        <time>2014-10-04T07:00:48Z</time>
      </trkpt>
      <trkpt lat="45.01011" lon="5.5331">
        <ele>1399.82</ele>
        <time>2014-10-04T07:01:02Z</time>
      </trkpt>
      <trkpt lat="45.01005" lon="5.53319">
        <ele>1402.22</ele>
        <time>2014-10-04T07:01:16Z</time>
      </trkpt>
      <trkpt lat="45.00995" lon="5.53324">
        <ele>1405.58</ele>
        <time>2014-10-04T07:01:29Z</time>
      </trkpt>
      <trkpt lat="45.00987" lon="5.53329">
        <ele>1406.07</ele>
        <time>2014-10-04T07:01:42Z</time>
      </trkpt>
      <trkpt lat="45.00978" lon="5.5333">
        <ele>1408.47</ele>
        <time>2014-10-04T07:01:54Z</time>
      </trkpt>
      <trkpt lat="45.00963" lon="5.53332">
        <ele>1411.35</ele>
        <time>2014-10-04T07:02:09Z</time>
      </trkpt>
      <trkpt lat="45.00952" lon="5.53334">
        <ele>1414.24</ele>
        <time>2014-10-04T07:02:23Z</time>
      </trkpt>
      <trkpt lat="45.00941" lon="5.53338">
        <ele>1416.64</ele>
        <time>2014-10-04T07:02:37Z</time>
      </trkpt>
      <trkpt lat="45.0093" lon="5.53338">
        <ele>1420</ele>
        <time>2014-10-04T07:02:53Z</time>
      </trkpt>
      <trkpt lat="45.00922" lon="5.53338">
        <ele>1422.41</ele>
        <time>2014-10-04T07:03:06Z</time>
      </trkpt>
      <trkpt lat="45.00915" lon="5.53342">
        <ele>1424.33</ele>
        <time>2014-10-04T07:03:22Z</time>
      </trkpt>
      <trkpt lat="45.00907" lon="5.53343">
        <ele>1426.73</ele>
        <time>2014-10-04T07:03:35Z</time>
      </trkpt>
      <trkpt lat="45.00889" lon="5.5334">
        <ele>1428.18</ele>
        <time>2014-10-04T07:03:51Z</time>
      </trkpt>
      <trkpt lat="45.00888" lon="5.53339">
        <ele>1428.66</ele>
        <time>2014-10-04T07:04:11Z</time>
      </trkpt>
      <trkpt lat="45.00886" lon="5.53335">
        <ele>1426.73</ele>
        <time>2014-10-04T07:04:29Z</time>
      </trkpt>
      <trkpt lat="45.00854" lon="5.53333">
        <ele>1428.18</ele>
        <time>2014-10-04T07:12:24Z</time>
      </trkpt>
      <trkpt lat="45.00854" lon="5.53334">
        <ele>1428.18</ele>
        <time>2014-10-04T07:12:25Z</time>
      </trkpt>
      <trkpt lat="45.00855" lon="5.53325">
        <ele>1428.18</ele>
        <time>2014-10-04T07:12:46Z</time>
      </trkpt>
      <trkpt lat="45.00856" lon="5.53324">
        <ele>1429.62</ele>
        <time>2014-10-04T07:12:56Z</time>
      </trkpt>
      <trkpt lat="45.00859" lon="5.53317">
        <ele>1432.5</ele>
        <time>2014-10-04T07:13:12Z</time>
      </trkpt>
      <trkpt lat="45.00845" lon="5.5331">
        <ele>1435.87</ele>
        <time>2014-10-04T07:13:28Z</time>
      </trkpt>
      <trkpt lat="45.0084" lon="5.53305">
        <ele>1438.27</ele>
        <time>2014-10-04T07:13:36Z</time>
      </trkpt>
      <trkpt lat="45.00835" lon="5.53304">
        <ele>1441.15</ele>
        <time>2014-10-04T07:13:41Z</time>
      </trkpt>
      <trkpt lat="45.00832" lon="5.53303">
        <ele>1442.6</ele>
        <time>2014-10-04T07:13:44Z</time>
      </trkpt>
      <trkpt lat="45.00827" lon="5.53301">
        <ele>1445.96</ele>
        <time>2014-10-04T07:13:50Z</time>
      </trkpt>
      <trkpt lat="45.00824" lon="5.53303">
        <ele>1449.32</ele>
        <time>2014-10-04T07:13:56Z</time>
      </trkpt>
      <trkpt lat="45.00822" lon="5.53298">
        <ele>1452.21</ele>
        <time>2014-10-04T07:14:05Z</time>
      </trkpt>
      <trkpt lat="45.00819" lon="5.533">
        <ele>1456.05</ele>
        <time>2014-10-04T07:14:17Z</time>
      </trkpt>
      <trkpt lat="45.00802" lon="5.53301">
        <ele>1457.98</ele>
        <time>2014-10-04T07:14:32Z</time>
      </trkpt>
      <trkpt lat="45.00781" lon="5.53298">
        <ele>1459.9</ele>
        <time>2014-10-04T07:14:47Z</time>
      </trkpt>
      <trkpt lat="45.00767" lon="5.53298">
        <ele>1463.26</ele>
        <time>2014-10-04T07:15:04Z</time>
      </trkpt>
      <trkpt lat="45.00758" lon="5.53308">
        <ele>1465.67</ele>
        <time>2014-10-04T07:15:20Z</time>
      </trkpt>
      <trkpt lat="45.00747" lon="5.53317">
        <ele>1468.55</ele>
        <time>2014-10-04T07:15:35Z</time>
      </trkpt>
      <trkpt lat="45.00737" lon="5.53313">
        <ele>1470.95</ele>
        <time>2014-10-04T07:15:52Z</time>
      </trkpt>
      <trkpt lat="45.00726" lon="5.53318">
        <ele>1473.36</ele>
        <time>2014-10-04T07:16:06Z</time>
      </trkpt>
      <trkpt lat="45.00715" lon="5.53317">
        <ele>1474.8</ele>
        <time>2014-10-04T07:16:20Z</time>
      </trkpt>
      <trkpt lat="45.0071" lon="5.53316">
        <ele>1475.76</ele>
        <time>2014-10-04T07:16:25Z</time>
      </trkpt>
      <trkpt lat="45.00694" lon="5.53324">
        <ele>1477.68</ele>
        <time>2014-10-04T07:16:43Z</time>
      </trkpt>
      <trkpt lat="45.0068" lon="5.53328">
        <ele>1480.09</ele>
        <time>2014-10-04T07:17:01Z</time>
      </trkpt>
      <trkpt lat="45.00669" lon="5.53333">
        <ele>1482.01</ele>
        <time>2014-10-04T07:17:16Z</time>
      </trkpt>
      <trkpt lat="45.00659" lon="5.53339">
        <ele>1483.45</ele>
        <time>2014-10-04T07:17:28Z</time>
      </trkpt>
      <trkpt lat="45.00647" lon="5.53344">
        <ele>1486.82</ele>
        <time>2014-10-04T07:17:43Z</time>
      </trkpt>
      <trkpt lat="45.00638" lon="5.53345">
        <ele>1488.74</ele>
        <time>2014-10-04T07:17:58Z</time>
      </trkpt>
      <trkpt lat="45.00631" lon="5.53347">
        <ele>1491.62</ele>
        <time>2014-10-04T07:18:15Z</time>
      </trkpt>
      <trkpt lat="45.00624" lon="5.53346">
        <ele>1493.55</ele>
        <time>2014-10-04T07:18:25Z</time>
      </trkpt>
      <trkpt lat="45.00617" lon="5.53342">
        <ele>1495.47</ele>
        <time>2014-10-04T07:18:37Z</time>
      </trkpt>
      <trkpt lat="45.00604" lon="5.53338">
        <ele>1497.39</ele>
        <time>2014-10-04T07:18:50Z</time>
      </trkpt>
      <trkpt lat="45.00594" lon="5.53335">
        <ele>1498.83</ele>
        <time>2014-10-04T07:19:04Z</time>
      </trkpt>
      <trkpt lat="45.00589" lon="5.53336">
        <ele>1501.72</ele>
        <time>2014-10-04T07:19:19Z</time>
      </trkpt>
      <trkpt lat="45.00574" lon="5.53338">
        <ele>1504.12</ele>
        <time>2014-10-04T07:19:36Z</time>
      </trkpt>
      <trkpt lat="45.00562" lon="5.53341">
        <ele>1506.52</ele>
        <time>2014-10-04T07:19:53Z</time>
      </trkpt>
      <trkpt lat="45.00544" lon="5.53346">
        <ele>1508.93</ele>
        <time>2014-10-04T07:20:08Z</time>
      </trkpt>
      <trkpt lat="45.00543" lon="5.53347">
        <ele>1509.41</ele>
        <time>2014-10-04T07:20:09Z</time>
      </trkpt>
      <trkpt lat="45.00539" lon="5.5335">
        <ele>1509.41</ele>
        <time>2014-10-04T07:20:12Z</time>
      </trkpt>
      <trkpt lat="45.00529" lon="5.53354">
        <ele>1510.85</ele>
        <time>2014-10-04T07:20:24Z</time>
      </trkpt>
      <trkpt lat="45.00519" lon="5.53356">
        <ele>1513.73</ele>
        <time>2014-10-04T07:20:39Z</time>
      </trkpt>
      <trkpt lat="45.00509" lon="5.53355">
        <ele>1516.14</ele>
        <time>2014-10-04T07:20:53Z</time>
      </trkpt>
      <trkpt lat="45.00505" lon="5.53356">
        <ele>1517.58</ele>
        <time>2014-10-04T07:20:57Z</time>
      </trkpt>
      <trkpt lat="45.00498" lon="5.53356">
        <ele>1519.5</ele>
        <time>2014-10-04T07:21:13Z</time>
      </trkpt>
      <trkpt lat="45.00494" lon="5.53354">
        <ele>1522.39</ele>
        <time>2014-10-04T07:21:24Z</time>
      </trkpt>
      <trkpt lat="45.00489" lon="5.53357">
        <ele>1524.79</ele>
        <time>2014-10-04T07:21:36Z</time>
      </trkpt>
      <trkpt lat="45.00478" lon="5.53357">
        <ele>1527.19</ele>
        <time>2014-10-04T07:21:51Z</time>
      </trkpt>
      <trkpt lat="45.00463" lon="5.5336">
        <ele>1529.59</ele>
        <time>2014-10-04T07:22:08Z</time>
      </trkpt>
      <trkpt lat="45.00457" lon="5.5336">
        <ele>1531.04</ele>
        <time>2014-10-04T07:22:23Z</time>
      </trkpt>
      <trkpt lat="45.00441" lon="5.53356">
        <ele>1532</ele>
        <time>2014-10-04T07:22:37Z</time>
      </trkpt>
      <trkpt lat="45.00428" lon="5.53354">
        <ele>1534.4</ele>
        <time>2014-10-04T07:22:52Z</time>
      </trkpt>
      <trkpt lat="45.00427" lon="5.53353">
        <ele>1535.84</ele>
        <time>2014-10-04T07:22:59Z</time>
      </trkpt>
      <trkpt lat="45.00415" lon="5.53353">
        <ele>1537.77</ele>
        <time>2014-10-04T07:23:11Z</time>
      </trkpt>
      <trkpt lat="45.00408" lon="5.53353">
        <ele>1540.65</ele>
        <time>2014-10-04T07:23:23Z</time>
      </trkpt>
      <trkpt lat="45.00396" lon="5.53353">
        <ele>1542.09</ele>
        <time>2014-10-04T07:23:37Z</time>
      </trkpt>
      <trkpt lat="45.00387" lon="5.53349">
        <ele>1545.46</ele>
        <time>2014-10-04T07:23:50Z</time>
      </trkpt>
      <trkpt lat="45.0038" lon="5.53349">
        <ele>1546.42</ele>
        <time>2014-10-04T07:24:02Z</time>
      </trkpt>
      <trkpt lat="45.00375" lon="5.53348">
        <ele>1549.3</ele>
        <time>2014-10-04T07:24:14Z</time>
      </trkpt>
      <trkpt lat="45.00369" lon="5.53347">
        <ele>1550.74</ele>
        <time>2014-10-04T07:24:21Z</time>
      </trkpt>
      <trkpt lat="45.00363" lon="5.53348">
        <ele>1552.67</ele>
        <time>2014-10-04T07:24:29Z</time>
      </trkpt>
      <trkpt lat="45.00359" lon="5.53348">
        <ele>1554.11</ele>
        <time>2014-10-04T07:24:36Z</time>
      </trkpt>
      <trkpt lat="45.00352" lon="5.53352">
        <ele>1555.55</ele>
        <time>2014-10-04T07:24:47Z</time>
      </trkpt>
      <trkpt lat="45.00344" lon="5.53352">
        <ele>1557.47</ele>
        <time>2014-10-04T07:24:58Z</time>
      </trkpt>
      <trkpt lat="45.00339" lon="5.53361">
        <ele>1560.36</ele>
        <time>2014-10-04T07:25:13Z</time>
      </trkpt>
      <trkpt lat="45.00339" lon="5.53365">
        <ele>1562.76</ele>
        <time>2014-10-04T07:25:25Z</time>
      </trkpt>
      <trkpt lat="45.0034" lon="5.53368">
        <ele>1565.16</ele>
        <time>2014-10-04T07:25:38Z</time>
      </trkpt>
      <trkpt lat="45.00345" lon="5.53376">
        <ele>1567.09</ele>
        <time>2014-10-04T07:25:49Z</time>
      </trkpt>
      <trkpt lat="45.00339" lon="5.53376">
        <ele>1569.49</ele>
        <time>2014-10-04T07:26:04Z</time>
      </trkpt>
      <trkpt lat="45.00333" lon="5.53376">
        <ele>1572.85</ele>
        <time>2014-10-04T07:26:18Z</time>
      </trkpt>
      <trkpt lat="45.00331" lon="5.53377">
        <ele>1575.74</ele>
        <time>2014-10-04T07:26:32Z</time>
      </trkpt>
      <trkpt lat="45.00332" lon="5.53376">
        <ele>1578.14</ele>
        <time>2014-10-04T07:26:44Z</time>
      </trkpt>
      <trkpt lat="45.00332" lon="5.53376">
        <ele>1579.1</ele>
        <time>2014-10-04T07:26:52Z</time>
      </trkpt>
      <trkpt lat="45.00331" lon="5.53377">
        <ele>1579.1</ele>
        <time>2014-10-04T07:26:54Z</time>
      </trkpt>
      <trkpt lat="45.00324" lon="5.53378">
        <ele>1582.47</ele>
        <time>2014-10-04T07:27:08Z</time>
      </trkpt>
      <trkpt lat="45.00322" lon="5.53373">
        <ele>1584.87</ele>
        <time>2014-10-04T07:27:22Z</time>
      </trkpt>
      <trkpt lat="45.00315" lon="5.53369">
        <ele>1586.79</ele>
        <time>2014-10-04T07:27:33Z</time>
      </trkpt>
      <trkpt lat="45.00308" lon="5.53366">
        <ele>1589.68</ele>
        <time>2014-10-04T07:27:47Z</time>
      </trkpt>
      <trkpt lat="45.00307" lon="5.53366">
        <ele>1590.16</ele>
        <time>2014-10-04T07:27:48Z</time>
      </trkpt>
      <trkpt lat="45.00297" lon="5.53367">
        <ele>1592.08</ele>
        <time>2014-10-04T07:28:01Z</time>
      </trkpt>
      <trkpt lat="45.00296" lon="5.53369">
        <ele>1594.48</ele>
        <time>2014-10-04T07:28:18Z</time>
      </trkpt>
      <trkpt lat="45.0029" lon="5.53367">
        <ele>1596.89</ele>
        <time>2014-10-04T07:28:31Z</time>
      </trkpt>
      <trkpt lat="45.00289" lon="5.53364">
        <ele>1599.77</ele>
        <time>2014-10-04T07:28:46Z</time>
      </trkpt>
      <trkpt lat="45.0029" lon="5.53367">
        <ele>1602.66</ele>
        <time>2014-10-04T07:29:00Z</time>
      </trkpt>
      <trkpt lat="45.00288" lon="5.53369">
        <ele>1605.54</ele>
        <time>2014-10-04T07:29:14Z</time>
      </trkpt>
      <trkpt lat="45.00285" lon="5.53374">
        <ele>1607.46</ele>
        <time>2014-10-04T07:29:27Z</time>
      </trkpt>
      <trkpt lat="45.00276" lon="5.53384">
        <ele>1609.86</ele>
        <time>2014-10-04T07:29:44Z</time>
      </trkpt>
      <trkpt lat="45.00274" lon="5.53395">
        <ele>1612.75</ele>
        <time>2014-10-04T07:29:58Z</time>
      </trkpt>
      <trkpt lat="45.00271" lon="5.53401">
        <ele>1613.23</ele>
        <time>2014-10-04T07:30:01Z</time>
      </trkpt>
      <trkpt lat="45.00271" lon="5.5341">
        <ele>1615.15</ele>
        <time>2014-10-04T07:30:14Z</time>
      </trkpt>
      <trkpt lat="45.00264" lon="5.53412">
        <ele>1618.52</ele>
        <time>2014-10-04T07:30:28Z</time>
      </trkpt>
      <trkpt lat="45.00262" lon="5.53418">
        <ele>1620.44</ele>
        <time>2014-10-04T07:30:37Z</time>
      </trkpt>
      <trkpt lat="45.00258" lon="5.53432">
        <ele>1622.84</ele>
        <time>2014-10-04T07:30:50Z</time>
      </trkpt>
      <trkpt lat="45.00258" lon="5.53437">
        <ele>1623.8</ele>
        <time>2014-10-04T07:30:54Z</time>
      </trkpt>
      <trkpt lat="45.00257" lon="5.53441">
        <ele>1624.77</ele>
        <time>2014-10-04T07:31:09Z</time>
      </trkpt>
      <trkpt lat="45.00256" lon="5.53445">
        <ele>1625.73</ele>
        <time>2014-10-04T07:31:13Z</time>
      </trkpt>
      <trkpt lat="45.00258" lon="5.5345">
        <ele>1626.21</ele>
        <time>2014-10-04T07:31:27Z</time>
      </trkpt>
      <trkpt lat="45.00258" lon="5.5345">
        <ele>1626.21</ele>
        <time>2014-10-04T07:31:53Z</time>
      </trkpt>
      <trkpt lat="45.00257" lon="5.5345">
        <ele>1627.65</ele>
        <time>2014-10-04T07:32:12Z</time>
      </trkpt>
      <trkpt lat="45.00254" lon="5.53452">
        <ele>1630.05</ele>
        <time>2014-10-04T07:32:23Z</time>
      </trkpt>
      <trkpt lat="45.00258" lon="5.53457">
        <ele>1631.01</ele>
        <time>2014-10-04T07:32:28Z</time>
      </trkpt>
      <trkpt lat="45.00256" lon="5.53465">
        <ele>1632.94</ele>
        <time>2014-10-04T07:32:38Z</time>
      </trkpt>
      <trkpt lat="45.00256" lon="5.53468">
        <ele>1634.38</ele>
        <time>2014-10-04T07:32:45Z</time>
      </trkpt>
      <trkpt lat="45.00257" lon="5.53471">
        <ele>1634.86</ele>
        <time>2014-10-04T07:32:47Z</time>
      </trkpt>
      <trkpt lat="45.00257" lon="5.53476">
        <ele>1635.34</ele>
        <time>2014-10-04T07:32:50Z</time>
      </trkpt>
      <trkpt lat="45.00259" lon="5.53492">
        <ele>1638.7</ele>
        <time>2014-10-04T07:33:03Z</time>
      </trkpt>
      <trkpt lat="45.00261" lon="5.53501">
        <ele>1640.15</ele>
        <time>2014-10-04T07:33:14Z</time>
      </trkpt>
      <trkpt lat="45.00263" lon="5.53509">
        <ele>1642.55</ele>
        <time>2014-10-04T07:33:26Z</time>
      </trkpt>
      <trkpt lat="45.00264" lon="5.53516">
        <ele>1645.43</ele>
        <time>2014-10-04T07:33:37Z</time>
      </trkpt>
      <trkpt lat="45.00266" lon="5.53524">
        <ele>1647.36</ele>
        <time>2014-10-04T07:33:47Z</time>
      </trkpt>
      <trkpt lat="45.00265" lon="5.53534">
        <ele>1649.28</ele>
        <time>2014-10-04T07:33:58Z</time>
      </trkpt>
      <trkpt lat="45.00263" lon="5.5354">
        <ele>1651.68</ele>
        <time>2014-10-04T07:34:10Z</time>
      </trkpt>
      <trkpt lat="45.0026" lon="5.5354">
        <ele>1652.64</ele>
        <time>2014-10-04T07:34:25Z</time>
      </trkpt>
      <trkpt lat="45.00259" lon="5.53545">
        <ele>1653.6</ele>
        <time>2014-10-04T07:34:39Z</time>
      </trkpt>
      <trkpt lat="45.00259" lon="5.53556">
        <ele>1656.01</ele>
        <time>2014-10-04T07:34:50Z</time>
      </trkpt>
      <trkpt lat="45.00257" lon="5.53564">
        <ele>1658.41</ele>
        <time>2014-10-04T07:35:01Z</time>
      </trkpt>
      <trkpt lat="45.00258" lon="5.53573">
        <ele>1661.3</ele>
        <time>2014-10-04T07:35:11Z</time>
      </trkpt>
      <trkpt lat="45.00258" lon="5.53577">
        <ele>1662.26</ele>
        <time>2014-10-04T07:35:21Z</time>
      </trkpt>
      <trkpt lat="45.00258" lon="5.5358">
        <ele>1665.62</ele>
        <time>2014-10-04T07:35:32Z</time>
      </trkpt>
      <trkpt lat="45.0026" lon="5.53587">
        <ele>1668.02</ele>
        <time>2014-10-04T07:35:44Z</time>
      </trkpt>
      <trkpt lat="45.00264" lon="5.53597">
        <ele>1670.43</ele>
        <time>2014-10-04T07:35:56Z</time>
      </trkpt>
      <trkpt lat="45.00266" lon="5.53609">
        <ele>1671.87</ele>
        <time>2014-10-04T07:36:06Z</time>
      </trkpt>
      <trkpt lat="45.0027" lon="5.53621">
        <ele>1674.27</ele>
        <time>2014-10-04T07:36:18Z</time>
      </trkpt>
      <trkpt lat="45.00274" lon="5.5363">
        <ele>1676.2</ele>
        <time>2014-10-04T07:36:29Z</time>
      </trkpt>
      <trkpt lat="45.00277" lon="5.53636">
        <ele>1679.08</ele>
        <time>2014-10-04T07:36:39Z</time>
      </trkpt>
      <trkpt lat="45.00283" lon="5.53647">
        <ele>1681</ele>
        <time>2014-10-04T07:36:51Z</time>
      </trkpt>
      <trkpt lat="45.00286" lon="5.53653">
        <ele>1682.93</ele>
        <time>2014-10-04T07:36:57Z</time>
      </trkpt>
      <trkpt lat="45.0029" lon="5.53663">
        <ele>1684.85</ele>
        <time>2014-10-04T07:37:11Z</time>
      </trkpt>
      <trkpt lat="45.00296" lon="5.5367">
        <ele>1688.21</ele>
        <time>2014-10-04T07:37:23Z</time>
      </trkpt>
      <trkpt lat="45.00299" lon="5.5368">
        <ele>1690.14</ele>
        <time>2014-10-04T07:37:34Z</time>
      </trkpt>
      <trkpt lat="45.00302" lon="5.53682">
        <ele>1691.1</ele>
        <time>2014-10-04T07:37:48Z</time>
      </trkpt>
      <trkpt lat="45.00308" lon="5.53691">
        <ele>1693.5</ele>
        <time>2014-10-04T07:37:59Z</time>
      </trkpt>
      <trkpt lat="45.0031" lon="5.53694">
        <ele>1693.98</ele>
        <time>2014-10-04T07:38:04Z</time>
      </trkpt>
      <trkpt lat="45.00314" lon="5.53699">
        <ele>1695.9</ele>
        <time>2014-10-04T07:38:11Z</time>
      </trkpt>
      <trkpt lat="45.00317" lon="5.53706">
        <ele>1697.34</ele>
        <time>2014-10-04T07:38:19Z</time>
      </trkpt>
      <trkpt lat="45.00322" lon="5.53711">
        <ele>1700.23</ele>
        <time>2014-10-04T07:38:32Z</time>
      </trkpt>
      <trkpt lat="45.00325" lon="5.53715">
        <ele>1701.67</ele>
        <time>2014-10-04T07:38:41Z</time>
      </trkpt>
      <trkpt lat="45.0033" lon="5.53724">
        <ele>1704.07</ele>
        <time>2014-10-04T07:38:53Z</time>
      </trkpt>
      <trkpt lat="45.00333" lon="5.53732">
        <ele>1706.96</ele>
        <time>2014-10-04T07:39:06Z</time>
      </trkpt>
      <trkpt lat="45.00336" lon="5.53737">
        <ele>1708.88</ele>
        <time>2014-10-04T07:39:18Z</time>
      </trkpt>
      <trkpt lat="45.00338" lon="5.53741">
        <ele>1710.8</ele>
        <time>2014-10-04T07:39:32Z</time>
      </trkpt>
      <trkpt lat="45.00339" lon="5.5375">
        <ele>1713.21</ele>
        <time>2014-10-04T07:39:42Z</time>
      </trkpt>
      <trkpt lat="45.00344" lon="5.53755">
        <ele>1716.09</ele>
        <time>2014-10-04T07:39:54Z</time>
      </trkpt>
      <trkpt lat="45.00349" lon="5.53765">
        <ele>1719.46</ele>
        <time>2014-10-04T07:40:06Z</time>
      </trkpt>
      <trkpt lat="45.00351" lon="5.53767">
        <ele>1719.46</ele>
        <time>2014-10-04T07:40:10Z</time>
      </trkpt>
      <trkpt lat="45.00356" lon="5.53778">
        <ele>1722.34</ele>
        <time>2014-10-04T07:40:23Z</time>
      </trkpt>
      <trkpt lat="45.0036" lon="5.53786">
        <ele>1725.22</ele>
        <time>2014-10-04T07:40:35Z</time>
      </trkpt>
      <trkpt lat="45.00361" lon="5.53787">
        <ele>1724.74</ele>
        <time>2014-10-04T07:40:36Z</time>
      </trkpt>
      <trkpt lat="45.00367" lon="5.53796">
        <ele>1727.63</ele>
        <time>2014-10-04T07:40:48Z</time>
      </trkpt>
      <trkpt lat="45.00373" lon="5.53806">
        <ele>1730.03</ele>
        <time>2014-10-04T07:41:01Z</time>
      </trkpt>
      <trkpt lat="45.00374" lon="5.53809">
        <ele>1730.03</ele>
        <time>2014-10-04T07:41:04Z</time>
      </trkpt>
      <trkpt lat="45.00381" lon="5.53821">
        <ele>1732.43</ele>
        <time>2014-10-04T07:41:17Z</time>
      </trkpt>
      <trkpt lat="45.00386" lon="5.53832">
        <ele>1734.36</ele>
        <time>2014-10-04T07:41:29Z</time>
      </trkpt>
      <trkpt lat="45.00388" lon="5.53837">
        <ele>1735.32</ele>
        <time>2014-10-04T07:41:34Z</time>
      </trkpt>
      <trkpt lat="45.00393" lon="5.53846">
        <ele>1738.2</ele>
        <time>2014-10-04T07:41:45Z</time>
      </trkpt>
      <trkpt lat="45.00395" lon="5.53849">
        <ele>1738.68</ele>
        <time>2014-10-04T07:41:49Z</time>
      </trkpt>
      <trkpt lat="45.00403" lon="5.53862">
        <ele>1741.57</ele>
        <time>2014-10-04T07:42:03Z</time>
      </trkpt>
      <trkpt lat="45.00407" lon="5.53872">
        <ele>1743.49</ele>
        <time>2014-10-04T07:42:14Z</time>
      </trkpt>
      <trkpt lat="45.00411" lon="5.53879">
        <ele>1744.93</ele>
        <time>2014-10-04T07:42:21Z</time>
      </trkpt>
      <trkpt lat="45.00416" lon="5.53891">
        <ele>1747.33</ele>
        <time>2014-10-04T07:42:33Z</time>
      </trkpt>
      <trkpt lat="45.00417" lon="5.539">
        <ele>1748.78</ele>
        <time>2014-10-04T07:42:41Z</time>
      </trkpt>
      <trkpt lat="45.00423" lon="5.53917">
        <ele>1751.18</ele>
        <time>2014-10-04T07:42:54Z</time>
      </trkpt>
      <trkpt lat="45.00429" lon="5.53929">
        <ele>1753.58</ele>
        <time>2014-10-04T07:43:06Z</time>
      </trkpt>
      <trkpt lat="45.00435" lon="5.53942">
        <ele>1755.99</ele>
        <time>2014-10-04T07:43:19Z</time>
      </trkpt>
      <trkpt lat="45.00438" lon="5.53951">
        <ele>1756.95</ele>
        <time>2014-10-04T07:43:26Z</time>
      </trkpt>
      <trkpt lat="45.00444" lon="5.53965">
        <ele>1758.39</ele>
        <time>2014-10-04T07:43:38Z</time>
      </trkpt>
      <trkpt lat="45.00449" lon="5.5397">
        <ele>1759.83</ele>
        <time>2014-10-04T07:43:45Z</time>
      </trkpt>
      <trkpt lat="45.0045" lon="5.53972">
        <ele>1760.31</ele>
        <time>2014-10-04T07:43:47Z</time>
      </trkpt>
      <trkpt lat="45.00454" lon="5.53974">
        <ele>1760.31</ele>
        <time>2014-10-04T07:43:51Z</time>
      </trkpt>
      <trkpt lat="45.00459" lon="5.53987">
        <ele>1762.71</ele>
        <time>2014-10-04T07:44:03Z</time>
      </trkpt>
      <trkpt lat="45.00461" lon="5.53993">
        <ele>1763.68</ele>
        <time>2014-10-04T07:44:07Z</time>
      </trkpt>
      <trkpt lat="45.00467" lon="5.54006">
        <ele>1764.64</ele>
        <time>2014-10-04T07:44:19Z</time>
      </trkpt>
      <trkpt lat="45.00468" lon="5.54014">
        <ele>1765.6</ele>
        <time>2014-10-04T07:44:24Z</time>
      </trkpt>
      <trkpt lat="45.0047" lon="5.54019">
        <ele>1766.08</ele>
        <time>2014-10-04T07:44:28Z</time>
      </trkpt>
      <trkpt lat="45.0047" lon="5.54022">
        <ele>1766.08</ele>
        <time>2014-10-04T07:44:30Z</time>
      </trkpt>
      <trkpt lat="45.00474" lon="5.54032">
        <ele>1767.04</ele>
        <time>2014-10-04T07:44:38Z</time>
      </trkpt>
      <trkpt lat="45.0048" lon="5.54051">
        <ele>1769.44</ele>
        <time>2014-10-04T07:44:52Z</time>
      </trkpt>
      <trkpt lat="45.00482" lon="5.54062">
        <ele>1772.33</ele>
        <time>2014-10-04T07:45:03Z</time>
      </trkpt>
      <trkpt lat="45.00481" lon="5.54066">
        <ele>1773.29</ele>
        <time>2014-10-04T07:45:08Z</time>
      </trkpt>
      <trkpt lat="45.0048" lon="5.54068">
        <ele>1773.77</ele>
        <time>2014-10-04T07:45:10Z</time>
      </trkpt>
      <trkpt lat="45.00474" lon="5.54071">
        <ele>1774.25</ele>
        <time>2014-10-04T07:45:22Z</time>
      </trkpt>
      <trkpt lat="45.00474" lon="5.54071">
        <ele>1774.73</ele>
        <time>2014-10-04T07:45:41Z</time>
      </trkpt>
      <trkpt lat="45.00474" lon="5.54071">
        <ele>1774.73</ele>
        <time>2014-10-04T07:46:02Z</time>
      </trkpt>
      <trkpt lat="45.00474" lon="5.54071">
        <ele>1774.73</ele>
        <time>2014-10-04T07:46:16Z</time>
      </trkpt>
      <trkpt lat="45.0048" lon="5.54068">
        <ele>1773.29</ele>
        <time>2014-10-04T07:46:27Z</time>
      </trkpt>
      <trkpt lat="45.00481" lon="5.54068">
        <ele>1773.77</ele>
        <time>2014-10-04T07:46:40Z</time>
      </trkpt>
      <trkpt lat="45.00459" lon="5.54058">
        <ele>1778.1</ele>
        <time>2014-10-04T08:06:25Z</time>
      </trkpt>
      <trkpt lat="45.00458" lon="5.54058">
        <ele>1778.1</ele>
        <time>2014-10-04T08:06:26Z</time>
      </trkpt>
      <trkpt lat="45.00456" lon="5.54058">
        <ele>1779.06</ele>
        <time>2014-10-04T08:06:31Z</time>
      </trkpt>
      <trkpt lat="45.00452" lon="5.54052">
        <ele>1782.9</ele>
        <time>2014-10-04T08:06:37Z</time>
      </trkpt>
      <trkpt lat="45.00451" lon="5.54051">
        <ele>1783.86</ele>
        <time>2014-10-04T08:06:39Z</time>
      </trkpt>
      <trkpt lat="45.00447" lon="5.5405">
        <ele>1787.23</ele>
        <time>2014-10-04T08:06:44Z</time>
      </trkpt>
      <trkpt lat="45.00447" lon="5.54049">
        <ele>1787.23</ele>
        <time>2014-10-04T08:06:45Z</time>
      </trkpt>
      <trkpt lat="45.00445" lon="5.54048">
        <ele>1788.19</ele>
        <time>2014-10-04T08:06:47Z</time>
      </trkpt>
      <trkpt lat="45.00444" lon="5.54047">
        <ele>1789.63</ele>
        <time>2014-10-04T08:06:50Z</time>
      </trkpt>
      <trkpt lat="45.00442" lon="5.54046">
        <ele>1791.07</ele>
        <time>2014-10-04T08:06:53Z</time>
      </trkpt>
      <trkpt lat="45.0044" lon="5.54046">
        <ele>1792.52</ele>
        <time>2014-10-04T08:06:56Z</time>
      </trkpt>
      <trkpt lat="45.00435" lon="5.54043">
        <ele>1794.44</ele>
        <time>2014-10-04T08:07:02Z</time>
      </trkpt>
      <trkpt lat="45.00432" lon="5.54042">
        <ele>1794.92</ele>
        <time>2014-10-04T08:07:05Z</time>
      </trkpt>
      <trkpt lat="45.0043" lon="5.54043">
        <ele>1795.88</ele>
        <time>2014-10-04T08:07:08Z</time>
      </trkpt>
      <trkpt lat="45.00426" lon="5.54042">
        <ele>1798.28</ele>
        <time>2014-10-04T08:07:14Z</time>
      </trkpt>
      <trkpt lat="45.00424" lon="5.5404">
        <ele>1798.76</ele>
        <time>2014-10-04T08:07:17Z</time>
      </trkpt>
      <trkpt lat="45.00418" lon="5.54037">
        <ele>1801.17</ele>
        <time>2014-10-04T08:07:26Z</time>
      </trkpt>
      <trkpt lat="45.00416" lon="5.54033">
        <ele>1802.61</ele>
        <time>2014-10-04T08:07:31Z</time>
      </trkpt>
      <trkpt lat="45.00414" lon="5.54033">
        <ele>1803.09</ele>
        <time>2014-10-04T08:07:33Z</time>
      </trkpt>
      <trkpt lat="45.00413" lon="5.54031">
        <ele>1804.05</ele>
        <time>2014-10-04T08:07:36Z</time>
      </trkpt>
      <trkpt lat="45.00407" lon="5.54027">
        <ele>1805.97</ele>
        <time>2014-10-04T08:07:45Z</time>
      </trkpt>
      <trkpt lat="45.00402" lon="5.54027">
        <ele>1807.9</ele>
        <time>2014-10-04T08:07:54Z</time>
      </trkpt>
      <trkpt lat="45.00401" lon="5.54028">
        <ele>1807.9</ele>
        <time>2014-10-04T08:07:56Z</time>
      </trkpt>
      <trkpt lat="45.00397" lon="5.5402">
        <ele>1809.34</ele>
        <time>2014-10-04T08:08:05Z</time>
      </trkpt>
      <trkpt lat="45.00393" lon="5.54019">
        <ele>1810.3</ele>
        <time>2014-10-04T08:08:12Z</time>
      </trkpt>
      <trkpt lat="45.0039" lon="5.54018">
        <ele>1811.26</ele>
        <time>2014-10-04T08:08:17Z</time>
      </trkpt>
      <trkpt lat="45.00387" lon="5.54017">
        <ele>1812.22</ele>
        <time>2014-10-04T08:08:22Z</time>
      </trkpt>
      <trkpt lat="45.00385" lon="5.54014">
        <ele>1814.15</ele>
        <time>2014-10-04T08:08:30Z</time>
      </trkpt>
      <trkpt lat="45.00383" lon="5.54014">
        <ele>1814.63</ele>
        <time>2014-10-04T08:08:35Z</time>
      </trkpt>
      <trkpt lat="45.00378" lon="5.54013">
        <ele>1816.07</ele>
        <time>2014-10-04T08:08:43Z</time>
      </trkpt>
      <trkpt lat="45.00373" lon="5.54009">
        <ele>1817.99</ele>
        <time>2014-10-04T08:08:52Z</time>
      </trkpt>
      <trkpt lat="45.00371" lon="5.54009">
        <ele>1818.47</ele>
        <time>2014-10-04T08:08:54Z</time>
      </trkpt>
      <trkpt lat="45.0037" lon="5.54009">
        <ele>1818.95</ele>
        <time>2014-10-04T08:08:56Z</time>
      </trkpt>
      <trkpt lat="45.00367" lon="5.5401">
        <ele>1819.91</ele>
        <time>2014-10-04T08:08:59Z</time>
      </trkpt>
      <trkpt lat="45.00364" lon="5.5401">
        <ele>1821.35</ele>
        <time>2014-10-04T08:09:07Z</time>
      </trkpt>
      <trkpt lat="45.00362" lon="5.5401">
        <ele>1821.84</ele>
        <time>2014-10-04T08:09:09Z</time>
      </trkpt>
      <trkpt lat="45.00357" lon="5.54011">
        <ele>1823.76</ele>
        <time>2014-10-04T08:09:16Z</time>
      </trkpt>
      <trkpt lat="45.00356" lon="5.54011">
        <ele>1824.24</ele>
        <time>2014-10-04T08:09:19Z</time>
      </trkpt>
      <trkpt lat="45.00354" lon="5.54014">
        <ele>1825.2</ele>
        <time>2014-10-04T08:09:23Z</time>
      </trkpt>
      <trkpt lat="45.00349" lon="5.54016">
        <ele>1826.64</ele>
        <time>2014-10-04T08:09:31Z</time>
      </trkpt>
      <trkpt lat="45.00347" lon="5.54017">
        <ele>1827.12</ele>
        <time>2014-10-04T08:09:34Z</time>
      </trkpt>
      <trkpt lat="45.00343" lon="5.54019">
        <ele>1829.05</ele>
        <time>2014-10-04T08:09:42Z</time>
      </trkpt>
      <trkpt lat="45.00339" lon="5.54022">
        <ele>1830.49</ele>
        <time>2014-10-04T08:09:49Z</time>
      </trkpt>
      <trkpt lat="45.00337" lon="5.54024">
        <ele>1830.49</ele>
        <time>2014-10-04T08:09:51Z</time>
      </trkpt>
      <trkpt lat="45.00336" lon="5.54026">
        <ele>1830.97</ele>
        <time>2014-10-04T08:09:54Z</time>
      </trkpt>
      <trkpt lat="45.00333" lon="5.54027">
        <ele>1831.45</ele>
        <time>2014-10-04T08:09:57Z</time>
      </trkpt>
      <trkpt lat="45.00331" lon="5.5403">
        <ele>1831.93</ele>
        <time>2014-10-04T08:10:00Z</time>
      </trkpt>
      <trkpt lat="45.00327" lon="5.54031">
        <ele>1832.41</ele>
        <time>2014-10-04T08:10:04Z</time>
      </trkpt>
      <trkpt lat="45.0032" lon="5.5403">
        <ele>1832.41</ele>
        <time>2014-10-04T08:10:11Z</time>
      </trkpt>
      <trkpt lat="45.00308" lon="5.54031">
        <ele>1832.41</ele>
        <time>2014-10-04T08:10:21Z</time>
      </trkpt>
      <trkpt lat="45.00302" lon="5.54029">
        <ele>1832.89</ele>
        <time>2014-10-04T08:10:27Z</time>
      </trkpt>
      <trkpt lat="45.00299" lon="5.54029">
        <ele>1832.89</ele>
        <time>2014-10-04T08:10:31Z</time>
      </trkpt>
      <trkpt lat="45.00293" lon="5.54026">
        <ele>1833.37</ele>
        <time>2014-10-04T08:10:36Z</time>
      </trkpt>
      <trkpt lat="45.00289" lon="5.54024">
        <ele>1832.41</ele>
        <time>2014-10-04T08:10:41Z</time>
      </trkpt>
      <trkpt lat="45.0029" lon="5.54016">
        <ele>1832.89</ele>
        <time>2014-10-04T08:10:52Z</time>
      </trkpt>
      <trkpt lat="45.00291" lon="5.54015">
        <ele>1832.89</ele>
        <time>2014-10-04T08:11:01Z</time>
      </trkpt>
      <trkpt lat="45.00288" lon="5.54019">
        <ele>1832.89</ele>
        <time>2014-10-04T08:11:04Z</time>
      </trkpt>
      <trkpt lat="45.00288" lon="5.54024">
        <ele>1832.89</ele>
        <time>2014-10-04T08:11:08Z</time>
      </trkpt>
      <trkpt lat="45.00301" lon="5.54035">
        <ele>1832.89</ele>
        <time>2014-10-04T08:11:20Z</time>
      </trkpt>
      <trkpt lat="45.00306" lon="5.54035">
        <ele>1832.41</ele>
        <time>2014-10-04T08:11:24Z</time>
      </trkpt>
      <trkpt lat="45.00308" lon="5.54035">
        <ele>1832.41</ele>
        <time>2014-10-04T08:11:26Z</time>
      </trkpt>
      <trkpt lat="45.00313" lon="5.54042">
        <ele>1831.45</ele>
        <time>2014-10-04T08:11:38Z</time>
      </trkpt>
      <trkpt lat="45.00313" lon="5.54042">
        <ele>1831.45</ele>
        <time>2014-10-04T08:11:56Z</time>
      </trkpt>
      <trkpt lat="45.00314" lon="5.54043">
        <ele>1830.97</ele>
        <time>2014-10-04T08:12:21Z</time>
      </trkpt>
      <trkpt lat="45.00315" lon="5.54047">
        <ele>1830.49</ele>
        <time>2014-10-04T08:12:24Z</time>
      </trkpt>
      <trkpt lat="45.00316" lon="5.54052">
        <ele>1830.49</ele>
        <time>2014-10-04T08:12:27Z</time>
      </trkpt>
      <trkpt lat="45.00313" lon="5.54061">
        <ele>1829.05</ele>
        <time>2014-10-04T08:12:35Z</time>
      </trkpt>
      <trkpt lat="45.00311" lon="5.54069">
        <ele>1827.6</ele>
        <time>2014-10-04T08:12:41Z</time>
      </trkpt>
      <trkpt lat="45.0031" lon="5.54072">
        <ele>1827.12</ele>
        <time>2014-10-04T08:12:43Z</time>
      </trkpt>
      <trkpt lat="45.00309" lon="5.54075">
        <ele>1827.12</ele>
        <time>2014-10-04T08:12:45Z</time>
      </trkpt>
      <trkpt lat="45.00305" lon="5.54081">
        <ele>1826.64</ele>
        <time>2014-10-04T08:12:51Z</time>
      </trkpt>
      <trkpt lat="45.00301" lon="5.54091">
        <ele>1827.12</ele>
        <time>2014-10-04T08:12:58Z</time>
      </trkpt>
      <trkpt lat="45.00299" lon="5.54096">
        <ele>1827.12</ele>
        <time>2014-10-04T08:13:01Z</time>
      </trkpt>
      <trkpt lat="45.00292" lon="5.54119">
        <ele>1825.68</ele>
        <time>2014-10-04T08:13:13Z</time>
      </trkpt>
      <trkpt lat="45.00282" lon="5.54127">
        <ele>1825.2</ele>
        <time>2014-10-04T08:13:25Z</time>
      </trkpt>
      <trkpt lat="45.00277" lon="5.54131">
        <ele>1825.68</ele>
        <time>2014-10-04T08:13:30Z</time>
      </trkpt>
      <trkpt lat="45.00274" lon="5.54136">
        <ele>1826.64</ele>
        <time>2014-10-04T08:13:34Z</time>
      </trkpt>
      <trkpt lat="45.00272" lon="5.54141">
        <ele>1827.6</ele>
        <time>2014-10-04T08:13:38Z</time>
      </trkpt>
      <trkpt lat="45.00271" lon="5.54144">
        <ele>1828.56</ele>
        <time>2014-10-04T08:13:41Z</time>
      </trkpt>
      <trkpt lat="45.0027" lon="5.54147">
        <ele>1829.53</ele>
        <time>2014-10-04T08:13:45Z</time>
      </trkpt>
      <trkpt lat="45.00266" lon="5.54153">
        <ele>1830.97</ele>
        <time>2014-10-04T08:13:51Z</time>
      </trkpt>
      <trkpt lat="45.00264" lon="5.54155">
        <ele>1831.45</ele>
        <time>2014-10-04T08:13:55Z</time>
      </trkpt>
      <trkpt lat="45.0026" lon="5.54162">
        <ele>1832.89</ele>
        <time>2014-10-04T08:14:03Z</time>
      </trkpt>
      <trkpt lat="45.00257" lon="5.54168">
        <ele>1833.37</ele>
        <time>2014-10-04T08:14:08Z</time>
      </trkpt>
      <trkpt lat="45.00252" lon="5.5418">
        <ele>1834.33</ele>
        <time>2014-10-04T08:14:16Z</time>
      </trkpt>
      <trkpt lat="45.0025" lon="5.54187">
        <ele>1835.77</ele>
        <time>2014-10-04T08:14:21Z</time>
      </trkpt>
      <trkpt lat="45.00249" lon="5.54192">
        <ele>1835.77</ele>
        <time>2014-10-04T08:14:25Z</time>
      </trkpt>
      <trkpt lat="45.00249" lon="5.54196">
        <ele>1836.26</ele>
        <time>2014-10-04T08:14:28Z</time>
      </trkpt>
      <trkpt lat="45.00249" lon="5.54207">
        <ele>1836.26</ele>
        <time>2014-10-04T08:14:39Z</time>
      </trkpt>
      <trkpt lat="45.00248" lon="5.54217">
        <ele>1833.85</ele>
        <time>2014-10-04T08:14:48Z</time>
      </trkpt>
      <trkpt lat="45.00246" lon="5.54225">
        <ele>1833.37</ele>
        <time>2014-10-04T08:14:55Z</time>
      </trkpt>
      <trkpt lat="45.00241" lon="5.54234">
        <ele>1832.41</ele>
        <time>2014-10-04T08:15:03Z</time>
      </trkpt>
      <trkpt lat="45.00237" lon="5.54241">
        <ele>1831.45</ele>
        <time>2014-10-04T08:15:09Z</time>
      </trkpt>
      <trkpt lat="45.00236" lon="5.54243">
        <ele>1830.97</ele>
        <time>2014-10-04T08:15:10Z</time>
      </trkpt>
      <trkpt lat="45.00229" lon="5.54251">
        <ele>1830.01</ele>
        <time>2014-10-04T08:15:18Z</time>
      </trkpt>
      <trkpt lat="45.00228" lon="5.54253">
        <ele>1829.53</ele>
        <time>2014-10-04T08:15:20Z</time>
      </trkpt>
      <trkpt lat="45.00223" lon="5.54263">
        <ele>1828.56</ele>
        <time>2014-10-04T08:15:29Z</time>
      </trkpt>
      <trkpt lat="45.00221" lon="5.54265">
        <ele>1827.6</ele>
        <time>2014-10-04T08:15:34Z</time>
      </trkpt>
      <trkpt lat="45.00216" lon="5.54274">
        <ele>1825.2</ele>
        <time>2014-10-04T08:15:43Z</time>
      </trkpt>
      <trkpt lat="45.00211" lon="5.5428">
        <ele>1824.24</ele>
        <time>2014-10-04T08:15:47Z</time>
      </trkpt>
      <trkpt lat="45.0021" lon="5.5428">
        <ele>1824.24</ele>
        <time>2014-10-04T08:15:49Z</time>
      </trkpt>
      <trkpt lat="45.00209" lon="5.54282">
        <ele>1824.24</ele>
        <time>2014-10-04T08:15:51Z</time>
      </trkpt>
      <trkpt lat="45.00202" lon="5.54292">
        <ele>1824.24</ele>
        <time>2014-10-04T08:16:00Z</time>
      </trkpt>
      <trkpt lat="45.00202" lon="5.54295">
        <ele>1824.24</ele>
        <time>2014-10-04T08:16:03Z</time>
      </trkpt>
      <trkpt lat="45.00195" lon="5.54303">
        <ele>1824.24</ele>
        <time>2014-10-04T08:16:13Z</time>
      </trkpt>
      <trkpt lat="45.00194" lon="5.54304">
        <ele>1824.24</ele>
        <time>2014-10-04T08:16:14Z</time>
      </trkpt>
      <trkpt lat="45.0019" lon="5.54311">
        <ele>1824.24</ele>
        <time>2014-10-04T08:16:19Z</time>
      </trkpt>
      <trkpt lat="45.00177" lon="5.54321">
        <ele>1825.2</ele>
        <time>2014-10-04T08:16:30Z</time>
      </trkpt>
      <trkpt lat="45.00168" lon="5.54331">
        <ele>1826.16</ele>
        <time>2014-10-04T08:16:40Z</time>
      </trkpt>
      <trkpt lat="45.00166" lon="5.54334">
        <ele>1826.64</ele>
        <time>2014-10-04T08:16:43Z</time>
      </trkpt>
      <trkpt lat="45.00157" lon="5.54341">
        <ele>1826.64</ele>
        <time>2014-10-04T08:16:52Z</time>
      </trkpt>
      <trkpt lat="45.00154" lon="5.54353">
        <ele>1827.12</ele>
        <time>2014-10-04T08:16:59Z</time>
      </trkpt>
      <trkpt lat="45.00154" lon="5.54354">
        <ele>1827.12</ele>
        <time>2014-10-04T08:17:01Z</time>
      </trkpt>
      <trkpt lat="45.00152" lon="5.54357">
        <ele>1827.6</ele>
        <time>2014-10-04T08:17:04Z</time>
      </trkpt>
      <trkpt lat="45.00151" lon="5.54362">
        <ele>1828.08</ele>
        <time>2014-10-04T08:17:07Z</time>
      </trkpt>
      <trkpt lat="45.00149" lon="5.54364">
        <ele>1829.05</ele>
        <time>2014-10-04T08:17:11Z</time>
      </trkpt>
      <trkpt lat="45.00146" lon="5.54367">
        <ele>1829.53</ele>
        <time>2014-10-04T08:17:15Z</time>
      </trkpt>
      <trkpt lat="45.00144" lon="5.54372">
        <ele>1829.53</ele>
        <time>2014-10-04T08:17:18Z</time>
      </trkpt>
      <trkpt lat="45.0014" lon="5.54381">
        <ele>1830.97</ele>
        <time>2014-10-04T08:17:27Z</time>
      </trkpt>
      <trkpt lat="45.00137" lon="5.54387">
        <ele>1831.45</ele>
        <time>2014-10-04T08:17:31Z</time>
      </trkpt>
      <trkpt lat="45.00136" lon="5.54389">
        <ele>1831.45</ele>
        <time>2014-10-04T08:17:33Z</time>
      </trkpt>
      <trkpt lat="45.00134" lon="5.54394">
        <ele>1831.93</ele>
        <time>2014-10-04T08:17:36Z</time>
      </trkpt>
      <trkpt lat="45.00133" lon="5.54401">
        <ele>1832.89</ele>
        <time>2014-10-04T08:17:41Z</time>
      </trkpt>
      <trkpt lat="45.00131" lon="5.54407">
        <ele>1833.37</ele>
        <time>2014-10-04T08:17:46Z</time>
      </trkpt>
      <trkpt lat="45.00127" lon="5.54416">
        <ele>1834.81</ele>
        <time>2014-10-04T08:17:53Z</time>
      </trkpt>
      <trkpt lat="45.00123" lon="5.54419">
        <ele>1835.29</ele>
        <time>2014-10-04T08:17:57Z</time>
      </trkpt>
      <trkpt lat="45.00116" lon="5.54424">
        <ele>1835.77</ele>
        <time>2014-10-04T08:18:08Z</time>
      </trkpt>
      <trkpt lat="45.0011" lon="5.54433">
        <ele>1835.77</ele>
        <time>2014-10-04T08:18:17Z</time>
      </trkpt>
      <trkpt lat="45.00107" lon="5.54437">
        <ele>1835.77</ele>
        <time>2014-10-04T08:18:23Z</time>
      </trkpt>
      <trkpt lat="45.00101" lon="5.54444">
        <ele>1835.77</ele>
        <time>2014-10-04T08:18:29Z</time>
      </trkpt>
      <trkpt lat="45.00098" lon="5.54446">
        <ele>1836.26</ele>
        <time>2014-10-04T08:18:41Z</time>
      </trkpt>
      <trkpt lat="45.00097" lon="5.54446">
        <ele>1836.26</ele>
        <time>2014-10-04T08:19:05Z</time>
      </trkpt>
      <trkpt lat="45.00095" lon="5.54448">
        <ele>1836.74</ele>
        <time>2014-10-04T08:19:08Z</time>
      </trkpt>
      <trkpt lat="45.00091" lon="5.54451">
        <ele>1836.74</ele>
        <time>2014-10-04T08:19:12Z</time>
      </trkpt>
      <trkpt lat="45.00082" lon="5.54457">
        <ele>1838.18</ele>
        <time>2014-10-04T08:19:21Z</time>
      </trkpt>
      <trkpt lat="45.0008" lon="5.5446">
        <ele>1838.66</ele>
        <time>2014-10-04T08:19:27Z</time>
      </trkpt>
      <trkpt lat="45.00075" lon="5.54467">
        <ele>1840.1</ele>
        <time>2014-10-04T08:19:34Z</time>
      </trkpt>
      <trkpt lat="45.00072" lon="5.54464">
        <ele>1840.1</ele>
        <time>2014-10-04T08:19:39Z</time>
      </trkpt>
      <trkpt lat="45.00067" lon="5.54463">
        <ele>1841.54</ele>
        <time>2014-10-04T08:19:49Z</time>
      </trkpt>
      <trkpt lat="45.0006" lon="5.54464">
        <ele>1842.98</ele>
        <time>2014-10-04T08:19:58Z</time>
      </trkpt>
      <trkpt lat="45.00049" lon="5.54466">
        <ele>1844.91</ele>
        <time>2014-10-04T08:20:08Z</time>
      </trkpt>
      <trkpt lat="45.00048" lon="5.54467">
        <ele>1844.91</ele>
        <time>2014-10-04T08:20:09Z</time>
      </trkpt>
      <trkpt lat="45.00043" lon="5.54474">
        <ele>1842.98</ele>
        <time>2014-10-04T08:20:16Z</time>
      </trkpt>
      <trkpt lat="45.00035" lon="5.54476">
        <ele>1842.5</ele>
        <time>2014-10-04T08:20:21Z</time>
      </trkpt>
      <trkpt lat="45.00029" lon="5.54481">
        <ele>1842.02</ele>
        <time>2014-10-04T08:20:27Z</time>
      </trkpt>
      <trkpt lat="45.00026" lon="5.54488">
        <ele>1842.98</ele>
        <time>2014-10-04T08:20:32Z</time>
      </trkpt>
      <trkpt lat="45.00019" lon="5.54498">
        <ele>1842.02</ele>
        <time>2014-10-04T08:20:40Z</time>
      </trkpt>
      <trkpt lat="45.00009" lon="5.54511">
        <ele>1843.47</ele>
        <time>2014-10-04T08:20:51Z</time>
      </trkpt>
      <trkpt lat="45.00008" lon="5.54512">
        <ele>1842.5</ele>
        <time>2014-10-04T08:20:56Z</time>
      </trkpt>
      <trkpt lat="45.0001" lon="5.54509">
        <ele>1843.47</ele>
        <time>2014-10-04T08:21:07Z</time>
      </trkpt>
      <trkpt lat="45.0001" lon="5.54509">
        <ele>1843.47</ele>
        <time>2014-10-04T08:21:27Z</time>
      </trkpt>
      <trkpt lat="45.00009" lon="5.54511">
        <ele>1843.47</ele>
        <time>2014-10-04T08:21:31Z</time>
      </trkpt>
      <trkpt lat="45.00004" lon="5.54516">
        <ele>1841.06</ele>
        <time>2014-10-04T08:21:42Z</time>
      </trkpt>
      <trkpt lat="45.00002" lon="5.54517">
        <ele>1840.58</ele>
        <time>2014-10-04T08:21:44Z</time>
      </trkpt>
      <trkpt lat="44.99995" lon="5.54522">
        <ele>1839.14</ele>
        <time>2014-10-04T08:21:54Z</time>
      </trkpt>
      <trkpt lat="44.99994" lon="5.54522">
        <ele>1838.66</ele>
        <time>2014-10-04T08:21:57Z</time>
      </trkpt>
      <trkpt lat="44.9999" lon="5.54519">
        <ele>1838.66</ele>
        <time>2014-10-04T08:22:00Z</time>
      </trkpt>
      <trkpt lat="44.99981" lon="5.54513">
        <ele>1839.14</ele>
        <time>2014-10-04T08:22:05Z</time>
      </trkpt>
      <trkpt lat="44.99973" lon="5.54519">
        <ele>1838.66</ele>
        <time>2014-10-04T08:22:14Z</time>
      </trkpt>
      <trkpt lat="44.99972" lon="5.54519">
        <ele>1837.7</ele>
        <time>2014-10-04T08:22:17Z</time>
      </trkpt>
      <trkpt lat="44.99966" lon="5.54521">
        <ele>1836.74</ele>
        <time>2014-10-04T08:22:21Z</time>
      </trkpt>
      <trkpt lat="44.99957" lon="5.54527">
        <ele>1834.81</ele>
        <time>2014-10-04T08:22:31Z</time>
      </trkpt>
      <trkpt lat="44.99952" lon="5.54533">
        <ele>1833.85</ele>
        <time>2014-10-04T08:22:37Z</time>
      </trkpt>
      <trkpt lat="44.9994" lon="5.54541">
        <ele>1834.81</ele>
        <time>2014-10-04T08:22:48Z</time>
      </trkpt>
      <trkpt lat="44.99932" lon="5.54546">
        <ele>1836.26</ele>
        <time>2014-10-04T08:22:57Z</time>
      </trkpt>
      <trkpt lat="44.99927" lon="5.5455">
        <ele>1837.7</ele>
        <time>2014-10-04T08:23:05Z</time>
      </trkpt>
      <trkpt lat="44.99924" lon="5.54553">
        <ele>1838.66</ele>
        <time>2014-10-04T08:23:10Z</time>
      </trkpt>
      <trkpt lat="44.99918" lon="5.54557">
        <ele>1840.1</ele>
        <time>2014-10-04T08:23:17Z</time>
      </trkpt>
      <trkpt lat="44.99916" lon="5.54561">
        <ele>1841.06</ele>
        <time>2014-10-04T08:23:20Z</time>
      </trkpt>
      <trkpt lat="44.99915" lon="5.54565">
        <ele>1842.02</ele>
        <time>2014-10-04T08:23:24Z</time>
      </trkpt>
      <trkpt lat="44.9991" lon="5.54563">
        <ele>1842.5</ele>
        <time>2014-10-04T08:23:28Z</time>
      </trkpt>
      <trkpt lat="44.99907" lon="5.54564">
        <ele>1842.98</ele>
        <time>2014-10-04T08:23:32Z</time>
      </trkpt>
      <trkpt lat="44.99895" lon="5.54561">
        <ele>1842.5</ele>
        <time>2014-10-04T08:23:41Z</time>
      </trkpt>
      <trkpt lat="44.99894" lon="5.54561">
        <ele>1842.98</ele>
        <time>2014-10-04T08:23:44Z</time>
      </trkpt>
      <trkpt lat="44.99889" lon="5.54564">
        <ele>1842.5</ele>
        <time>2014-10-04T08:23:49Z</time>
      </trkpt>
      <trkpt lat="44.99879" lon="5.54566">
        <ele>1842.98</ele>
        <time>2014-10-04T08:23:56Z</time>
      </trkpt>
      <trkpt lat="44.99872" lon="5.54571">
        <ele>1842.02</ele>
        <time>2014-10-04T08:24:03Z</time>
      </trkpt>
      <trkpt lat="44.99869" lon="5.54573">
        <ele>1842.98</ele>
        <time>2014-10-04T08:24:07Z</time>
      </trkpt>
      <trkpt lat="44.99861" lon="5.54575">
        <ele>1845.39</ele>
        <time>2014-10-04T08:24:16Z</time>
      </trkpt>
      <trkpt lat="44.99856" lon="5.54576">
        <ele>1846.83</ele>
        <time>2014-10-04T08:24:20Z</time>
      </trkpt>
      <trkpt lat="44.99851" lon="5.54576">
        <ele>1848.27</ele>
        <time>2014-10-04T08:24:30Z</time>
      </trkpt>
      <trkpt lat="44.9985" lon="5.54577">
        <ele>1848.75</ele>
        <time>2014-10-04T08:24:59Z</time>
      </trkpt>
      <trkpt lat="44.99845" lon="5.54581">
        <ele>1850.68</ele>
        <time>2014-10-04T08:25:08Z</time>
      </trkpt>
      <trkpt lat="44.99838" lon="5.54584">
        <ele>1850.68</ele>
        <time>2014-10-04T08:25:14Z</time>
      </trkpt>
      <trkpt lat="44.9983" lon="5.54583">
        <ele>1850.19</ele>
        <time>2014-10-04T08:25:21Z</time>
      </trkpt>
      <trkpt lat="44.99822" lon="5.54585">
        <ele>1850.68</ele>
        <time>2014-10-04T08:25:27Z</time>
      </trkpt>
      <trkpt lat="44.99815" lon="5.54583">
        <ele>1851.64</ele>
        <time>2014-10-04T08:25:33Z</time>
      </trkpt>
      <trkpt lat="44.99806" lon="5.54589">
        <ele>1853.08</ele>
        <time>2014-10-04T08:25:42Z</time>
      </trkpt>
      <trkpt lat="44.99805" lon="5.5459">
        <ele>1853.56</ele>
        <time>2014-10-04T08:25:43Z</time>
      </trkpt>
      <trkpt lat="44.99802" lon="5.54594">
        <ele>1854.52</ele>
        <time>2014-10-04T08:25:48Z</time>
      </trkpt>
      <trkpt lat="44.99795" lon="5.54596">
        <ele>1855.48</ele>
        <time>2014-10-04T08:25:53Z</time>
      </trkpt>
      <trkpt lat="44.99793" lon="5.54599">
        <ele>1856.44</ele>
        <time>2014-10-04T08:25:57Z</time>
      </trkpt>
      <trkpt lat="44.99787" lon="5.54601">
        <ele>1857.4</ele>
        <time>2014-10-04T08:26:02Z</time>
      </trkpt>
      <trkpt lat="44.99783" lon="5.54603">
        <ele>1857.89</ele>
        <time>2014-10-04T08:26:06Z</time>
      </trkpt>
      <trkpt lat="44.99779" lon="5.54605">
        <ele>1858.85</ele>
        <time>2014-10-04T08:26:11Z</time>
      </trkpt>
      <trkpt lat="44.99776" lon="5.54608">
        <ele>1858.85</ele>
        <time>2014-10-04T08:26:13Z</time>
      </trkpt>
      <trkpt lat="44.99774" lon="5.54614">
        <ele>1858.85</ele>
        <time>2014-10-04T08:26:16Z</time>
      </trkpt>
      <trkpt lat="44.99765" lon="5.54623">
        <ele>1859.33</ele>
        <time>2014-10-04T08:26:26Z</time>
      </trkpt>
      <trkpt lat="44.99757" lon="5.54635">
        <ele>1859.81</ele>
        <time>2014-10-04T08:26:35Z</time>
      </trkpt>
      <trkpt lat="44.99757" lon="5.54638">
        <ele>1859.81</ele>
        <time>2014-10-04T08:26:38Z</time>
      </trkpt>
      <trkpt lat="44.99753" lon="5.54654">
        <ele>1860.77</ele>
        <time>2014-10-04T08:26:47Z</time>
      </trkpt>
      <trkpt lat="44.99747" lon="5.54666">
        <ele>1859.33</ele>
        <time>2014-10-04T08:26:57Z</time>
      </trkpt>
      <trkpt lat="44.99743" lon="5.54676">
        <ele>1860.29</ele>
        <time>2014-10-04T08:27:04Z</time>
      </trkpt>
      <trkpt lat="44.9974" lon="5.5469">
        <ele>1861.25</ele>
        <time>2014-10-04T08:27:13Z</time>
      </trkpt>
      <trkpt lat="44.99733" lon="5.54699">
        <ele>1860.29</ele>
        <time>2014-10-04T08:27:25Z</time>
      </trkpt>
      <trkpt lat="44.9973" lon="5.54701">
        <ele>1859.81</ele>
        <time>2014-10-04T08:27:27Z</time>
      </trkpt>
      <trkpt lat="44.99724" lon="5.54706">
        <ele>1859.33</ele>
        <time>2014-10-04T08:27:32Z</time>
      </trkpt>
      <trkpt lat="44.99717" lon="5.54711">
        <ele>1856.92</ele>
        <time>2014-10-04T08:27:42Z</time>
      </trkpt>
      <trkpt lat="44.99712" lon="5.54714">
        <ele>1855</ele>
        <time>2014-10-04T08:27:50Z</time>
      </trkpt>
      <trkpt lat="44.99708" lon="5.54719">
        <ele>1853.08</ele>
        <time>2014-10-04T08:27:59Z</time>
      </trkpt>
      <trkpt lat="44.99705" lon="5.54721">
        <ele>1852.6</ele>
        <time>2014-10-04T08:28:02Z</time>
      </trkpt>
      <trkpt lat="44.99699" lon="5.5473">
        <ele>1852.12</ele>
        <time>2014-10-04T08:28:10Z</time>
      </trkpt>
      <trkpt lat="44.99695" lon="5.54736">
        <ele>1852.12</ele>
        <time>2014-10-04T08:28:16Z</time>
      </trkpt>
      <trkpt lat="44.99689" lon="5.54738">
        <ele>1849.71</ele>
        <time>2014-10-04T08:28:26Z</time>
      </trkpt>
      <trkpt lat="44.99688" lon="5.54737">
        <ele>1849.71</ele>
        <time>2014-10-04T08:28:39Z</time>
      </trkpt>
      <trkpt lat="44.99688" lon="5.54737">
        <ele>1849.71</ele>
        <time>2014-10-04T08:28:49Z</time>
      </trkpt>
      <trkpt lat="44.99681" lon="5.54738">
        <ele>1849.23</ele>
        <time>2014-10-04T08:28:56Z</time>
      </trkpt>
      <trkpt lat="44.99668" lon="5.5474">
        <ele>1848.75</ele>
        <time>2014-10-04T08:29:03Z</time>
      </trkpt>
      <trkpt lat="44.99657" lon="5.54742">
        <ele>1847.31</ele>
        <time>2014-10-04T08:29:12Z</time>
      </trkpt>
      <trkpt lat="44.99642" lon="5.54739">
        <ele>1846.83</ele>
        <time>2014-10-04T08:29:22Z</time>
      </trkpt>
      <trkpt lat="44.99639" lon="5.5474">
        <ele>1846.35</ele>
        <time>2014-10-04T08:29:25Z</time>
      </trkpt>
      <trkpt lat="44.99632" lon="5.54738">
        <ele>1845.87</ele>
        <time>2014-10-04T08:29:29Z</time>
      </trkpt>
      <trkpt lat="44.99626" lon="5.54735">
        <ele>1845.39</ele>
        <time>2014-10-04T08:29:34Z</time>
      </trkpt>
      <trkpt lat="44.99613" lon="5.54736">
        <ele>1846.35</ele>
        <time>2014-10-04T08:29:43Z</time>
      </trkpt>
      <trkpt lat="44.99612" lon="5.54737">
        <ele>1845.87</ele>
        <time>2014-10-04T08:29:44Z</time>
      </trkpt>
      <trkpt lat="44.99609" lon="5.5474">
        <ele>1845.87</ele>
        <time>2014-10-04T08:29:55Z</time>
      </trkpt>
      <trkpt lat="44.99609" lon="5.5474">
        <ele>1845.39</ele>
        <time>2014-10-04T08:30:13Z</time>
      </trkpt>
      <trkpt lat="44.99609" lon="5.5474">
        <ele>1845.87</ele>
        <time>2014-10-04T08:30:18Z</time>
      </trkpt>
      <trkpt lat="44.99604" lon="5.54742">
        <ele>1845.39</ele>
        <time>2014-10-04T08:31:25Z</time>
      </trkpt>
      <trkpt lat="44.99606" lon="5.5474">
        <ele>1846.35</ele>
        <time>2014-10-04T08:31:27Z</time>
      </trkpt>
      <trkpt lat="44.99611" lon="5.54742">
        <ele>1845.87</ele>
        <time>2014-10-04T08:31:36Z</time>
      </trkpt>
      <trkpt lat="44.99606" lon="5.54739">
        <ele>1844.43</ele>
        <time>2014-10-04T08:31:41Z</time>
      </trkpt>
      <trkpt lat="44.99602" lon="5.54738">
        <ele>1843.47</ele>
        <time>2014-10-04T08:31:45Z</time>
      </trkpt>
      <trkpt lat="44.99599" lon="5.54737">
        <ele>1843.47</ele>
        <time>2014-10-04T08:31:49Z</time>
      </trkpt>
      <trkpt lat="44.99582" lon="5.54735">
        <ele>1844.43</ele>
        <time>2014-10-04T08:31:59Z</time>
      </trkpt>
      <trkpt lat="44.99582" lon="5.54727">
        <ele>1843.47</ele>
        <time>2014-10-04T08:32:11Z</time>
      </trkpt>
      <trkpt lat="44.99583" lon="5.54724">
        <ele>1844.43</ele>
        <time>2014-10-04T08:32:32Z</time>
      </trkpt>
      <trkpt lat="44.99581" lon="5.54716">
        <ele>1844.43</ele>
        <time>2014-10-04T08:32:38Z</time>
      </trkpt>
      <trkpt lat="44.99579" lon="5.54713">
        <ele>1844.43</ele>
        <time>2014-10-04T08:32:41Z</time>
      </trkpt>
      <trkpt lat="44.99576" lon="5.54703">
        <ele>1843.95</ele>
        <time>2014-10-04T08:32:47Z</time>
      </trkpt>
      <trkpt lat="44.99576" lon="5.547">
        <ele>1844.43</ele>
        <time>2014-10-04T08:32:49Z</time>
      </trkpt>
      <trkpt lat="44.99573" lon="5.54695">
        <ele>1844.43</ele>
        <time>2014-10-04T08:32:54Z</time>
      </trkpt>
      <trkpt lat="44.99571" lon="5.54689">
        <ele>1843.95</ele>
        <time>2014-10-04T08:32:58Z</time>
      </trkpt>
      <trkpt lat="44.99568" lon="5.54684">
        <ele>1843.95</ele>
        <time>2014-10-04T08:33:02Z</time>
      </trkpt>
      <trkpt lat="44.99563" lon="5.54675">
        <ele>1843.47</ele>
        <time>2014-10-04T08:33:08Z</time>
      </trkpt>
      <trkpt lat="44.99563" lon="5.54669">
        <ele>1842.5</ele>
        <time>2014-10-04T08:33:13Z</time>
      </trkpt>
      <trkpt lat="44.99564" lon="5.5466">
        <ele>1841.54</ele>
        <time>2014-10-04T08:33:19Z</time>
      </trkpt>
      <trkpt lat="44.99564" lon="5.54653">
        <ele>1841.54</ele>
        <time>2014-10-04T08:33:22Z</time>
      </trkpt>
      <trkpt lat="44.99561" lon="5.54638">
        <ele>1840.58</ele>
        <time>2014-10-04T08:33:31Z</time>
      </trkpt>
      <trkpt lat="44.99556" lon="5.54626">
        <ele>1841.06</ele>
        <time>2014-10-04T08:33:45Z</time>
      </trkpt>
      <trkpt lat="44.99557" lon="5.54625">
        <ele>1841.06</ele>
        <time>2014-10-04T08:33:48Z</time>
      </trkpt>
      <trkpt lat="44.99556" lon="5.54611">
        <ele>1840.58</ele>
        <time>2014-10-04T08:33:56Z</time>
      </trkpt>
      <trkpt lat="44.9954" lon="5.54601">
        <ele>1839.14</ele>
        <time>2014-10-04T08:34:04Z</time>
      </trkpt>
      <trkpt lat="44.99538" lon="5.54594">
        <ele>1838.18</ele>
        <time>2014-10-04T08:34:09Z</time>
      </trkpt>
      <trkpt lat="44.99535" lon="5.54581">
        <ele>1837.22</ele>
        <time>2014-10-04T08:34:15Z</time>
      </trkpt>
      <trkpt lat="44.99529" lon="5.54575">
        <ele>1836.74</ele>
        <time>2014-10-04T08:34:19Z</time>
      </trkpt>
      <trkpt lat="44.99524" lon="5.54571">
        <ele>1836.26</ele>
        <time>2014-10-04T08:34:25Z</time>
      </trkpt>
      <trkpt lat="44.99521" lon="5.54568">
        <ele>1837.22</ele>
        <time>2014-10-04T08:34:35Z</time>
      </trkpt>
      <trkpt lat="44.99516" lon="5.54565">
        <ele>1839.62</ele>
        <time>2014-10-04T08:34:44Z</time>
      </trkpt>
      <trkpt lat="44.99509" lon="5.54562">
        <ele>1842.02</ele>
        <time>2014-10-04T08:34:55Z</time>
      </trkpt>
      <trkpt lat="44.99504" lon="5.54556">
        <ele>1843.95</ele>
        <time>2014-10-04T08:35:02Z</time>
      </trkpt>
      <trkpt lat="44.99502" lon="5.54552">
        <ele>1844.91</ele>
        <time>2014-10-04T08:35:06Z</time>
      </trkpt>
      <trkpt lat="44.99491" lon="5.54542">
        <ele>1846.83</ele>
        <time>2014-10-04T08:35:17Z</time>
      </trkpt>
      <trkpt lat="44.99488" lon="5.5454">
        <ele>1846.83</ele>
        <time>2014-10-04T08:35:21Z</time>
      </trkpt>
      <trkpt lat="44.99485" lon="5.54534">
        <ele>1847.31</ele>
        <time>2014-10-04T08:35:24Z</time>
      </trkpt>
      <trkpt lat="44.99483" lon="5.54531">
        <ele>1847.79</ele>
        <time>2014-10-04T08:35:27Z</time>
      </trkpt>
      <trkpt lat="44.9948" lon="5.54528">
        <ele>1848.75</ele>
        <time>2014-10-04T08:35:31Z</time>
      </trkpt>
      <trkpt lat="44.99473" lon="5.54516">
        <ele>1850.19</ele>
        <time>2014-10-04T08:35:40Z</time>
      </trkpt>
      <trkpt lat="44.9947" lon="5.54512">
        <ele>1849.23</ele>
        <time>2014-10-04T08:35:45Z</time>
      </trkpt>
      <trkpt lat="44.99464" lon="5.54501">
        <ele>1850.19</ele>
        <time>2014-10-04T08:35:52Z</time>
      </trkpt>
      <trkpt lat="44.99462" lon="5.54497">
        <ele>1851.16</ele>
        <time>2014-10-04T08:35:56Z</time>
      </trkpt>
      <trkpt lat="44.99456" lon="5.54488">
        <ele>1852.6</ele>
        <time>2014-10-04T08:36:05Z</time>
      </trkpt>
      <trkpt lat="44.99453" lon="5.54485">
        <ele>1853.08</ele>
        <time>2014-10-04T08:36:09Z</time>
      </trkpt>
      <trkpt lat="44.99446" lon="5.54479">
        <ele>1854.04</ele>
        <time>2014-10-04T08:36:17Z</time>
      </trkpt>
      <trkpt lat="44.99446" lon="5.54479">
        <ele>1854.52</ele>
        <time>2014-10-04T08:36:18Z</time>
      </trkpt>
      <trkpt lat="44.99443" lon="5.54476">
        <ele>1854.52</ele>
        <time>2014-10-04T08:36:35Z</time>
      </trkpt>
      <trkpt lat="44.99443" lon="5.54476">
        <ele>1854.04</ele>
        <time>2014-10-04T08:36:36Z</time>
      </trkpt>
      <trkpt lat="44.99439" lon="5.54468">
        <ele>1854.52</ele>
        <time>2014-10-04T08:36:45Z</time>
      </trkpt>
      <trkpt lat="44.99439" lon="5.54468">
        <ele>1854.52</ele>
        <time>2014-10-04T08:36:56Z</time>
      </trkpt>
      <trkpt lat="44.99439" lon="5.54465">
        <ele>1855</ele>
        <time>2014-10-04T08:37:00Z</time>
      </trkpt>
      <trkpt lat="44.99438" lon="5.54457">
        <ele>1852.12</ele>
        <time>2014-10-04T08:37:10Z</time>
      </trkpt>
      <trkpt lat="44.99438" lon="5.54455">
        <ele>1852.6</ele>
        <time>2014-10-04T08:37:17Z</time>
      </trkpt>
      <trkpt lat="44.99438" lon="5.54449">
        <ele>1851.64</ele>
        <time>2014-10-04T08:37:21Z</time>
      </trkpt>
      <trkpt lat="44.99438" lon="5.54443">
        <ele>1850.19</ele>
        <time>2014-10-04T08:37:25Z</time>
      </trkpt>
      <trkpt lat="44.99443" lon="5.5443">
        <ele>1847.79</ele>
        <time>2014-10-04T08:37:33Z</time>
      </trkpt>
      <trkpt lat="44.99454" lon="5.54414">
        <ele>1846.35</ele>
        <time>2014-10-04T08:37:45Z</time>
      </trkpt>
      <trkpt lat="44.99458" lon="5.5441">
        <ele>1842.98</ele>
        <time>2014-10-04T08:38:02Z</time>
      </trkpt>
      <trkpt lat="44.99439" lon="5.54417">
        <ele>1840.1</ele>
        <time>2014-10-04T08:38:12Z</time>
      </trkpt>
      <trkpt lat="44.99432" lon="5.54422">
        <ele>1839.14</ele>
        <time>2014-10-04T08:38:14Z</time>
      </trkpt>
      <trkpt lat="44.99416" lon="5.54438">
        <ele>1837.22</ele>
        <time>2014-10-04T08:38:26Z</time>
      </trkpt>
      <trkpt lat="44.99417" lon="5.54437">
        <ele>1837.22</ele>
        <time>2014-10-04T08:38:27Z</time>
      </trkpt>
      <trkpt lat="44.99411" lon="5.54433">
        <ele>1833.37</ele>
        <time>2014-10-04T08:38:36Z</time>
      </trkpt>
      <trkpt lat="44.9941" lon="5.54432">
        <ele>1832.89</ele>
        <time>2014-10-04T08:38:38Z</time>
      </trkpt>
      <trkpt lat="44.99405" lon="5.54431">
        <ele>1830.49</ele>
        <time>2014-10-04T08:38:45Z</time>
      </trkpt>
      <trkpt lat="44.99401" lon="5.54431">
        <ele>1829.05</ele>
        <time>2014-10-04T08:38:50Z</time>
      </trkpt>
      <trkpt lat="44.99398" lon="5.5443">
        <ele>1827.6</ele>
        <time>2014-10-04T08:38:53Z</time>
      </trkpt>
      <trkpt lat="44.99394" lon="5.54433">
        <ele>1825.68</ele>
        <time>2014-10-04T08:38:59Z</time>
      </trkpt>
      <trkpt lat="44.99393" lon="5.54443">
        <ele>1823.76</ele>
        <time>2014-10-04T08:39:05Z</time>
      </trkpt>
      <trkpt lat="44.99395" lon="5.54449">
        <ele>1823.76</ele>
        <time>2014-10-04T08:39:09Z</time>
      </trkpt>
      <trkpt lat="44.99398" lon="5.54453">
        <ele>1822.32</ele>
        <time>2014-10-04T08:39:14Z</time>
      </trkpt>
      <trkpt lat="44.99389" lon="5.54451">
        <ele>1820.39</ele>
        <time>2014-10-04T08:39:22Z</time>
      </trkpt>
      <trkpt lat="44.99383" lon="5.54453">
        <ele>1818.95</ele>
        <time>2014-10-04T08:39:26Z</time>
      </trkpt>
      <trkpt lat="44.99382" lon="5.54451">
        <ele>1818.47</ele>
        <time>2014-10-04T08:39:28Z</time>
      </trkpt>
      <trkpt lat="44.9937" lon="5.54459">
        <ele>1817.03</ele>
        <time>2014-10-04T08:39:36Z</time>
      </trkpt>
      <trkpt lat="44.99375" lon="5.54461">
        <ele>1815.59</ele>
        <time>2014-10-04T08:39:40Z</time>
      </trkpt>
      <trkpt lat="44.99384" lon="5.54463">
        <ele>1815.59</ele>
        <time>2014-10-04T08:39:55Z</time>
      </trkpt>
      <trkpt lat="44.99384" lon="5.54467">
        <ele>1815.59</ele>
        <time>2014-10-04T08:40:18Z</time>
      </trkpt>
      <trkpt lat="44.99384" lon="5.5447">
        <ele>1814.63</ele>
        <time>2014-10-04T08:40:24Z</time>
      </trkpt>
      <trkpt lat="44.99384" lon="5.54477">
        <ele>1813.18</ele>
        <time>2014-10-04T08:40:29Z</time>
      </trkpt>
      <trkpt lat="44.99388" lon="5.54486">
        <ele>1812.7</ele>
        <time>2014-10-04T08:40:36Z</time>
      </trkpt>
      <trkpt lat="44.99382" lon="5.54469">
        <ele>1810.78</ele>
        <time>2014-10-04T08:40:47Z</time>
      </trkpt>
      <trkpt lat="44.99381" lon="5.54467">
        <ele>1809.82</ele>
        <time>2014-10-04T08:40:52Z</time>
      </trkpt>
      <trkpt lat="44.99375" lon="5.54464">
        <ele>1807.9</ele>
        <time>2014-10-04T08:40:59Z</time>
      </trkpt>
      <trkpt lat="44.99363" lon="5.54464">
        <ele>1805.49</ele>
        <time>2014-10-04T08:41:12Z</time>
      </trkpt>
      <trkpt lat="44.99363" lon="5.54466">
        <ele>1805.01</ele>
        <time>2014-10-04T08:41:13Z</time>
      </trkpt>
      <trkpt lat="44.99367" lon="5.54471">
        <ele>1803.09</ele>
        <time>2014-10-04T08:41:22Z</time>
      </trkpt>
      <trkpt lat="44.99372" lon="5.54472">
        <ele>1802.13</ele>
        <time>2014-10-04T08:41:26Z</time>
      </trkpt>
      <trkpt lat="44.99379" lon="5.54479">
        <ele>1801.65</ele>
        <time>2014-10-04T08:41:30Z</time>
      </trkpt>
      <trkpt lat="44.99377" lon="5.54482">
        <ele>1798.28</ele>
        <time>2014-10-04T08:41:41Z</time>
      </trkpt>
      <trkpt lat="44.99374" lon="5.54479">
        <ele>1796.84</ele>
        <time>2014-10-04T08:41:48Z</time>
      </trkpt>
      <trkpt lat="44.99371" lon="5.54476">
        <ele>1795.4</ele>
        <time>2014-10-04T08:41:54Z</time>
      </trkpt>
      <trkpt lat="44.99366" lon="5.54469">
        <ele>1793.96</ele>
        <time>2014-10-04T08:42:01Z</time>
      </trkpt>
      <trkpt lat="44.99359" lon="5.54465">
        <ele>1792.03</ele>
        <time>2014-10-04T08:42:09Z</time>
      </trkpt>
      <trkpt lat="44.99354" lon="5.54461">
        <ele>1790.59</ele>
        <time>2014-10-04T08:42:18Z</time>
      </trkpt>
      <trkpt lat="44.99352" lon="5.54468">
        <ele>1789.63</ele>
        <time>2014-10-04T08:42:25Z</time>
      </trkpt>
      <trkpt lat="44.99354" lon="5.54474">
        <ele>1788.67</ele>
        <time>2014-10-04T08:42:29Z</time>
      </trkpt>
      <trkpt lat="44.99356" lon="5.54479">
        <ele>1787.71</ele>
        <time>2014-10-04T08:42:32Z</time>
      </trkpt>
      <trkpt lat="44.99359" lon="5.54486">
        <ele>1785.79</ele>
        <time>2014-10-04T08:42:38Z</time>
      </trkpt>
      <trkpt lat="44.99359" lon="5.54489">
        <ele>1785.31</ele>
        <time>2014-10-04T08:42:40Z</time>
      </trkpt>
      <trkpt lat="44.99348" lon="5.54491">
        <ele>1782.42</ele>
        <time>2014-10-04T08:42:50Z</time>
      </trkpt>
      <trkpt lat="44.99341" lon="5.54488">
        <ele>1779.54</ele>
        <time>2014-10-04T08:42:58Z</time>
      </trkpt>
      <trkpt lat="44.9934" lon="5.54488">
        <ele>1779.54</ele>
        <time>2014-10-04T08:42:59Z</time>
      </trkpt>
      <trkpt lat="44.99337" lon="5.54488">
        <ele>1778.58</ele>
        <time>2014-10-04T08:43:03Z</time>
      </trkpt>
      <trkpt lat="44.99326" lon="5.54483">
        <ele>1776.17</ele>
        <time>2014-10-04T08:43:14Z</time>
      </trkpt>
      <trkpt lat="44.99326" lon="5.54483">
        <ele>1776.17</ele>
        <time>2014-10-04T08:43:21Z</time>
      </trkpt>
      <trkpt lat="44.99323" lon="5.5448">
        <ele>1775.21</ele>
        <time>2014-10-04T08:43:25Z</time>
      </trkpt>
      <trkpt lat="44.99317" lon="5.54479">
        <ele>1773.29</ele>
        <time>2014-10-04T08:43:37Z</time>
      </trkpt>
      <trkpt lat="44.99316" lon="5.54478">
        <ele>1772.81</ele>
        <time>2014-10-04T08:43:39Z</time>
      </trkpt>
      <trkpt lat="44.99308" lon="5.54479">
        <ele>1770.41</ele>
        <time>2014-10-04T08:43:47Z</time>
      </trkpt>
      <trkpt lat="44.9931" lon="5.5449">
        <ele>1768.96</ele>
        <time>2014-10-04T08:43:54Z</time>
      </trkpt>
      <trkpt lat="44.99313" lon="5.54492">
        <ele>1768.48</ele>
        <time>2014-10-04T08:43:56Z</time>
      </trkpt>
      <trkpt lat="44.99315" lon="5.54495">
        <ele>1767.52</ele>
        <time>2014-10-04T08:44:00Z</time>
      </trkpt>
      <trkpt lat="44.99317" lon="5.54499">
        <ele>1766.56</ele>
        <time>2014-10-04T08:44:04Z</time>
      </trkpt>
      <trkpt lat="44.99321" lon="5.54505">
        <ele>1764.16</ele>
        <time>2014-10-04T08:44:10Z</time>
      </trkpt>
      <trkpt lat="44.99322" lon="5.54515">
        <ele>1761.27</ele>
        <time>2014-10-04T08:44:20Z</time>
      </trkpt>
      <trkpt lat="44.99326" lon="5.54519">
        <ele>1758.87</ele>
        <time>2014-10-04T08:44:28Z</time>
      </trkpt>
      <trkpt lat="44.99333" lon="5.54527">
        <ele>1755.5</ele>
        <time>2014-10-04T08:44:36Z</time>
      </trkpt>
      <trkpt lat="44.99337" lon="5.54533">
        <ele>1754.06</ele>
        <time>2014-10-04T08:44:42Z</time>
      </trkpt>
      <trkpt lat="44.99338" lon="5.54536">
        <ele>1753.58</ele>
        <time>2014-10-04T08:44:56Z</time>
      </trkpt>
      <trkpt lat="44.99338" lon="5.54536">
        <ele>1753.58</ele>
        <time>2014-10-04T08:45:06Z</time>
      </trkpt>
      <trkpt lat="44.99346" lon="5.54544">
        <ele>1751.66</ele>
        <time>2014-10-04T08:45:16Z</time>
      </trkpt>
      <trkpt lat="44.99349" lon="5.54543">
        <ele>1751.66</ele>
        <time>2014-10-04T08:45:18Z</time>
      </trkpt>
      <trkpt lat="44.99352" lon="5.54546">
        <ele>1751.18</ele>
        <time>2014-10-04T08:45:22Z</time>
      </trkpt>
      <trkpt lat="44.99355" lon="5.54551">
        <ele>1749.74</ele>
        <time>2014-10-04T08:45:25Z</time>
      </trkpt>
      <trkpt lat="44.99358" lon="5.54561">
        <ele>1747.33</ele>
        <time>2014-10-04T08:45:33Z</time>
      </trkpt>
      <trkpt lat="44.99362" lon="5.54565">
        <ele>1745.89</ele>
        <time>2014-10-04T08:45:38Z</time>
      </trkpt>
      <trkpt lat="44.99368" lon="5.54566">
        <ele>1744.45</ele>
        <time>2014-10-04T08:45:42Z</time>
      </trkpt>
      <trkpt lat="44.9937" lon="5.54569">
        <ele>1743.01</ele>
        <time>2014-10-04T08:45:47Z</time>
      </trkpt>
      <trkpt lat="44.99365" lon="5.54566">
        <ele>1742.05</ele>
        <time>2014-10-04T08:45:53Z</time>
      </trkpt>
      <trkpt lat="44.99367" lon="5.54569">
        <ele>1740.6</ele>
        <time>2014-10-04T08:45:57Z</time>
      </trkpt>
      <trkpt lat="44.99374" lon="5.54582">
        <ele>1737.72</ele>
        <time>2014-10-04T08:46:07Z</time>
      </trkpt>
      <trkpt lat="44.99377" lon="5.54586">
        <ele>1736.76</ele>
        <time>2014-10-04T08:46:12Z</time>
      </trkpt>
      <trkpt lat="44.99379" lon="5.54588">
        <ele>1735.8</ele>
        <time>2014-10-04T08:46:14Z</time>
      </trkpt>
      <trkpt lat="44.99387" lon="5.54598">
        <ele>1734.84</ele>
        <time>2014-10-04T08:46:20Z</time>
      </trkpt>
      <trkpt lat="44.9939" lon="5.54603">
        <ele>1733.88</ele>
        <time>2014-10-04T08:46:25Z</time>
      </trkpt>
      <trkpt lat="44.99393" lon="5.54603">
        <ele>1732.91</ele>
        <time>2014-10-04T08:46:27Z</time>
      </trkpt>
      <trkpt lat="44.99396" lon="5.5461">
        <ele>1731.95</ele>
        <time>2014-10-04T08:46:32Z</time>
      </trkpt>
      <trkpt lat="44.99403" lon="5.5463">
        <ele>1730.51</ele>
        <time>2014-10-04T08:46:40Z</time>
      </trkpt>
      <trkpt lat="44.99407" lon="5.54636">
        <ele>1730.03</ele>
        <time>2014-10-04T08:46:50Z</time>
      </trkpt>
      <trkpt lat="44.99407" lon="5.54641">
        <ele>1728.59</ele>
        <time>2014-10-04T08:46:54Z</time>
      </trkpt>
      <trkpt lat="44.99407" lon="5.54642">
        <ele>1728.11</ele>
        <time>2014-10-04T08:46:55Z</time>
      </trkpt>
      <trkpt lat="44.9941" lon="5.54646">
        <ele>1726.18</ele>
        <time>2014-10-04T08:47:00Z</time>
      </trkpt>
      <trkpt lat="44.99413" lon="5.54654">
        <ele>1724.74</ele>
        <time>2014-10-04T08:47:04Z</time>
      </trkpt>
      <trkpt lat="44.99417" lon="5.54656">
        <ele>1723.78</ele>
        <time>2014-10-04T08:47:08Z</time>
      </trkpt>
      <trkpt lat="44.99422" lon="5.54659">
        <ele>1721.86</ele>
        <time>2014-10-04T08:47:13Z</time>
      </trkpt>
      <trkpt lat="44.99409" lon="5.5466">
        <ele>1718.49</ele>
        <time>2014-10-04T08:47:25Z</time>
      </trkpt>
      <trkpt lat="44.99406" lon="5.54657">
        <ele>1717.05</ele>
        <time>2014-10-04T08:47:32Z</time>
      </trkpt>
      <trkpt lat="44.99402" lon="5.54649">
        <ele>1715.13</ele>
        <time>2014-10-04T08:47:41Z</time>
      </trkpt>
      <trkpt lat="44.99399" lon="5.54647">
        <ele>1714.17</ele>
        <time>2014-10-04T08:47:45Z</time>
      </trkpt>
      <trkpt lat="44.99397" lon="5.54644">
        <ele>1714.17</ele>
        <time>2014-10-04T08:47:47Z</time>
      </trkpt>
      <trkpt lat="44.99385" lon="5.54637">
        <ele>1710.8</ele>
        <time>2014-10-04T08:47:54Z</time>
      </trkpt>
      <trkpt lat="44.99373" lon="5.54632">
        <ele>1708.4</ele>
        <time>2014-10-04T08:48:03Z</time>
      </trkpt>
      <trkpt lat="44.99374" lon="5.54637">
        <ele>1707.92</ele>
        <time>2014-10-04T08:48:06Z</time>
      </trkpt>
      <trkpt lat="44.99382" lon="5.54656">
        <ele>1706</ele>
        <time>2014-10-04T08:48:16Z</time>
      </trkpt>
      <trkpt lat="44.99389" lon="5.54672">
        <ele>1704.55</ele>
        <time>2014-10-04T08:48:25Z</time>
      </trkpt>
      <trkpt lat="44.9939" lon="5.54674">
        <ele>1704.07</ele>
        <time>2014-10-04T08:48:28Z</time>
      </trkpt>
      <trkpt lat="44.99391" lon="5.5468">
        <ele>1702.63</ele>
        <time>2014-10-04T08:48:32Z</time>
      </trkpt>
      <trkpt lat="44.99395" lon="5.54696">
        <ele>1700.71</ele>
        <time>2014-10-04T08:48:41Z</time>
      </trkpt>
      <trkpt lat="44.994" lon="5.54698">
        <ele>1699.75</ele>
        <time>2014-10-04T08:48:46Z</time>
      </trkpt>
      <trkpt lat="44.99405" lon="5.54701">
        <ele>1697.83</ele>
        <time>2014-10-04T08:48:52Z</time>
      </trkpt>
      <trkpt lat="44.99399" lon="5.54702">
        <ele>1696.38</ele>
        <time>2014-10-04T08:48:58Z</time>
      </trkpt>
      <trkpt lat="44.99391" lon="5.547">
        <ele>1694.94</ele>
        <time>2014-10-04T08:49:06Z</time>
      </trkpt>
      <trkpt lat="44.99378" lon="5.5469">
        <ele>1693.02</ele>
        <time>2014-10-04T08:49:17Z</time>
      </trkpt>
      <trkpt lat="44.99371" lon="5.54682">
        <ele>1690.14</ele>
        <time>2014-10-04T08:49:29Z</time>
      </trkpt>
      <trkpt lat="44.99365" lon="5.54676">
        <ele>1689.17</ele>
        <time>2014-10-04T08:49:35Z</time>
      </trkpt>
      <trkpt lat="44.99361" lon="5.54672">
        <ele>1688.21</ele>
        <time>2014-10-04T08:49:40Z</time>
      </trkpt>
      <trkpt lat="44.99347" lon="5.54657">
        <ele>1686.29</ele>
        <time>2014-10-04T08:49:50Z</time>
      </trkpt>
      <trkpt lat="44.99341" lon="5.54653">
        <ele>1684.37</ele>
        <time>2014-10-04T08:50:00Z</time>
      </trkpt>
      <trkpt lat="44.99342" lon="5.54656">
        <ele>1683.89</ele>
        <time>2014-10-04T08:50:10Z</time>
      </trkpt>
      <trkpt lat="44.99343" lon="5.54662">
        <ele>1683.41</ele>
        <time>2014-10-04T08:50:13Z</time>
      </trkpt>
      <trkpt lat="44.99345" lon="5.54674">
        <ele>1681</ele>
        <time>2014-10-04T08:50:21Z</time>
      </trkpt>
      <trkpt lat="44.99345" lon="5.54679">
        <ele>1680.52</ele>
        <time>2014-10-04T08:50:24Z</time>
      </trkpt>
      <trkpt lat="44.99349" lon="5.54695">
        <ele>1679.08</ele>
        <time>2014-10-04T08:50:33Z</time>
      </trkpt>
      <trkpt lat="44.9935" lon="5.54696">
        <ele>1678.6</ele>
        <time>2014-10-04T08:50:35Z</time>
      </trkpt>
      <trkpt lat="44.99361" lon="5.54717">
        <ele>1676.2</ele>
        <time>2014-10-04T08:50:46Z</time>
      </trkpt>
      <trkpt lat="44.99364" lon="5.54731">
        <ele>1674.75</ele>
        <time>2014-10-04T08:50:56Z</time>
      </trkpt>
      <trkpt lat="44.99365" lon="5.54732">
        <ele>1674.27</ele>
        <time>2014-10-04T08:50:58Z</time>
      </trkpt>
      <trkpt lat="44.99367" lon="5.54736">
        <ele>1673.79</ele>
        <time>2014-10-04T08:51:01Z</time>
      </trkpt>
      <trkpt lat="44.99374" lon="5.54749">
        <ele>1671.39</ele>
        <time>2014-10-04T08:51:11Z</time>
      </trkpt>
      <trkpt lat="44.99375" lon="5.5475">
        <ele>1671.39</ele>
        <time>2014-10-04T08:51:12Z</time>
      </trkpt>
      <trkpt lat="44.99377" lon="5.54755">
        <ele>1670.91</ele>
        <time>2014-10-04T08:51:15Z</time>
      </trkpt>
      <trkpt lat="44.99381" lon="5.54764">
        <ele>1669.47</ele>
        <time>2014-10-04T08:51:19Z</time>
      </trkpt>
      <trkpt lat="44.99382" lon="5.54766">
        <ele>1668.99</ele>
        <time>2014-10-04T08:51:26Z</time>
      </trkpt>
      <trkpt lat="44.99379" lon="5.54763">
        <ele>1668.02</ele>
        <time>2014-10-04T08:51:29Z</time>
      </trkpt>
      <trkpt lat="44.99373" lon="5.54758">
        <ele>1666.58</ele>
        <time>2014-10-04T08:51:34Z</time>
      </trkpt>
      <trkpt lat="44.99369" lon="5.5475">
        <ele>1665.62</ele>
        <time>2014-10-04T08:51:39Z</time>
      </trkpt>
      <trkpt lat="44.99361" lon="5.54744">
        <ele>1664.18</ele>
        <time>2014-10-04T08:51:45Z</time>
      </trkpt>
      <trkpt lat="44.99342" lon="5.5473">
        <ele>1662.26</ele>
        <time>2014-10-04T08:51:57Z</time>
      </trkpt>
      <trkpt lat="44.99335" lon="5.54726">
        <ele>1660.81</ele>
        <time>2014-10-04T08:52:04Z</time>
      </trkpt>
      <trkpt lat="44.99326" lon="5.5472">
        <ele>1658.41</ele>
        <time>2014-10-04T08:52:17Z</time>
      </trkpt>
      <trkpt lat="44.99326" lon="5.54721">
        <ele>1657.93</ele>
        <time>2014-10-04T08:52:36Z</time>
      </trkpt>
      <trkpt lat="44.99326" lon="5.54721">
        <ele>1657.93</ele>
        <time>2014-10-04T08:52:53Z</time>
      </trkpt>
      <trkpt lat="44.99318" lon="5.54715">
        <ele>1656.97</ele>
        <time>2014-10-04T08:53:00Z</time>
      </trkpt>
      <trkpt lat="44.99311" lon="5.54704">
        <ele>1655.53</ele>
        <time>2014-10-04T08:53:06Z</time>
      </trkpt>
      <trkpt lat="44.99308" lon="5.54699">
        <ele>1653.12</ele>
        <time>2014-10-04T08:53:14Z</time>
      </trkpt>
      <trkpt lat="44.99309" lon="5.54696">
        <ele>1653.12</ele>
        <time>2014-10-04T08:53:16Z</time>
      </trkpt>
      <trkpt lat="44.99295" lon="5.54677">
        <ele>1650.72</ele>
        <time>2014-10-04T08:53:27Z</time>
      </trkpt>
      <trkpt lat="44.99287" lon="5.54672">
        <ele>1648.8</ele>
        <time>2014-10-04T08:53:38Z</time>
      </trkpt>
      <trkpt lat="44.99287" lon="5.54668">
        <ele>1648.8</ele>
        <time>2014-10-04T08:53:41Z</time>
      </trkpt>
      <trkpt lat="44.99285" lon="5.54662">
        <ele>1647.84</ele>
        <time>2014-10-04T08:53:47Z</time>
      </trkpt>
      <trkpt lat="44.99281" lon="5.54662">
        <ele>1646.88</ele>
        <time>2014-10-04T08:53:50Z</time>
      </trkpt>
      <trkpt lat="44.99267" lon="5.54658">
        <ele>1643.99</ele>
        <time>2014-10-04T08:54:01Z</time>
      </trkpt>
      <trkpt lat="44.99265" lon="5.54657">
        <ele>1643.51</ele>
        <time>2014-10-04T08:54:03Z</time>
      </trkpt>
      <trkpt lat="44.99262" lon="5.54657">
        <ele>1643.51</ele>
        <time>2014-10-04T08:54:05Z</time>
      </trkpt>
      <trkpt lat="44.99251" lon="5.54653">
        <ele>1641.11</ele>
        <time>2014-10-04T08:54:16Z</time>
      </trkpt>
      <trkpt lat="44.99247" lon="5.54651">
        <ele>1639.67</ele>
        <time>2014-10-04T08:54:28Z</time>
      </trkpt>
      <trkpt lat="44.9924" lon="5.54648">
        <ele>1638.7</ele>
        <time>2014-10-04T08:54:32Z</time>
      </trkpt>
      <trkpt lat="44.99231" lon="5.54644">
        <ele>1637.74</ele>
        <time>2014-10-04T08:54:37Z</time>
      </trkpt>
      <trkpt lat="44.99216" lon="5.54645">
        <ele>1635.34</ele>
        <time>2014-10-04T08:54:45Z</time>
      </trkpt>
      <trkpt lat="44.99215" lon="5.54647">
        <ele>1634.86</ele>
        <time>2014-10-04T08:54:47Z</time>
      </trkpt>
      <trkpt lat="44.99212" lon="5.54648">
        <ele>1633.9</ele>
        <time>2014-10-04T08:54:50Z</time>
      </trkpt>
      <trkpt lat="44.99204" lon="5.54639">
        <ele>1632.46</ele>
        <time>2014-10-04T08:54:58Z</time>
      </trkpt>
      <trkpt lat="44.99197" lon="5.54638">
        <ele>1630.53</ele>
        <time>2014-10-04T08:55:04Z</time>
      </trkpt>
      <trkpt lat="44.9919" lon="5.54634">
        <ele>1630.05</ele>
        <time>2014-10-04T08:55:08Z</time>
      </trkpt>
      <trkpt lat="44.99169" lon="5.54635">
        <ele>1626.69</ele>
        <time>2014-10-04T08:55:21Z</time>
      </trkpt>
      <trkpt lat="44.99162" lon="5.54633">
        <ele>1624.77</ele>
        <time>2014-10-04T08:55:27Z</time>
      </trkpt>
      <trkpt lat="44.9916" lon="5.54632">
        <ele>1624.28</ele>
        <time>2014-10-04T08:55:30Z</time>
      </trkpt>
      <trkpt lat="44.99159" lon="5.54631">
        <ele>1623.8</ele>
        <time>2014-10-04T08:55:32Z</time>
      </trkpt>
      <trkpt lat="44.99154" lon="5.54628">
        <ele>1622.84</ele>
        <time>2014-10-04T08:55:36Z</time>
      </trkpt>
      <trkpt lat="44.99149" lon="5.54627">
        <ele>1619.48</ele>
        <time>2014-10-04T08:55:45Z</time>
      </trkpt>
      <trkpt lat="44.99146" lon="5.54624">
        <ele>1619.48</ele>
        <time>2014-10-04T08:55:47Z</time>
      </trkpt>
      <trkpt lat="44.99137" lon="5.54619">
        <ele>1617.56</ele>
        <time>2014-10-04T08:55:55Z</time>
      </trkpt>
      <trkpt lat="44.99125" lon="5.54606">
        <ele>1615.63</ele>
        <time>2014-10-04T08:56:03Z</time>
      </trkpt>
      <trkpt lat="44.99118" lon="5.54597">
        <ele>1612.75</ele>
        <time>2014-10-04T08:56:15Z</time>
      </trkpt>
      <trkpt lat="44.99108" lon="5.54594">
        <ele>1610.35</ele>
        <time>2014-10-04T08:56:25Z</time>
      </trkpt>
      <trkpt lat="44.991" lon="5.54591">
        <ele>1608.9</ele>
        <time>2014-10-04T08:56:30Z</time>
      </trkpt>
      <trkpt lat="44.99094" lon="5.5459">
        <ele>1607.46</ele>
        <time>2014-10-04T08:56:37Z</time>
      </trkpt>
      <trkpt lat="44.9908" lon="5.54593">
        <ele>1605.54</ele>
        <time>2014-10-04T08:56:46Z</time>
      </trkpt>
      <trkpt lat="44.99067" lon="5.54592">
        <ele>1603.62</ele>
        <time>2014-10-04T08:56:57Z</time>
      </trkpt>
      <trkpt lat="44.99054" lon="5.54586">
        <ele>1600.25</ele>
        <time>2014-10-04T08:57:09Z</time>
      </trkpt>
      <trkpt lat="44.99052" lon="5.54584">
        <ele>1599.77</ele>
        <time>2014-10-04T08:57:27Z</time>
      </trkpt>
      <trkpt lat="44.99052" lon="5.54584">
        <ele>1599.29</ele>
        <time>2014-10-04T08:57:32Z</time>
      </trkpt>
      <trkpt lat="44.99059" lon="5.54591">
        <ele>1596.89</ele>
        <time>2014-10-04T08:57:42Z</time>
      </trkpt>
      <trkpt lat="44.99068" lon="5.54596">
        <ele>1595.45</ele>
        <time>2014-10-04T08:57:52Z</time>
      </trkpt>
      <trkpt lat="44.99068" lon="5.54597">
        <ele>1594.96</ele>
        <time>2014-10-04T08:57:54Z</time>
      </trkpt>
      <trkpt lat="44.99075" lon="5.54605">
        <ele>1593.52</ele>
        <time>2014-10-04T08:57:59Z</time>
      </trkpt>
      <trkpt lat="44.99081" lon="5.54606">
        <ele>1592.56</ele>
        <time>2014-10-04T08:58:05Z</time>
      </trkpt>
      <trkpt lat="44.99083" lon="5.54607">
        <ele>1592.08</ele>
        <time>2014-10-04T08:58:07Z</time>
      </trkpt>
      <trkpt lat="44.99085" lon="5.54612">
        <ele>1591.12</ele>
        <time>2014-10-04T08:58:11Z</time>
      </trkpt>
      <trkpt lat="44.99079" lon="5.54611">
        <ele>1589.2</ele>
        <time>2014-10-04T08:58:19Z</time>
      </trkpt>
      <trkpt lat="44.99076" lon="5.54611">
        <ele>1588.24</ele>
        <time>2014-10-04T08:58:34Z</time>
      </trkpt>
      <trkpt lat="44.9907" lon="5.5461">
        <ele>1587.75</ele>
        <time>2014-10-04T08:58:38Z</time>
      </trkpt>
      <trkpt lat="44.99063" lon="5.5461">
        <ele>1585.35</ele>
        <time>2014-10-04T08:58:47Z</time>
      </trkpt>
      <trkpt lat="44.99059" lon="5.54612">
        <ele>1584.39</ele>
        <time>2014-10-04T08:58:50Z</time>
      </trkpt>
      <trkpt lat="44.99043" lon="5.54612">
        <ele>1582.47</ele>
        <time>2014-10-04T08:59:02Z</time>
      </trkpt>
      <trkpt lat="44.99042" lon="5.54615">
        <ele>1581.51</ele>
        <time>2014-10-04T08:59:05Z</time>
      </trkpt>
      <trkpt lat="44.99021" lon="5.54609">
        <ele>1578.14</ele>
        <time>2014-10-04T08:59:18Z</time>
      </trkpt>
      <trkpt lat="44.99024" lon="5.54618">
        <ele>1577.18</ele>
        <time>2014-10-04T08:59:22Z</time>
      </trkpt>
      <trkpt lat="44.99029" lon="5.5463">
        <ele>1576.22</ele>
        <time>2014-10-04T08:59:26Z</time>
      </trkpt>
      <trkpt lat="44.9904" lon="5.5464">
        <ele>1573.33</ele>
        <time>2014-10-04T08:59:39Z</time>
      </trkpt>
      <trkpt lat="44.99046" lon="5.54642">
        <ele>1571.41</ele>
        <time>2014-10-04T08:59:45Z</time>
      </trkpt>
      <trkpt lat="44.9905" lon="5.54644">
        <ele>1570.45</ele>
        <time>2014-10-04T08:59:49Z</time>
      </trkpt>
      <trkpt lat="44.99061" lon="5.5465">
        <ele>1568.53</ele>
        <time>2014-10-04T08:59:59Z</time>
      </trkpt>
      <trkpt lat="44.99061" lon="5.54651">
        <ele>1568.05</ele>
        <time>2014-10-04T09:00:01Z</time>
      </trkpt>
      <trkpt lat="44.99053" lon="5.54651">
        <ele>1566.12</ele>
        <time>2014-10-04T09:00:10Z</time>
      </trkpt>
      <trkpt lat="44.99044" lon="5.54652">
        <ele>1564.68</ele>
        <time>2014-10-04T09:00:17Z</time>
      </trkpt>
      <trkpt lat="44.99031" lon="5.54656">
        <ele>1562.76</ele>
        <time>2014-10-04T09:00:26Z</time>
      </trkpt>
      <trkpt lat="44.99024" lon="5.5466">
        <ele>1561.32</ele>
        <time>2014-10-04T09:00:31Z</time>
      </trkpt>
      <trkpt lat="44.99011" lon="5.54666">
        <ele>1557.95</ele>
        <time>2014-10-04T09:00:42Z</time>
      </trkpt>
      <trkpt lat="44.99011" lon="5.54666">
        <ele>1557.47</ele>
        <time>2014-10-04T09:00:43Z</time>
      </trkpt>
      <trkpt lat="44.99012" lon="5.54669">
        <ele>1556.51</ele>
        <time>2014-10-04T09:00:48Z</time>
      </trkpt>
      <trkpt lat="44.99017" lon="5.54673">
        <ele>1555.55</ele>
        <time>2014-10-04T09:00:53Z</time>
      </trkpt>
      <trkpt lat="44.99026" lon="5.54678">
        <ele>1553.15</ele>
        <time>2014-10-04T09:01:02Z</time>
      </trkpt>
      <trkpt lat="44.99031" lon="5.54682">
        <ele>1552.19</ele>
        <time>2014-10-04T09:01:07Z</time>
      </trkpt>
      <trkpt lat="44.99033" lon="5.54685">
        <ele>1551.22</ele>
        <time>2014-10-04T09:01:13Z</time>
      </trkpt>
      <trkpt lat="44.99038" lon="5.5469">
        <ele>1549.78</ele>
        <time>2014-10-04T09:01:24Z</time>
      </trkpt>
      <trkpt lat="44.99036" lon="5.54688">
        <ele>1549.3</ele>
        <time>2014-10-04T09:01:33Z</time>
      </trkpt>
      <trkpt lat="44.99024" lon="5.54683">
        <ele>1547.86</ele>
        <time>2014-10-04T09:01:42Z</time>
      </trkpt>
      <trkpt lat="44.99021" lon="5.54685">
        <ele>1547.38</ele>
        <time>2014-10-04T09:01:46Z</time>
      </trkpt>
      <trkpt lat="44.99017" lon="5.54684">
        <ele>1546.42</ele>
        <time>2014-10-04T09:01:50Z</time>
      </trkpt>
      <trkpt lat="44.99013" lon="5.5468">
        <ele>1545.94</ele>
        <time>2014-10-04T09:01:55Z</time>
      </trkpt>
      <trkpt lat="44.99007" lon="5.54681">
        <ele>1544.01</ele>
        <time>2014-10-04T09:02:01Z</time>
      </trkpt>
      <trkpt lat="44.99" lon="5.5468">
        <ele>1544.01</ele>
        <time>2014-10-04T09:02:05Z</time>
      </trkpt>
      <trkpt lat="44.98997" lon="5.54678">
        <ele>1543.53</ele>
        <time>2014-10-04T09:02:07Z</time>
      </trkpt>
      <trkpt lat="44.98993" lon="5.54675">
        <ele>1542.57</ele>
        <time>2014-10-04T09:02:12Z</time>
      </trkpt>
      <trkpt lat="44.98987" lon="5.54674">
        <ele>1541.61</ele>
        <time>2014-10-04T09:02:17Z</time>
      </trkpt>
      <trkpt lat="44.98976" lon="5.54677">
        <ele>1540.17</ele>
        <time>2014-10-04T09:02:26Z</time>
      </trkpt>
      <trkpt lat="44.98982" lon="5.54684">
        <ele>1539.69</ele>
        <time>2014-10-04T09:02:36Z</time>
      </trkpt>
      <trkpt lat="44.98982" lon="5.54684">
        <ele>1539.21</ele>
        <time>2014-10-04T09:02:56Z</time>
      </trkpt>
      <trkpt lat="44.98982" lon="5.54684">
        <ele>1539.21</ele>
        <time>2014-10-04T09:03:07Z</time>
      </trkpt>
      <trkpt lat="44.98983" lon="5.54682">
        <ele>1539.21</ele>
        <time>2014-10-04T09:03:28Z</time>
      </trkpt>
      <trkpt lat="44.98983" lon="5.54681">
        <ele>1539.21</ele>
        <time>2014-10-04T09:03:48Z</time>
      </trkpt>
      <trkpt lat="44.98983" lon="5.54682">
        <ele>1539.21</ele>
        <time>2014-10-04T09:04:01Z</time>
      </trkpt>
      <trkpt lat="44.98981" lon="5.54685">
        <ele>1539.21</ele>
        <time>2014-10-04T09:04:12Z</time>
      </trkpt>
      <trkpt lat="44.98981" lon="5.54685">
        <ele>1539.69</ele>
        <time>2014-10-04T09:04:22Z</time>
      </trkpt>
      <trkpt lat="44.98979" lon="5.54695">
        <ele>1538.73</ele>
        <time>2014-10-04T09:14:02Z</time>
      </trkpt>
      <trkpt lat="44.98981" lon="5.54692">
        <ele>1538.25</ele>
        <time>2014-10-04T09:14:05Z</time>
      </trkpt>
      <trkpt lat="44.98985" lon="5.54695">
        <ele>1537.29</ele>
        <time>2014-10-04T09:14:11Z</time>
      </trkpt>
      <trkpt lat="44.98987" lon="5.54697">
        <ele>1536.8</ele>
        <time>2014-10-04T09:14:13Z</time>
      </trkpt>
      <trkpt lat="44.98996" lon="5.54705">
        <ele>1535.84</ele>
        <time>2014-10-04T09:14:22Z</time>
      </trkpt>
      <trkpt lat="44.99009" lon="5.5471">
        <ele>1533.92</ele>
        <time>2014-10-04T09:14:32Z</time>
      </trkpt>
      <trkpt lat="44.99013" lon="5.54712">
        <ele>1533.92</ele>
        <time>2014-10-04T09:14:37Z</time>
      </trkpt>
      <trkpt lat="44.99017" lon="5.54716">
        <ele>1532.96</ele>
        <time>2014-10-04T09:14:40Z</time>
      </trkpt>
      <trkpt lat="44.99019" lon="5.54718">
        <ele>1532.96</ele>
        <time>2014-10-04T09:14:42Z</time>
      </trkpt>
      <trkpt lat="44.9902" lon="5.54726">
        <ele>1532</ele>
        <time>2014-10-04T09:14:46Z</time>
      </trkpt>
      <trkpt lat="44.99013" lon="5.54723">
        <ele>1531.04</ele>
        <time>2014-10-04T09:14:55Z</time>
      </trkpt>
      <trkpt lat="44.99009" lon="5.54722">
        <ele>1530.56</ele>
        <time>2014-10-04T09:14:58Z</time>
      </trkpt>
      <trkpt lat="44.98996" lon="5.54711">
        <ele>1529.11</ele>
        <time>2014-10-04T09:15:09Z</time>
      </trkpt>
      <trkpt lat="44.98988" lon="5.54709">
        <ele>1528.15</ele>
        <time>2014-10-04T09:15:15Z</time>
      </trkpt>
      <trkpt lat="44.98981" lon="5.54701">
        <ele>1527.19</ele>
        <time>2014-10-04T09:15:20Z</time>
      </trkpt>
      <trkpt lat="44.98974" lon="5.547">
        <ele>1526.71</ele>
        <time>2014-10-04T09:15:26Z</time>
      </trkpt>
      <trkpt lat="44.98971" lon="5.54698">
        <ele>1526.23</ele>
        <time>2014-10-04T09:15:29Z</time>
      </trkpt>
      <trkpt lat="44.98962" lon="5.54686">
        <ele>1523.83</ele>
        <time>2014-10-04T09:15:41Z</time>
      </trkpt>
      <trkpt lat="44.98958" lon="5.54685">
        <ele>1523.83</ele>
        <time>2014-10-04T09:15:45Z</time>
      </trkpt>
      <trkpt lat="44.98955" lon="5.54682">
        <ele>1522.87</ele>
        <time>2014-10-04T09:15:48Z</time>
      </trkpt>
      <trkpt lat="44.98949" lon="5.54679">
        <ele>1522.39</ele>
        <time>2014-10-04T09:15:52Z</time>
      </trkpt>
      <trkpt lat="44.98942" lon="5.54675">
        <ele>1521.9</ele>
        <time>2014-10-04T09:16:00Z</time>
      </trkpt>
      <trkpt lat="44.98945" lon="5.54669">
        <ele>1521.9</ele>
        <time>2014-10-04T09:16:06Z</time>
      </trkpt>
      <trkpt lat="44.98947" lon="5.54665">
        <ele>1521.9</ele>
        <time>2014-10-04T09:16:08Z</time>
      </trkpt>
      <trkpt lat="44.9895" lon="5.54658">
        <ele>1520.94</ele>
        <time>2014-10-04T09:16:14Z</time>
      </trkpt>
      <trkpt lat="44.98952" lon="5.54647">
        <ele>1521.9</ele>
        <time>2014-10-04T09:16:21Z</time>
      </trkpt>
      <trkpt lat="44.98953" lon="5.54629">
        <ele>1521.42</ele>
        <time>2014-10-04T09:16:31Z</time>
      </trkpt>
      <trkpt lat="44.98956" lon="5.54612">
        <ele>1521.9</ele>
        <time>2014-10-04T09:16:39Z</time>
      </trkpt>
      <trkpt lat="44.98958" lon="5.54608">
        <ele>1521.9</ele>
        <time>2014-10-04T09:16:41Z</time>
      </trkpt>
      <trkpt lat="44.98961" lon="5.54599">
        <ele>1521.42</ele>
        <time>2014-10-04T09:16:46Z</time>
      </trkpt>
      <trkpt lat="44.98958" lon="5.54591">
        <ele>1521.42</ele>
        <time>2014-10-04T09:16:51Z</time>
      </trkpt>
      <trkpt lat="44.98958" lon="5.54584">
        <ele>1521.42</ele>
        <time>2014-10-04T09:16:55Z</time>
      </trkpt>
      <trkpt lat="44.98955" lon="5.54574">
        <ele>1520.94</ele>
        <time>2014-10-04T09:17:03Z</time>
      </trkpt>
      <trkpt lat="44.98951" lon="5.54565">
        <ele>1520.94</ele>
        <time>2014-10-04T09:17:09Z</time>
      </trkpt>
      <trkpt lat="44.98949" lon="5.5456">
        <ele>1520.94</ele>
        <time>2014-10-04T09:17:12Z</time>
      </trkpt>
      <trkpt lat="44.98949" lon="5.54555">
        <ele>1520.94</ele>
        <time>2014-10-04T09:17:14Z</time>
      </trkpt>
      <trkpt lat="44.98953" lon="5.54543">
        <ele>1520.94</ele>
        <time>2014-10-04T09:17:21Z</time>
      </trkpt>
      <trkpt lat="44.98948" lon="5.54539">
        <ele>1520.46</ele>
        <time>2014-10-04T09:17:26Z</time>
      </trkpt>
      <trkpt lat="44.98946" lon="5.54532">
        <ele>1519.98</ele>
        <time>2014-10-04T09:17:30Z</time>
      </trkpt>
      <trkpt lat="44.98944" lon="5.54524">
        <ele>1519.5</ele>
        <time>2014-10-04T09:17:34Z</time>
      </trkpt>
      <trkpt lat="44.98939" lon="5.54521">
        <ele>1519.02</ele>
        <time>2014-10-04T09:17:39Z</time>
      </trkpt>
      <trkpt lat="44.9893" lon="5.54506">
        <ele>1519.02</ele>
        <time>2014-10-04T09:17:50Z</time>
      </trkpt>
      <trkpt lat="44.98928" lon="5.54504">
        <ele>1519.02</ele>
        <time>2014-10-04T09:17:55Z</time>
      </trkpt>
      <trkpt lat="44.98922" lon="5.54494">
        <ele>1519.02</ele>
        <time>2014-10-04T09:18:00Z</time>
      </trkpt>
      <trkpt lat="44.98918" lon="5.54492">
        <ele>1519.02</ele>
        <time>2014-10-04T09:18:04Z</time>
      </trkpt>
      <trkpt lat="44.98916" lon="5.54488">
        <ele>1518.54</ele>
        <time>2014-10-04T09:18:08Z</time>
      </trkpt>
      <trkpt lat="44.98914" lon="5.54483">
        <ele>1518.54</ele>
        <time>2014-10-04T09:18:10Z</time>
      </trkpt>
      <trkpt lat="44.98911" lon="5.54474">
        <ele>1518.06</ele>
        <time>2014-10-04T09:18:15Z</time>
      </trkpt>
      <trkpt lat="44.98904" lon="5.54462">
        <ele>1517.58</ele>
        <time>2014-10-04T09:18:25Z</time>
      </trkpt>
      <trkpt lat="44.98898" lon="5.54452">
        <ele>1517.1</ele>
        <time>2014-10-04T09:18:31Z</time>
      </trkpt>
      <trkpt lat="44.98896" lon="5.54446">
        <ele>1517.58</ele>
        <time>2014-10-04T09:18:35Z</time>
      </trkpt>
      <trkpt lat="44.98885" lon="5.54431">
        <ele>1516.62</ele>
        <time>2014-10-04T09:18:43Z</time>
      </trkpt>
      <trkpt lat="44.98882" lon="5.54424">
        <ele>1516.62</ele>
        <time>2014-10-04T09:18:50Z</time>
      </trkpt>
      <trkpt lat="44.98877" lon="5.54412">
        <ele>1516.62</ele>
        <time>2014-10-04T09:18:59Z</time>
      </trkpt>
      <trkpt lat="44.98874" lon="5.54405">
        <ele>1516.62</ele>
        <time>2014-10-04T09:19:04Z</time>
      </trkpt>
      <trkpt lat="44.98873" lon="5.54403">
        <ele>1516.62</ele>
        <time>2014-10-04T09:19:05Z</time>
      </trkpt>
      <trkpt lat="44.98866" lon="5.54396">
        <ele>1516.14</ele>
        <time>2014-10-04T09:19:11Z</time>
      </trkpt>
      <trkpt lat="44.98864" lon="5.54386">
        <ele>1516.14</ele>
        <time>2014-10-04T09:19:18Z</time>
      </trkpt>
      <trkpt lat="44.98854" lon="5.54372">
        <ele>1515.18</ele>
        <time>2014-10-04T09:19:30Z</time>
      </trkpt>
      <trkpt lat="44.98852" lon="5.54366">
        <ele>1515.18</ele>
        <time>2014-10-04T09:19:32Z</time>
      </trkpt>
      <trkpt lat="44.98839" lon="5.54345">
        <ele>1514.21</ele>
        <time>2014-10-04T09:19:44Z</time>
      </trkpt>
      <trkpt lat="44.98836" lon="5.54344">
        <ele>1513.73</ele>
        <time>2014-10-04T09:19:47Z</time>
      </trkpt>
      <trkpt lat="44.98836" lon="5.54342">
        <ele>1514.21</ele>
        <time>2014-10-04T09:19:49Z</time>
      </trkpt>
      <trkpt lat="44.98832" lon="5.54337">
        <ele>1514.21</ele>
        <time>2014-10-04T09:19:55Z</time>
      </trkpt>
      <trkpt lat="44.98828" lon="5.54329">
        <ele>1514.69</ele>
        <time>2014-10-04T09:19:59Z</time>
      </trkpt>
      <trkpt lat="44.9881" lon="5.54315">
        <ele>1513.25</ele>
        <time>2014-10-04T09:20:11Z</time>
      </trkpt>
      <trkpt lat="44.98808" lon="5.54311">
        <ele>1513.73</ele>
        <time>2014-10-04T09:20:16Z</time>
      </trkpt>
      <trkpt lat="44.98804" lon="5.54298">
        <ele>1512.29</ele>
        <time>2014-10-04T09:20:24Z</time>
      </trkpt>
      <trkpt lat="44.98801" lon="5.5429">
        <ele>1512.29</ele>
        <time>2014-10-04T09:20:29Z</time>
      </trkpt>
      <trkpt lat="44.98798" lon="5.54287">
        <ele>1512.77</ele>
        <time>2014-10-04T09:20:33Z</time>
      </trkpt>
      <trkpt lat="44.98792" lon="5.54279">
        <ele>1512.77</ele>
        <time>2014-10-04T09:20:41Z</time>
      </trkpt>
      <trkpt lat="44.98788" lon="5.54273">
        <ele>1514.21</ele>
        <time>2014-10-04T09:20:46Z</time>
      </trkpt>
      <trkpt lat="44.98784" lon="5.54264">
        <ele>1514.69</ele>
        <time>2014-10-04T09:20:53Z</time>
      </trkpt>
      <trkpt lat="44.98776" lon="5.54253">
        <ele>1514.21</ele>
        <time>2014-10-04T09:21:03Z</time>
      </trkpt>
      <trkpt lat="44.98764" lon="5.54245">
        <ele>1513.73</ele>
        <time>2014-10-04T09:21:12Z</time>
      </trkpt>
      <trkpt lat="44.98758" lon="5.5424">
        <ele>1512.29</ele>
        <time>2014-10-04T09:21:16Z</time>
      </trkpt>
      <trkpt lat="44.98751" lon="5.5423">
        <ele>1512.77</ele>
        <time>2014-10-04T09:21:24Z</time>
      </trkpt>
      <trkpt lat="44.98747" lon="5.54223">
        <ele>1512.77</ele>
        <time>2014-10-04T09:21:31Z</time>
      </trkpt>
      <trkpt lat="44.98744" lon="5.54218">
        <ele>1512.77</ele>
        <time>2014-10-04T09:21:37Z</time>
      </trkpt>
      <trkpt lat="44.98741" lon="5.5422">
        <ele>1512.29</ele>
        <time>2014-10-04T09:21:39Z</time>
      </trkpt>
      <trkpt lat="44.98735" lon="5.54214">
        <ele>1512.29</ele>
        <time>2014-10-04T09:21:44Z</time>
      </trkpt>
      <trkpt lat="44.98732" lon="5.54212">
        <ele>1512.77</ele>
        <time>2014-10-04T09:21:47Z</time>
      </trkpt>
      <trkpt lat="44.98724" lon="5.54206">
        <ele>1512.77</ele>
        <time>2014-10-04T09:21:55Z</time>
      </trkpt>
      <trkpt lat="44.98716" lon="5.54191">
        <ele>1512.77</ele>
        <time>2014-10-04T09:22:04Z</time>
      </trkpt>
      <trkpt lat="44.98714" lon="5.54187">
        <ele>1512.77</ele>
        <time>2014-10-04T09:22:07Z</time>
      </trkpt>
      <trkpt lat="44.98708" lon="5.54184">
        <ele>1512.77</ele>
        <time>2014-10-04T09:22:14Z</time>
      </trkpt>
      <trkpt lat="44.98705" lon="5.54184">
        <ele>1513.25</ele>
        <time>2014-10-04T09:22:20Z</time>
      </trkpt>
      <trkpt lat="44.98704" lon="5.54175">
        <ele>1513.73</ele>
        <time>2014-10-04T09:22:24Z</time>
      </trkpt>
      <trkpt lat="44.98702" lon="5.54171">
        <ele>1513.25</ele>
        <time>2014-10-04T09:22:26Z</time>
      </trkpt>
      <trkpt lat="44.98694" lon="5.54159">
        <ele>1513.25</ele>
        <time>2014-10-04T09:22:36Z</time>
      </trkpt>
      <trkpt lat="44.98691" lon="5.54157">
        <ele>1512.77</ele>
        <time>2014-10-04T09:22:40Z</time>
      </trkpt>
      <trkpt lat="44.98689" lon="5.54153">
        <ele>1513.25</ele>
        <time>2014-10-04T09:22:43Z</time>
      </trkpt>
      <trkpt lat="44.98684" lon="5.54147">
        <ele>1513.25</ele>
        <time>2014-10-04T09:22:48Z</time>
      </trkpt>
      <trkpt lat="44.98682" lon="5.54142">
        <ele>1513.25</ele>
        <time>2014-10-04T09:22:50Z</time>
      </trkpt>
      <trkpt lat="44.98678" lon="5.54134">
        <ele>1513.25</ele>
        <time>2014-10-04T09:22:56Z</time>
      </trkpt>
      <trkpt lat="44.98675" lon="5.54131">
        <ele>1513.25</ele>
        <time>2014-10-04T09:22:59Z</time>
      </trkpt>
      <trkpt lat="44.98671" lon="5.54127">
        <ele>1513.25</ele>
        <time>2014-10-04T09:23:04Z</time>
      </trkpt>
      <trkpt lat="44.98662" lon="5.54117">
        <ele>1513.25</ele>
        <time>2014-10-04T09:23:12Z</time>
      </trkpt>
      <trkpt lat="44.98656" lon="5.54107">
        <ele>1513.73</ele>
        <time>2014-10-04T09:23:21Z</time>
      </trkpt>
      <trkpt lat="44.98654" lon="5.54103">
        <ele>1513.73</ele>
        <time>2014-10-04T09:23:23Z</time>
      </trkpt>
      <trkpt lat="44.98646" lon="5.54094">
        <ele>1513.25</ele>
        <time>2014-10-04T09:23:30Z</time>
      </trkpt>
      <trkpt lat="44.98637" lon="5.54087">
        <ele>1513.25</ele>
        <time>2014-10-04T09:23:35Z</time>
      </trkpt>
      <trkpt lat="44.9862" lon="5.54076">
        <ele>1513.73</ele>
        <time>2014-10-04T09:23:48Z</time>
      </trkpt>
      <trkpt lat="44.98617" lon="5.5407">
        <ele>1514.21</ele>
        <time>2014-10-04T09:23:54Z</time>
      </trkpt>
      <trkpt lat="44.98614" lon="5.54063">
        <ele>1514.21</ele>
        <time>2014-10-04T09:24:00Z</time>
      </trkpt>
      <trkpt lat="44.98613" lon="5.5406">
        <ele>1514.21</ele>
        <time>2014-10-04T09:24:02Z</time>
      </trkpt>
      <trkpt lat="44.98595" lon="5.54038">
        <ele>1513.73</ele>
        <time>2014-10-04T09:24:14Z</time>
      </trkpt>
      <trkpt lat="44.98589" lon="5.54031">
        <ele>1515.18</ele>
        <time>2014-10-04T09:24:21Z</time>
      </trkpt>
      <trkpt lat="44.9858" lon="5.54026">
        <ele>1515.18</ele>
        <time>2014-10-04T09:24:31Z</time>
      </trkpt>
      <trkpt lat="44.98577" lon="5.54021">
        <ele>1515.66</ele>
        <time>2014-10-04T09:24:36Z</time>
      </trkpt>
      <trkpt lat="44.98573" lon="5.54021">
        <ele>1515.66</ele>
        <time>2014-10-04T09:24:39Z</time>
      </trkpt>
      <trkpt lat="44.98568" lon="5.54024">
        <ele>1514.69</ele>
        <time>2014-10-04T09:24:44Z</time>
      </trkpt>
      <trkpt lat="44.98566" lon="5.54023">
        <ele>1514.69</ele>
        <time>2014-10-04T09:24:46Z</time>
      </trkpt>
      <trkpt lat="44.9856" lon="5.54018">
        <ele>1515.18</ele>
        <time>2014-10-04T09:24:50Z</time>
      </trkpt>
      <trkpt lat="44.98555" lon="5.54015">
        <ele>1515.18</ele>
        <time>2014-10-04T09:24:55Z</time>
      </trkpt>
      <trkpt lat="44.98554" lon="5.54011">
        <ele>1515.66</ele>
        <time>2014-10-04T09:24:59Z</time>
      </trkpt>
      <trkpt lat="44.98553" lon="5.54009">
        <ele>1516.14</ele>
        <time>2014-10-04T09:25:01Z</time>
      </trkpt>
      <trkpt lat="44.98551" lon="5.54006">
        <ele>1516.14</ele>
        <time>2014-10-04T09:25:06Z</time>
      </trkpt>
      <trkpt lat="44.98543" lon="5.53995">
        <ele>1516.14</ele>
        <time>2014-10-04T09:25:14Z</time>
      </trkpt>
      <trkpt lat="44.98543" lon="5.53994">
        <ele>1516.62</ele>
        <time>2014-10-04T09:25:16Z</time>
      </trkpt>
      <trkpt lat="44.98541" lon="5.53987">
        <ele>1517.1</ele>
        <time>2014-10-04T09:25:21Z</time>
      </trkpt>
      <trkpt lat="44.98536" lon="5.53976">
        <ele>1517.58</ele>
        <time>2014-10-04T09:25:29Z</time>
      </trkpt>
      <trkpt lat="44.98531" lon="5.53967">
        <ele>1517.58</ele>
        <time>2014-10-04T09:25:36Z</time>
      </trkpt>
      <trkpt lat="44.98525" lon="5.53956">
        <ele>1518.54</ele>
        <time>2014-10-04T09:25:46Z</time>
      </trkpt>
      <trkpt lat="44.98522" lon="5.53951">
        <ele>1519.02</ele>
        <time>2014-10-04T09:25:51Z</time>
      </trkpt>
      <trkpt lat="44.98517" lon="5.53946">
        <ele>1518.54</ele>
        <time>2014-10-04T09:25:56Z</time>
      </trkpt>
      <trkpt lat="44.98509" lon="5.53936">
        <ele>1519.02</ele>
        <time>2014-10-04T09:26:04Z</time>
      </trkpt>
      <trkpt lat="44.98504" lon="5.5393">
        <ele>1519.5</ele>
        <time>2014-10-04T09:26:09Z</time>
      </trkpt>
      <trkpt lat="44.98502" lon="5.53927">
        <ele>1519.5</ele>
        <time>2014-10-04T09:26:12Z</time>
      </trkpt>
      <trkpt lat="44.98495" lon="5.53918">
        <ele>1519.5</ele>
        <time>2014-10-04T09:26:20Z</time>
      </trkpt>
      <trkpt lat="44.98489" lon="5.53915">
        <ele>1520.46</ele>
        <time>2014-10-04T09:26:25Z</time>
      </trkpt>
      <trkpt lat="44.98487" lon="5.53913">
        <ele>1520.46</ele>
        <time>2014-10-04T09:26:27Z</time>
      </trkpt>
      <trkpt lat="44.9847" lon="5.53898">
        <ele>1520.46</ele>
        <time>2014-10-04T09:26:38Z</time>
      </trkpt>
      <trkpt lat="44.98465" lon="5.53893">
        <ele>1521.42</ele>
        <time>2014-10-04T09:26:42Z</time>
      </trkpt>
      <trkpt lat="44.98463" lon="5.53889">
        <ele>1521.42</ele>
        <time>2014-10-04T09:26:45Z</time>
      </trkpt>
      <trkpt lat="44.98456" lon="5.53884">
        <ele>1521.9</ele>
        <time>2014-10-04T09:26:51Z</time>
      </trkpt>
      <trkpt lat="44.98454" lon="5.53883">
        <ele>1521.9</ele>
        <time>2014-10-04T09:26:55Z</time>
      </trkpt>
      <trkpt lat="44.98439" lon="5.53878">
        <ele>1522.87</ele>
        <time>2014-10-04T09:27:07Z</time>
      </trkpt>
      <trkpt lat="44.98428" lon="5.53879">
        <ele>1523.35</ele>
        <time>2014-10-04T09:27:15Z</time>
      </trkpt>
      <trkpt lat="44.98424" lon="5.53875">
        <ele>1523.83</ele>
        <time>2014-10-04T09:27:23Z</time>
      </trkpt>
      <trkpt lat="44.9842" lon="5.53869">
        <ele>1523.83</ele>
        <time>2014-10-04T09:27:29Z</time>
      </trkpt>
      <trkpt lat="44.98413" lon="5.53862">
        <ele>1523.83</ele>
        <time>2014-10-04T09:27:36Z</time>
      </trkpt>
      <trkpt lat="44.98408" lon="5.53854">
        <ele>1524.31</ele>
        <time>2014-10-04T09:27:43Z</time>
      </trkpt>
      <trkpt lat="44.98399" lon="5.53848">
        <ele>1524.79</ele>
        <time>2014-10-04T09:27:51Z</time>
      </trkpt>
      <trkpt lat="44.9839" lon="5.53843">
        <ele>1524.31</ele>
        <time>2014-10-04T09:28:03Z</time>
      </trkpt>
      <trkpt lat="44.98384" lon="5.53836">
        <ele>1525.27</ele>
        <time>2014-10-04T09:28:09Z</time>
      </trkpt>
      <trkpt lat="44.98377" lon="5.53829">
        <ele>1525.27</ele>
        <time>2014-10-04T09:28:16Z</time>
      </trkpt>
      <trkpt lat="44.98372" lon="5.53823">
        <ele>1525.75</ele>
        <time>2014-10-04T09:28:21Z</time>
      </trkpt>
      <trkpt lat="44.98366" lon="5.53819">
        <ele>1526.23</ele>
        <time>2014-10-04T09:28:27Z</time>
      </trkpt>
      <trkpt lat="44.98359" lon="5.53817">
        <ele>1526.23</ele>
        <time>2014-10-04T09:28:32Z</time>
      </trkpt>
      <trkpt lat="44.98352" lon="5.53817">
        <ele>1526.23</ele>
        <time>2014-10-04T09:28:45Z</time>
      </trkpt>
      <trkpt lat="44.98351" lon="5.53817">
        <ele>1526.23</ele>
        <time>2014-10-04T09:28:46Z</time>
      </trkpt>
      <trkpt lat="44.98343" lon="5.53812">
        <ele>1526.71</ele>
        <time>2014-10-04T09:28:55Z</time>
      </trkpt>
      <trkpt lat="44.98331" lon="5.53807">
        <ele>1526.71</ele>
        <time>2014-10-04T09:29:06Z</time>
      </trkpt>
      <trkpt lat="44.98327" lon="5.53808">
        <ele>1526.71</ele>
        <time>2014-10-04T09:29:09Z</time>
      </trkpt>
      <trkpt lat="44.98321" lon="5.53804">
        <ele>1527.19</ele>
        <time>2014-10-04T09:29:15Z</time>
      </trkpt>
      <trkpt lat="44.98312" lon="5.53798">
        <ele>1527.67</ele>
        <time>2014-10-04T09:29:22Z</time>
      </trkpt>
      <trkpt lat="44.98302" lon="5.538">
        <ele>1527.67</ele>
        <time>2014-10-04T09:29:29Z</time>
      </trkpt>
      <trkpt lat="44.98294" lon="5.53796">
        <ele>1528.15</ele>
        <time>2014-10-04T09:29:37Z</time>
      </trkpt>
      <trkpt lat="44.98284" lon="5.53796">
        <ele>1527.67</ele>
        <time>2014-10-04T09:29:46Z</time>
      </trkpt>
      <trkpt lat="44.98279" lon="5.53796">
        <ele>1528.63</ele>
        <time>2014-10-04T09:29:50Z</time>
      </trkpt>
      <trkpt lat="44.98274" lon="5.53796">
        <ele>1529.59</ele>
        <time>2014-10-04T09:29:54Z</time>
      </trkpt>
      <trkpt lat="44.98255" lon="5.53801">
        <ele>1529.11</ele>
        <time>2014-10-04T09:30:08Z</time>
      </trkpt>
      <trkpt lat="44.98254" lon="5.53802">
        <ele>1529.11</ele>
        <time>2014-10-04T09:30:09Z</time>
      </trkpt>
      <trkpt lat="44.98244" lon="5.53801">
        <ele>1528.63</ele>
        <time>2014-10-04T09:30:26Z</time>
      </trkpt>
      <trkpt lat="44.98243" lon="5.53801">
        <ele>1528.63</ele>
        <time>2014-10-04T09:30:57Z</time>
      </trkpt>
      <trkpt lat="44.98242" lon="5.538">
        <ele>1528.63</ele>
        <time>2014-10-04T09:31:00Z</time>
      </trkpt>
      <trkpt lat="44.9823" lon="5.53789">
        <ele>1529.59</ele>
        <time>2014-10-04T09:31:11Z</time>
      </trkpt>
      <trkpt lat="44.98219" lon="5.53784">
        <ele>1529.59</ele>
        <time>2014-10-04T09:31:20Z</time>
      </trkpt>
      <trkpt lat="44.98205" lon="5.53771">
        <ele>1530.56</ele>
        <time>2014-10-04T09:31:33Z</time>
      </trkpt>
      <trkpt lat="44.98185" lon="5.53773">
        <ele>1531.52</ele>
        <time>2014-10-04T09:31:50Z</time>
      </trkpt>
      <trkpt lat="44.98179" lon="5.53775">
        <ele>1531.04</ele>
        <time>2014-10-04T09:32:01Z</time>
      </trkpt>
      <trkpt lat="44.98166" lon="5.53782">
        <ele>1532</ele>
        <time>2014-10-04T09:32:15Z</time>
      </trkpt>
      <trkpt lat="44.98162" lon="5.53777">
        <ele>1532</ele>
        <time>2014-10-04T09:32:23Z</time>
      </trkpt>
      <trkpt lat="44.98143" lon="5.53779">
        <ele>1532.48</ele>
        <time>2014-10-04T09:32:38Z</time>
      </trkpt>
      <trkpt lat="44.98137" lon="5.53777">
        <ele>1532.96</ele>
        <time>2014-10-04T09:32:45Z</time>
      </trkpt>
      <trkpt lat="44.98127" lon="5.5377">
        <ele>1533.44</ele>
        <time>2014-10-04T09:32:53Z</time>
      </trkpt>
      <trkpt lat="44.98112" lon="5.53762">
        <ele>1533.44</ele>
        <time>2014-10-04T09:33:06Z</time>
      </trkpt>
      <trkpt lat="44.98106" lon="5.53761">
        <ele>1533.92</ele>
        <time>2014-10-04T09:33:09Z</time>
      </trkpt>
      <trkpt lat="44.98085" lon="5.53764">
        <ele>1533.92</ele>
        <time>2014-10-04T09:33:24Z</time>
      </trkpt>
      <trkpt lat="44.98076" lon="5.53757">
        <ele>1534.4</ele>
        <time>2014-10-04T09:33:32Z</time>
      </trkpt>
      <trkpt lat="44.98068" lon="5.5375">
        <ele>1534.4</ele>
        <time>2014-10-04T09:33:40Z</time>
      </trkpt>
      <trkpt lat="44.98055" lon="5.53749">
        <ele>1534.88</ele>
        <time>2014-10-04T09:33:49Z</time>
      </trkpt>
      <trkpt lat="44.9803" lon="5.53753">
        <ele>1534.88</ele>
        <time>2014-10-04T09:34:05Z</time>
      </trkpt>
      <trkpt lat="44.98028" lon="5.53752">
        <ele>1535.36</ele>
        <time>2014-10-04T09:34:09Z</time>
      </trkpt>
      <trkpt lat="44.98015" lon="5.5374">
        <ele>1535.36</ele>
        <time>2014-10-04T09:34:19Z</time>
      </trkpt>
      <trkpt lat="44.98007" lon="5.53732">
        <ele>1535.36</ele>
        <time>2014-10-04T09:34:27Z</time>
      </trkpt>
      <trkpt lat="44.97999" lon="5.5372">
        <ele>1535.84</ele>
        <time>2014-10-04T09:34:38Z</time>
      </trkpt>
      <trkpt lat="44.97994" lon="5.53714">
        <ele>1535.84</ele>
        <time>2014-10-04T09:34:44Z</time>
      </trkpt>
      <trkpt lat="44.97991" lon="5.53712">
        <ele>1535.84</ele>
        <time>2014-10-04T09:34:46Z</time>
      </trkpt>
      <trkpt lat="44.97981" lon="5.53709">
        <ele>1536.32</ele>
        <time>2014-10-04T09:34:53Z</time>
      </trkpt>
      <trkpt lat="44.97971" lon="5.53701">
        <ele>1536.32</ele>
        <time>2014-10-04T09:35:02Z</time>
      </trkpt>
      <trkpt lat="44.97969" lon="5.53698">
        <ele>1536.32</ele>
        <time>2014-10-04T09:35:04Z</time>
      </trkpt>
      <trkpt lat="44.97963" lon="5.53695">
        <ele>1536.8</ele>
        <time>2014-10-04T09:35:08Z</time>
      </trkpt>
      <trkpt lat="44.97945" lon="5.53682">
        <ele>1537.29</ele>
        <time>2014-10-04T09:35:23Z</time>
      </trkpt>
      <trkpt lat="44.97942" lon="5.5368">
        <ele>1537.29</ele>
        <time>2014-10-04T09:35:26Z</time>
      </trkpt>
      <trkpt lat="44.97929" lon="5.5367">
        <ele>1538.25</ele>
        <time>2014-10-04T09:35:38Z</time>
      </trkpt>
      <trkpt lat="44.97918" lon="5.53656">
        <ele>1538.73</ele>
        <time>2014-10-04T09:35:52Z</time>
      </trkpt>
      <trkpt lat="44.97913" lon="5.53653">
        <ele>1538.73</ele>
        <time>2014-10-04T09:35:58Z</time>
      </trkpt>
      <trkpt lat="44.97901" lon="5.53641">
        <ele>1539.21</ele>
        <time>2014-10-04T09:36:09Z</time>
      </trkpt>
      <trkpt lat="44.97895" lon="5.53635">
        <ele>1539.21</ele>
        <time>2014-10-04T09:36:15Z</time>
      </trkpt>
      <trkpt lat="44.97892" lon="5.53628">
        <ele>1539.69</ele>
        <time>2014-10-04T09:36:21Z</time>
      </trkpt>
      <trkpt lat="44.97885" lon="5.53609">
        <ele>1539.69</ele>
        <time>2014-10-04T09:36:31Z</time>
      </trkpt>
      <trkpt lat="44.97881" lon="5.53598">
        <ele>1540.17</ele>
        <time>2014-10-04T09:36:39Z</time>
      </trkpt>
      <trkpt lat="44.97875" lon="5.53581">
        <ele>1540.17</ele>
        <time>2014-10-04T09:36:51Z</time>
      </trkpt>
      <trkpt lat="44.97865" lon="5.53551">
        <ele>1540.17</ele>
        <time>2014-10-04T09:37:04Z</time>
      </trkpt>
      <trkpt lat="44.97855" lon="5.53534">
        <ele>1540.17</ele>
        <time>2014-10-04T09:37:13Z</time>
      </trkpt>
      <trkpt lat="44.97848" lon="5.53518">
        <ele>1540.17</ele>
        <time>2014-10-04T09:37:20Z</time>
      </trkpt>
      <trkpt lat="44.97838" lon="5.53505">
        <ele>1539.69</ele>
        <time>2014-10-04T09:37:30Z</time>
      </trkpt>
      <trkpt lat="44.97833" lon="5.53491">
        <ele>1539.69</ele>
        <time>2014-10-04T09:37:40Z</time>
      </trkpt>
      <trkpt lat="44.97826" lon="5.53485">
        <ele>1539.69</ele>
        <time>2014-10-04T09:37:47Z</time>
      </trkpt>
      <trkpt lat="44.97818" lon="5.53477">
        <ele>1540.17</ele>
        <time>2014-10-04T09:37:59Z</time>
      </trkpt>
      <trkpt lat="44.97818" lon="5.53477">
        <ele>1539.69</ele>
        <time>2014-10-04T09:38:39Z</time>
      </trkpt>
      <trkpt lat="44.97818" lon="5.53477">
        <ele>1540.17</ele>
        <time>2014-10-04T09:38:40Z</time>
      </trkpt>
      <trkpt lat="44.97814" lon="5.53469">
        <ele>1539.69</ele>
        <time>2014-10-04T09:38:48Z</time>
      </trkpt>
      <trkpt lat="44.97812" lon="5.53463">
        <ele>1540.17</ele>
        <time>2014-10-04T09:38:51Z</time>
      </trkpt>
      <trkpt lat="44.97811" lon="5.53456">
        <ele>1540.17</ele>
        <time>2014-10-04T09:38:55Z</time>
      </trkpt>
      <trkpt lat="44.9781" lon="5.53452">
        <ele>1539.69</ele>
        <time>2014-10-04T09:38:58Z</time>
      </trkpt>
      <trkpt lat="44.97802" lon="5.5344">
        <ele>1539.69</ele>
        <time>2014-10-04T09:39:07Z</time>
      </trkpt>
      <trkpt lat="44.97792" lon="5.53429">
        <ele>1539.21</ele>
        <time>2014-10-04T09:39:16Z</time>
      </trkpt>
      <trkpt lat="44.97782" lon="5.53421">
        <ele>1539.21</ele>
        <time>2014-10-04T09:39:27Z</time>
      </trkpt>
      <trkpt lat="44.97777" lon="5.53413">
        <ele>1539.69</ele>
        <time>2014-10-04T09:39:33Z</time>
      </trkpt>
      <trkpt lat="44.97775" lon="5.5341">
        <ele>1539.69</ele>
        <time>2014-10-04T09:39:35Z</time>
      </trkpt>
      <trkpt lat="44.97766" lon="5.53396">
        <ele>1538.73</ele>
        <time>2014-10-04T09:39:45Z</time>
      </trkpt>
      <trkpt lat="44.97761" lon="5.53388">
        <ele>1538.25</ele>
        <time>2014-10-04T09:39:50Z</time>
      </trkpt>
      <trkpt lat="44.97758" lon="5.53385">
        <ele>1538.25</ele>
        <time>2014-10-04T09:39:52Z</time>
      </trkpt>
      <trkpt lat="44.97752" lon="5.53381">
        <ele>1537.77</ele>
        <time>2014-10-04T09:39:57Z</time>
      </trkpt>
      <trkpt lat="44.97751" lon="5.53371">
        <ele>1537.77</ele>
        <time>2014-10-04T09:40:05Z</time>
      </trkpt>
      <trkpt lat="44.97752" lon="5.53357">
        <ele>1537.29</ele>
        <time>2014-10-04T09:40:14Z</time>
      </trkpt>
      <trkpt lat="44.97742" lon="5.53351">
        <ele>1536.32</ele>
        <time>2014-10-04T09:40:23Z</time>
      </trkpt>
      <trkpt lat="44.97735" lon="5.53346">
        <ele>1535.84</ele>
        <time>2014-10-04T09:40:30Z</time>
      </trkpt>
      <trkpt lat="44.97724" lon="5.53336">
        <ele>1536.32</ele>
        <time>2014-10-04T09:40:41Z</time>
      </trkpt>
      <trkpt lat="44.97722" lon="5.53335">
        <ele>1535.84</ele>
        <time>2014-10-04T09:40:44Z</time>
      </trkpt>
      <trkpt lat="44.97714" lon="5.5333">
        <ele>1534.88</ele>
        <time>2014-10-04T09:40:49Z</time>
      </trkpt>
      <trkpt lat="44.97709" lon="5.53329">
        <ele>1534.88</ele>
        <time>2014-10-04T09:40:54Z</time>
      </trkpt>
      <trkpt lat="44.97698" lon="5.53322">
        <ele>1535.36</ele>
        <time>2014-10-04T09:41:05Z</time>
      </trkpt>
      <trkpt lat="44.9769" lon="5.53319">
        <ele>1534.4</ele>
        <time>2014-10-04T09:41:09Z</time>
      </trkpt>
      <trkpt lat="44.97682" lon="5.53319">
        <ele>1533.92</ele>
        <time>2014-10-04T09:41:16Z</time>
      </trkpt>
      <trkpt lat="44.97674" lon="5.53319">
        <ele>1533.92</ele>
        <time>2014-10-04T09:41:20Z</time>
      </trkpt>
      <trkpt lat="44.97673" lon="5.53316">
        <ele>1533.92</ele>
        <time>2014-10-04T09:41:25Z</time>
      </trkpt>
      <trkpt lat="44.97667" lon="5.53309">
        <ele>1533.92</ele>
        <time>2014-10-04T09:41:34Z</time>
      </trkpt>
      <trkpt lat="44.97656" lon="5.53297">
        <ele>1533.92</ele>
        <time>2014-10-04T09:41:46Z</time>
      </trkpt>
      <trkpt lat="44.97651" lon="5.53293">
        <ele>1533.92</ele>
        <time>2014-10-04T09:41:52Z</time>
      </trkpt>
      <trkpt lat="44.97647" lon="5.53286">
        <ele>1534.4</ele>
        <time>2014-10-04T09:41:57Z</time>
      </trkpt>
      <trkpt lat="44.97635" lon="5.53282">
        <ele>1533.44</ele>
        <time>2014-10-04T09:42:08Z</time>
      </trkpt>
      <trkpt lat="44.97615" lon="5.53282">
        <ele>1533.44</ele>
        <time>2014-10-04T09:42:21Z</time>
      </trkpt>
      <trkpt lat="44.97598" lon="5.53292">
        <ele>1533.92</ele>
        <time>2014-10-04T09:42:34Z</time>
      </trkpt>
      <trkpt lat="44.97595" lon="5.53285">
        <ele>1533.92</ele>
        <time>2014-10-04T09:42:42Z</time>
      </trkpt>
      <trkpt lat="44.97591" lon="5.53274">
        <ele>1533.92</ele>
        <time>2014-10-04T09:42:48Z</time>
      </trkpt>
      <trkpt lat="44.97587" lon="5.53264">
        <ele>1534.4</ele>
        <time>2014-10-04T09:42:57Z</time>
      </trkpt>
      <trkpt lat="44.97583" lon="5.53257">
        <ele>1534.4</ele>
        <time>2014-10-04T09:43:01Z</time>
      </trkpt>
      <trkpt lat="44.97572" lon="5.53247">
        <ele>1534.88</ele>
        <time>2014-10-04T09:43:14Z</time>
      </trkpt>
      <trkpt lat="44.97568" lon="5.53239">
        <ele>1535.84</ele>
        <time>2014-10-04T09:43:18Z</time>
      </trkpt>
      <trkpt lat="44.97563" lon="5.53235">
        <ele>1535.36</ele>
        <time>2014-10-04T09:43:21Z</time>
      </trkpt>
      <trkpt lat="44.97558" lon="5.53235">
        <ele>1535.36</ele>
        <time>2014-10-04T09:43:25Z</time>
      </trkpt>
      <trkpt lat="44.97551" lon="5.53228">
        <ele>1535.84</ele>
        <time>2014-10-04T09:43:34Z</time>
      </trkpt>
      <trkpt lat="44.97542" lon="5.53216">
        <ele>1536.32</ele>
        <time>2014-10-04T09:43:45Z</time>
      </trkpt>
      <trkpt lat="44.97537" lon="5.53216">
        <ele>1535.84</ele>
        <time>2014-10-04T09:43:52Z</time>
      </trkpt>
      <trkpt lat="44.97533" lon="5.53214">
        <ele>1536.8</ele>
        <time>2014-10-04T09:43:58Z</time>
      </trkpt>
      <trkpt lat="44.97524" lon="5.53206">
        <ele>1536.8</ele>
        <time>2014-10-04T09:44:09Z</time>
      </trkpt>
      <trkpt lat="44.97521" lon="5.53202">
        <ele>1537.29</ele>
        <time>2014-10-04T09:44:14Z</time>
      </trkpt>
      <trkpt lat="44.97519" lon="5.53199">
        <ele>1537.29</ele>
        <time>2014-10-04T09:44:16Z</time>
      </trkpt>
      <trkpt lat="44.97505" lon="5.53193">
        <ele>1537.77</ele>
        <time>2014-10-04T09:44:30Z</time>
      </trkpt>
      <trkpt lat="44.97492" lon="5.53184">
        <ele>1538.25</ele>
        <time>2014-10-04T09:44:43Z</time>
      </trkpt>
      <trkpt lat="44.97484" lon="5.53177">
        <ele>1538.73</ele>
        <time>2014-10-04T09:44:53Z</time>
      </trkpt>
      <trkpt lat="44.9748" lon="5.53172">
        <ele>1538.73</ele>
        <time>2014-10-04T09:44:58Z</time>
      </trkpt>
      <trkpt lat="44.97475" lon="5.5317">
        <ele>1539.21</ele>
        <time>2014-10-04T09:45:01Z</time>
      </trkpt>
      <trkpt lat="44.97471" lon="5.53165">
        <ele>1539.21</ele>
        <time>2014-10-04T09:45:05Z</time>
      </trkpt>
      <trkpt lat="44.97466" lon="5.53155">
        <ele>1539.21</ele>
        <time>2014-10-04T09:45:15Z</time>
      </trkpt>
      <trkpt lat="44.97455" lon="5.53147">
        <ele>1539.69</ele>
        <time>2014-10-04T09:45:24Z</time>
      </trkpt>
      <trkpt lat="44.97444" lon="5.53141">
        <ele>1540.17</ele>
        <time>2014-10-04T09:45:32Z</time>
      </trkpt>
      <trkpt lat="44.97438" lon="5.53138">
        <ele>1539.69</ele>
        <time>2014-10-04T09:45:38Z</time>
      </trkpt>
      <trkpt lat="44.97432" lon="5.53139">
        <ele>1540.65</ele>
        <time>2014-10-04T09:45:48Z</time>
      </trkpt>
      <trkpt lat="44.97427" lon="5.53134">
        <ele>1540.65</ele>
        <time>2014-10-04T09:45:54Z</time>
      </trkpt>
      <trkpt lat="44.97419" lon="5.53125">
        <ele>1541.13</ele>
        <time>2014-10-04T09:46:01Z</time>
      </trkpt>
      <trkpt lat="44.97396" lon="5.53127">
        <ele>1541.61</ele>
        <time>2014-10-04T09:46:10Z</time>
      </trkpt>
      <trkpt lat="44.97379" lon="5.53137">
        <ele>1542.09</ele>
        <time>2014-10-04T09:46:21Z</time>
      </trkpt>
      <trkpt lat="44.97378" lon="5.53138">
        <ele>1542.57</ele>
        <time>2014-10-04T09:46:25Z</time>
      </trkpt>
      <trkpt lat="44.9737" lon="5.53142">
        <ele>1542.57</ele>
        <time>2014-10-04T09:46:32Z</time>
      </trkpt>
      <trkpt lat="44.97367" lon="5.53142">
        <ele>1543.05</ele>
        <time>2014-10-04T09:46:35Z</time>
      </trkpt>
      <trkpt lat="44.97363" lon="5.5314">
        <ele>1544.01</ele>
        <time>2014-10-04T09:46:40Z</time>
      </trkpt>
      <trkpt lat="44.97357" lon="5.53139">
        <ele>1544.5</ele>
        <time>2014-10-04T09:46:47Z</time>
      </trkpt>
      <trkpt lat="44.97351" lon="5.53133">
        <ele>1544.5</ele>
        <time>2014-10-04T09:46:55Z</time>
      </trkpt>
      <trkpt lat="44.97348" lon="5.53125">
        <ele>1545.94</ele>
        <time>2014-10-04T09:47:01Z</time>
      </trkpt>
      <trkpt lat="44.97343" lon="5.5312">
        <ele>1545.94</ele>
        <time>2014-10-04T09:47:04Z</time>
      </trkpt>
      <trkpt lat="44.9734" lon="5.53117">
        <ele>1545.94</ele>
        <time>2014-10-04T09:47:06Z</time>
      </trkpt>
      <trkpt lat="44.97336" lon="5.53116">
        <ele>1546.42</ele>
        <time>2014-10-04T09:47:14Z</time>
      </trkpt>
      <trkpt lat="44.9733" lon="5.53114">
        <ele>1546.42</ele>
        <time>2014-10-04T09:47:21Z</time>
      </trkpt>
      <trkpt lat="44.97324" lon="5.53111">
        <ele>1547.38</ele>
        <time>2014-10-04T09:47:27Z</time>
      </trkpt>
      <trkpt lat="44.97322" lon="5.5311">
        <ele>1547.38</ele>
        <time>2014-10-04T09:47:30Z</time>
      </trkpt>
      <trkpt lat="44.9731" lon="5.53107">
        <ele>1548.34</ele>
        <time>2014-10-04T09:47:43Z</time>
      </trkpt>
      <trkpt lat="44.97304" lon="5.53104">
        <ele>1549.3</ele>
        <time>2014-10-04T09:47:50Z</time>
      </trkpt>
      <trkpt lat="44.97295" lon="5.53105">
        <ele>1549.3</ele>
        <time>2014-10-04T09:47:55Z</time>
      </trkpt>
      <trkpt lat="44.97287" lon="5.53103">
        <ele>1549.78</ele>
        <time>2014-10-04T09:48:02Z</time>
      </trkpt>
      <trkpt lat="44.97278" lon="5.53104">
        <ele>1550.26</ele>
        <time>2014-10-04T09:48:09Z</time>
      </trkpt>
      <trkpt lat="44.97269" lon="5.53107">
        <ele>1550.74</ele>
        <time>2014-10-04T09:48:16Z</time>
      </trkpt>
      <trkpt lat="44.9726" lon="5.53112">
        <ele>1550.74</ele>
        <time>2014-10-04T09:48:24Z</time>
      </trkpt>
      <trkpt lat="44.97251" lon="5.53112">
        <ele>1551.22</ele>
        <time>2014-10-04T09:48:30Z</time>
      </trkpt>
      <trkpt lat="44.97249" lon="5.53109">
        <ele>1551.71</ele>
        <time>2014-10-04T09:48:32Z</time>
      </trkpt>
      <trkpt lat="44.97245" lon="5.53107">
        <ele>1551.71</ele>
        <time>2014-10-04T09:48:37Z</time>
      </trkpt>
      <trkpt lat="44.97241" lon="5.53104">
        <ele>1552.19</ele>
        <time>2014-10-04T09:48:43Z</time>
      </trkpt>
      <trkpt lat="44.97232" lon="5.53103">
        <ele>1553.15</ele>
        <time>2014-10-04T09:48:50Z</time>
      </trkpt>
      <trkpt lat="44.97218" lon="5.53104">
        <ele>1553.63</ele>
        <time>2014-10-04T09:49:02Z</time>
      </trkpt>
      <trkpt lat="44.97211" lon="5.53102">
        <ele>1555.07</ele>
        <time>2014-10-04T09:49:08Z</time>
      </trkpt>
      <trkpt lat="44.97203" lon="5.53102">
        <ele>1555.55</ele>
        <time>2014-10-04T09:49:14Z</time>
      </trkpt>
      <trkpt lat="44.972" lon="5.531">
        <ele>1556.03</ele>
        <time>2014-10-04T09:49:26Z</time>
      </trkpt>
      <trkpt lat="44.97196" lon="5.5309">
        <ele>1556.99</ele>
        <time>2014-10-04T09:49:34Z</time>
      </trkpt>
      <trkpt lat="44.97187" lon="5.53087">
        <ele>1556.99</ele>
        <time>2014-10-04T09:49:43Z</time>
      </trkpt>
      <trkpt lat="44.97182" lon="5.53081">
        <ele>1557.47</ele>
        <time>2014-10-04T09:49:50Z</time>
      </trkpt>
      <trkpt lat="44.9718" lon="5.53079">
        <ele>1557.95</ele>
        <time>2014-10-04T09:49:52Z</time>
      </trkpt>
      <trkpt lat="44.97176" lon="5.53076">
        <ele>1557.95</ele>
        <time>2014-10-04T09:49:57Z</time>
      </trkpt>
      <trkpt lat="44.97173" lon="5.53081">
        <ele>1557.47</ele>
        <time>2014-10-04T09:50:01Z</time>
      </trkpt>
      <trkpt lat="44.97165" lon="5.53091">
        <ele>1556.99</ele>
        <time>2014-10-04T09:50:08Z</time>
      </trkpt>
      <trkpt lat="44.97162" lon="5.53093">
        <ele>1556.51</ele>
        <time>2014-10-04T09:50:11Z</time>
      </trkpt>
      <trkpt lat="44.97152" lon="5.53103">
        <ele>1555.55</ele>
        <time>2014-10-04T09:50:22Z</time>
      </trkpt>
      <trkpt lat="44.97151" lon="5.53104">
        <ele>1555.55</ele>
        <time>2014-10-04T09:50:24Z</time>
      </trkpt>
      <trkpt lat="44.9714" lon="5.53106">
        <ele>1555.07</ele>
        <time>2014-10-04T09:50:33Z</time>
      </trkpt>
      <trkpt lat="44.97124" lon="5.53109">
        <ele>1554.11</ele>
        <time>2014-10-04T09:50:44Z</time>
      </trkpt>
      <trkpt lat="44.97114" lon="5.53112">
        <ele>1553.15</ele>
        <time>2014-10-04T09:50:53Z</time>
      </trkpt>
      <trkpt lat="44.97109" lon="5.53112">
        <ele>1553.63</ele>
        <time>2014-10-04T09:50:57Z</time>
      </trkpt>
      <trkpt lat="44.97106" lon="5.53112">
        <ele>1553.15</ele>
        <time>2014-10-04T09:51:03Z</time>
      </trkpt>
      <trkpt lat="44.97103" lon="5.53115">
        <ele>1553.15</ele>
        <time>2014-10-04T09:51:06Z</time>
      </trkpt>
      <trkpt lat="44.97095" lon="5.53117">
        <ele>1551.71</ele>
        <time>2014-10-04T09:51:16Z</time>
      </trkpt>
      <trkpt lat="44.97089" lon="5.53118">
        <ele>1551.71</ele>
        <time>2014-10-04T09:51:20Z</time>
      </trkpt>
      <trkpt lat="44.97083" lon="5.53119">
        <ele>1551.71</ele>
        <time>2014-10-04T09:51:23Z</time>
      </trkpt>
      <trkpt lat="44.97081" lon="5.53123">
        <ele>1551.22</ele>
        <time>2014-10-04T09:51:26Z</time>
      </trkpt>
      <trkpt lat="44.9708" lon="5.53126">
        <ele>1550.74</ele>
        <time>2014-10-04T09:51:28Z</time>
      </trkpt>
      <trkpt lat="44.97072" lon="5.53129">
        <ele>1550.74</ele>
        <time>2014-10-04T09:51:33Z</time>
      </trkpt>
      <trkpt lat="44.97066" lon="5.53134">
        <ele>1549.78</ele>
        <time>2014-10-04T09:51:45Z</time>
      </trkpt>
      <trkpt lat="44.97059" lon="5.53137">
        <ele>1548.82</ele>
        <time>2014-10-04T09:51:55Z</time>
      </trkpt>
      <trkpt lat="44.97057" lon="5.53143">
        <ele>1548.34</ele>
        <time>2014-10-04T09:52:07Z</time>
      </trkpt>
      <trkpt lat="44.97057" lon="5.53143">
        <ele>1548.34</ele>
        <time>2014-10-04T09:52:31Z</time>
      </trkpt>
      <trkpt lat="44.97056" lon="5.53144">
        <ele>1548.34</ele>
        <time>2014-10-04T09:52:57Z</time>
      </trkpt>
      <trkpt lat="44.97056" lon="5.53145">
        <ele>1548.34</ele>
        <time>2014-10-04T09:53:13Z</time>
      </trkpt>
      <trkpt lat="44.97056" lon="5.53145">
        <ele>1548.34</ele>
        <time>2014-10-04T09:53:40Z</time>
      </trkpt>
      <trkpt lat="44.97056" lon="5.53145">
        <ele>1548.34</ele>
        <time>2014-10-04T09:54:15Z</time>
      </trkpt>
      <trkpt lat="44.97053" lon="5.53145">
        <ele>1549.3</ele>
        <time>2014-10-04T09:54:34Z</time>
      </trkpt>
      <trkpt lat="44.97053" lon="5.53145">
        <ele>1546.42</ele>
        <time>2014-10-04T09:54:52Z</time>
      </trkpt>
      <trkpt lat="44.97053" lon="5.53145">
        <ele>1553.15</ele>
        <time>2014-10-04T09:54:54Z</time>
      </trkpt>
      <trkpt lat="44.97053" lon="5.53145">
        <ele>1546.9</ele>
        <time>2014-10-04T09:54:55Z</time>
      </trkpt>
      <trkpt lat="44.97053" lon="5.53145">
        <ele>1550.74</ele>
        <time>2014-10-04T09:54:56Z</time>
      </trkpt>
      <trkpt lat="44.97053" lon="5.53145">
        <ele>1548.34</ele>
        <time>2014-10-04T09:55:01Z</time>
      </trkpt>
      <trkpt lat="44.97047" lon="5.53154">
        <ele>1548.34</ele>
        <time>2014-10-04T09:58:43Z</time>
      </trkpt>
      <trkpt lat="44.97049" lon="5.53155">
        <ele>1548.34</ele>
        <time>2014-10-04T09:58:44Z</time>
      </trkpt>
      <trkpt lat="44.97038" lon="5.53154">
        <ele>1546.9</ele>
        <time>2014-10-04T09:58:56Z</time>
      </trkpt>
      <trkpt lat="44.97034" lon="5.53157">
        <ele>1545.94</ele>
        <time>2014-10-04T09:59:02Z</time>
      </trkpt>
      <trkpt lat="44.97024" lon="5.53165">
        <ele>1544.01</ele>
        <time>2014-10-04T09:59:10Z</time>
      </trkpt>
      <trkpt lat="44.97018" lon="5.5317">
        <ele>1541.13</ele>
        <time>2014-10-04T09:59:21Z</time>
      </trkpt>
      <trkpt lat="44.97005" lon="5.53181">
        <ele>1538.73</ele>
        <time>2014-10-04T09:59:34Z</time>
      </trkpt>
      <trkpt lat="44.97004" lon="5.53181">
        <ele>1538.25</ele>
        <time>2014-10-04T09:59:36Z</time>
      </trkpt>
      <trkpt lat="44.96995" lon="5.53184">
        <ele>1536.8</ele>
        <time>2014-10-04T09:59:45Z</time>
      </trkpt>
      <trkpt lat="44.96989" lon="5.53187">
        <ele>1535.84</ele>
        <time>2014-10-04T09:59:51Z</time>
      </trkpt>
      <trkpt lat="44.96983" lon="5.53189">
        <ele>1534.88</ele>
        <time>2014-10-04T09:59:56Z</time>
      </trkpt>
      <trkpt lat="44.96981" lon="5.5319">
        <ele>1534.88</ele>
        <time>2014-10-04T09:59:58Z</time>
      </trkpt>
      <trkpt lat="44.96971" lon="5.53194">
        <ele>1533.92</ele>
        <time>2014-10-04T10:00:08Z</time>
      </trkpt>
      <trkpt lat="44.96967" lon="5.53196">
        <ele>1532.96</ele>
        <time>2014-10-04T10:00:11Z</time>
      </trkpt>
      <trkpt lat="44.96964" lon="5.53198">
        <ele>1532.48</ele>
        <time>2014-10-04T10:00:13Z</time>
      </trkpt>
      <trkpt lat="44.96953" lon="5.53206">
        <ele>1530.56</ele>
        <time>2014-10-04T10:00:23Z</time>
      </trkpt>
      <trkpt lat="44.96946" lon="5.53207">
        <ele>1528.63</ele>
        <time>2014-10-04T10:00:29Z</time>
      </trkpt>
      <trkpt lat="44.96939" lon="5.5321">
        <ele>1528.15</ele>
        <time>2014-10-04T10:00:33Z</time>
      </trkpt>
      <trkpt lat="44.96925" lon="5.5322">
        <ele>1527.67</ele>
        <time>2014-10-04T10:00:46Z</time>
      </trkpt>
      <trkpt lat="44.96923" lon="5.5322">
        <ele>1527.67</ele>
        <time>2014-10-04T10:00:48Z</time>
      </trkpt>
      <trkpt lat="44.96916" lon="5.5322">
        <ele>1528.15</ele>
        <time>2014-10-04T10:00:53Z</time>
      </trkpt>
      <trkpt lat="44.96913" lon="5.53226">
        <ele>1527.67</ele>
        <time>2014-10-04T10:00:57Z</time>
      </trkpt>
      <trkpt lat="44.96909" lon="5.53231">
        <ele>1527.67</ele>
        <time>2014-10-04T10:01:04Z</time>
      </trkpt>
      <trkpt lat="44.969" lon="5.5324">
        <ele>1527.67</ele>
        <time>2014-10-04T10:01:13Z</time>
      </trkpt>
      <trkpt lat="44.96889" lon="5.53242">
        <ele>1529.11</ele>
        <time>2014-10-04T10:01:25Z</time>
      </trkpt>
      <trkpt lat="44.96888" lon="5.53243">
        <ele>1529.11</ele>
        <time>2014-10-04T10:01:26Z</time>
      </trkpt>
      <trkpt lat="44.96883" lon="5.53242">
        <ele>1529.11</ele>
        <time>2014-10-04T10:01:30Z</time>
      </trkpt>
      <trkpt lat="44.96875" lon="5.53251">
        <ele>1529.59</ele>
        <time>2014-10-04T10:01:39Z</time>
      </trkpt>
      <trkpt lat="44.96864" lon="5.53255">
        <ele>1530.08</ele>
        <time>2014-10-04T10:01:50Z</time>
      </trkpt>
      <trkpt lat="44.96861" lon="5.53254">
        <ele>1530.56</ele>
        <time>2014-10-04T10:01:53Z</time>
      </trkpt>
      <trkpt lat="44.96856" lon="5.53261">
        <ele>1530.08</ele>
        <time>2014-10-04T10:01:59Z</time>
      </trkpt>
      <trkpt lat="44.96849" lon="5.53266">
        <ele>1530.08</ele>
        <time>2014-10-04T10:02:06Z</time>
      </trkpt>
      <trkpt lat="44.96845" lon="5.5327">
        <ele>1531.04</ele>
        <time>2014-10-04T10:02:15Z</time>
      </trkpt>
      <trkpt lat="44.96845" lon="5.5327">
        <ele>1531.52</ele>
        <time>2014-10-04T10:02:16Z</time>
      </trkpt>
      <trkpt lat="44.96843" lon="5.53274">
        <ele>1532</ele>
        <time>2014-10-04T10:02:20Z</time>
      </trkpt>
      <trkpt lat="44.96837" lon="5.53282">
        <ele>1532.48</ele>
        <time>2014-10-04T10:02:31Z</time>
      </trkpt>
      <trkpt lat="44.96833" lon="5.53284">
        <ele>1532.96</ele>
        <time>2014-10-04T10:02:35Z</time>
      </trkpt>
      <trkpt lat="44.96827" lon="5.53284">
        <ele>1533.44</ele>
        <time>2014-10-04T10:02:40Z</time>
      </trkpt>
      <trkpt lat="44.96823" lon="5.53284">
        <ele>1533.92</ele>
        <time>2014-10-04T10:02:44Z</time>
      </trkpt>
      <trkpt lat="44.96819" lon="5.53285">
        <ele>1533.92</ele>
        <time>2014-10-04T10:02:47Z</time>
      </trkpt>
      <trkpt lat="44.96809" lon="5.53286">
        <ele>1535.84</ele>
        <time>2014-10-04T10:03:00Z</time>
      </trkpt>
      <trkpt lat="44.968" lon="5.53296">
        <ele>1536.32</ele>
        <time>2014-10-04T10:03:11Z</time>
      </trkpt>
      <trkpt lat="44.96798" lon="5.53302">
        <ele>1536.32</ele>
        <time>2014-10-04T10:03:15Z</time>
      </trkpt>
      <trkpt lat="44.96793" lon="5.53315">
        <ele>1537.29</ele>
        <time>2014-10-04T10:03:24Z</time>
      </trkpt>
      <trkpt lat="44.96791" lon="5.53326">
        <ele>1537.29</ele>
        <time>2014-10-04T10:03:31Z</time>
      </trkpt>
      <trkpt lat="44.96788" lon="5.5333">
        <ele>1537.29</ele>
        <time>2014-10-04T10:03:34Z</time>
      </trkpt>
      <trkpt lat="44.96786" lon="5.53333">
        <ele>1537.29</ele>
        <time>2014-10-04T10:03:37Z</time>
      </trkpt>
      <trkpt lat="44.96777" lon="5.5334">
        <ele>1537.77</ele>
        <time>2014-10-04T10:03:47Z</time>
      </trkpt>
      <trkpt lat="44.9677" lon="5.53339">
        <ele>1538.73</ele>
        <time>2014-10-04T10:04:00Z</time>
      </trkpt>
      <trkpt lat="44.9676" lon="5.53341">
        <ele>1539.21</ele>
        <time>2014-10-04T10:04:11Z</time>
      </trkpt>
      <trkpt lat="44.96757" lon="5.5334">
        <ele>1540.17</ele>
        <time>2014-10-04T10:04:15Z</time>
      </trkpt>
      <trkpt lat="44.96752" lon="5.5334">
        <ele>1541.13</ele>
        <time>2014-10-04T10:04:21Z</time>
      </trkpt>
      <trkpt lat="44.96749" lon="5.53348">
        <ele>1541.13</ele>
        <time>2014-10-04T10:04:26Z</time>
      </trkpt>
      <trkpt lat="44.96747" lon="5.53363">
        <ele>1541.61</ele>
        <time>2014-10-04T10:04:36Z</time>
      </trkpt>
      <trkpt lat="44.96747" lon="5.53367">
        <ele>1542.57</ele>
        <time>2014-10-04T10:04:39Z</time>
      </trkpt>
      <trkpt lat="44.96738" lon="5.53377">
        <ele>1543.05</ele>
        <time>2014-10-04T10:04:51Z</time>
      </trkpt>
      <trkpt lat="44.96734" lon="5.53382">
        <ele>1543.53</ele>
        <time>2014-10-04T10:04:58Z</time>
      </trkpt>
      <trkpt lat="44.96728" lon="5.53388">
        <ele>1544.5</ele>
        <time>2014-10-04T10:05:09Z</time>
      </trkpt>
      <trkpt lat="44.96727" lon="5.53389">
        <ele>1544.98</ele>
        <time>2014-10-04T10:05:12Z</time>
      </trkpt>
      <trkpt lat="44.96726" lon="5.53395">
        <ele>1544.98</ele>
        <time>2014-10-04T10:05:15Z</time>
      </trkpt>
      <trkpt lat="44.96723" lon="5.53404">
        <ele>1545.94</ele>
        <time>2014-10-04T10:05:22Z</time>
      </trkpt>
      <trkpt lat="44.96716" lon="5.53413">
        <ele>1546.9</ele>
        <time>2014-10-04T10:05:32Z</time>
      </trkpt>
      <trkpt lat="44.96714" lon="5.53416">
        <ele>1547.38</ele>
        <time>2014-10-04T10:05:37Z</time>
      </trkpt>
      <trkpt lat="44.96711" lon="5.53421">
        <ele>1547.38</ele>
        <time>2014-10-04T10:05:40Z</time>
      </trkpt>
      <trkpt lat="44.96706" lon="5.53427">
        <ele>1547.86</ele>
        <time>2014-10-04T10:05:44Z</time>
      </trkpt>
      <trkpt lat="44.96699" lon="5.5343">
        <ele>1548.34</ele>
        <time>2014-10-04T10:05:49Z</time>
      </trkpt>
      <trkpt lat="44.96695" lon="5.53434">
        <ele>1548.82</ele>
        <time>2014-10-04T10:05:53Z</time>
      </trkpt>
      <trkpt lat="44.9669" lon="5.53443">
        <ele>1548.82</ele>
        <time>2014-10-04T10:06:01Z</time>
      </trkpt>
      <trkpt lat="44.96688" lon="5.53462">
        <ele>1549.78</ele>
        <time>2014-10-04T10:06:13Z</time>
      </trkpt>
      <trkpt lat="44.96687" lon="5.53463">
        <ele>1550.26</ele>
        <time>2014-10-04T10:06:14Z</time>
      </trkpt>
      <trkpt lat="44.96681" lon="5.53466">
        <ele>1550.26</ele>
        <time>2014-10-04T10:06:18Z</time>
      </trkpt>
      <trkpt lat="44.96677" lon="5.53469">
        <ele>1550.26</ele>
        <time>2014-10-04T10:06:21Z</time>
      </trkpt>
      <trkpt lat="44.96668" lon="5.53478">
        <ele>1551.22</ele>
        <time>2014-10-04T10:06:31Z</time>
      </trkpt>
      <trkpt lat="44.96657" lon="5.53487">
        <ele>1551.22</ele>
        <time>2014-10-04T10:06:40Z</time>
      </trkpt>
      <trkpt lat="44.96653" lon="5.535">
        <ele>1551.22</ele>
        <time>2014-10-04T10:06:48Z</time>
      </trkpt>
      <trkpt lat="44.96644" lon="5.53502">
        <ele>1551.71</ele>
        <time>2014-10-04T10:06:54Z</time>
      </trkpt>
      <trkpt lat="44.96636" lon="5.53504">
        <ele>1551.71</ele>
        <time>2014-10-04T10:06:59Z</time>
      </trkpt>
      <trkpt lat="44.96628" lon="5.53508">
        <ele>1552.19</ele>
        <time>2014-10-04T10:07:05Z</time>
      </trkpt>
      <trkpt lat="44.9662" lon="5.5351">
        <ele>1551.71</ele>
        <time>2014-10-04T10:07:14Z</time>
      </trkpt>
      <trkpt lat="44.96618" lon="5.5351">
        <ele>1551.71</ele>
        <time>2014-10-04T10:07:16Z</time>
      </trkpt>
      <trkpt lat="44.96614" lon="5.53508">
        <ele>1551.71</ele>
        <time>2014-10-04T10:07:26Z</time>
      </trkpt>
      <trkpt lat="44.96613" lon="5.53506">
        <ele>1551.71</ele>
        <time>2014-10-04T10:07:43Z</time>
      </trkpt>
      <trkpt lat="44.96613" lon="5.53504">
        <ele>1551.22</ele>
        <time>2014-10-04T10:07:58Z</time>
      </trkpt>
      <trkpt lat="44.96613" lon="5.53505">
        <ele>1551.71</ele>
        <time>2014-10-04T10:08:22Z</time>
      </trkpt>
      <trkpt lat="44.96613" lon="5.53505">
        <ele>1551.71</ele>
        <time>2014-10-04T10:08:32Z</time>
      </trkpt>
      <trkpt lat="44.96611" lon="5.53502">
        <ele>1551.71</ele>
        <time>2014-10-04T10:08:35Z</time>
      </trkpt>
      <trkpt lat="44.96608" lon="5.53497">
        <ele>1551.22</ele>
        <time>2014-10-04T10:08:41Z</time>
      </trkpt>
      <trkpt lat="44.96601" lon="5.53485">
        <ele>1550.26</ele>
        <time>2014-10-04T10:08:51Z</time>
      </trkpt>
      <trkpt lat="44.966" lon="5.53482">
        <ele>1549.78</ele>
        <time>2014-10-04T10:08:53Z</time>
      </trkpt>
      <trkpt lat="44.96599" lon="5.53478">
        <ele>1550.26</ele>
        <time>2014-10-04T10:08:55Z</time>
      </trkpt>
      <trkpt lat="44.96595" lon="5.5347">
        <ele>1549.78</ele>
        <time>2014-10-04T10:09:04Z</time>
      </trkpt>
      <trkpt lat="44.96593" lon="5.53467">
        <ele>1549.3</ele>
        <time>2014-10-04T10:09:06Z</time>
      </trkpt>
      <trkpt lat="44.96583" lon="5.53455">
        <ele>1548.82</ele>
        <time>2014-10-04T10:09:11Z</time>
      </trkpt>
      <trkpt lat="44.96579" lon="5.53449">
        <ele>1548.82</ele>
        <time>2014-10-04T10:09:16Z</time>
      </trkpt>
      <trkpt lat="44.96572" lon="5.53424">
        <ele>1547.86</ele>
        <time>2014-10-04T10:09:27Z</time>
      </trkpt>
      <trkpt lat="44.96572" lon="5.53424">
        <ele>1548.34</ele>
        <time>2014-10-04T10:09:28Z</time>
      </trkpt>
      <trkpt lat="44.96571" lon="5.53418">
        <ele>1548.34</ele>
        <time>2014-10-04T10:09:32Z</time>
      </trkpt>
      <trkpt lat="44.96571" lon="5.53412">
        <ele>1548.34</ele>
        <time>2014-10-04T10:09:34Z</time>
      </trkpt>
      <trkpt lat="44.96566" lon="5.53404">
        <ele>1547.38</ele>
        <time>2014-10-04T10:09:40Z</time>
      </trkpt>
      <trkpt lat="44.96564" lon="5.53398">
        <ele>1547.38</ele>
        <time>2014-10-04T10:09:44Z</time>
      </trkpt>
      <trkpt lat="44.96555" lon="5.53386">
        <ele>1547.38</ele>
        <time>2014-10-04T10:09:52Z</time>
      </trkpt>
      <trkpt lat="44.96553" lon="5.5338">
        <ele>1547.38</ele>
        <time>2014-10-04T10:09:55Z</time>
      </trkpt>
      <trkpt lat="44.96547" lon="5.5337">
        <ele>1547.38</ele>
        <time>2014-10-04T10:10:04Z</time>
      </trkpt>
      <trkpt lat="44.96547" lon="5.5337">
        <ele>1547.38</ele>
        <time>2014-10-04T10:10:05Z</time>
      </trkpt>
      <trkpt lat="44.96538" lon="5.53359">
        <ele>1547.86</ele>
        <time>2014-10-04T10:10:14Z</time>
      </trkpt>
      <trkpt lat="44.96537" lon="5.53357">
        <ele>1547.86</ele>
        <time>2014-10-04T10:10:16Z</time>
      </trkpt>
      <trkpt lat="44.96531" lon="5.53347">
        <ele>1548.34</ele>
        <time>2014-10-04T10:10:22Z</time>
      </trkpt>
      <trkpt lat="44.96527" lon="5.53344">
        <ele>1549.3</ele>
        <time>2014-10-04T10:10:25Z</time>
      </trkpt>
      <trkpt lat="44.96521" lon="5.53332">
        <ele>1549.78</ele>
        <time>2014-10-04T10:10:32Z</time>
      </trkpt>
      <trkpt lat="44.96517" lon="5.53325">
        <ele>1550.26</ele>
        <time>2014-10-04T10:10:36Z</time>
      </trkpt>
      <trkpt lat="44.96514" lon="5.53321">
        <ele>1550.26</ele>
        <time>2014-10-04T10:10:40Z</time>
      </trkpt>
      <trkpt lat="44.96511" lon="5.53316">
        <ele>1550.74</ele>
        <time>2014-10-04T10:10:43Z</time>
      </trkpt>
      <trkpt lat="44.96506" lon="5.53312">
        <ele>1551.71</ele>
        <time>2014-10-04T10:10:49Z</time>
      </trkpt>
      <trkpt lat="44.96496" lon="5.53306">
        <ele>1552.19</ele>
        <time>2014-10-04T10:10:58Z</time>
      </trkpt>
      <trkpt lat="44.9649" lon="5.53297">
        <ele>1552.67</ele>
        <time>2014-10-04T10:11:04Z</time>
      </trkpt>
      <trkpt lat="44.96484" lon="5.53284">
        <ele>1554.11</ele>
        <time>2014-10-04T10:11:13Z</time>
      </trkpt>
      <trkpt lat="44.96478" lon="5.53284">
        <ele>1554.11</ele>
        <time>2014-10-04T10:11:18Z</time>
      </trkpt>
      <trkpt lat="44.96476" lon="5.53283">
        <ele>1554.11</ele>
        <time>2014-10-04T10:11:20Z</time>
      </trkpt>
      <trkpt lat="44.96469" lon="5.53279">
        <ele>1555.07</ele>
        <time>2014-10-04T10:11:26Z</time>
      </trkpt>
      <trkpt lat="44.96463" lon="5.53275">
        <ele>1555.55</ele>
        <time>2014-10-04T10:11:34Z</time>
      </trkpt>
      <trkpt lat="44.96459" lon="5.53272">
        <ele>1556.03</ele>
        <time>2014-10-04T10:11:39Z</time>
      </trkpt>
      <trkpt lat="44.96453" lon="5.53263">
        <ele>1556.99</ele>
        <time>2014-10-04T10:11:48Z</time>
      </trkpt>
      <trkpt lat="44.96447" lon="5.53259">
        <ele>1557.47</ele>
        <time>2014-10-04T10:11:54Z</time>
      </trkpt>
      <trkpt lat="44.9644" lon="5.5325">
        <ele>1556.51</ele>
        <time>2014-10-04T10:12:01Z</time>
      </trkpt>
      <trkpt lat="44.96438" lon="5.53245">
        <ele>1557.95</ele>
        <time>2014-10-04T10:12:07Z</time>
      </trkpt>
      <trkpt lat="44.96433" lon="5.53239">
        <ele>1558.43</ele>
        <time>2014-10-04T10:12:13Z</time>
      </trkpt>
      <trkpt lat="44.96427" lon="5.53232">
        <ele>1558.92</ele>
        <time>2014-10-04T10:12:18Z</time>
      </trkpt>
      <trkpt lat="44.96419" lon="5.53223">
        <ele>1559.88</ele>
        <time>2014-10-04T10:12:27Z</time>
      </trkpt>
      <trkpt lat="44.96418" lon="5.53223">
        <ele>1559.88</ele>
        <time>2014-10-04T10:12:28Z</time>
      </trkpt>
      <trkpt lat="44.96413" lon="5.53215">
        <ele>1560.36</ele>
        <time>2014-10-04T10:12:35Z</time>
      </trkpt>
      <trkpt lat="44.96406" lon="5.53206">
        <ele>1561.32</ele>
        <time>2014-10-04T10:12:41Z</time>
      </trkpt>
      <trkpt lat="44.96402" lon="5.53197">
        <ele>1561.32</ele>
        <time>2014-10-04T10:12:47Z</time>
      </trkpt>
      <trkpt lat="44.964" lon="5.53194">
        <ele>1561.32</ele>
        <time>2014-10-04T10:12:49Z</time>
      </trkpt>
      <trkpt lat="44.96393" lon="5.53187">
        <ele>1561.8</ele>
        <time>2014-10-04T10:12:56Z</time>
      </trkpt>
      <trkpt lat="44.96388" lon="5.53182">
        <ele>1561.8</ele>
        <time>2014-10-04T10:13:00Z</time>
      </trkpt>
      <trkpt lat="44.96384" lon="5.5318">
        <ele>1562.76</ele>
        <time>2014-10-04T10:13:03Z</time>
      </trkpt>
      <trkpt lat="44.96373" lon="5.5318">
        <ele>1563.24</ele>
        <time>2014-10-04T10:13:10Z</time>
      </trkpt>
      <trkpt lat="44.96362" lon="5.53177">
        <ele>1564.2</ele>
        <time>2014-10-04T10:13:19Z</time>
      </trkpt>
      <trkpt lat="44.96358" lon="5.53174">
        <ele>1564.68</ele>
        <time>2014-10-04T10:13:24Z</time>
      </trkpt>
      <trkpt lat="44.96346" lon="5.53172">
        <ele>1565.16</ele>
        <time>2014-10-04T10:13:32Z</time>
      </trkpt>
      <trkpt lat="44.96336" lon="5.53168">
        <ele>1566.12</ele>
        <time>2014-10-04T10:13:40Z</time>
      </trkpt>
      <trkpt lat="44.96332" lon="5.53164">
        <ele>1566.61</ele>
        <time>2014-10-04T10:13:45Z</time>
      </trkpt>
      <trkpt lat="44.96326" lon="5.53162">
        <ele>1566.61</ele>
        <time>2014-10-04T10:13:49Z</time>
      </trkpt>
      <trkpt lat="44.96324" lon="5.53159">
        <ele>1567.57</ele>
        <time>2014-10-04T10:13:55Z</time>
      </trkpt>
      <trkpt lat="44.96317" lon="5.53154">
        <ele>1568.05</ele>
        <time>2014-10-04T10:14:01Z</time>
      </trkpt>
      <trkpt lat="44.96314" lon="5.53151">
        <ele>1568.53</ele>
        <time>2014-10-04T10:14:04Z</time>
      </trkpt>
      <trkpt lat="44.96309" lon="5.53148">
        <ele>1568.53</ele>
        <time>2014-10-04T10:14:08Z</time>
      </trkpt>
      <trkpt lat="44.96302" lon="5.53142">
        <ele>1569.01</ele>
        <time>2014-10-04T10:14:13Z</time>
      </trkpt>
      <trkpt lat="44.963" lon="5.53139">
        <ele>1569.49</ele>
        <time>2014-10-04T10:14:16Z</time>
      </trkpt>
      <trkpt lat="44.96292" lon="5.53132">
        <ele>1569.97</ele>
        <time>2014-10-04T10:14:22Z</time>
      </trkpt>
      <trkpt lat="44.96283" lon="5.53126">
        <ele>1570.93</ele>
        <time>2014-10-04T10:14:31Z</time>
      </trkpt>
      <trkpt lat="44.96281" lon="5.53122">
        <ele>1570.93</ele>
        <time>2014-10-04T10:14:36Z</time>
      </trkpt>
      <trkpt lat="44.96276" lon="5.53118">
        <ele>1571.41</ele>
        <time>2014-10-04T10:14:40Z</time>
      </trkpt>
      <trkpt lat="44.96275" lon="5.53117">
        <ele>1571.41</ele>
        <time>2014-10-04T10:14:42Z</time>
      </trkpt>
      <trkpt lat="44.96265" lon="5.53108">
        <ele>1571.89</ele>
        <time>2014-10-04T10:14:51Z</time>
      </trkpt>
      <trkpt lat="44.96263" lon="5.53104">
        <ele>1572.37</ele>
        <time>2014-10-04T10:14:53Z</time>
      </trkpt>
      <trkpt lat="44.96254" lon="5.53098">
        <ele>1573.33</ele>
        <time>2014-10-04T10:15:04Z</time>
      </trkpt>
      <trkpt lat="44.96252" lon="5.53094">
        <ele>1572.85</ele>
        <time>2014-10-04T10:15:07Z</time>
      </trkpt>
      <trkpt lat="44.96246" lon="5.53089">
        <ele>1573.82</ele>
        <time>2014-10-04T10:15:13Z</time>
      </trkpt>
      <trkpt lat="44.96235" lon="5.53078">
        <ele>1575.26</ele>
        <time>2014-10-04T10:15:24Z</time>
      </trkpt>
      <trkpt lat="44.9623" lon="5.53076">
        <ele>1574.78</ele>
        <time>2014-10-04T10:15:27Z</time>
      </trkpt>
      <trkpt lat="44.96225" lon="5.53066">
        <ele>1575.74</ele>
        <time>2014-10-04T10:15:36Z</time>
      </trkpt>
      <trkpt lat="44.96215" lon="5.53063">
        <ele>1575.74</ele>
        <time>2014-10-04T10:15:44Z</time>
      </trkpt>
      <trkpt lat="44.96212" lon="5.53063">
        <ele>1576.22</ele>
        <time>2014-10-04T10:15:46Z</time>
      </trkpt>
      <trkpt lat="44.96207" lon="5.53059">
        <ele>1577.18</ele>
        <time>2014-10-04T10:15:52Z</time>
      </trkpt>
      <trkpt lat="44.96199" lon="5.53055">
        <ele>1578.14</ele>
        <time>2014-10-04T10:15:58Z</time>
      </trkpt>
      <trkpt lat="44.96196" lon="5.53054">
        <ele>1578.14</ele>
        <time>2014-10-04T10:16:00Z</time>
      </trkpt>
      <trkpt lat="44.96187" lon="5.5305">
        <ele>1579.1</ele>
        <time>2014-10-04T10:16:10Z</time>
      </trkpt>
      <trkpt lat="44.9618" lon="5.53047">
        <ele>1579.58</ele>
        <time>2014-10-04T10:16:17Z</time>
      </trkpt>
      <trkpt lat="44.96171" lon="5.53045">
        <ele>1580.06</ele>
        <time>2014-10-04T10:16:24Z</time>
      </trkpt>
      <trkpt lat="44.96164" lon="5.53044">
        <ele>1581.51</ele>
        <time>2014-10-04T10:16:33Z</time>
      </trkpt>
      <trkpt lat="44.9616" lon="5.53043">
        <ele>1582.47</ele>
        <time>2014-10-04T10:16:40Z</time>
      </trkpt>
      <trkpt lat="44.96148" lon="5.53045">
        <ele>1582.47</ele>
        <time>2014-10-04T10:16:46Z</time>
      </trkpt>
      <trkpt lat="44.96128" lon="5.53041">
        <ele>1582.95</ele>
        <time>2014-10-04T10:16:58Z</time>
      </trkpt>
      <trkpt lat="44.96128" lon="5.53042">
        <ele>1582.95</ele>
        <time>2014-10-04T10:17:14Z</time>
      </trkpt>
      <trkpt lat="44.9612" lon="5.5304">
        <ele>1582.47</ele>
        <time>2014-10-04T10:17:32Z</time>
      </trkpt>
      <trkpt lat="44.96114" lon="5.53035">
        <ele>1582.47</ele>
        <time>2014-10-04T10:17:36Z</time>
      </trkpt>
      <trkpt lat="44.96108" lon="5.53033">
        <ele>1583.43</ele>
        <time>2014-10-04T10:17:42Z</time>
      </trkpt>
      <trkpt lat="44.96092" lon="5.53034">
        <ele>1583.43</ele>
        <time>2014-10-04T10:17:54Z</time>
      </trkpt>
      <trkpt lat="44.9609" lon="5.53033">
        <ele>1583.43</ele>
        <time>2014-10-04T10:17:56Z</time>
      </trkpt>
      <trkpt lat="44.96084" lon="5.53032">
        <ele>1583.91</ele>
        <time>2014-10-04T10:18:04Z</time>
      </trkpt>
      <trkpt lat="44.96081" lon="5.53025">
        <ele>1585.35</ele>
        <time>2014-10-04T10:18:10Z</time>
      </trkpt>
      <trkpt lat="44.96076" lon="5.53025">
        <ele>1584.87</ele>
        <time>2014-10-04T10:18:13Z</time>
      </trkpt>
      <trkpt lat="44.96067" lon="5.53022">
        <ele>1585.35</ele>
        <time>2014-10-04T10:18:20Z</time>
      </trkpt>
      <trkpt lat="44.96064" lon="5.53018">
        <ele>1584.87</ele>
        <time>2014-10-04T10:18:23Z</time>
      </trkpt>
      <trkpt lat="44.96059" lon="5.53016">
        <ele>1585.35</ele>
        <time>2014-10-04T10:18:28Z</time>
      </trkpt>
      <trkpt lat="44.96053" lon="5.53015">
        <ele>1586.31</ele>
        <time>2014-10-04T10:18:33Z</time>
      </trkpt>
      <trkpt lat="44.96044" lon="5.53013">
        <ele>1586.31</ele>
        <time>2014-10-04T10:18:40Z</time>
      </trkpt>
      <trkpt lat="44.96037" lon="5.5301">
        <ele>1586.31</ele>
        <time>2014-10-04T10:18:46Z</time>
      </trkpt>
      <trkpt lat="44.96027" lon="5.53007">
        <ele>1586.31</ele>
        <time>2014-10-04T10:18:54Z</time>
      </trkpt>
      <trkpt lat="44.96024" lon="5.53007">
        <ele>1585.83</ele>
        <time>2014-10-04T10:18:56Z</time>
      </trkpt>
      <trkpt lat="44.96017" lon="5.53006">
        <ele>1586.31</ele>
        <time>2014-10-04T10:19:03Z</time>
      </trkpt>
      <trkpt lat="44.96008" lon="5.53007">
        <ele>1586.79</ele>
        <time>2014-10-04T10:19:10Z</time>
      </trkpt>
      <trkpt lat="44.96004" lon="5.53006">
        <ele>1587.27</ele>
        <time>2014-10-04T10:19:14Z</time>
      </trkpt>
      <trkpt lat="44.95995" lon="5.53008">
        <ele>1587.27</ele>
        <time>2014-10-04T10:19:19Z</time>
      </trkpt>
      <trkpt lat="44.95983" lon="5.5301">
        <ele>1586.79</ele>
        <time>2014-10-04T10:19:27Z</time>
      </trkpt>
      <trkpt lat="44.95978" lon="5.5301">
        <ele>1588.24</ele>
        <time>2014-10-04T10:19:35Z</time>
      </trkpt>
      <trkpt lat="44.95976" lon="5.5301">
        <ele>1588.24</ele>
        <time>2014-10-04T10:19:39Z</time>
      </trkpt>
      <trkpt lat="44.95972" lon="5.53011">
        <ele>1588.24</ele>
        <time>2014-10-04T10:19:42Z</time>
      </trkpt>
      <trkpt lat="44.95966" lon="5.53011">
        <ele>1588.72</ele>
        <time>2014-10-04T10:19:48Z</time>
      </trkpt>
      <trkpt lat="44.95963" lon="5.53009">
        <ele>1588.24</ele>
        <time>2014-10-04T10:19:50Z</time>
      </trkpt>
      <trkpt lat="44.95961" lon="5.53009">
        <ele>1588.24</ele>
        <time>2014-10-04T10:19:53Z</time>
      </trkpt>
      <trkpt lat="44.95958" lon="5.5301">
        <ele>1588.72</ele>
        <time>2014-10-04T10:19:55Z</time>
      </trkpt>
      <trkpt lat="44.95955" lon="5.53011">
        <ele>1588.72</ele>
        <time>2014-10-04T10:20:07Z</time>
      </trkpt>
      <trkpt lat="44.95953" lon="5.53011">
        <ele>1588.72</ele>
        <time>2014-10-04T10:20:26Z</time>
      </trkpt>
      <trkpt lat="44.95944" lon="5.53008">
        <ele>1588.72</ele>
        <time>2014-10-04T10:20:35Z</time>
      </trkpt>
      <trkpt lat="44.95943" lon="5.53008">
        <ele>1588.72</ele>
        <time>2014-10-04T10:20:36Z</time>
      </trkpt>
      <trkpt lat="44.95937" lon="5.53006">
        <ele>1588.72</ele>
        <time>2014-10-04T10:20:40Z</time>
      </trkpt>
      <trkpt lat="44.95933" lon="5.53005">
        <ele>1588.72</ele>
        <time>2014-10-04T10:20:44Z</time>
      </trkpt>
      <trkpt lat="44.95929" lon="5.53001">
        <ele>1589.2</ele>
        <time>2014-10-04T10:20:48Z</time>
      </trkpt>
      <trkpt lat="44.95924" lon="5.52996">
        <ele>1589.2</ele>
        <time>2014-10-04T10:20:53Z</time>
      </trkpt>
      <trkpt lat="44.95917" lon="5.52989">
        <ele>1589.68</ele>
        <time>2014-10-04T10:21:02Z</time>
      </trkpt>
      <trkpt lat="44.95909" lon="5.52986">
        <ele>1589.68</ele>
        <time>2014-10-04T10:21:13Z</time>
      </trkpt>
      <trkpt lat="44.95907" lon="5.52985">
        <ele>1589.2</ele>
        <time>2014-10-04T10:21:22Z</time>
      </trkpt>
      <trkpt lat="44.95895" lon="5.52978">
        <ele>1590.16</ele>
        <time>2014-10-04T10:22:18Z</time>
      </trkpt>
      <trkpt lat="44.95896" lon="5.5298">
        <ele>1590.16</ele>
        <time>2014-10-04T10:22:19Z</time>
      </trkpt>
      <trkpt lat="44.95901" lon="5.52987">
        <ele>1589.68</ele>
        <time>2014-10-04T10:22:30Z</time>
      </trkpt>
      <trkpt lat="44.95894" lon="5.52979">
        <ele>1590.16</ele>
        <time>2014-10-04T10:22:38Z</time>
      </trkpt>
      <trkpt lat="44.95892" lon="5.52977">
        <ele>1590.64</ele>
        <time>2014-10-04T10:22:40Z</time>
      </trkpt>
      <trkpt lat="44.95883" lon="5.52967">
        <ele>1590.64</ele>
        <time>2014-10-04T10:22:50Z</time>
      </trkpt>
      <trkpt lat="44.95882" lon="5.52965">
        <ele>1591.12</ele>
        <time>2014-10-04T10:22:53Z</time>
      </trkpt>
      <trkpt lat="44.9587" lon="5.52961">
        <ele>1591.12</ele>
        <time>2014-10-04T10:23:07Z</time>
      </trkpt>
      <trkpt lat="44.95864" lon="5.52957">
        <ele>1589.68</ele>
        <time>2014-10-04T10:23:15Z</time>
      </trkpt>
      <trkpt lat="44.95858" lon="5.52947">
        <ele>1592.08</ele>
        <time>2014-10-04T10:23:25Z</time>
      </trkpt>
      <trkpt lat="44.95855" lon="5.52944">
        <ele>1591.6</ele>
        <time>2014-10-04T10:23:29Z</time>
      </trkpt>
      <trkpt lat="44.95843" lon="5.52936">
        <ele>1593.04</ele>
        <time>2014-10-04T10:23:44Z</time>
      </trkpt>
      <trkpt lat="44.95841" lon="5.52935">
        <ele>1592.56</ele>
        <time>2014-10-04T10:23:46Z</time>
      </trkpt>
      <trkpt lat="44.95833" lon="5.52929">
        <ele>1593.04</ele>
        <time>2014-10-04T10:23:53Z</time>
      </trkpt>
      <trkpt lat="44.95823" lon="5.52924">
        <ele>1593.04</ele>
        <time>2014-10-04T10:24:07Z</time>
      </trkpt>
      <trkpt lat="44.9582" lon="5.52922">
        <ele>1592.56</ele>
        <time>2014-10-04T10:24:34Z</time>
      </trkpt>
      <trkpt lat="44.95816" lon="5.52921">
        <ele>1593.04</ele>
        <time>2014-10-04T10:24:37Z</time>
      </trkpt>
      <trkpt lat="44.9581" lon="5.52915">
        <ele>1593.04</ele>
        <time>2014-10-04T10:24:41Z</time>
      </trkpt>
      <trkpt lat="44.95802" lon="5.52912">
        <ele>1593.04</ele>
        <time>2014-10-04T10:24:47Z</time>
      </trkpt>
      <trkpt lat="44.958" lon="5.52913">
        <ele>1593.04</ele>
        <time>2014-10-04T10:24:49Z</time>
      </trkpt>
      <trkpt lat="44.95788" lon="5.52907">
        <ele>1593.04</ele>
        <time>2014-10-04T10:24:58Z</time>
      </trkpt>
      <trkpt lat="44.95778" lon="5.52901">
        <ele>1593.04</ele>
        <time>2014-10-04T10:25:06Z</time>
      </trkpt>
      <trkpt lat="44.95772" lon="5.52893">
        <ele>1593.52</ele>
        <time>2014-10-04T10:25:11Z</time>
      </trkpt>
      <trkpt lat="44.95763" lon="5.52886">
        <ele>1593.52</ele>
        <time>2014-10-04T10:25:17Z</time>
      </trkpt>
      <trkpt lat="44.95758" lon="5.52884">
        <ele>1593.52</ele>
        <time>2014-10-04T10:25:23Z</time>
      </trkpt>
      <trkpt lat="44.95754" lon="5.52881">
        <ele>1593.52</ele>
        <time>2014-10-04T10:25:26Z</time>
      </trkpt>
      <trkpt lat="44.95745" lon="5.52878">
        <ele>1593.52</ele>
        <time>2014-10-04T10:25:32Z</time>
      </trkpt>
      <trkpt lat="44.95741" lon="5.52876">
        <ele>1593.52</ele>
        <time>2014-10-04T10:25:35Z</time>
      </trkpt>
      <trkpt lat="44.95734" lon="5.52871">
        <ele>1594</ele>
        <time>2014-10-04T10:25:43Z</time>
      </trkpt>
      <trkpt lat="44.95725" lon="5.52868">
        <ele>1594</ele>
        <time>2014-10-04T10:25:52Z</time>
      </trkpt>
      <trkpt lat="44.95715" lon="5.52861">
        <ele>1593.52</ele>
        <time>2014-10-04T10:26:00Z</time>
      </trkpt>
      <trkpt lat="44.95712" lon="5.52857">
        <ele>1593.52</ele>
        <time>2014-10-04T10:26:03Z</time>
      </trkpt>
      <trkpt lat="44.95709" lon="5.52855">
        <ele>1593.52</ele>
        <time>2014-10-04T10:26:05Z</time>
      </trkpt>
      <trkpt lat="44.95707" lon="5.5285">
        <ele>1594</ele>
        <time>2014-10-04T10:26:12Z</time>
      </trkpt>
      <trkpt lat="44.95701" lon="5.52846">
        <ele>1594.48</ele>
        <time>2014-10-04T10:26:17Z</time>
      </trkpt>
      <trkpt lat="44.95691" lon="5.52838">
        <ele>1594</ele>
        <time>2014-10-04T10:26:22Z</time>
      </trkpt>
      <trkpt lat="44.95682" lon="5.52832">
        <ele>1594</ele>
        <time>2014-10-04T10:26:28Z</time>
      </trkpt>
      <trkpt lat="44.95675" lon="5.52831">
        <ele>1593.52</ele>
        <time>2014-10-04T10:26:32Z</time>
      </trkpt>
      <trkpt lat="44.95667" lon="5.52829">
        <ele>1594</ele>
        <time>2014-10-04T10:26:38Z</time>
      </trkpt>
      <trkpt lat="44.95661" lon="5.52829">
        <ele>1593.52</ele>
        <time>2014-10-04T10:26:42Z</time>
      </trkpt>
      <trkpt lat="44.95659" lon="5.52827">
        <ele>1593.52</ele>
        <time>2014-10-04T10:26:44Z</time>
      </trkpt>
      <trkpt lat="44.95653" lon="5.52826">
        <ele>1594</ele>
        <time>2014-10-04T10:26:49Z</time>
      </trkpt>
      <trkpt lat="44.95647" lon="5.52827">
        <ele>1593.52</ele>
        <time>2014-10-04T10:26:53Z</time>
      </trkpt>
      <trkpt lat="44.95641" lon="5.52823">
        <ele>1593.52</ele>
        <time>2014-10-04T10:26:59Z</time>
      </trkpt>
      <trkpt lat="44.95639" lon="5.52819">
        <ele>1593.52</ele>
        <time>2014-10-04T10:27:01Z</time>
      </trkpt>
      <trkpt lat="44.95632" lon="5.52815">
        <ele>1593.52</ele>
        <time>2014-10-04T10:27:06Z</time>
      </trkpt>
      <trkpt lat="44.95618" lon="5.5281">
        <ele>1593.52</ele>
        <time>2014-10-04T10:27:18Z</time>
      </trkpt>
      <trkpt lat="44.95613" lon="5.52808">
        <ele>1593.52</ele>
        <time>2014-10-04T10:27:24Z</time>
      </trkpt>
      <trkpt lat="44.95604" lon="5.52808">
        <ele>1594</ele>
        <time>2014-10-04T10:27:33Z</time>
      </trkpt>
      <trkpt lat="44.95594" lon="5.52806">
        <ele>1593.52</ele>
        <time>2014-10-04T10:27:39Z</time>
      </trkpt>
      <trkpt lat="44.95586" lon="5.52807">
        <ele>1593.52</ele>
        <time>2014-10-04T10:27:44Z</time>
      </trkpt>
      <trkpt lat="44.95578" lon="5.52809">
        <ele>1593.52</ele>
        <time>2014-10-04T10:27:51Z</time>
      </trkpt>
      <trkpt lat="44.95566" lon="5.52802">
        <ele>1593.52</ele>
        <time>2014-10-04T10:27:58Z</time>
      </trkpt>
      <trkpt lat="44.95558" lon="5.528">
        <ele>1593.52</ele>
        <time>2014-10-04T10:28:03Z</time>
      </trkpt>
      <trkpt lat="44.9555" lon="5.52797">
        <ele>1593.52</ele>
        <time>2014-10-04T10:28:10Z</time>
      </trkpt>
      <trkpt lat="44.95548" lon="5.52796">
        <ele>1593.04</ele>
        <time>2014-10-04T10:28:12Z</time>
      </trkpt>
      <trkpt lat="44.9554" lon="5.52796">
        <ele>1592.56</ele>
        <time>2014-10-04T10:28:20Z</time>
      </trkpt>
      <trkpt lat="44.95535" lon="5.52798">
        <ele>1593.52</ele>
        <time>2014-10-04T10:28:26Z</time>
      </trkpt>
      <trkpt lat="44.95522" lon="5.5279">
        <ele>1593.52</ele>
        <time>2014-10-04T10:28:34Z</time>
      </trkpt>
      <trkpt lat="44.9552" lon="5.52789">
        <ele>1593.52</ele>
        <time>2014-10-04T10:28:36Z</time>
      </trkpt>
      <trkpt lat="44.95518" lon="5.52787">
        <ele>1593.52</ele>
        <time>2014-10-04T10:28:38Z</time>
      </trkpt>
      <trkpt lat="44.95507" lon="5.52784">
        <ele>1593.04</ele>
        <time>2014-10-04T10:28:48Z</time>
      </trkpt>
      <trkpt lat="44.95501" lon="5.5278">
        <ele>1593.52</ele>
        <time>2014-10-04T10:28:54Z</time>
      </trkpt>
      <trkpt lat="44.95483" lon="5.52773">
        <ele>1593.04</ele>
        <time>2014-10-04T10:29:07Z</time>
      </trkpt>
      <trkpt lat="44.95476" lon="5.5277">
        <ele>1593.04</ele>
        <time>2014-10-04T10:29:12Z</time>
      </trkpt>
      <trkpt lat="44.95474" lon="5.52769">
        <ele>1593.04</ele>
        <time>2014-10-04T10:29:14Z</time>
      </trkpt>
      <trkpt lat="44.95459" lon="5.52763">
        <ele>1592.08</ele>
        <time>2014-10-04T10:29:24Z</time>
      </trkpt>
      <trkpt lat="44.95457" lon="5.52763">
        <ele>1591.6</ele>
        <time>2014-10-04T10:29:26Z</time>
      </trkpt>
      <trkpt lat="44.95448" lon="5.52756">
        <ele>1592.56</ele>
        <time>2014-10-04T10:29:36Z</time>
      </trkpt>
      <trkpt lat="44.95444" lon="5.52752">
        <ele>1592.56</ele>
        <time>2014-10-04T10:29:43Z</time>
      </trkpt>
      <trkpt lat="44.95437" lon="5.52748">
        <ele>1592.56</ele>
        <time>2014-10-04T10:29:47Z</time>
      </trkpt>
      <trkpt lat="44.95429" lon="5.52744">
        <ele>1592.08</ele>
        <time>2014-10-04T10:29:55Z</time>
      </trkpt>
      <trkpt lat="44.95423" lon="5.52736">
        <ele>1591.12</ele>
        <time>2014-10-04T10:29:58Z</time>
      </trkpt>
      <trkpt lat="44.95412" lon="5.52724">
        <ele>1591.6</ele>
        <time>2014-10-04T10:30:11Z</time>
      </trkpt>
      <trkpt lat="44.95405" lon="5.52717">
        <ele>1591.12</ele>
        <time>2014-10-04T10:30:19Z</time>
      </trkpt>
      <trkpt lat="44.95402" lon="5.52717">
        <ele>1590.64</ele>
        <time>2014-10-04T10:30:21Z</time>
      </trkpt>
      <trkpt lat="44.95395" lon="5.52716">
        <ele>1591.12</ele>
        <time>2014-10-04T10:30:29Z</time>
      </trkpt>
      <trkpt lat="44.95384" lon="5.52712">
        <ele>1590.64</ele>
        <time>2014-10-04T10:30:39Z</time>
      </trkpt>
      <trkpt lat="44.95384" lon="5.52712">
        <ele>1590.16</ele>
        <time>2014-10-04T10:30:40Z</time>
      </trkpt>
      <trkpt lat="44.95376" lon="5.52709">
        <ele>1590.16</ele>
        <time>2014-10-04T10:30:45Z</time>
      </trkpt>
      <trkpt lat="44.95373" lon="5.52708">
        <ele>1590.16</ele>
        <time>2014-10-04T10:30:48Z</time>
      </trkpt>
      <trkpt lat="44.95358" lon="5.52712">
        <ele>1590.16</ele>
        <time>2014-10-04T10:30:55Z</time>
      </trkpt>
      <trkpt lat="44.95355" lon="5.52715">
        <ele>1589.68</ele>
        <time>2014-10-04T10:30:59Z</time>
      </trkpt>
      <trkpt lat="44.95352" lon="5.52713">
        <ele>1589.68</ele>
        <time>2014-10-04T10:31:02Z</time>
      </trkpt>
      <trkpt lat="44.95345" lon="5.52712">
        <ele>1588.72</ele>
        <time>2014-10-04T10:31:09Z</time>
      </trkpt>
      <trkpt lat="44.95337" lon="5.5271">
        <ele>1589.2</ele>
        <time>2014-10-04T10:31:15Z</time>
      </trkpt>
      <trkpt lat="44.95323" lon="5.52711">
        <ele>1588.72</ele>
        <time>2014-10-04T10:31:26Z</time>
      </trkpt>
      <trkpt lat="44.95318" lon="5.52708">
        <ele>1588.24</ele>
        <time>2014-10-04T10:31:36Z</time>
      </trkpt>
      <trkpt lat="44.95309" lon="5.5271">
        <ele>1588.24</ele>
        <time>2014-10-04T10:31:41Z</time>
      </trkpt>
      <trkpt lat="44.95301" lon="5.52709">
        <ele>1587.75</ele>
        <time>2014-10-04T10:31:47Z</time>
      </trkpt>
      <trkpt lat="44.95291" lon="5.52707">
        <ele>1587.75</ele>
        <time>2014-10-04T10:31:57Z</time>
      </trkpt>
      <trkpt lat="44.95289" lon="5.52707">
        <ele>1587.27</ele>
        <time>2014-10-04T10:31:59Z</time>
      </trkpt>
      <trkpt lat="44.95284" lon="5.52705">
        <ele>1588.24</ele>
        <time>2014-10-04T10:32:03Z</time>
      </trkpt>
      <trkpt lat="44.95272" lon="5.52703">
        <ele>1588.24</ele>
        <time>2014-10-04T10:32:12Z</time>
      </trkpt>
      <trkpt lat="44.95263" lon="5.52698">
        <ele>1588.72</ele>
        <time>2014-10-04T10:32:24Z</time>
      </trkpt>
      <trkpt lat="44.95251" lon="5.52697">
        <ele>1588.24</ele>
        <time>2014-10-04T10:32:34Z</time>
      </trkpt>
      <trkpt lat="44.95245" lon="5.52694">
        <ele>1587.75</ele>
        <time>2014-10-04T10:32:39Z</time>
      </trkpt>
      <trkpt lat="44.95224" lon="5.52684">
        <ele>1587.75</ele>
        <time>2014-10-04T10:32:55Z</time>
      </trkpt>
      <trkpt lat="44.9522" lon="5.52682">
        <ele>1588.24</ele>
        <time>2014-10-04T10:32:58Z</time>
      </trkpt>
      <trkpt lat="44.95203" lon="5.52683">
        <ele>1587.75</ele>
        <time>2014-10-04T10:33:12Z</time>
      </trkpt>
      <trkpt lat="44.95196" lon="5.52681">
        <ele>1587.75</ele>
        <time>2014-10-04T10:33:18Z</time>
      </trkpt>
      <trkpt lat="44.95189" lon="5.52675">
        <ele>1587.27</ele>
        <time>2014-10-04T10:33:24Z</time>
      </trkpt>
      <trkpt lat="44.95181" lon="5.52668">
        <ele>1587.27</ele>
        <time>2014-10-04T10:33:33Z</time>
      </trkpt>
      <trkpt lat="44.95178" lon="5.52668">
        <ele>1587.75</ele>
        <time>2014-10-04T10:33:36Z</time>
      </trkpt>
      <trkpt lat="44.95171" lon="5.52664">
        <ele>1586.79</ele>
        <time>2014-10-04T10:33:43Z</time>
      </trkpt>
      <trkpt lat="44.95157" lon="5.52656">
        <ele>1587.27</ele>
        <time>2014-10-04T10:33:55Z</time>
      </trkpt>
      <trkpt lat="44.95153" lon="5.52653">
        <ele>1586.79</ele>
        <time>2014-10-04T10:33:58Z</time>
      </trkpt>
      <trkpt lat="44.95142" lon="5.52647">
        <ele>1586.31</ele>
        <time>2014-10-04T10:34:09Z</time>
      </trkpt>
      <trkpt lat="44.95131" lon="5.5264">
        <ele>1586.31</ele>
        <time>2014-10-04T10:34:18Z</time>
      </trkpt>
      <trkpt lat="44.95121" lon="5.52629">
        <ele>1585.83</ele>
        <time>2014-10-04T10:34:31Z</time>
      </trkpt>
      <trkpt lat="44.95121" lon="5.52629">
        <ele>1586.31</ele>
        <time>2014-10-04T10:34:32Z</time>
      </trkpt>
      <trkpt lat="44.95111" lon="5.52622">
        <ele>1585.83</ele>
        <time>2014-10-04T10:34:39Z</time>
      </trkpt>
      <trkpt lat="44.951" lon="5.52613">
        <ele>1584.87</ele>
        <time>2014-10-04T10:34:49Z</time>
      </trkpt>
      <trkpt lat="44.95098" lon="5.52613">
        <ele>1584.39</ele>
        <time>2014-10-04T10:34:51Z</time>
      </trkpt>
      <trkpt lat="44.95091" lon="5.52609">
        <ele>1583.91</ele>
        <time>2014-10-04T10:34:57Z</time>
      </trkpt>
      <trkpt lat="44.9508" lon="5.52604">
        <ele>1583.43</ele>
        <time>2014-10-04T10:35:04Z</time>
      </trkpt>
      <trkpt lat="44.95067" lon="5.526">
        <ele>1582.95</ele>
        <time>2014-10-04T10:35:14Z</time>
      </trkpt>
      <trkpt lat="44.9506" lon="5.52595">
        <ele>1581.51</ele>
        <time>2014-10-04T10:35:22Z</time>
      </trkpt>
      <trkpt lat="44.95039" lon="5.5259">
        <ele>1581.51</ele>
        <time>2014-10-04T10:35:37Z</time>
      </trkpt>
      <trkpt lat="44.9502" lon="5.52587">
        <ele>1581.03</ele>
        <time>2014-10-04T10:35:48Z</time>
      </trkpt>
      <trkpt lat="44.95014" lon="5.52586">
        <ele>1581.03</ele>
        <time>2014-10-04T10:35:56Z</time>
      </trkpt>
      <trkpt lat="44.95004" lon="5.52584">
        <ele>1581.03</ele>
        <time>2014-10-04T10:36:04Z</time>
      </trkpt>
      <trkpt lat="44.94996" lon="5.52581">
        <ele>1580.54</ele>
        <time>2014-10-04T10:36:08Z</time>
      </trkpt>
      <trkpt lat="44.94988" lon="5.52577">
        <ele>1581.03</ele>
        <time>2014-10-04T10:36:14Z</time>
      </trkpt>
      <trkpt lat="44.94986" lon="5.52576">
        <ele>1581.03</ele>
        <time>2014-10-04T10:36:16Z</time>
      </trkpt>
      <trkpt lat="44.94975" lon="5.52572">
        <ele>1581.03</ele>
        <time>2014-10-04T10:36:22Z</time>
      </trkpt>
      <trkpt lat="44.94972" lon="5.52571">
        <ele>1581.03</ele>
        <time>2014-10-04T10:36:24Z</time>
      </trkpt>
      <trkpt lat="44.94963" lon="5.52571">
        <ele>1579.58</ele>
        <time>2014-10-04T10:36:32Z</time>
      </trkpt>
      <trkpt lat="44.94959" lon="5.52566">
        <ele>1578.62</ele>
        <time>2014-10-04T10:36:36Z</time>
      </trkpt>
      <trkpt lat="44.94952" lon="5.52562">
        <ele>1579.58</ele>
        <time>2014-10-04T10:36:42Z</time>
      </trkpt>
      <trkpt lat="44.94937" lon="5.52561">
        <ele>1579.58</ele>
        <time>2014-10-04T10:36:51Z</time>
      </trkpt>
      <trkpt lat="44.94936" lon="5.52562">
        <ele>1579.58</ele>
        <time>2014-10-04T10:36:52Z</time>
      </trkpt>
      <trkpt lat="44.94925" lon="5.52563">
        <ele>1579.58</ele>
        <time>2014-10-04T10:37:02Z</time>
      </trkpt>
      <trkpt lat="44.94924" lon="5.52563">
        <ele>1580.06</ele>
        <time>2014-10-04T10:37:04Z</time>
      </trkpt>
      <trkpt lat="44.94916" lon="5.52562">
        <ele>1579.58</ele>
        <time>2014-10-04T10:37:11Z</time>
      </trkpt>
      <trkpt lat="44.94905" lon="5.52567">
        <ele>1578.14</ele>
        <time>2014-10-04T10:37:18Z</time>
      </trkpt>
      <trkpt lat="44.94898" lon="5.5257">
        <ele>1578.62</ele>
        <time>2014-10-04T10:37:25Z</time>
      </trkpt>
      <trkpt lat="44.9488" lon="5.52566">
        <ele>1578.62</ele>
        <time>2014-10-04T10:37:34Z</time>
      </trkpt>
      <trkpt lat="44.94878" lon="5.52565">
        <ele>1579.1</ele>
        <time>2014-10-04T10:37:39Z</time>
      </trkpt>
      <trkpt lat="44.94871" lon="5.52569">
        <ele>1579.1</ele>
        <time>2014-10-04T10:37:44Z</time>
      </trkpt>
      <trkpt lat="44.94869" lon="5.52572">
        <ele>1577.66</ele>
        <time>2014-10-04T10:37:51Z</time>
      </trkpt>
      <trkpt lat="44.94864" lon="5.52575">
        <ele>1577.66</ele>
        <time>2014-10-04T10:37:54Z</time>
      </trkpt>
      <trkpt lat="44.94855" lon="5.52577">
        <ele>1577.66</ele>
        <time>2014-10-04T10:38:03Z</time>
      </trkpt>
      <trkpt lat="44.94848" lon="5.52579">
        <ele>1577.18</ele>
        <time>2014-10-04T10:38:07Z</time>
      </trkpt>
      <trkpt lat="44.94843" lon="5.5258">
        <ele>1577.66</ele>
        <time>2014-10-04T10:38:12Z</time>
      </trkpt>
      <trkpt lat="44.94834" lon="5.52578">
        <ele>1578.62</ele>
        <time>2014-10-04T10:38:18Z</time>
      </trkpt>
      <trkpt lat="44.94822" lon="5.52583">
        <ele>1578.62</ele>
        <time>2014-10-04T10:38:27Z</time>
      </trkpt>
      <trkpt lat="44.94815" lon="5.52587">
        <ele>1577.18</ele>
        <time>2014-10-04T10:38:38Z</time>
      </trkpt>
      <trkpt lat="44.9481" lon="5.52592">
        <ele>1576.22</ele>
        <time>2014-10-04T10:38:43Z</time>
      </trkpt>
      <trkpt lat="44.94805" lon="5.52596">
        <ele>1575.74</ele>
        <time>2014-10-04T10:38:47Z</time>
      </trkpt>
      <trkpt lat="44.94802" lon="5.52597">
        <ele>1576.22</ele>
        <time>2014-10-04T10:39:01Z</time>
      </trkpt>
      <trkpt lat="44.94802" lon="5.52597">
        <ele>1576.22</ele>
        <time>2014-10-04T10:39:13Z</time>
      </trkpt>
      <trkpt lat="44.94799" lon="5.52599">
        <ele>1576.22</ele>
        <time>2014-10-04T10:39:19Z</time>
      </trkpt>
      <trkpt lat="44.94796" lon="5.52601">
        <ele>1576.22</ele>
        <time>2014-10-04T10:39:21Z</time>
      </trkpt>
      <trkpt lat="44.94791" lon="5.52605">
        <ele>1575.74</ele>
        <time>2014-10-04T10:39:25Z</time>
      </trkpt>
      <trkpt lat="44.94783" lon="5.52614">
        <ele>1575.74</ele>
        <time>2014-10-04T10:39:32Z</time>
      </trkpt>
      <trkpt lat="44.94779" lon="5.52623">
        <ele>1577.18</ele>
        <time>2014-10-04T10:39:40Z</time>
      </trkpt>
      <trkpt lat="44.94775" lon="5.52629">
        <ele>1577.18</ele>
        <time>2014-10-04T10:39:46Z</time>
      </trkpt>
      <trkpt lat="44.94772" lon="5.52633">
        <ele>1577.18</ele>
        <time>2014-10-04T10:39:49Z</time>
      </trkpt>
      <trkpt lat="44.94764" lon="5.52644">
        <ele>1578.14</ele>
        <time>2014-10-04T10:39:56Z</time>
      </trkpt>
      <trkpt lat="44.94761" lon="5.52651">
        <ele>1579.1</ele>
        <time>2014-10-04T10:40:01Z</time>
      </trkpt>
      <trkpt lat="44.94755" lon="5.52656">
        <ele>1580.54</ele>
        <time>2014-10-04T10:40:07Z</time>
      </trkpt>
      <trkpt lat="44.94749" lon="5.52661">
        <ele>1581.99</ele>
        <time>2014-10-04T10:40:14Z</time>
      </trkpt>
      <trkpt lat="44.94744" lon="5.52665">
        <ele>1582.95</ele>
        <time>2014-10-04T10:40:19Z</time>
      </trkpt>
      <trkpt lat="44.94736" lon="5.52667">
        <ele>1584.39</ele>
        <time>2014-10-04T10:40:26Z</time>
      </trkpt>
      <trkpt lat="44.94727" lon="5.52673">
        <ele>1585.83</ele>
        <time>2014-10-04T10:40:36Z</time>
      </trkpt>
      <trkpt lat="44.94718" lon="5.52677">
        <ele>1586.31</ele>
        <time>2014-10-04T10:40:43Z</time>
      </trkpt>
      <trkpt lat="44.94708" lon="5.52676">
        <ele>1586.31</ele>
        <time>2014-10-04T10:40:51Z</time>
      </trkpt>
      <trkpt lat="44.94707" lon="5.52677">
        <ele>1586.31</ele>
        <time>2014-10-04T10:40:52Z</time>
      </trkpt>
      <trkpt lat="44.94698" lon="5.52682">
        <ele>1586.31</ele>
        <time>2014-10-04T10:40:58Z</time>
      </trkpt>
      <trkpt lat="44.94695" lon="5.5268">
        <ele>1588.24</ele>
        <time>2014-10-04T10:41:04Z</time>
      </trkpt>
      <trkpt lat="44.94686" lon="5.52679">
        <ele>1589.68</ele>
        <time>2014-10-04T10:41:11Z</time>
      </trkpt>
      <trkpt lat="44.94681" lon="5.5268">
        <ele>1589.68</ele>
        <time>2014-10-04T10:41:15Z</time>
      </trkpt>
      <trkpt lat="44.94676" lon="5.52683">
        <ele>1589.68</ele>
        <time>2014-10-04T10:41:18Z</time>
      </trkpt>
      <trkpt lat="44.94668" lon="5.52685">
        <ele>1590.16</ele>
        <time>2014-10-04T10:41:23Z</time>
      </trkpt>
      <trkpt lat="44.94666" lon="5.52686">
        <ele>1590.16</ele>
        <time>2014-10-04T10:41:25Z</time>
      </trkpt>
      <trkpt lat="44.94662" lon="5.5269">
        <ele>1589.68</ele>
        <time>2014-10-04T10:41:30Z</time>
      </trkpt>
      <trkpt lat="44.94659" lon="5.52694">
        <ele>1589.2</ele>
        <time>2014-10-04T10:41:35Z</time>
      </trkpt>
      <trkpt lat="44.94652" lon="5.52697">
        <ele>1588.24</ele>
        <time>2014-10-04T10:41:49Z</time>
      </trkpt>
      <trkpt lat="44.94652" lon="5.52697">
        <ele>1588.72</ele>
        <time>2014-10-04T10:41:55Z</time>
      </trkpt>
      <trkpt lat="44.94647" lon="5.52697">
        <ele>1588.72</ele>
        <time>2014-10-04T10:41:59Z</time>
      </trkpt>
      <trkpt lat="44.94642" lon="5.52697">
        <ele>1588.24</ele>
        <time>2014-10-04T10:42:02Z</time>
      </trkpt>
      <trkpt lat="44.94638" lon="5.52699">
        <ele>1587.75</ele>
        <time>2014-10-04T10:42:10Z</time>
      </trkpt>
      <trkpt lat="44.9463" lon="5.52699">
        <ele>1588.24</ele>
        <time>2014-10-04T10:42:19Z</time>
      </trkpt>
      <trkpt lat="44.94628" lon="5.52698">
        <ele>1588.24</ele>
        <time>2014-10-04T10:42:34Z</time>
      </trkpt>
      <trkpt lat="44.94624" lon="5.52699">
        <ele>1588.24</ele>
        <time>2014-10-04T10:42:36Z</time>
      </trkpt>
      <trkpt lat="44.94616" lon="5.52699">
        <ele>1588.72</ele>
        <time>2014-10-04T10:42:44Z</time>
      </trkpt>
      <trkpt lat="44.94616" lon="5.52699">
        <ele>1588.24</ele>
        <time>2014-10-04T10:42:55Z</time>
      </trkpt>
      <trkpt lat="44.94611" lon="5.52697">
        <ele>1587.75</ele>
        <time>2014-10-04T10:43:07Z</time>
      </trkpt>
      <trkpt lat="44.94611" lon="5.52698">
        <ele>1588.24</ele>
        <time>2014-10-04T10:43:10Z</time>
      </trkpt>
      <trkpt lat="44.94612" lon="5.527">
        <ele>1588.72</ele>
        <time>2014-10-04T10:43:20Z</time>
      </trkpt>
      <trkpt lat="44.94612" lon="5.527">
        <ele>1588.72</ele>
        <time>2014-10-04T10:43:37Z</time>
      </trkpt>
      <trkpt lat="44.94612" lon="5.527">
        <ele>1588.24</ele>
        <time>2014-10-04T10:43:57Z</time>
      </trkpt>
      <trkpt lat="44.94613" lon="5.52702">
        <ele>1587.75</ele>
        <time>2014-10-04T10:44:14Z</time>
      </trkpt>
      <trkpt lat="44.94613" lon="5.52702">
        <ele>1592.08</ele>
        <time>2014-10-04T10:44:37Z</time>
      </trkpt>
      <trkpt lat="44.94613" lon="5.52702">
        <ele>1583.91</ele>
        <time>2014-10-04T10:44:38Z</time>
      </trkpt>
      <trkpt lat="44.94613" lon="5.52702">
        <ele>1593.52</ele>
        <time>2014-10-04T10:44:39Z</time>
      </trkpt>
      <trkpt lat="44.94613" lon="5.52702">
        <ele>1589.2</ele>
        <time>2014-10-04T10:44:40Z</time>
      </trkpt>
      <trkpt lat="44.94612" lon="5.52702">
        <ele>1588.72</ele>
        <time>2014-10-04T10:45:03Z</time>
      </trkpt>
      <trkpt lat="44.94599" lon="5.52705">
        <ele>1590.16</ele>
        <time>2014-10-04T11:32:53Z</time>
      </trkpt>
      <trkpt lat="44.94598" lon="5.52706">
        <ele>1590.16</ele>
        <time>2014-10-04T11:32:54Z</time>
      </trkpt>
      <trkpt lat="44.9461" lon="5.52711">
        <ele>1589.68</ele>
        <time>2014-10-04T11:33:07Z</time>
      </trkpt>
      <trkpt lat="44.94606" lon="5.52696">
        <ele>1590.64</ele>
        <time>2014-10-04T11:33:16Z</time>
      </trkpt>
      <trkpt lat="44.94602" lon="5.52678">
        <ele>1592.56</ele>
        <time>2014-10-04T11:33:27Z</time>
      </trkpt>
      <trkpt lat="44.94601" lon="5.52669">
        <ele>1593.52</ele>
        <time>2014-10-04T11:33:37Z</time>
      </trkpt>
      <trkpt lat="44.94596" lon="5.52659">
        <ele>1595.45</ele>
        <time>2014-10-04T11:33:47Z</time>
      </trkpt>
      <trkpt lat="44.94592" lon="5.52649">
        <ele>1596.41</ele>
        <time>2014-10-04T11:33:57Z</time>
      </trkpt>
      <trkpt lat="44.94589" lon="5.52641">
        <ele>1597.85</ele>
        <time>2014-10-04T11:34:06Z</time>
      </trkpt>
      <trkpt lat="44.94585" lon="5.52637">
        <ele>1599.29</ele>
        <time>2014-10-04T11:34:16Z</time>
      </trkpt>
      <trkpt lat="44.9458" lon="5.52628">
        <ele>1600.25</ele>
        <time>2014-10-04T11:34:26Z</time>
      </trkpt>
      <trkpt lat="44.94579" lon="5.52625">
        <ele>1600.25</ele>
        <time>2014-10-04T11:34:29Z</time>
      </trkpt>
      <trkpt lat="44.94573" lon="5.52622">
        <ele>1601.21</ele>
        <time>2014-10-04T11:34:34Z</time>
      </trkpt>
      <trkpt lat="44.94566" lon="5.5261">
        <ele>1603.14</ele>
        <time>2014-10-04T11:34:44Z</time>
      </trkpt>
      <trkpt lat="44.94566" lon="5.5261">
        <ele>1603.62</ele>
        <time>2014-10-04T11:34:45Z</time>
      </trkpt>
      <trkpt lat="44.94561" lon="5.52601">
        <ele>1604.1</ele>
        <time>2014-10-04T11:34:54Z</time>
      </trkpt>
      <trkpt lat="44.94555" lon="5.52596">
        <ele>1605.54</ele>
        <time>2014-10-04T11:35:04Z</time>
      </trkpt>
      <trkpt lat="44.94548" lon="5.52591">
        <ele>1606.98</ele>
        <time>2014-10-04T11:35:13Z</time>
      </trkpt>
      <trkpt lat="44.94542" lon="5.52587">
        <ele>1608.42</ele>
        <time>2014-10-04T11:35:23Z</time>
      </trkpt>
      <trkpt lat="44.94537" lon="5.52586">
        <ele>1608.9</ele>
        <time>2014-10-04T11:35:28Z</time>
      </trkpt>
      <trkpt lat="44.94532" lon="5.52578">
        <ele>1610.35</ele>
        <time>2014-10-04T11:35:38Z</time>
      </trkpt>
      <trkpt lat="44.94528" lon="5.52576">
        <ele>1610.83</ele>
        <time>2014-10-04T11:35:44Z</time>
      </trkpt>
      <trkpt lat="44.94521" lon="5.52574">
        <ele>1611.79</ele>
        <time>2014-10-04T11:35:52Z</time>
      </trkpt>
      <trkpt lat="44.9452" lon="5.52574">
        <ele>1612.27</ele>
        <time>2014-10-04T11:35:54Z</time>
      </trkpt>
      <trkpt lat="44.94518" lon="5.52573">
        <ele>1612.75</ele>
        <time>2014-10-04T11:35:57Z</time>
      </trkpt>
      <trkpt lat="44.94514" lon="5.52568">
        <ele>1613.23</ele>
        <time>2014-10-04T11:36:06Z</time>
      </trkpt>
      <trkpt lat="44.94514" lon="5.52567">
        <ele>1613.71</ele>
        <time>2014-10-04T11:36:08Z</time>
      </trkpt>
      <trkpt lat="44.94506" lon="5.5256">
        <ele>1615.15</ele>
        <time>2014-10-04T11:36:17Z</time>
      </trkpt>
      <trkpt lat="44.94502" lon="5.52557">
        <ele>1616.11</ele>
        <time>2014-10-04T11:36:24Z</time>
      </trkpt>
      <trkpt lat="44.94497" lon="5.52558">
        <ele>1616.59</ele>
        <time>2014-10-04T11:36:27Z</time>
      </trkpt>
      <trkpt lat="44.94496" lon="5.52558">
        <ele>1616.59</ele>
        <time>2014-10-04T11:36:30Z</time>
      </trkpt>
      <trkpt lat="44.9449" lon="5.52549">
        <ele>1618.04</ele>
        <time>2014-10-04T11:36:39Z</time>
      </trkpt>
      <trkpt lat="44.94488" lon="5.52545">
        <ele>1618.52</ele>
        <time>2014-10-04T11:36:43Z</time>
      </trkpt>
      <trkpt lat="44.94481" lon="5.52548">
        <ele>1619</ele>
        <time>2014-10-04T11:36:50Z</time>
      </trkpt>
      <trkpt lat="44.94477" lon="5.52543">
        <ele>1619.96</ele>
        <time>2014-10-04T11:36:58Z</time>
      </trkpt>
      <trkpt lat="44.94472" lon="5.52533">
        <ele>1620.92</ele>
        <time>2014-10-04T11:37:07Z</time>
      </trkpt>
      <trkpt lat="44.9447" lon="5.52527">
        <ele>1622.84</ele>
        <time>2014-10-04T11:37:15Z</time>
      </trkpt>
      <trkpt lat="44.94468" lon="5.52526">
        <ele>1622.84</ele>
        <time>2014-10-04T11:37:18Z</time>
      </trkpt>
      <trkpt lat="44.94461" lon="5.52519">
        <ele>1623.8</ele>
        <time>2014-10-04T11:37:28Z</time>
      </trkpt>
      <trkpt lat="44.94458" lon="5.52518">
        <ele>1624.77</ele>
        <time>2014-10-04T11:37:32Z</time>
      </trkpt>
      <trkpt lat="44.94447" lon="5.52514">
        <ele>1625.73</ele>
        <time>2014-10-04T11:37:43Z</time>
      </trkpt>
      <trkpt lat="44.94441" lon="5.52512">
        <ele>1626.69</ele>
        <time>2014-10-04T11:37:51Z</time>
      </trkpt>
      <trkpt lat="44.94439" lon="5.5251">
        <ele>1626.69</ele>
        <time>2014-10-04T11:37:53Z</time>
      </trkpt>
      <trkpt lat="44.9443" lon="5.52503">
        <ele>1629.09</ele>
        <time>2014-10-04T11:38:04Z</time>
      </trkpt>
      <trkpt lat="44.9443" lon="5.52503">
        <ele>1629.09</ele>
        <time>2014-10-04T11:38:05Z</time>
      </trkpt>
      <trkpt lat="44.94425" lon="5.52501">
        <ele>1629.09</ele>
        <time>2014-10-04T11:38:10Z</time>
      </trkpt>
      <trkpt lat="44.94422" lon="5.525">
        <ele>1630.05</ele>
        <time>2014-10-04T11:38:12Z</time>
      </trkpt>
      <trkpt lat="44.94418" lon="5.52502">
        <ele>1630.05</ele>
        <time>2014-10-04T11:38:15Z</time>
      </trkpt>
      <trkpt lat="44.94413" lon="5.52501">
        <ele>1631.49</ele>
        <time>2014-10-04T11:38:21Z</time>
      </trkpt>
      <trkpt lat="44.94409" lon="5.52499">
        <ele>1632.46</ele>
        <time>2014-10-04T11:38:26Z</time>
      </trkpt>
      <trkpt lat="44.94408" lon="5.52497">
        <ele>1632.94</ele>
        <time>2014-10-04T11:38:29Z</time>
      </trkpt>
      <trkpt lat="44.94406" lon="5.52494">
        <ele>1633.42</ele>
        <time>2014-10-04T11:38:32Z</time>
      </trkpt>
      <trkpt lat="44.94402" lon="5.5249">
        <ele>1634.86</ele>
        <time>2014-10-04T11:38:42Z</time>
      </trkpt>
      <trkpt lat="44.94401" lon="5.5249">
        <ele>1634.86</ele>
        <time>2014-10-04T11:38:44Z</time>
      </trkpt>
      <trkpt lat="44.94399" lon="5.52492">
        <ele>1635.34</ele>
        <time>2014-10-04T11:38:48Z</time>
      </trkpt>
      <trkpt lat="44.94395" lon="5.52492">
        <ele>1635.34</ele>
        <time>2014-10-04T11:39:01Z</time>
      </trkpt>
      <trkpt lat="44.94395" lon="5.52492">
        <ele>1635.34</ele>
        <time>2014-10-04T11:39:23Z</time>
      </trkpt>
      <trkpt lat="44.94392" lon="5.52492">
        <ele>1635.34</ele>
        <time>2014-10-04T11:39:27Z</time>
      </trkpt>
      <trkpt lat="44.94389" lon="5.52487">
        <ele>1636.78</ele>
        <time>2014-10-04T11:39:33Z</time>
      </trkpt>
      <trkpt lat="44.94384" lon="5.52484">
        <ele>1638.22</ele>
        <time>2014-10-04T11:39:39Z</time>
      </trkpt>
      <trkpt lat="44.94382" lon="5.52482">
        <ele>1638.22</ele>
        <time>2014-10-04T11:39:42Z</time>
      </trkpt>
      <trkpt lat="44.94379" lon="5.52474">
        <ele>1639.19</ele>
        <time>2014-10-04T11:39:49Z</time>
      </trkpt>
      <trkpt lat="44.94374" lon="5.52473">
        <ele>1641.11</ele>
        <time>2014-10-04T11:39:58Z</time>
      </trkpt>
      <trkpt lat="44.94373" lon="5.52474">
        <ele>1641.11</ele>
        <time>2014-10-04T11:39:59Z</time>
      </trkpt>
      <trkpt lat="44.94368" lon="5.52476">
        <ele>1642.07</ele>
        <time>2014-10-04T11:40:05Z</time>
      </trkpt>
      <trkpt lat="44.94365" lon="5.52476">
        <ele>1642.07</ele>
        <time>2014-10-04T11:40:08Z</time>
      </trkpt>
      <trkpt lat="44.94358" lon="5.52469">
        <ele>1643.51</ele>
        <time>2014-10-04T11:40:18Z</time>
      </trkpt>
      <trkpt lat="44.94352" lon="5.52464">
        <ele>1645.43</ele>
        <time>2014-10-04T11:40:27Z</time>
      </trkpt>
      <trkpt lat="44.94351" lon="5.52464">
        <ele>1645.43</ele>
        <time>2014-10-04T11:40:30Z</time>
      </trkpt>
      <trkpt lat="44.94343" lon="5.52464">
        <ele>1646.4</ele>
        <time>2014-10-04T11:40:38Z</time>
      </trkpt>
      <trkpt lat="44.94337" lon="5.52468">
        <ele>1647.84</ele>
        <time>2014-10-04T11:40:46Z</time>
      </trkpt>
      <trkpt lat="44.94336" lon="5.52467">
        <ele>1648.32</ele>
        <time>2014-10-04T11:40:48Z</time>
      </trkpt>
      <trkpt lat="44.9433" lon="5.52464">
        <ele>1649.76</ele>
        <time>2014-10-04T11:40:57Z</time>
      </trkpt>
      <trkpt lat="44.94326" lon="5.52464">
        <ele>1650.24</ele>
        <time>2014-10-04T11:41:01Z</time>
      </trkpt>
      <trkpt lat="44.94321" lon="5.52469">
        <ele>1651.2</ele>
        <time>2014-10-04T11:41:09Z</time>
      </trkpt>
      <trkpt lat="44.9432" lon="5.5247">
        <ele>1651.2</ele>
        <time>2014-10-04T11:41:11Z</time>
      </trkpt>
      <trkpt lat="44.94311" lon="5.52471">
        <ele>1653.12</ele>
        <time>2014-10-04T11:41:21Z</time>
      </trkpt>
      <trkpt lat="44.94303" lon="5.52472">
        <ele>1654.57</ele>
        <time>2014-10-04T11:41:32Z</time>
      </trkpt>
      <trkpt lat="44.94304" lon="5.52473">
        <ele>1655.05</ele>
        <time>2014-10-04T11:41:34Z</time>
      </trkpt>
      <trkpt lat="44.94307" lon="5.52471">
        <ele>1655.05</ele>
        <time>2014-10-04T11:41:38Z</time>
      </trkpt>
      <trkpt lat="44.94313" lon="5.52463">
        <ele>1656.49</ele>
        <time>2014-10-04T11:41:49Z</time>
      </trkpt>
      <trkpt lat="44.94317" lon="5.52456">
        <ele>1658.41</ele>
        <time>2014-10-04T11:42:00Z</time>
      </trkpt>
      <trkpt lat="44.94324" lon="5.5245">
        <ele>1659.85</ele>
        <time>2014-10-04T11:42:11Z</time>
      </trkpt>
      <trkpt lat="44.94326" lon="5.52445">
        <ele>1660.81</ele>
        <time>2014-10-04T11:42:19Z</time>
      </trkpt>
      <trkpt lat="44.9432" lon="5.52445">
        <ele>1663.22</ele>
        <time>2014-10-04T11:42:29Z</time>
      </trkpt>
      <trkpt lat="44.94319" lon="5.52445">
        <ele>1663.7</ele>
        <time>2014-10-04T11:42:34Z</time>
      </trkpt>
      <trkpt lat="44.94316" lon="5.52447">
        <ele>1664.66</ele>
        <time>2014-10-04T11:42:39Z</time>
      </trkpt>
      <trkpt lat="44.9431" lon="5.5245">
        <ele>1665.62</ele>
        <time>2014-10-04T11:42:47Z</time>
      </trkpt>
      <trkpt lat="44.94305" lon="5.52453">
        <ele>1666.1</ele>
        <time>2014-10-04T11:42:53Z</time>
      </trkpt>
      <trkpt lat="44.94301" lon="5.52457">
        <ele>1668.02</ele>
        <time>2014-10-04T11:43:05Z</time>
      </trkpt>
      <trkpt lat="44.943" lon="5.52457">
        <ele>1668.02</ele>
        <time>2014-10-04T11:43:06Z</time>
      </trkpt>
      <trkpt lat="44.94292" lon="5.52461">
        <ele>1669.95</ele>
        <time>2014-10-04T11:43:18Z</time>
      </trkpt>
      <trkpt lat="44.94289" lon="5.52461">
        <ele>1669.95</ele>
        <time>2014-10-04T11:43:21Z</time>
      </trkpt>
      <trkpt lat="44.94283" lon="5.52461">
        <ele>1670.91</ele>
        <time>2014-10-04T11:43:27Z</time>
      </trkpt>
      <trkpt lat="44.94281" lon="5.52464">
        <ele>1671.39</ele>
        <time>2014-10-04T11:43:30Z</time>
      </trkpt>
      <trkpt lat="44.94274" lon="5.52473">
        <ele>1671.39</ele>
        <time>2014-10-04T11:43:43Z</time>
      </trkpt>
      <trkpt lat="44.94271" lon="5.52474">
        <ele>1672.35</ele>
        <time>2014-10-04T11:43:48Z</time>
      </trkpt>
      <trkpt lat="44.94267" lon="5.5247">
        <ele>1673.79</ele>
        <time>2014-10-04T11:43:57Z</time>
      </trkpt>
      <trkpt lat="44.94259" lon="5.52468">
        <ele>1675.72</ele>
        <time>2014-10-04T11:44:06Z</time>
      </trkpt>
      <trkpt lat="44.94254" lon="5.5247">
        <ele>1676.2</ele>
        <time>2014-10-04T11:44:19Z</time>
      </trkpt>
      <trkpt lat="44.94252" lon="5.5247">
        <ele>1676.2</ele>
        <time>2014-10-04T11:44:23Z</time>
      </trkpt>
      <trkpt lat="44.94249" lon="5.52471">
        <ele>1676.68</ele>
        <time>2014-10-04T11:44:26Z</time>
      </trkpt>
      <trkpt lat="44.94246" lon="5.52471">
        <ele>1676.68</ele>
        <time>2014-10-04T11:44:29Z</time>
      </trkpt>
      <trkpt lat="44.94238" lon="5.52471">
        <ele>1678.12</ele>
        <time>2014-10-04T11:44:39Z</time>
      </trkpt>
      <trkpt lat="44.94235" lon="5.52468">
        <ele>1679.08</ele>
        <time>2014-10-04T11:44:46Z</time>
      </trkpt>
      <trkpt lat="44.9423" lon="5.52465">
        <ele>1680.04</ele>
        <time>2014-10-04T11:44:52Z</time>
      </trkpt>
      <trkpt lat="44.94229" lon="5.52465">
        <ele>1680.04</ele>
        <time>2014-10-04T11:44:54Z</time>
      </trkpt>
      <trkpt lat="44.94224" lon="5.52458">
        <ele>1681.96</ele>
        <time>2014-10-04T11:45:05Z</time>
      </trkpt>
      <trkpt lat="44.94222" lon="5.52456">
        <ele>1683.41</ele>
        <time>2014-10-04T11:45:14Z</time>
      </trkpt>
      <trkpt lat="44.94215" lon="5.52456">
        <ele>1684.85</ele>
        <time>2014-10-04T11:45:24Z</time>
      </trkpt>
      <trkpt lat="44.94214" lon="5.52457">
        <ele>1684.85</ele>
        <time>2014-10-04T11:45:25Z</time>
      </trkpt>
      <trkpt lat="44.94212" lon="5.52457">
        <ele>1685.33</ele>
        <time>2014-10-04T11:45:27Z</time>
      </trkpt>
      <trkpt lat="44.94202" lon="5.52456">
        <ele>1686.29</ele>
        <time>2014-10-04T11:45:39Z</time>
      </trkpt>
      <trkpt lat="44.94201" lon="5.52456">
        <ele>1686.29</ele>
        <time>2014-10-04T11:45:40Z</time>
      </trkpt>
      <trkpt lat="44.94193" lon="5.52451">
        <ele>1687.73</ele>
        <time>2014-10-04T11:45:50Z</time>
      </trkpt>
      <trkpt lat="44.94185" lon="5.52448">
        <ele>1689.17</ele>
        <time>2014-10-04T11:46:00Z</time>
      </trkpt>
      <trkpt lat="44.94183" lon="5.52446">
        <ele>1689.65</ele>
        <time>2014-10-04T11:46:04Z</time>
      </trkpt>
      <trkpt lat="44.9418" lon="5.52442">
        <ele>1690.62</ele>
        <time>2014-10-04T11:46:09Z</time>
      </trkpt>
      <trkpt lat="44.94174" lon="5.52434">
        <ele>1692.06</ele>
        <time>2014-10-04T11:46:20Z</time>
      </trkpt>
      <trkpt lat="44.94173" lon="5.52434">
        <ele>1692.06</ele>
        <time>2014-10-04T11:46:22Z</time>
      </trkpt>
      <trkpt lat="44.94168" lon="5.52431">
        <ele>1693.02</ele>
        <time>2014-10-04T11:46:30Z</time>
      </trkpt>
      <trkpt lat="44.94163" lon="5.52425">
        <ele>1693.98</ele>
        <time>2014-10-04T11:46:36Z</time>
      </trkpt>
      <trkpt lat="44.94161" lon="5.52421">
        <ele>1695.9</ele>
        <time>2014-10-04T11:46:45Z</time>
      </trkpt>
      <trkpt lat="44.94164" lon="5.52421">
        <ele>1696.86</ele>
        <time>2014-10-04T11:46:50Z</time>
      </trkpt>
      <trkpt lat="44.94172" lon="5.52424">
        <ele>1697.83</ele>
        <time>2014-10-04T11:47:00Z</time>
      </trkpt>
      <trkpt lat="44.94178" lon="5.52428">
        <ele>1699.27</ele>
        <time>2014-10-04T11:47:09Z</time>
      </trkpt>
      <trkpt lat="44.94186" lon="5.52431">
        <ele>1699.75</ele>
        <time>2014-10-04T11:47:18Z</time>
      </trkpt>
      <trkpt lat="44.94194" lon="5.5243">
        <ele>1701.67</ele>
        <time>2014-10-04T11:47:28Z</time>
      </trkpt>
      <trkpt lat="44.94201" lon="5.52428">
        <ele>1702.63</ele>
        <time>2014-10-04T11:47:37Z</time>
      </trkpt>
      <trkpt lat="44.94201" lon="5.52427">
        <ele>1702.63</ele>
        <time>2014-10-04T11:48:00Z</time>
      </trkpt>
      <trkpt lat="44.94205" lon="5.52427">
        <ele>1703.59</ele>
        <time>2014-10-04T11:48:19Z</time>
      </trkpt>
      <trkpt lat="44.94212" lon="5.52425">
        <ele>1704.55</ele>
        <time>2014-10-04T11:48:26Z</time>
      </trkpt>
      <trkpt lat="44.94216" lon="5.52421">
        <ele>1704.55</ele>
        <time>2014-10-04T11:48:32Z</time>
      </trkpt>
      <trkpt lat="44.94221" lon="5.52416">
        <ele>1707.44</ele>
        <time>2014-10-04T11:48:42Z</time>
      </trkpt>
      <trkpt lat="44.94221" lon="5.52415">
        <ele>1706.96</ele>
        <time>2014-10-04T11:48:44Z</time>
      </trkpt>
      <trkpt lat="44.94224" lon="5.52416">
        <ele>1707.44</ele>
        <time>2014-10-04T11:48:48Z</time>
      </trkpt>
      <trkpt lat="44.94224" lon="5.52418">
        <ele>1708.4</ele>
        <time>2014-10-04T11:48:51Z</time>
      </trkpt>
      <trkpt lat="44.94226" lon="5.5242">
        <ele>1708.4</ele>
        <time>2014-10-04T11:48:56Z</time>
      </trkpt>
      <trkpt lat="44.94232" lon="5.5242">
        <ele>1708.88</ele>
        <time>2014-10-04T11:49:01Z</time>
      </trkpt>
      <trkpt lat="44.94238" lon="5.52417">
        <ele>1709.84</ele>
        <time>2014-10-04T11:49:07Z</time>
      </trkpt>
      <trkpt lat="44.94244" lon="5.52411">
        <ele>1711.28</ele>
        <time>2014-10-04T11:49:16Z</time>
      </trkpt>
      <trkpt lat="44.94251" lon="5.52409">
        <ele>1712.25</ele>
        <time>2014-10-04T11:49:24Z</time>
      </trkpt>
      <trkpt lat="44.94253" lon="5.52408">
        <ele>1712.25</ele>
        <time>2014-10-04T11:49:27Z</time>
      </trkpt>
      <trkpt lat="44.94255" lon="5.52406">
        <ele>1712.25</ele>
        <time>2014-10-04T11:49:32Z</time>
      </trkpt>
      <trkpt lat="44.9426" lon="5.52398">
        <ele>1713.69</ele>
        <time>2014-10-04T11:49:41Z</time>
      </trkpt>
      <trkpt lat="44.94264" lon="5.52394">
        <ele>1715.13</ele>
        <time>2014-10-04T11:49:47Z</time>
      </trkpt>
      <trkpt lat="44.94266" lon="5.5239">
        <ele>1715.61</ele>
        <time>2014-10-04T11:49:55Z</time>
      </trkpt>
      <trkpt lat="44.94262" lon="5.52387">
        <ele>1717.05</ele>
        <time>2014-10-04T11:50:04Z</time>
      </trkpt>
      <trkpt lat="44.94254" lon="5.52387">
        <ele>1718.97</ele>
        <time>2014-10-04T11:50:15Z</time>
      </trkpt>
      <trkpt lat="44.94246" lon="5.52386">
        <ele>1720.42</ele>
        <time>2014-10-04T11:50:25Z</time>
      </trkpt>
      <trkpt lat="44.94244" lon="5.52386">
        <ele>1720.9</ele>
        <time>2014-10-04T11:50:31Z</time>
      </trkpt>
      <trkpt lat="44.94241" lon="5.52385">
        <ele>1721.38</ele>
        <time>2014-10-04T11:50:34Z</time>
      </trkpt>
      <trkpt lat="44.94234" lon="5.52385">
        <ele>1722.34</ele>
        <time>2014-10-04T11:50:42Z</time>
      </trkpt>
      <trkpt lat="44.94233" lon="5.52383">
        <ele>1722.82</ele>
        <time>2014-10-04T11:50:45Z</time>
      </trkpt>
      <trkpt lat="44.94227" lon="5.52376">
        <ele>1724.74</ele>
        <time>2014-10-04T11:50:53Z</time>
      </trkpt>
      <trkpt lat="44.94223" lon="5.52377">
        <ele>1724.74</ele>
        <time>2014-10-04T11:50:57Z</time>
      </trkpt>
      <trkpt lat="44.9422" lon="5.5238">
        <ele>1724.26</ele>
        <time>2014-10-04T11:51:02Z</time>
      </trkpt>
      <trkpt lat="44.94216" lon="5.52386">
        <ele>1724.74</ele>
        <time>2014-10-04T11:51:07Z</time>
      </trkpt>
      <trkpt lat="44.94213" lon="5.52381">
        <ele>1726.18</ele>
        <time>2014-10-04T11:51:13Z</time>
      </trkpt>
      <trkpt lat="44.94205" lon="5.52378">
        <ele>1727.63</ele>
        <time>2014-10-04T11:51:23Z</time>
      </trkpt>
      <trkpt lat="44.94205" lon="5.52378">
        <ele>1728.11</ele>
        <time>2014-10-04T11:51:24Z</time>
      </trkpt>
      <trkpt lat="44.94204" lon="5.52376">
        <ele>1728.11</ele>
        <time>2014-10-04T11:51:26Z</time>
      </trkpt>
      <trkpt lat="44.94198" lon="5.52373">
        <ele>1729.07</ele>
        <time>2014-10-04T11:51:32Z</time>
      </trkpt>
      <trkpt lat="44.94195" lon="5.52369">
        <ele>1730.03</ele>
        <time>2014-10-04T11:51:37Z</time>
      </trkpt>
      <trkpt lat="44.94193" lon="5.52364">
        <ele>1730.51</ele>
        <time>2014-10-04T11:51:43Z</time>
      </trkpt>
      <trkpt lat="44.94191" lon="5.52362">
        <ele>1731.47</ele>
        <time>2014-10-04T11:51:46Z</time>
      </trkpt>
      <trkpt lat="44.94189" lon="5.52359">
        <ele>1731.47</ele>
        <time>2014-10-04T11:51:49Z</time>
      </trkpt>
      <trkpt lat="44.94187" lon="5.52356">
        <ele>1731.95</ele>
        <time>2014-10-04T11:51:52Z</time>
      </trkpt>
      <trkpt lat="44.94186" lon="5.52355">
        <ele>1732.43</ele>
        <time>2014-10-04T11:51:54Z</time>
      </trkpt>
      <trkpt lat="44.94184" lon="5.52349">
        <ele>1732.91</ele>
        <time>2014-10-04T11:52:00Z</time>
      </trkpt>
      <trkpt lat="44.94175" lon="5.52343">
        <ele>1734.84</ele>
        <time>2014-10-04T11:52:11Z</time>
      </trkpt>
      <trkpt lat="44.94172" lon="5.5234">
        <ele>1734.84</ele>
        <time>2014-10-04T11:52:16Z</time>
      </trkpt>
      <trkpt lat="44.94175" lon="5.52341">
        <ele>1737.24</ele>
        <time>2014-10-04T11:52:25Z</time>
      </trkpt>
      <trkpt lat="44.94179" lon="5.52342">
        <ele>1737.24</ele>
        <time>2014-10-04T11:52:29Z</time>
      </trkpt>
      <trkpt lat="44.94184" lon="5.52345">
        <ele>1738.68</ele>
        <time>2014-10-04T11:52:38Z</time>
      </trkpt>
      <trkpt lat="44.9419" lon="5.52349">
        <ele>1739.64</ele>
        <time>2014-10-04T11:52:46Z</time>
      </trkpt>
      <trkpt lat="44.94191" lon="5.52349">
        <ele>1740.12</ele>
        <time>2014-10-04T11:52:48Z</time>
      </trkpt>
      <trkpt lat="44.94194" lon="5.5235">
        <ele>1740.6</ele>
        <time>2014-10-04T11:52:51Z</time>
      </trkpt>
      <trkpt lat="44.942" lon="5.52352">
        <ele>1741.08</ele>
        <time>2014-10-04T11:52:57Z</time>
      </trkpt>
      <trkpt lat="44.94206" lon="5.52356">
        <ele>1742.05</ele>
        <time>2014-10-04T11:53:06Z</time>
      </trkpt>
      <trkpt lat="44.94207" lon="5.52354">
        <ele>1743.01</ele>
        <time>2014-10-04T11:53:08Z</time>
      </trkpt>
      <trkpt lat="44.94207" lon="5.52351">
        <ele>1743.49</ele>
        <time>2014-10-04T11:53:11Z</time>
      </trkpt>
      <trkpt lat="44.94205" lon="5.52348">
        <ele>1743.97</ele>
        <time>2014-10-04T11:53:14Z</time>
      </trkpt>
      <trkpt lat="44.94203" lon="5.52346">
        <ele>1744.45</ele>
        <time>2014-10-04T11:53:16Z</time>
      </trkpt>
      <trkpt lat="44.94202" lon="5.52344">
        <ele>1745.41</ele>
        <time>2014-10-04T11:53:19Z</time>
      </trkpt>
      <trkpt lat="44.942" lon="5.52343">
        <ele>1745.41</ele>
        <time>2014-10-04T11:53:22Z</time>
      </trkpt>
      <trkpt lat="44.94193" lon="5.52338">
        <ele>1746.37</ele>
        <time>2014-10-04T11:53:33Z</time>
      </trkpt>
      <trkpt lat="44.94191" lon="5.52337">
        <ele>1746.37</ele>
        <time>2014-10-04T11:53:37Z</time>
      </trkpt>
      <trkpt lat="44.94185" lon="5.52334">
        <ele>1746.85</ele>
        <time>2014-10-04T11:53:44Z</time>
      </trkpt>
      <trkpt lat="44.94179" lon="5.52332">
        <ele>1746.85</ele>
        <time>2014-10-04T11:53:50Z</time>
      </trkpt>
      <trkpt lat="44.94177" lon="5.52333">
        <ele>1746.37</ele>
        <time>2014-10-04T11:53:52Z</time>
      </trkpt>
      <trkpt lat="44.94174" lon="5.5233">
        <ele>1745.89</ele>
        <time>2014-10-04T11:53:56Z</time>
      </trkpt>
      <trkpt lat="44.94172" lon="5.52328">
        <ele>1745.89</ele>
        <time>2014-10-04T11:53:59Z</time>
      </trkpt>
      <trkpt lat="44.94164" lon="5.52325">
        <ele>1747.33</ele>
        <time>2014-10-04T11:54:09Z</time>
      </trkpt>
      <trkpt lat="44.94158" lon="5.5232">
        <ele>1747.81</ele>
        <time>2014-10-04T11:54:17Z</time>
      </trkpt>
      <trkpt lat="44.94155" lon="5.5232">
        <ele>1748.29</ele>
        <time>2014-10-04T11:54:21Z</time>
      </trkpt>
      <trkpt lat="44.94145" lon="5.5232">
        <ele>1748.78</ele>
        <time>2014-10-04T11:54:32Z</time>
      </trkpt>
      <trkpt lat="44.94143" lon="5.52319">
        <ele>1748.78</ele>
        <time>2014-10-04T11:54:34Z</time>
      </trkpt>
      <trkpt lat="44.94139" lon="5.52317">
        <ele>1748.78</ele>
        <time>2014-10-04T11:54:39Z</time>
      </trkpt>
      <trkpt lat="44.94131" lon="5.52311">
        <ele>1750.22</ele>
        <time>2014-10-04T11:54:48Z</time>
      </trkpt>
      <trkpt lat="44.9413" lon="5.52311">
        <ele>1750.7</ele>
        <time>2014-10-04T11:54:52Z</time>
      </trkpt>
      <trkpt lat="44.94122" lon="5.52311">
        <ele>1752.14</ele>
        <time>2014-10-04T11:55:01Z</time>
      </trkpt>
      <trkpt lat="44.94121" lon="5.52308">
        <ele>1752.62</ele>
        <time>2014-10-04T11:55:03Z</time>
      </trkpt>
      <trkpt lat="44.94119" lon="5.52307">
        <ele>1752.14</ele>
        <time>2014-10-04T11:55:05Z</time>
      </trkpt>
      <trkpt lat="44.94114" lon="5.52302">
        <ele>1752.14</ele>
        <time>2014-10-04T11:55:10Z</time>
      </trkpt>
      <trkpt lat="44.9411" lon="5.523">
        <ele>1753.1</ele>
        <time>2014-10-04T11:55:15Z</time>
      </trkpt>
      <trkpt lat="44.94105" lon="5.52292">
        <ele>1754.06</ele>
        <time>2014-10-04T11:55:23Z</time>
      </trkpt>
      <trkpt lat="44.94102" lon="5.52288">
        <ele>1754.06</ele>
        <time>2014-10-04T11:55:27Z</time>
      </trkpt>
      <trkpt lat="44.94095" lon="5.52282">
        <ele>1755.5</ele>
        <time>2014-10-04T11:55:36Z</time>
      </trkpt>
      <trkpt lat="44.94094" lon="5.52281">
        <ele>1755.99</ele>
        <time>2014-10-04T11:55:38Z</time>
      </trkpt>
      <trkpt lat="44.94092" lon="5.52276">
        <ele>1756.95</ele>
        <time>2014-10-04T11:55:47Z</time>
      </trkpt>
      <trkpt lat="44.9409" lon="5.52276">
        <ele>1757.91</ele>
        <time>2014-10-04T11:55:52Z</time>
      </trkpt>
      <trkpt lat="44.94089" lon="5.52274">
        <ele>1757.91</ele>
        <time>2014-10-04T11:55:55Z</time>
      </trkpt>
      <trkpt lat="44.94086" lon="5.52267">
        <ele>1758.87</ele>
        <time>2014-10-04T11:56:05Z</time>
      </trkpt>
      <trkpt lat="44.94078" lon="5.5226">
        <ele>1760.31</ele>
        <time>2014-10-04T11:56:15Z</time>
      </trkpt>
      <trkpt lat="44.94072" lon="5.52255">
        <ele>1760.79</ele>
        <time>2014-10-04T11:56:22Z</time>
      </trkpt>
      <trkpt lat="44.94068" lon="5.52252">
        <ele>1761.27</ele>
        <time>2014-10-04T11:56:26Z</time>
      </trkpt>
      <trkpt lat="44.9406" lon="5.52244">
        <ele>1762.23</ele>
        <time>2014-10-04T11:56:34Z</time>
      </trkpt>
      <trkpt lat="44.94057" lon="5.52245">
        <ele>1763.2</ele>
        <time>2014-10-04T11:56:44Z</time>
      </trkpt>
      <trkpt lat="44.94058" lon="5.52247">
        <ele>1765.12</ele>
        <time>2014-10-04T11:56:54Z</time>
      </trkpt>
      <trkpt lat="44.94061" lon="5.52249">
        <ele>1766.56</ele>
        <time>2014-10-04T11:57:02Z</time>
      </trkpt>
      <trkpt lat="44.94061" lon="5.52247">
        <ele>1767.04</ele>
        <time>2014-10-04T11:57:04Z</time>
      </trkpt>
      <trkpt lat="44.94059" lon="5.52244">
        <ele>1768</ele>
        <time>2014-10-04T11:57:12Z</time>
      </trkpt>
      <trkpt lat="44.94057" lon="5.52241">
        <ele>1769.92</ele>
        <time>2014-10-04T11:57:20Z</time>
      </trkpt>
      <trkpt lat="44.94055" lon="5.52234">
        <ele>1772.33</ele>
        <time>2014-10-04T11:57:29Z</time>
      </trkpt>
      <trkpt lat="44.94052" lon="5.52221">
        <ele>1773.77</ele>
        <time>2014-10-04T11:57:37Z</time>
      </trkpt>
      <trkpt lat="44.94052" lon="5.52217">
        <ele>1774.73</ele>
        <time>2014-10-04T11:57:40Z</time>
      </trkpt>
      <trkpt lat="44.94049" lon="5.52217">
        <ele>1775.21</ele>
        <time>2014-10-04T11:57:43Z</time>
      </trkpt>
      <trkpt lat="44.94048" lon="5.52214">
        <ele>1775.21</ele>
        <time>2014-10-04T11:57:46Z</time>
      </trkpt>
      <trkpt lat="44.94048" lon="5.52211">
        <ele>1775.69</ele>
        <time>2014-10-04T11:57:48Z</time>
      </trkpt>
      <trkpt lat="44.94045" lon="5.52203">
        <ele>1777.13</ele>
        <time>2014-10-04T11:57:57Z</time>
      </trkpt>
      <trkpt lat="44.94039" lon="5.522">
        <ele>1777.13</ele>
        <time>2014-10-04T11:58:02Z</time>
      </trkpt>
      <trkpt lat="44.94033" lon="5.52199">
        <ele>1777.61</ele>
        <time>2014-10-04T11:58:12Z</time>
      </trkpt>
      <trkpt lat="44.9402" lon="5.52205">
        <ele>1778.58</ele>
        <time>2014-10-04T11:58:21Z</time>
      </trkpt>
      <trkpt lat="44.9401" lon="5.52207">
        <ele>1779.54</ele>
        <time>2014-10-04T11:58:30Z</time>
      </trkpt>
      <trkpt lat="44.94003" lon="5.52196">
        <ele>1780.5</ele>
        <time>2014-10-04T11:58:40Z</time>
      </trkpt>
      <trkpt lat="44.94" lon="5.52193">
        <ele>1780.98</ele>
        <time>2014-10-04T11:58:43Z</time>
      </trkpt>
      <trkpt lat="44.93997" lon="5.52193">
        <ele>1780.98</ele>
        <time>2014-10-04T11:58:46Z</time>
      </trkpt>
      <trkpt lat="44.93996" lon="5.52192">
        <ele>1781.46</ele>
        <time>2014-10-04T11:58:49Z</time>
      </trkpt>
      <trkpt lat="44.93988" lon="5.5219">
        <ele>1781.94</ele>
        <time>2014-10-04T11:58:57Z</time>
      </trkpt>
      <trkpt lat="44.9398" lon="5.52187">
        <ele>1782.42</ele>
        <time>2014-10-04T11:59:08Z</time>
      </trkpt>
      <trkpt lat="44.93971" lon="5.52183">
        <ele>1782.42</ele>
        <time>2014-10-04T11:59:16Z</time>
      </trkpt>
      <trkpt lat="44.93968" lon="5.52182">
        <ele>1781.94</ele>
        <time>2014-10-04T11:59:19Z</time>
      </trkpt>
      <trkpt lat="44.9396" lon="5.52181">
        <ele>1782.42</ele>
        <time>2014-10-04T11:59:26Z</time>
      </trkpt>
      <trkpt lat="44.93958" lon="5.52182">
        <ele>1782.42</ele>
        <time>2014-10-04T11:59:28Z</time>
      </trkpt>
      <trkpt lat="44.93954" lon="5.52183">
        <ele>1781.46</ele>
        <time>2014-10-04T11:59:33Z</time>
      </trkpt>
      <trkpt lat="44.93952" lon="5.52181">
        <ele>1781.94</ele>
        <time>2014-10-04T11:59:35Z</time>
      </trkpt>
      <trkpt lat="44.93948" lon="5.52175">
        <ele>1783.86</ele>
        <time>2014-10-04T11:59:46Z</time>
      </trkpt>
      <trkpt lat="44.93944" lon="5.5217">
        <ele>1786.27</ele>
        <time>2014-10-04T11:59:56Z</time>
      </trkpt>
      <trkpt lat="44.9394" lon="5.52164">
        <ele>1787.23</ele>
        <time>2014-10-04T12:00:03Z</time>
      </trkpt>
      <trkpt lat="44.93939" lon="5.52162">
        <ele>1788.19</ele>
        <time>2014-10-04T12:00:16Z</time>
      </trkpt>
      <trkpt lat="44.93937" lon="5.52161">
        <ele>1788.67</ele>
        <time>2014-10-04T12:00:21Z</time>
      </trkpt>
      <trkpt lat="44.93935" lon="5.5216">
        <ele>1788.67</ele>
        <time>2014-10-04T12:00:23Z</time>
      </trkpt>
      <trkpt lat="44.93932" lon="5.52159">
        <ele>1790.11</ele>
        <time>2014-10-04T12:00:32Z</time>
      </trkpt>
      <trkpt lat="44.93928" lon="5.5216">
        <ele>1791.55</ele>
        <time>2014-10-04T12:00:40Z</time>
      </trkpt>
      <trkpt lat="44.93924" lon="5.52161">
        <ele>1793</ele>
        <time>2014-10-04T12:00:45Z</time>
      </trkpt>
      <trkpt lat="44.93923" lon="5.52156">
        <ele>1794.44</ele>
        <time>2014-10-04T12:00:54Z</time>
      </trkpt>
      <trkpt lat="44.93917" lon="5.52157">
        <ele>1795.88</ele>
        <time>2014-10-04T12:01:03Z</time>
      </trkpt>
      <trkpt lat="44.93916" lon="5.52157">
        <ele>1796.36</ele>
        <time>2014-10-04T12:01:05Z</time>
      </trkpt>
      <trkpt lat="44.9391" lon="5.52156">
        <ele>1796.84</ele>
        <time>2014-10-04T12:01:11Z</time>
      </trkpt>
      <trkpt lat="44.93906" lon="5.52156">
        <ele>1797.32</ele>
        <time>2014-10-04T12:01:14Z</time>
      </trkpt>
      <trkpt lat="44.93897" lon="5.52158">
        <ele>1798.28</ele>
        <time>2014-10-04T12:01:24Z</time>
      </trkpt>
      <trkpt lat="44.93893" lon="5.52157">
        <ele>1798.28</ele>
        <time>2014-10-04T12:01:39Z</time>
      </trkpt>
      <trkpt lat="44.93893" lon="5.52157">
        <ele>1798.76</ele>
        <time>2014-10-04T12:01:54Z</time>
      </trkpt>
      <trkpt lat="44.93893" lon="5.52157">
        <ele>1798.28</ele>
        <time>2014-10-04T12:02:08Z</time>
      </trkpt>
      <trkpt lat="44.93892" lon="5.5216">
        <ele>1798.28</ele>
        <time>2014-10-04T12:02:13Z</time>
      </trkpt>
      <trkpt lat="44.9389" lon="5.52156">
        <ele>1798.76</ele>
        <time>2014-10-04T12:02:23Z</time>
      </trkpt>
      <trkpt lat="44.93891" lon="5.52153">
        <ele>1798.28</ele>
        <time>2014-10-04T12:02:25Z</time>
      </trkpt>
      <trkpt lat="44.93889" lon="5.52146">
        <ele>1798.28</ele>
        <time>2014-10-04T12:02:33Z</time>
      </trkpt>
      <trkpt lat="44.93889" lon="5.52145">
        <ele>1798.28</ele>
        <time>2014-10-04T12:02:34Z</time>
      </trkpt>
      <trkpt lat="44.93888" lon="5.52137">
        <ele>1800.21</ele>
        <time>2014-10-04T12:02:44Z</time>
      </trkpt>
      <trkpt lat="44.93889" lon="5.52133">
        <ele>1802.61</ele>
        <time>2014-10-04T12:02:54Z</time>
      </trkpt>
      <trkpt lat="44.93888" lon="5.52126">
        <ele>1803.57</ele>
        <time>2014-10-04T12:03:03Z</time>
      </trkpt>
      <trkpt lat="44.93889" lon="5.52124">
        <ele>1805.49</ele>
        <time>2014-10-04T12:03:14Z</time>
      </trkpt>
      <trkpt lat="44.93888" lon="5.52125">
        <ele>1807.9</ele>
        <time>2014-10-04T12:03:26Z</time>
      </trkpt>
      <trkpt lat="44.93889" lon="5.52125">
        <ele>1809.82</ele>
        <time>2014-10-04T12:03:38Z</time>
      </trkpt>
      <trkpt lat="44.93893" lon="5.52124">
        <ele>1811.26</ele>
        <time>2014-10-04T12:03:46Z</time>
      </trkpt>
      <trkpt lat="44.93894" lon="5.52122">
        <ele>1812.7</ele>
        <time>2014-10-04T12:03:58Z</time>
      </trkpt>
      <trkpt lat="44.93895" lon="5.52123">
        <ele>1813.66</ele>
        <time>2014-10-04T12:04:22Z</time>
      </trkpt>
      <trkpt lat="44.93896" lon="5.52123">
        <ele>1813.18</ele>
        <time>2014-10-04T12:04:25Z</time>
      </trkpt>
      <trkpt lat="44.93897" lon="5.52123">
        <ele>1814.63</ele>
        <time>2014-10-04T12:04:28Z</time>
      </trkpt>
      <trkpt lat="44.93901" lon="5.52118">
        <ele>1815.59</ele>
        <time>2014-10-04T12:04:37Z</time>
      </trkpt>
      <trkpt lat="44.93901" lon="5.5212">
        <ele>1817.03</ele>
        <time>2014-10-04T12:04:42Z</time>
      </trkpt>
      <trkpt lat="44.93901" lon="5.52122">
        <ele>1818.95</ele>
        <time>2014-10-04T12:04:54Z</time>
      </trkpt>
      <trkpt lat="44.93902" lon="5.52136">
        <ele>1819.43</ele>
        <time>2014-10-04T12:05:04Z</time>
      </trkpt>
      <trkpt lat="44.93905" lon="5.52135">
        <ele>1819.91</ele>
        <time>2014-10-04T12:05:23Z</time>
      </trkpt>
      <trkpt lat="44.93907" lon="5.52135">
        <ele>1820.87</ele>
        <time>2014-10-04T12:05:31Z</time>
      </trkpt>
      <trkpt lat="44.93907" lon="5.52133">
        <ele>1821.35</ele>
        <time>2014-10-04T12:05:33Z</time>
      </trkpt>
      <trkpt lat="44.93907" lon="5.52126">
        <ele>1822.32</ele>
        <time>2014-10-04T12:05:44Z</time>
      </trkpt>
      <trkpt lat="44.93906" lon="5.52116">
        <ele>1823.76</ele>
        <time>2014-10-04T12:05:54Z</time>
      </trkpt>
      <trkpt lat="44.93905" lon="5.52112">
        <ele>1826.16</ele>
        <time>2014-10-04T12:06:04Z</time>
      </trkpt>
      <trkpt lat="44.93905" lon="5.52114">
        <ele>1828.08</ele>
        <time>2014-10-04T12:06:13Z</time>
      </trkpt>
      <trkpt lat="44.93909" lon="5.52106">
        <ele>1830.01</ele>
        <time>2014-10-04T12:06:23Z</time>
      </trkpt>
      <trkpt lat="44.93908" lon="5.52106">
        <ele>1831.93</ele>
        <time>2014-10-04T12:06:33Z</time>
      </trkpt>
      <trkpt lat="44.93909" lon="5.52109">
        <ele>1833.37</ele>
        <time>2014-10-04T12:06:42Z</time>
      </trkpt>
      <trkpt lat="44.9391" lon="5.52106">
        <ele>1833.85</ele>
        <time>2014-10-04T12:06:45Z</time>
      </trkpt>
      <trkpt lat="44.9391" lon="5.52104">
        <ele>1835.29</ele>
        <time>2014-10-04T12:06:56Z</time>
      </trkpt>
      <trkpt lat="44.93913" lon="5.52103">
        <ele>1837.7</ele>
        <time>2014-10-04T12:07:08Z</time>
      </trkpt>
      <trkpt lat="44.93913" lon="5.52097">
        <ele>1839.62</ele>
        <time>2014-10-04T12:07:18Z</time>
      </trkpt>
      <trkpt lat="44.93912" lon="5.52094">
        <ele>1841.54</ele>
        <time>2014-10-04T12:07:29Z</time>
      </trkpt>
      <trkpt lat="44.93915" lon="5.52092">
        <ele>1843.47</ele>
        <time>2014-10-04T12:07:41Z</time>
      </trkpt>
      <trkpt lat="44.93915" lon="5.52089">
        <ele>1844.91</ele>
        <time>2014-10-04T12:07:49Z</time>
      </trkpt>
      <trkpt lat="44.93918" lon="5.52088">
        <ele>1847.79</ele>
        <time>2014-10-04T12:08:01Z</time>
      </trkpt>
      <trkpt lat="44.93922" lon="5.52086">
        <ele>1848.27</ele>
        <time>2014-10-04T12:08:11Z</time>
      </trkpt>
      <trkpt lat="44.93924" lon="5.52083">
        <ele>1848.27</ele>
        <time>2014-10-04T12:08:28Z</time>
      </trkpt>
      <trkpt lat="44.93924" lon="5.52083">
        <ele>1848.75</ele>
        <time>2014-10-04T12:08:55Z</time>
      </trkpt>
      <trkpt lat="44.93925" lon="5.52082">
        <ele>1848.75</ele>
        <time>2014-10-04T12:09:15Z</time>
      </trkpt>
      <trkpt lat="44.93925" lon="5.52082">
        <ele>1848.27</ele>
        <time>2014-10-04T12:09:38Z</time>
      </trkpt>
      <trkpt lat="44.93926" lon="5.52081">
        <ele>1848.75</ele>
        <time>2014-10-04T12:10:05Z</time>
      </trkpt>
      <trkpt lat="44.93927" lon="5.52079">
        <ele>1848.75</ele>
        <time>2014-10-04T12:10:24Z</time>
      </trkpt>
      <trkpt lat="44.93927" lon="5.52079">
        <ele>1848.75</ele>
        <time>2014-10-04T12:10:33Z</time>
      </trkpt>
      <trkpt lat="44.93932" lon="5.52078">
        <ele>1849.71</ele>
        <time>2014-10-04T12:10:43Z</time>
      </trkpt>
      <trkpt lat="44.93936" lon="5.52077">
        <ele>1852.12</ele>
        <time>2014-10-04T12:10:53Z</time>
      </trkpt>
      <trkpt lat="44.93936" lon="5.52076">
        <ele>1853.08</ele>
        <time>2014-10-04T12:11:11Z</time>
      </trkpt>
      <trkpt lat="44.93934" lon="5.52075">
        <ele>1853.08</ele>
        <time>2014-10-04T12:11:24Z</time>
      </trkpt>
      <trkpt lat="44.93928" lon="5.52076">
        <ele>1853.08</ele>
        <time>2014-10-04T12:11:32Z</time>
      </trkpt>
      <trkpt lat="44.93923" lon="5.52072">
        <ele>1854.52</ele>
        <time>2014-10-04T12:11:43Z</time>
      </trkpt>
      <trkpt lat="44.93921" lon="5.52073">
        <ele>1855.48</ele>
        <time>2014-10-04T12:11:48Z</time>
      </trkpt>
      <trkpt lat="44.93913" lon="5.52075">
        <ele>1855.48</ele>
        <time>2014-10-04T12:11:58Z</time>
      </trkpt>
      <trkpt lat="44.93908" lon="5.52073">
        <ele>1855.96</ele>
        <time>2014-10-04T12:12:06Z</time>
      </trkpt>
      <trkpt lat="44.93907" lon="5.52062">
        <ele>1858.37</ele>
        <time>2014-10-04T12:12:17Z</time>
      </trkpt>
      <trkpt lat="44.93906" lon="5.52055">
        <ele>1860.77</ele>
        <time>2014-10-04T12:12:28Z</time>
      </trkpt>
      <trkpt lat="44.93903" lon="5.52058">
        <ele>1863.17</ele>
        <time>2014-10-04T12:12:37Z</time>
      </trkpt>
      <trkpt lat="44.93902" lon="5.5206">
        <ele>1864.61</ele>
        <time>2014-10-04T12:12:49Z</time>
      </trkpt>
      <trkpt lat="44.93903" lon="5.52059">
        <ele>1865.09</ele>
        <time>2014-10-04T12:12:52Z</time>
      </trkpt>
      <trkpt lat="44.93906" lon="5.52055">
        <ele>1867.02</ele>
        <time>2014-10-04T12:13:04Z</time>
      </trkpt>
      <trkpt lat="44.93906" lon="5.52053">
        <ele>1868.46</ele>
        <time>2014-10-04T12:13:12Z</time>
      </trkpt>
      <trkpt lat="44.93905" lon="5.52048">
        <ele>1869.9</ele>
        <time>2014-10-04T12:13:22Z</time>
      </trkpt>
      <trkpt lat="44.93903" lon="5.5204">
        <ele>1871.82</ele>
        <time>2014-10-04T12:13:31Z</time>
      </trkpt>
      <trkpt lat="44.93902" lon="5.52042">
        <ele>1871.34</ele>
        <time>2014-10-04T12:13:33Z</time>
      </trkpt>
      <trkpt lat="44.93904" lon="5.52045">
        <ele>1872.3</ele>
        <time>2014-10-04T12:13:43Z</time>
      </trkpt>
      <trkpt lat="44.93906" lon="5.52044">
        <ele>1873.75</ele>
        <time>2014-10-04T12:13:48Z</time>
      </trkpt>
      <trkpt lat="44.93906" lon="5.52047">
        <ele>1875.19</ele>
        <time>2014-10-04T12:13:51Z</time>
      </trkpt>
      <trkpt lat="44.93908" lon="5.52054">
        <ele>1876.15</ele>
        <time>2014-10-04T12:14:05Z</time>
      </trkpt>
      <trkpt lat="44.93909" lon="5.5205">
        <ele>1875.19</ele>
        <time>2014-10-04T12:14:17Z</time>
      </trkpt>
      <trkpt lat="44.93909" lon="5.52049">
        <ele>1874.71</ele>
        <time>2014-10-04T12:14:20Z</time>
      </trkpt>
      <trkpt lat="44.93905" lon="5.52045">
        <ele>1873.27</ele>
        <time>2014-10-04T12:14:25Z</time>
      </trkpt>
      <trkpt lat="44.939" lon="5.52044">
        <ele>1871.82</ele>
        <time>2014-10-04T12:14:31Z</time>
      </trkpt>
      <trkpt lat="44.93897" lon="5.52046">
        <ele>1871.82</ele>
        <time>2014-10-04T12:14:37Z</time>
      </trkpt>
      <trkpt lat="44.93893" lon="5.52047">
        <ele>1873.27</ele>
        <time>2014-10-04T12:14:43Z</time>
      </trkpt>
      <trkpt lat="44.93891" lon="5.52048">
        <ele>1874.23</ele>
        <time>2014-10-04T12:14:46Z</time>
      </trkpt>
      <trkpt lat="44.93889" lon="5.52046">
        <ele>1874.71</ele>
        <time>2014-10-04T12:14:50Z</time>
      </trkpt>
      <trkpt lat="44.93885" lon="5.52047">
        <ele>1875.67</ele>
        <time>2014-10-04T12:14:54Z</time>
      </trkpt>
      <trkpt lat="44.93872" lon="5.52047">
        <ele>1878.55</ele>
        <time>2014-10-04T12:15:06Z</time>
      </trkpt>
      <trkpt lat="44.93871" lon="5.52047">
        <ele>1878.55</ele>
        <time>2014-10-04T12:15:17Z</time>
      </trkpt>
      <trkpt lat="44.93871" lon="5.52048">
        <ele>1879.03</ele>
        <time>2014-10-04T12:15:37Z</time>
      </trkpt>
      <trkpt lat="44.9387" lon="5.52048">
        <ele>1879.03</ele>
        <time>2014-10-04T12:16:06Z</time>
      </trkpt>
      <trkpt lat="44.9387" lon="5.52048">
        <ele>1879.03</ele>
        <time>2014-10-04T12:16:09Z</time>
      </trkpt>
      <trkpt lat="44.93872" lon="5.52044">
        <ele>1879.51</ele>
        <time>2014-10-04T12:16:18Z</time>
      </trkpt>
      <trkpt lat="44.93871" lon="5.52046">
        <ele>1879.51</ele>
        <time>2014-10-04T12:16:37Z</time>
      </trkpt>
      <trkpt lat="44.93871" lon="5.52046">
        <ele>1880</ele>
        <time>2014-10-04T12:17:02Z</time>
      </trkpt>
      <trkpt lat="44.93871" lon="5.52046">
        <ele>1880</ele>
        <time>2014-10-04T12:17:03Z</time>
      </trkpt>
      <trkpt lat="44.93868" lon="5.52041">
        <ele>1879.03</ele>
        <time>2014-10-04T12:17:13Z</time>
      </trkpt>
      <trkpt lat="44.93867" lon="5.52041">
        <ele>1879.03</ele>
        <time>2014-10-04T12:17:14Z</time>
      </trkpt>
      <trkpt lat="44.93871" lon="5.52033">
        <ele>1878.55</ele>
        <time>2014-10-04T12:17:20Z</time>
      </trkpt>
      <trkpt lat="44.93871" lon="5.52025">
        <ele>1878.07</ele>
        <time>2014-10-04T12:17:36Z</time>
      </trkpt>
      <trkpt lat="44.93871" lon="5.52025">
        <ele>1877.59</ele>
        <time>2014-10-04T12:17:38Z</time>
      </trkpt>
      <trkpt lat="44.93868" lon="5.52025">
        <ele>1877.11</ele>
        <time>2014-10-04T12:17:40Z</time>
      </trkpt>
      <trkpt lat="44.93866" lon="5.52026">
        <ele>1876.15</ele>
        <time>2014-10-04T12:17:41Z</time>
      </trkpt>
      <trkpt lat="44.9386" lon="5.52038">
        <ele>1874.71</ele>
        <time>2014-10-04T12:17:46Z</time>
      </trkpt>
      <trkpt lat="44.93858" lon="5.52039">
        <ele>1874.71</ele>
        <time>2014-10-04T12:17:47Z</time>
      </trkpt>
      <trkpt lat="44.93853" lon="5.52043">
        <ele>1873.75</ele>
        <time>2014-10-04T12:17:50Z</time>
      </trkpt>
      <trkpt lat="44.9385" lon="5.52035">
        <ele>1872.79</ele>
        <time>2014-10-04T12:17:54Z</time>
      </trkpt>
      <trkpt lat="44.93847" lon="5.52033">
        <ele>1872.3</ele>
        <time>2014-10-04T12:17:56Z</time>
      </trkpt>
      <trkpt lat="44.93846" lon="5.52034">
        <ele>1871.82</ele>
        <time>2014-10-04T12:17:57Z</time>
      </trkpt>
      <trkpt lat="44.93841" lon="5.52039">
        <ele>1870.86</ele>
        <time>2014-10-04T12:18:02Z</time>
      </trkpt>
      <trkpt lat="44.9384" lon="5.52037">
        <ele>1870.38</ele>
        <time>2014-10-04T12:18:03Z</time>
      </trkpt>
      <trkpt lat="44.9384" lon="5.52031">
        <ele>1870.86</ele>
        <time>2014-10-04T12:18:08Z</time>
      </trkpt>
      <trkpt lat="44.93837" lon="5.5203">
        <ele>1871.82</ele>
        <time>2014-10-04T12:18:12Z</time>
      </trkpt>
      <trkpt lat="44.93834" lon="5.52031">
        <ele>1871.82</ele>
        <time>2014-10-04T12:18:16Z</time>
      </trkpt>
      <trkpt lat="44.93824" lon="5.52019">
        <ele>1872.3</ele>
        <time>2014-10-04T12:18:25Z</time>
      </trkpt>
      <trkpt lat="44.93823" lon="5.52016">
        <ele>1872.3</ele>
        <time>2014-10-04T12:18:27Z</time>
      </trkpt>
      <trkpt lat="44.93822" lon="5.52009">
        <ele>1871.34</ele>
        <time>2014-10-04T12:18:32Z</time>
      </trkpt>
      <trkpt lat="44.93817" lon="5.5201">
        <ele>1870.38</ele>
        <time>2014-10-04T12:18:35Z</time>
      </trkpt>
      <trkpt lat="44.93812" lon="5.52006">
        <ele>1871.34</ele>
        <time>2014-10-04T12:18:41Z</time>
      </trkpt>
      <trkpt lat="44.93806" lon="5.52005">
        <ele>1871.82</ele>
        <time>2014-10-04T12:18:45Z</time>
      </trkpt>
      <trkpt lat="44.93798" lon="5.51999">
        <ele>1870.86</ele>
        <time>2014-10-04T12:18:53Z</time>
      </trkpt>
      <trkpt lat="44.93794" lon="5.51991">
        <ele>1870.38</ele>
        <time>2014-10-04T12:18:57Z</time>
      </trkpt>
      <trkpt lat="44.93786" lon="5.51986">
        <ele>1869.9</ele>
        <time>2014-10-04T12:19:07Z</time>
      </trkpt>
      <trkpt lat="44.93786" lon="5.51986">
        <ele>1870.38</ele>
        <time>2014-10-04T12:19:32Z</time>
      </trkpt>
      <trkpt lat="44.93778" lon="5.51991">
        <ele>1870.86</ele>
        <time>2014-10-04T12:19:38Z</time>
      </trkpt>
      <trkpt lat="44.93774" lon="5.51998">
        <ele>1870.86</ele>
        <time>2014-10-04T12:19:42Z</time>
      </trkpt>
      <trkpt lat="44.93764" lon="5.52006">
        <ele>1873.27</ele>
        <time>2014-10-04T12:19:51Z</time>
      </trkpt>
      <trkpt lat="44.93756" lon="5.52013">
        <ele>1874.71</ele>
        <time>2014-10-04T12:20:00Z</time>
      </trkpt>
      <trkpt lat="44.9375" lon="5.52013">
        <ele>1874.71</ele>
        <time>2014-10-04T12:20:05Z</time>
      </trkpt>
      <trkpt lat="44.93745" lon="5.52009">
        <ele>1875.67</ele>
        <time>2014-10-04T12:20:09Z</time>
      </trkpt>
      <trkpt lat="44.93742" lon="5.52">
        <ele>1876.63</ele>
        <time>2014-10-04T12:20:13Z</time>
      </trkpt>
      <trkpt lat="44.93736" lon="5.51994">
        <ele>1876.63</ele>
        <time>2014-10-04T12:20:20Z</time>
      </trkpt>
      <trkpt lat="44.9373" lon="5.51994">
        <ele>1876.63</ele>
        <time>2014-10-04T12:20:25Z</time>
      </trkpt>
      <trkpt lat="44.93727" lon="5.51994">
        <ele>1877.11</ele>
        <time>2014-10-04T12:20:29Z</time>
      </trkpt>
      <trkpt lat="44.93721" lon="5.51993">
        <ele>1877.11</ele>
        <time>2014-10-04T12:20:34Z</time>
      </trkpt>
      <trkpt lat="44.93711" lon="5.51996">
        <ele>1878.55</ele>
        <time>2014-10-04T12:20:44Z</time>
      </trkpt>
      <trkpt lat="44.93706" lon="5.51998">
        <ele>1879.51</ele>
        <time>2014-10-04T12:20:48Z</time>
      </trkpt>
      <trkpt lat="44.937" lon="5.51997">
        <ele>1880.96</ele>
        <time>2014-10-04T12:20:55Z</time>
      </trkpt>
      <trkpt lat="44.93698" lon="5.51997">
        <ele>1881.92</ele>
        <time>2014-10-04T12:21:01Z</time>
      </trkpt>
      <trkpt lat="44.93695" lon="5.51998">
        <ele>1882.88</ele>
        <time>2014-10-04T12:21:05Z</time>
      </trkpt>
      <trkpt lat="44.93691" lon="5.51998">
        <ele>1883.36</ele>
        <time>2014-10-04T12:21:09Z</time>
      </trkpt>
      <trkpt lat="44.93683" lon="5.51999">
        <ele>1884.8</ele>
        <time>2014-10-04T12:21:19Z</time>
      </trkpt>
      <trkpt lat="44.93673" lon="5.52002">
        <ele>1886.24</ele>
        <time>2014-10-04T12:21:30Z</time>
      </trkpt>
      <trkpt lat="44.93671" lon="5.52003">
        <ele>1885.28</ele>
        <time>2014-10-04T12:21:37Z</time>
      </trkpt>
      <trkpt lat="44.9367" lon="5.52006">
        <ele>1885.28</ele>
        <time>2014-10-04T12:21:50Z</time>
      </trkpt>
      <trkpt lat="44.9367" lon="5.52006">
        <ele>1885.28</ele>
        <time>2014-10-04T12:22:13Z</time>
      </trkpt>
      <trkpt lat="44.9367" lon="5.52007">
        <ele>1885.28</ele>
        <time>2014-10-04T12:22:38Z</time>
      </trkpt>
      <trkpt lat="44.9367" lon="5.52007">
        <ele>1885.28</ele>
        <time>2014-10-04T12:22:55Z</time>
      </trkpt>
      <trkpt lat="44.9367" lon="5.52007">
        <ele>1884.32</ele>
        <time>2014-10-04T12:23:11Z</time>
      </trkpt>
      <trkpt lat="44.9367" lon="5.52007">
        <ele>1884.8</ele>
        <time>2014-10-04T12:23:45Z</time>
      </trkpt>
      <trkpt lat="44.9367" lon="5.52008">
        <ele>1885.28</ele>
        <time>2014-10-04T12:24:15Z</time>
      </trkpt>
      <trkpt lat="44.9367" lon="5.52008">
        <ele>1885.28</ele>
        <time>2014-10-04T12:24:28Z</time>
      </trkpt>
      <trkpt lat="44.93671" lon="5.52008">
        <ele>1885.28</ele>
        <time>2014-10-04T12:24:42Z</time>
      </trkpt>
      <trkpt lat="44.9367" lon="5.5201">
        <ele>1885.28</ele>
        <time>2014-10-04T12:24:59Z</time>
      </trkpt>
      <trkpt lat="44.9367" lon="5.5201">
        <ele>1885.28</ele>
        <time>2014-10-04T12:25:17Z</time>
      </trkpt>
      <trkpt lat="44.93667" lon="5.52007">
        <ele>1884.32</ele>
        <time>2014-10-04T12:25:26Z</time>
      </trkpt>
      <trkpt lat="44.93657" lon="5.52009">
        <ele>1882.88</ele>
        <time>2014-10-04T12:25:37Z</time>
      </trkpt>
      <trkpt lat="44.93653" lon="5.52005">
        <ele>1880</ele>
        <time>2014-10-04T12:25:45Z</time>
      </trkpt>
      <trkpt lat="44.93652" lon="5.52005">
        <ele>1880</ele>
        <time>2014-10-04T12:25:46Z</time>
      </trkpt>
      <trkpt lat="44.93649" lon="5.51996">
        <ele>1877.59</ele>
        <time>2014-10-04T12:25:56Z</time>
      </trkpt>
      <trkpt lat="44.93648" lon="5.51992">
        <ele>1875.67</ele>
        <time>2014-10-04T12:26:03Z</time>
      </trkpt>
      <trkpt lat="44.93649" lon="5.51987">
        <ele>1875.19</ele>
        <time>2014-10-04T12:26:07Z</time>
      </trkpt>
      <trkpt lat="44.93649" lon="5.51982">
        <ele>1876.15</ele>
        <time>2014-10-04T12:26:11Z</time>
      </trkpt>
      <trkpt lat="44.93648" lon="5.51975">
        <ele>1877.11</ele>
        <time>2014-10-04T12:26:17Z</time>
      </trkpt>
      <trkpt lat="44.93642" lon="5.51966">
        <ele>1877.59</ele>
        <time>2014-10-04T12:26:24Z</time>
      </trkpt>
      <trkpt lat="44.93642" lon="5.51964">
        <ele>1878.55</ele>
        <time>2014-10-04T12:26:26Z</time>
      </trkpt>
      <trkpt lat="44.93646" lon="5.51963">
        <ele>1880</ele>
        <time>2014-10-04T12:26:38Z</time>
      </trkpt>
      <trkpt lat="44.93647" lon="5.51963">
        <ele>1881.44</ele>
        <time>2014-10-04T12:26:50Z</time>
      </trkpt>
      <trkpt lat="44.93655" lon="5.5197">
        <ele>1883.36</ele>
        <time>2014-10-04T12:27:10Z</time>
      </trkpt>
      <trkpt lat="44.93658" lon="5.51974">
        <ele>1883.36</ele>
        <time>2014-10-04T12:27:13Z</time>
      </trkpt>
      <trkpt lat="44.93664" lon="5.51973">
        <ele>1886.24</ele>
        <time>2014-10-04T12:27:22Z</time>
      </trkpt>
      <trkpt lat="44.93661" lon="5.51965">
        <ele>1888.65</ele>
        <time>2014-10-04T12:27:35Z</time>
      </trkpt>
      <trkpt lat="44.9366" lon="5.51959">
        <ele>1890.09</ele>
        <time>2014-10-04T12:27:43Z</time>
      </trkpt>
      <trkpt lat="44.9366" lon="5.51959">
        <ele>1891.05</ele>
        <time>2014-10-04T12:27:49Z</time>
      </trkpt>
      <trkpt lat="44.93663" lon="5.51959">
        <ele>1893.93</ele>
        <time>2014-10-04T12:28:02Z</time>
      </trkpt>
      <trkpt lat="44.93663" lon="5.5196">
        <ele>1895.86</ele>
        <time>2014-10-04T12:28:18Z</time>
      </trkpt>
      <trkpt lat="44.93657" lon="5.51954">
        <ele>1897.3</ele>
        <time>2014-10-04T12:28:30Z</time>
      </trkpt>
      <trkpt lat="44.93645" lon="5.51935">
        <ele>1899.22</ele>
        <time>2014-10-04T12:28:45Z</time>
      </trkpt>
      <trkpt lat="44.93635" lon="5.51922">
        <ele>1902.11</ele>
        <time>2014-10-04T12:28:59Z</time>
      </trkpt>
      <trkpt lat="44.93635" lon="5.51917">
        <ele>1904.99</ele>
        <time>2014-10-04T12:29:10Z</time>
      </trkpt>
      <trkpt lat="44.93634" lon="5.51917">
        <ele>1906.91</ele>
        <time>2014-10-04T12:29:25Z</time>
      </trkpt>
      <trkpt lat="44.93629" lon="5.51908">
        <ele>1908.83</ele>
        <time>2014-10-04T12:29:39Z</time>
      </trkpt>
      <trkpt lat="44.9363" lon="5.51906">
        <ele>1911.72</ele>
        <time>2014-10-04T12:29:53Z</time>
      </trkpt>
      <trkpt lat="44.93637" lon="5.51908">
        <ele>1913.64</ele>
        <time>2014-10-04T12:30:05Z</time>
      </trkpt>
      <trkpt lat="44.93646" lon="5.51912">
        <ele>1915.56</ele>
        <time>2014-10-04T12:30:17Z</time>
      </trkpt>
      <trkpt lat="44.93656" lon="5.5192">
        <ele>1917.01</ele>
        <time>2014-10-04T12:30:30Z</time>
      </trkpt>
      <trkpt lat="44.93659" lon="5.51921">
        <ele>1917.97</ele>
        <time>2014-10-04T12:30:44Z</time>
      </trkpt>
      <trkpt lat="44.93659" lon="5.51921">
        <ele>1918.93</ele>
        <time>2014-10-04T12:31:05Z</time>
      </trkpt>
      <trkpt lat="44.93659" lon="5.51921">
        <ele>1919.89</ele>
        <time>2014-10-04T12:31:29Z</time>
      </trkpt>
      <trkpt lat="44.9366" lon="5.5192">
        <ele>1922.77</ele>
        <time>2014-10-04T12:31:38Z</time>
      </trkpt>
      <trkpt lat="44.9366" lon="5.5192">
        <ele>1922.77</ele>
        <time>2014-10-04T12:31:58Z</time>
      </trkpt>
      <trkpt lat="44.9366" lon="5.51919">
        <ele>1922.77</ele>
        <time>2014-10-04T12:32:12Z</time>
      </trkpt>
      <trkpt lat="44.93661" lon="5.51911">
        <ele>1923.74</ele>
        <time>2014-10-04T12:32:26Z</time>
      </trkpt>
      <trkpt lat="44.93662" lon="5.51909">
        <ele>1925.18</ele>
        <time>2014-10-04T12:32:33Z</time>
      </trkpt>
      <trkpt lat="44.93661" lon="5.51901">
        <ele>1927.1</ele>
        <time>2014-10-04T12:32:45Z</time>
      </trkpt>
      <trkpt lat="44.93661" lon="5.51899">
        <ele>1928.06</ele>
        <time>2014-10-04T12:32:47Z</time>
      </trkpt>
      <trkpt lat="44.9366" lon="5.51897">
        <ele>1929.5</ele>
        <time>2014-10-04T12:32:50Z</time>
      </trkpt>
      <trkpt lat="44.93658" lon="5.51891">
        <ele>1932.39</ele>
        <time>2014-10-04T12:33:02Z</time>
      </trkpt>
      <trkpt lat="44.93657" lon="5.51891">
        <ele>1932.39</ele>
        <time>2014-10-04T12:33:25Z</time>
      </trkpt>
      <trkpt lat="44.93656" lon="5.5189">
        <ele>1933.83</ele>
        <time>2014-10-04T12:33:31Z</time>
      </trkpt>
      <trkpt lat="44.93656" lon="5.5189">
        <ele>1934.31</ele>
        <time>2014-10-04T12:33:32Z</time>
      </trkpt>
      <trkpt lat="44.93658" lon="5.51887">
        <ele>1935.75</ele>
        <time>2014-10-04T12:33:44Z</time>
      </trkpt>
      <trkpt lat="44.93658" lon="5.51887">
        <ele>1936.23</ele>
        <time>2014-10-04T12:34:02Z</time>
      </trkpt>
      <trkpt lat="44.93658" lon="5.51887">
        <ele>1935.75</ele>
        <time>2014-10-04T12:34:25Z</time>
      </trkpt>
      <trkpt lat="44.93657" lon="5.5189">
        <ele>1935.75</ele>
        <time>2014-10-04T12:34:40Z</time>
      </trkpt>
      <trkpt lat="44.93657" lon="5.5189">
        <ele>1935.27</ele>
        <time>2014-10-04T12:35:04Z</time>
      </trkpt>
      <trkpt lat="44.93655" lon="5.51895">
        <ele>1935.27</ele>
        <time>2014-10-04T12:35:27Z</time>
      </trkpt>
      <trkpt lat="44.93655" lon="5.51894">
        <ele>1935.27</ele>
        <time>2014-10-04T12:35:42Z</time>
      </trkpt>
      <trkpt lat="44.93653" lon="5.51892">
        <ele>1935.75</ele>
        <time>2014-10-04T12:35:55Z</time>
      </trkpt>
      <trkpt lat="44.93653" lon="5.51892">
        <ele>1935.27</ele>
        <time>2014-10-04T12:36:00Z</time>
      </trkpt>
      <trkpt lat="44.93656" lon="5.5189">
        <ele>1935.75</ele>
        <time>2014-10-04T12:49:09Z</time>
      </trkpt>
      <trkpt lat="44.93655" lon="5.51889">
        <ele>1935.75</ele>
        <time>2014-10-04T12:49:10Z</time>
      </trkpt>
      <trkpt lat="44.93656" lon="5.51889">
        <ele>1939.12</ele>
        <time>2014-10-04T12:49:29Z</time>
      </trkpt>
      <trkpt lat="44.93655" lon="5.51889">
        <ele>1939.6</ele>
        <time>2014-10-04T12:49:36Z</time>
      </trkpt>
      <trkpt lat="44.93658" lon="5.5189">
        <ele>1940.08</ele>
        <time>2014-10-04T12:49:39Z</time>
      </trkpt>
      <trkpt lat="44.93659" lon="5.51892">
        <ele>1940.56</ele>
        <time>2014-10-04T12:49:42Z</time>
      </trkpt>
      <trkpt lat="44.9366" lon="5.51893">
        <ele>1940.56</ele>
        <time>2014-10-04T12:49:44Z</time>
      </trkpt>
      <trkpt lat="44.93665" lon="5.51898">
        <ele>1940.56</ele>
        <time>2014-10-04T12:49:51Z</time>
      </trkpt>
      <trkpt lat="44.93668" lon="5.51902">
        <ele>1940.56</ele>
        <time>2014-10-04T12:49:57Z</time>
      </trkpt>
      <trkpt lat="44.93672" lon="5.519">
        <ele>1939.6</ele>
        <time>2014-10-04T12:50:02Z</time>
      </trkpt>
      <trkpt lat="44.93676" lon="5.51897">
        <ele>1939.12</ele>
        <time>2014-10-04T12:50:07Z</time>
      </trkpt>
      <trkpt lat="44.9368" lon="5.51899">
        <ele>1939.6</ele>
        <time>2014-10-04T12:50:10Z</time>
      </trkpt>
      <trkpt lat="44.93683" lon="5.519">
        <ele>1940.56</ele>
        <time>2014-10-04T12:50:14Z</time>
      </trkpt>
      <trkpt lat="44.93688" lon="5.51901">
        <ele>1941.04</ele>
        <time>2014-10-04T12:50:19Z</time>
      </trkpt>
      <trkpt lat="44.93696" lon="5.519">
        <ele>1941.04</ele>
        <time>2014-10-04T12:50:27Z</time>
      </trkpt>
      <trkpt lat="44.93705" lon="5.51902">
        <ele>1941.52</ele>
        <time>2014-10-04T12:50:39Z</time>
      </trkpt>
      <trkpt lat="44.93712" lon="5.519">
        <ele>1942</ele>
        <time>2014-10-04T12:50:50Z</time>
      </trkpt>
      <trkpt lat="44.93712" lon="5.51899">
        <ele>1942</ele>
        <time>2014-10-04T12:50:51Z</time>
      </trkpt>
      <trkpt lat="44.93714" lon="5.51901">
        <ele>1942.48</ele>
        <time>2014-10-04T12:50:57Z</time>
      </trkpt>
      <trkpt lat="44.93722" lon="5.51901">
        <ele>1942.96</ele>
        <time>2014-10-04T12:51:04Z</time>
      </trkpt>
      <trkpt lat="44.93725" lon="5.51901">
        <ele>1943.44</ele>
        <time>2014-10-04T12:51:06Z</time>
      </trkpt>
      <trkpt lat="44.93727" lon="5.51901">
        <ele>1943.92</ele>
        <time>2014-10-04T12:51:13Z</time>
      </trkpt>
      <trkpt lat="44.93734" lon="5.51905">
        <ele>1945.36</ele>
        <time>2014-10-04T12:51:22Z</time>
      </trkpt>
      <trkpt lat="44.9374" lon="5.51906">
        <ele>1946.33</ele>
        <time>2014-10-04T12:51:29Z</time>
      </trkpt>
      <trkpt lat="44.93744" lon="5.51904">
        <ele>1945.85</ele>
        <time>2014-10-04T12:51:35Z</time>
      </trkpt>
      <trkpt lat="44.93754" lon="5.51904">
        <ele>1945.85</ele>
        <time>2014-10-04T12:51:44Z</time>
      </trkpt>
      <trkpt lat="44.93759" lon="5.51904">
        <ele>1946.81</ele>
        <time>2014-10-04T12:51:50Z</time>
      </trkpt>
      <trkpt lat="44.93762" lon="5.51904">
        <ele>1947.29</ele>
        <time>2014-10-04T12:51:53Z</time>
      </trkpt>
      <trkpt lat="44.93767" lon="5.51905">
        <ele>1946.33</ele>
        <time>2014-10-04T12:52:03Z</time>
      </trkpt>
      <trkpt lat="44.93767" lon="5.51906">
        <ele>1946.81</ele>
        <time>2014-10-04T12:52:10Z</time>
      </trkpt>
      <trkpt lat="44.93768" lon="5.51909">
        <ele>1949.69</ele>
        <time>2014-10-04T12:52:19Z</time>
      </trkpt>
      <trkpt lat="44.93768" lon="5.51909">
        <ele>1950.65</ele>
        <time>2014-10-04T12:52:24Z</time>
      </trkpt>
      <trkpt lat="44.9377" lon="5.51908">
        <ele>1951.13</ele>
        <time>2014-10-04T12:52:27Z</time>
      </trkpt>
      <trkpt lat="44.93774" lon="5.51908">
        <ele>1951.61</ele>
        <time>2014-10-04T12:52:32Z</time>
      </trkpt>
      <trkpt lat="44.93774" lon="5.51909">
        <ele>1952.57</ele>
        <time>2014-10-04T12:52:34Z</time>
      </trkpt>
      <trkpt lat="44.93782" lon="5.51909">
        <ele>1951.61</ele>
        <time>2014-10-04T12:52:45Z</time>
      </trkpt>
      <trkpt lat="44.93783" lon="5.51909">
        <ele>1952.09</ele>
        <time>2014-10-04T12:52:47Z</time>
      </trkpt>
      <trkpt lat="44.93783" lon="5.5191">
        <ele>1951.61</ele>
        <time>2014-10-04T12:52:49Z</time>
      </trkpt>
      <trkpt lat="44.93785" lon="5.5191">
        <ele>1952.09</ele>
        <time>2014-10-04T12:52:56Z</time>
      </trkpt>
      <trkpt lat="44.93788" lon="5.51911">
        <ele>1953.06</ele>
        <time>2014-10-04T12:53:00Z</time>
      </trkpt>
      <trkpt lat="44.93791" lon="5.51908">
        <ele>1953.54</ele>
        <time>2014-10-04T12:53:06Z</time>
      </trkpt>
      <trkpt lat="44.93795" lon="5.519">
        <ele>1953.06</ele>
        <time>2014-10-04T12:53:19Z</time>
      </trkpt>
      <trkpt lat="44.93797" lon="5.51901">
        <ele>1953.06</ele>
        <time>2014-10-04T12:53:21Z</time>
      </trkpt>
      <trkpt lat="44.93804" lon="5.51901">
        <ele>1952.57</ele>
        <time>2014-10-04T12:53:26Z</time>
      </trkpt>
      <trkpt lat="44.93805" lon="5.51902">
        <ele>1953.06</ele>
        <time>2014-10-04T12:53:28Z</time>
      </trkpt>
      <trkpt lat="44.93807" lon="5.51905">
        <ele>1953.54</ele>
        <time>2014-10-04T12:53:31Z</time>
      </trkpt>
      <trkpt lat="44.93813" lon="5.51907">
        <ele>1954.5</ele>
        <time>2014-10-04T12:53:38Z</time>
      </trkpt>
      <trkpt lat="44.93819" lon="5.51905">
        <ele>1955.46</ele>
        <time>2014-10-04T12:53:48Z</time>
      </trkpt>
      <trkpt lat="44.93826" lon="5.51906">
        <ele>1955.94</ele>
        <time>2014-10-04T12:53:55Z</time>
      </trkpt>
      <trkpt lat="44.9383" lon="5.51908">
        <ele>1956.42</ele>
        <time>2014-10-04T12:54:00Z</time>
      </trkpt>
      <trkpt lat="44.93833" lon="5.51909">
        <ele>1956.42</ele>
        <time>2014-10-04T12:54:05Z</time>
      </trkpt>
      <trkpt lat="44.93836" lon="5.51911">
        <ele>1957.38</ele>
        <time>2014-10-04T12:54:08Z</time>
      </trkpt>
      <trkpt lat="44.93843" lon="5.51913">
        <ele>1957.86</ele>
        <time>2014-10-04T12:54:17Z</time>
      </trkpt>
      <trkpt lat="44.93851" lon="5.51917">
        <ele>1957.86</ele>
        <time>2014-10-04T12:54:26Z</time>
      </trkpt>
      <trkpt lat="44.93856" lon="5.5192">
        <ele>1958.82</ele>
        <time>2014-10-04T12:54:34Z</time>
      </trkpt>
      <trkpt lat="44.93864" lon="5.51924">
        <ele>1958.34</ele>
        <time>2014-10-04T12:54:40Z</time>
      </trkpt>
      <trkpt lat="44.93866" lon="5.51927">
        <ele>1958.82</ele>
        <time>2014-10-04T12:54:44Z</time>
      </trkpt>
      <trkpt lat="44.93868" lon="5.5193">
        <ele>1959.3</ele>
        <time>2014-10-04T12:54:47Z</time>
      </trkpt>
      <trkpt lat="44.93876" lon="5.51933">
        <ele>1959.3</ele>
        <time>2014-10-04T12:54:53Z</time>
      </trkpt>
      <trkpt lat="44.9388" lon="5.51936">
        <ele>1959.78</ele>
        <time>2014-10-04T12:55:00Z</time>
      </trkpt>
      <trkpt lat="44.93883" lon="5.51937">
        <ele>1958.82</ele>
        <time>2014-10-04T12:55:02Z</time>
      </trkpt>
      <trkpt lat="44.93889" lon="5.51941">
        <ele>1958.34</ele>
        <time>2014-10-04T12:55:07Z</time>
      </trkpt>
      <trkpt lat="44.93892" lon="5.51944">
        <ele>1958.34</ele>
        <time>2014-10-04T12:55:10Z</time>
      </trkpt>
      <trkpt lat="44.93895" lon="5.51946">
        <ele>1957.86</ele>
        <time>2014-10-04T12:55:14Z</time>
      </trkpt>
      <trkpt lat="44.93897" lon="5.5195">
        <ele>1958.34</ele>
        <time>2014-10-04T12:55:18Z</time>
      </trkpt>
      <trkpt lat="44.93904" lon="5.51959">
        <ele>1956.9</ele>
        <time>2014-10-04T12:55:26Z</time>
      </trkpt>
      <trkpt lat="44.93914" lon="5.51964">
        <ele>1955.46</ele>
        <time>2014-10-04T12:55:32Z</time>
      </trkpt>
      <trkpt lat="44.93916" lon="5.51965">
        <ele>1954.5</ele>
        <time>2014-10-04T12:55:36Z</time>
      </trkpt>
      <trkpt lat="44.93918" lon="5.51967">
        <ele>1954.5</ele>
        <time>2014-10-04T12:55:38Z</time>
      </trkpt>
      <trkpt lat="44.93921" lon="5.51969">
        <ele>1954.5</ele>
        <time>2014-10-04T12:55:43Z</time>
      </trkpt>
      <trkpt lat="44.93928" lon="5.51971">
        <ele>1954.02</ele>
        <time>2014-10-04T12:55:48Z</time>
      </trkpt>
      <trkpt lat="44.93936" lon="5.51973">
        <ele>1953.54</ele>
        <time>2014-10-04T12:55:56Z</time>
      </trkpt>
      <trkpt lat="44.93938" lon="5.51975">
        <ele>1953.54</ele>
        <time>2014-10-04T12:55:59Z</time>
      </trkpt>
      <trkpt lat="44.93945" lon="5.51978">
        <ele>1953.54</ele>
        <time>2014-10-04T12:56:08Z</time>
      </trkpt>
      <trkpt lat="44.93946" lon="5.51979">
        <ele>1953.54</ele>
        <time>2014-10-04T12:56:10Z</time>
      </trkpt>
      <trkpt lat="44.93948" lon="5.5198">
        <ele>1954.5</ele>
        <time>2014-10-04T12:56:14Z</time>
      </trkpt>
      <trkpt lat="44.93952" lon="5.51982">
        <ele>1954.02</ele>
        <time>2014-10-04T12:56:17Z</time>
      </trkpt>
      <trkpt lat="44.93962" lon="5.51986">
        <ele>1953.06</ele>
        <time>2014-10-04T12:56:27Z</time>
      </trkpt>
      <trkpt lat="44.93966" lon="5.51988">
        <ele>1953.06</ele>
        <time>2014-10-04T12:56:31Z</time>
      </trkpt>
      <trkpt lat="44.93973" lon="5.51991">
        <ele>1954.5</ele>
        <time>2014-10-04T12:56:41Z</time>
      </trkpt>
      <trkpt lat="44.93973" lon="5.51992">
        <ele>1954.98</ele>
        <time>2014-10-04T12:56:44Z</time>
      </trkpt>
      <trkpt lat="44.93976" lon="5.51993">
        <ele>1957.38</ele>
        <time>2014-10-04T12:56:52Z</time>
      </trkpt>
      <trkpt lat="44.93977" lon="5.51995">
        <ele>1957.86</ele>
        <time>2014-10-04T12:56:58Z</time>
      </trkpt>
      <trkpt lat="44.9398" lon="5.52">
        <ele>1956.42</ele>
        <time>2014-10-04T12:57:03Z</time>
      </trkpt>
      <trkpt lat="44.93985" lon="5.52005">
        <ele>1955.46</ele>
        <time>2014-10-04T12:57:10Z</time>
      </trkpt>
      <trkpt lat="44.93995" lon="5.52011">
        <ele>1953.54</ele>
        <time>2014-10-04T12:57:19Z</time>
      </trkpt>
      <trkpt lat="44.94001" lon="5.52016">
        <ele>1953.06</ele>
        <time>2014-10-04T12:57:24Z</time>
      </trkpt>
      <trkpt lat="44.94014" lon="5.5202">
        <ele>1953.06</ele>
        <time>2014-10-04T12:57:35Z</time>
      </trkpt>
      <trkpt lat="44.94017" lon="5.52021">
        <ele>1953.06</ele>
        <time>2014-10-04T12:57:37Z</time>
      </trkpt>
      <trkpt lat="44.94023" lon="5.52022">
        <ele>1952.57</ele>
        <time>2014-10-04T12:57:44Z</time>
      </trkpt>
      <trkpt lat="44.94027" lon="5.52024">
        <ele>1952.57</ele>
        <time>2014-10-04T12:57:48Z</time>
      </trkpt>
      <trkpt lat="44.9403" lon="5.52026">
        <ele>1952.57</ele>
        <time>2014-10-04T12:57:52Z</time>
      </trkpt>
      <trkpt lat="44.94037" lon="5.5203">
        <ele>1953.06</ele>
        <time>2014-10-04T12:58:03Z</time>
      </trkpt>
      <trkpt lat="44.94039" lon="5.52034">
        <ele>1953.06</ele>
        <time>2014-10-04T12:58:06Z</time>
      </trkpt>
      <trkpt lat="44.94042" lon="5.52034">
        <ele>1953.06</ele>
        <time>2014-10-04T12:58:10Z</time>
      </trkpt>
      <trkpt lat="44.94044" lon="5.52036">
        <ele>1953.06</ele>
        <time>2014-10-04T12:58:13Z</time>
      </trkpt>
      <trkpt lat="44.94047" lon="5.52039">
        <ele>1953.54</ele>
        <time>2014-10-04T12:58:17Z</time>
      </trkpt>
      <trkpt lat="44.94053" lon="5.52045">
        <ele>1953.54</ele>
        <time>2014-10-04T12:58:24Z</time>
      </trkpt>
      <trkpt lat="44.94054" lon="5.52048">
        <ele>1954.02</ele>
        <time>2014-10-04T12:58:27Z</time>
      </trkpt>
      <trkpt lat="44.94057" lon="5.52049">
        <ele>1954.02</ele>
        <time>2014-10-04T12:58:32Z</time>
      </trkpt>
      <trkpt lat="44.94059" lon="5.52048">
        <ele>1953.54</ele>
        <time>2014-10-04T12:58:34Z</time>
      </trkpt>
      <trkpt lat="44.94065" lon="5.52052">
        <ele>1952.57</ele>
        <time>2014-10-04T12:58:40Z</time>
      </trkpt>
      <trkpt lat="44.94073" lon="5.52056">
        <ele>1952.57</ele>
        <time>2014-10-04T12:58:52Z</time>
      </trkpt>
      <trkpt lat="44.94078" lon="5.52059">
        <ele>1953.06</ele>
        <time>2014-10-04T12:58:59Z</time>
      </trkpt>
      <trkpt lat="44.9408" lon="5.52061">
        <ele>1953.06</ele>
        <time>2014-10-04T12:59:01Z</time>
      </trkpt>
      <trkpt lat="44.94083" lon="5.52065">
        <ele>1954.5</ele>
        <time>2014-10-04T12:59:06Z</time>
      </trkpt>
      <trkpt lat="44.94087" lon="5.52067">
        <ele>1955.46</ele>
        <time>2014-10-04T12:59:13Z</time>
      </trkpt>
      <trkpt lat="44.94088" lon="5.52067">
        <ele>1955.46</ele>
        <time>2014-10-04T12:59:16Z</time>
      </trkpt>
      <trkpt lat="44.94096" lon="5.52068">
        <ele>1955.46</ele>
        <time>2014-10-04T12:59:24Z</time>
      </trkpt>
      <trkpt lat="44.94099" lon="5.52069">
        <ele>1955.46</ele>
        <time>2014-10-04T12:59:28Z</time>
      </trkpt>
      <trkpt lat="44.94101" lon="5.5207">
        <ele>1955.94</ele>
        <time>2014-10-04T12:59:31Z</time>
      </trkpt>
      <trkpt lat="44.94104" lon="5.52073">
        <ele>1955.94</ele>
        <time>2014-10-04T12:59:34Z</time>
      </trkpt>
      <trkpt lat="44.9411" lon="5.52077">
        <ele>1956.9</ele>
        <time>2014-10-04T12:59:44Z</time>
      </trkpt>
      <trkpt lat="44.94114" lon="5.5208">
        <ele>1956.9</ele>
        <time>2014-10-04T12:59:54Z</time>
      </trkpt>
      <trkpt lat="44.94118" lon="5.52081">
        <ele>1956.9</ele>
        <time>2014-10-04T13:00:02Z</time>
      </trkpt>
      <trkpt lat="44.9412" lon="5.52082">
        <ele>1957.38</ele>
        <time>2014-10-04T13:00:06Z</time>
      </trkpt>
      <trkpt lat="44.94128" lon="5.52083">
        <ele>1957.86</ele>
        <time>2014-10-04T13:00:16Z</time>
      </trkpt>
      <trkpt lat="44.94133" lon="5.52085">
        <ele>1957.86</ele>
        <time>2014-10-04T13:00:20Z</time>
      </trkpt>
      <trkpt lat="44.94137" lon="5.52087">
        <ele>1958.82</ele>
        <time>2014-10-04T13:00:24Z</time>
      </trkpt>
      <trkpt lat="44.9414" lon="5.52089">
        <ele>1959.3</ele>
        <time>2014-10-04T13:00:27Z</time>
      </trkpt>
      <trkpt lat="44.94143" lon="5.52091">
        <ele>1960.75</ele>
        <time>2014-10-04T13:00:31Z</time>
      </trkpt>
      <trkpt lat="44.94148" lon="5.52091">
        <ele>1961.71</ele>
        <time>2014-10-04T13:00:38Z</time>
      </trkpt>
      <trkpt lat="44.94152" lon="5.5209">
        <ele>1961.71</ele>
        <time>2014-10-04T13:00:43Z</time>
      </trkpt>
      <trkpt lat="44.94162" lon="5.52092">
        <ele>1961.23</ele>
        <time>2014-10-04T13:00:53Z</time>
      </trkpt>
      <trkpt lat="44.94164" lon="5.52093">
        <ele>1961.23</ele>
        <time>2014-10-04T13:00:54Z</time>
      </trkpt>
      <trkpt lat="44.94168" lon="5.52093">
        <ele>1960.75</ele>
        <time>2014-10-04T13:00:58Z</time>
      </trkpt>
      <trkpt lat="44.94171" lon="5.52092">
        <ele>1960.75</ele>
        <time>2014-10-04T13:01:03Z</time>
      </trkpt>
      <trkpt lat="44.94179" lon="5.52091">
        <ele>1961.71</ele>
        <time>2014-10-04T13:01:13Z</time>
      </trkpt>
      <trkpt lat="44.94189" lon="5.5209">
        <ele>1962.67</ele>
        <time>2014-10-04T13:01:22Z</time>
      </trkpt>
      <trkpt lat="44.94191" lon="5.5209">
        <ele>1963.63</ele>
        <time>2014-10-04T13:01:28Z</time>
      </trkpt>
      <trkpt lat="44.94195" lon="5.52091">
        <ele>1964.11</ele>
        <time>2014-10-04T13:01:31Z</time>
      </trkpt>
      <trkpt lat="44.94203" lon="5.52088">
        <ele>1964.59</ele>
        <time>2014-10-04T13:01:38Z</time>
      </trkpt>
      <trkpt lat="44.94207" lon="5.52087">
        <ele>1965.07</ele>
        <time>2014-10-04T13:01:42Z</time>
      </trkpt>
      <trkpt lat="44.94213" lon="5.52087">
        <ele>1966.03</ele>
        <time>2014-10-04T13:01:50Z</time>
      </trkpt>
      <trkpt lat="44.94219" lon="5.52084">
        <ele>1967.48</ele>
        <time>2014-10-04T13:01:59Z</time>
      </trkpt>
      <trkpt lat="44.94221" lon="5.52083">
        <ele>1967.48</ele>
        <time>2014-10-04T13:02:01Z</time>
      </trkpt>
      <trkpt lat="44.94229" lon="5.52077">
        <ele>1968.44</ele>
        <time>2014-10-04T13:02:11Z</time>
      </trkpt>
      <trkpt lat="44.94232" lon="5.52075">
        <ele>1968.92</ele>
        <time>2014-10-04T13:02:15Z</time>
      </trkpt>
      <trkpt lat="44.94235" lon="5.52073">
        <ele>1969.4</ele>
        <time>2014-10-04T13:02:18Z</time>
      </trkpt>
      <trkpt lat="44.94238" lon="5.52071">
        <ele>1970.36</ele>
        <time>2014-10-04T13:02:23Z</time>
      </trkpt>
      <trkpt lat="44.94243" lon="5.52066">
        <ele>1970.84</ele>
        <time>2014-10-04T13:02:32Z</time>
      </trkpt>
      <trkpt lat="44.94249" lon="5.52062">
        <ele>1971.8</ele>
        <time>2014-10-04T13:02:40Z</time>
      </trkpt>
      <trkpt lat="44.94253" lon="5.52058">
        <ele>1972.76</ele>
        <time>2014-10-04T13:02:51Z</time>
      </trkpt>
      <trkpt lat="44.94254" lon="5.52058">
        <ele>1974.69</ele>
        <time>2014-10-04T13:03:00Z</time>
      </trkpt>
      <trkpt lat="44.94257" lon="5.5206">
        <ele>1976.13</ele>
        <time>2014-10-04T13:03:08Z</time>
      </trkpt>
      <trkpt lat="44.94257" lon="5.52063">
        <ele>1977.09</ele>
        <time>2014-10-04T13:03:12Z</time>
      </trkpt>
      <trkpt lat="44.9426" lon="5.52064">
        <ele>1979.49</ele>
        <time>2014-10-04T13:03:22Z</time>
      </trkpt>
      <trkpt lat="44.9426" lon="5.52064">
        <ele>1979.01</ele>
        <time>2014-10-04T13:03:33Z</time>
      </trkpt>
      <trkpt lat="44.9426" lon="5.52064">
        <ele>1978.53</ele>
        <time>2014-10-04T13:03:38Z</time>
      </trkpt>
      <trkpt lat="44.94265" lon="5.52064">
        <ele>1980.45</ele>
        <time>2014-10-04T13:03:49Z</time>
      </trkpt>
      <trkpt lat="44.9427" lon="5.52062">
        <ele>1980.93</ele>
        <time>2014-10-04T13:03:59Z</time>
      </trkpt>
      <trkpt lat="44.94272" lon="5.52062">
        <ele>1981.9</ele>
        <time>2014-10-04T13:04:01Z</time>
      </trkpt>
      <trkpt lat="44.94273" lon="5.52062">
        <ele>1982.38</ele>
        <time>2014-10-04T13:04:14Z</time>
      </trkpt>
      <trkpt lat="44.9428" lon="5.52064">
        <ele>1983.34</ele>
        <time>2014-10-04T13:04:25Z</time>
      </trkpt>
      <trkpt lat="44.94282" lon="5.52063">
        <ele>1984.3</ele>
        <time>2014-10-04T13:04:28Z</time>
      </trkpt>
      <trkpt lat="44.94288" lon="5.52063">
        <ele>1985.26</ele>
        <time>2014-10-04T13:04:37Z</time>
      </trkpt>
      <trkpt lat="44.94288" lon="5.52063">
        <ele>1985.26</ele>
        <time>2014-10-04T13:04:38Z</time>
      </trkpt>
      <trkpt lat="44.94297" lon="5.52059">
        <ele>1984.3</ele>
        <time>2014-10-04T13:04:48Z</time>
      </trkpt>
      <trkpt lat="44.94299" lon="5.52058">
        <ele>1983.82</ele>
        <time>2014-10-04T13:04:50Z</time>
      </trkpt>
      <trkpt lat="44.94301" lon="5.52056">
        <ele>1983.34</ele>
        <time>2014-10-04T13:04:52Z</time>
      </trkpt>
      <trkpt lat="44.94309" lon="5.52046">
        <ele>1980.93</ele>
        <time>2014-10-04T13:05:03Z</time>
      </trkpt>
      <trkpt lat="44.94311" lon="5.52045">
        <ele>1980.93</ele>
        <time>2014-10-04T13:05:07Z</time>
      </trkpt>
      <trkpt lat="44.94317" lon="5.5204">
        <ele>1979.97</ele>
        <time>2014-10-04T13:05:13Z</time>
      </trkpt>
      <trkpt lat="44.94324" lon="5.52037">
        <ele>1979.49</ele>
        <time>2014-10-04T13:05:20Z</time>
      </trkpt>
      <trkpt lat="44.94331" lon="5.52034">
        <ele>1978.53</ele>
        <time>2014-10-04T13:05:27Z</time>
      </trkpt>
      <trkpt lat="44.94338" lon="5.52032">
        <ele>1978.53</ele>
        <time>2014-10-04T13:05:34Z</time>
      </trkpt>
      <trkpt lat="44.94346" lon="5.52033">
        <ele>1979.49</ele>
        <time>2014-10-04T13:05:40Z</time>
      </trkpt>
      <trkpt lat="44.94351" lon="5.52031">
        <ele>1979.97</ele>
        <time>2014-10-04T13:05:44Z</time>
      </trkpt>
      <trkpt lat="44.94357" lon="5.5203">
        <ele>1978.53</ele>
        <time>2014-10-04T13:05:54Z</time>
      </trkpt>
      <trkpt lat="44.94357" lon="5.5203">
        <ele>1978.05</ele>
        <time>2014-10-04T13:05:55Z</time>
      </trkpt>
      <trkpt lat="44.94362" lon="5.52029">
        <ele>1977.57</ele>
        <time>2014-10-04T13:06:03Z</time>
      </trkpt>
      <trkpt lat="44.94363" lon="5.52028">
        <ele>1977.09</ele>
        <time>2014-10-04T13:06:04Z</time>
      </trkpt>
      <trkpt lat="44.94368" lon="5.52027">
        <ele>1976.61</ele>
        <time>2014-10-04T13:06:09Z</time>
      </trkpt>
      <trkpt lat="44.94376" lon="5.52026">
        <ele>1975.17</ele>
        <time>2014-10-04T13:06:19Z</time>
      </trkpt>
      <trkpt lat="44.94376" lon="5.52026">
        <ele>1975.17</ele>
        <time>2014-10-04T13:06:39Z</time>
      </trkpt>
      <trkpt lat="44.94379" lon="5.52024">
        <ele>1972.76</ele>
        <time>2014-10-04T13:06:50Z</time>
      </trkpt>
      <trkpt lat="44.94379" lon="5.52022">
        <ele>1969.88</ele>
        <time>2014-10-04T13:07:00Z</time>
      </trkpt>
      <trkpt lat="44.9438" lon="5.52021">
        <ele>1969.4</ele>
        <time>2014-10-04T13:07:01Z</time>
      </trkpt>
      <trkpt lat="44.94386" lon="5.52008">
        <ele>1967.48</ele>
        <time>2014-10-04T13:07:10Z</time>
      </trkpt>
      <trkpt lat="44.94388" lon="5.52001">
        <ele>1965.07</ele>
        <time>2014-10-04T13:07:18Z</time>
      </trkpt>
      <trkpt lat="44.94391" lon="5.51998">
        <ele>1963.63</ele>
        <time>2014-10-04T13:07:22Z</time>
      </trkpt>
      <trkpt lat="44.94393" lon="5.51994">
        <ele>1963.15</ele>
        <time>2014-10-04T13:07:25Z</time>
      </trkpt>
      <trkpt lat="44.94402" lon="5.51984">
        <ele>1959.3</ele>
        <time>2014-10-04T13:07:37Z</time>
      </trkpt>
      <trkpt lat="44.94404" lon="5.51981">
        <ele>1958.34</ele>
        <time>2014-10-04T13:07:41Z</time>
      </trkpt>
      <trkpt lat="44.94408" lon="5.51978">
        <ele>1957.38</ele>
        <time>2014-10-04T13:07:46Z</time>
      </trkpt>
      <trkpt lat="44.94416" lon="5.51973">
        <ele>1954.02</ele>
        <time>2014-10-04T13:07:58Z</time>
      </trkpt>
      <trkpt lat="44.94418" lon="5.51975">
        <ele>1951.61</ele>
        <time>2014-10-04T13:08:06Z</time>
      </trkpt>
      <trkpt lat="44.94422" lon="5.51977">
        <ele>1950.65</ele>
        <time>2014-10-04T13:08:11Z</time>
      </trkpt>
      <trkpt lat="44.94428" lon="5.51983">
        <ele>1948.73</ele>
        <time>2014-10-04T13:08:18Z</time>
      </trkpt>
      <trkpt lat="44.94431" lon="5.51987">
        <ele>1948.25</ele>
        <time>2014-10-04T13:08:22Z</time>
      </trkpt>
      <trkpt lat="44.94431" lon="5.51989">
        <ele>1948.73</ele>
        <time>2014-10-04T13:08:25Z</time>
      </trkpt>
      <trkpt lat="44.94429" lon="5.51998">
        <ele>1948.25</ele>
        <time>2014-10-04T13:08:35Z</time>
      </trkpt>
      <trkpt lat="44.94428" lon="5.51999">
        <ele>1947.77</ele>
        <time>2014-10-04T13:08:46Z</time>
      </trkpt>
      <trkpt lat="44.94428" lon="5.51999">
        <ele>1948.25</ele>
        <time>2014-10-04T13:09:00Z</time>
      </trkpt>
      <trkpt lat="44.94427" lon="5.51999">
        <ele>1947.77</ele>
        <time>2014-10-04T13:09:23Z</time>
      </trkpt>
      <trkpt lat="44.94428" lon="5.51999">
        <ele>1948.25</ele>
        <time>2014-10-04T13:09:33Z</time>
      </trkpt>
      <trkpt lat="44.94431" lon="5.51994">
        <ele>1948.73</ele>
        <time>2014-10-04T13:09:40Z</time>
      </trkpt>
      <trkpt lat="44.94435" lon="5.51991">
        <ele>1948.73</ele>
        <time>2014-10-04T13:09:44Z</time>
      </trkpt>
      <trkpt lat="44.94439" lon="5.51989">
        <ele>1948.25</ele>
        <time>2014-10-04T13:09:49Z</time>
      </trkpt>
      <trkpt lat="44.94442" lon="5.5199">
        <ele>1949.21</ele>
        <time>2014-10-04T13:09:53Z</time>
      </trkpt>
      <trkpt lat="44.94447" lon="5.5199">
        <ele>1950.65</ele>
        <time>2014-10-04T13:10:00Z</time>
      </trkpt>
      <trkpt lat="44.94456" lon="5.5199">
        <ele>1951.61</ele>
        <time>2014-10-04T13:10:09Z</time>
      </trkpt>
      <trkpt lat="44.94457" lon="5.5199">
        <ele>1952.09</ele>
        <time>2014-10-04T13:10:11Z</time>
      </trkpt>
      <trkpt lat="44.94464" lon="5.51993">
        <ele>1953.54</ele>
        <time>2014-10-04T13:10:21Z</time>
      </trkpt>
      <trkpt lat="44.94465" lon="5.51993">
        <ele>1953.54</ele>
        <time>2014-10-04T13:10:22Z</time>
      </trkpt>
      <trkpt lat="44.94468" lon="5.51993">
        <ele>1954.02</ele>
        <time>2014-10-04T13:10:25Z</time>
      </trkpt>
      <trkpt lat="44.94471" lon="5.51994">
        <ele>1955.94</ele>
        <time>2014-10-04T13:10:32Z</time>
      </trkpt>
      <trkpt lat="44.94472" lon="5.51994">
        <ele>1956.42</ele>
        <time>2014-10-04T13:10:35Z</time>
      </trkpt>
      <trkpt lat="44.94477" lon="5.51996">
        <ele>1958.34</ele>
        <time>2014-10-04T13:10:44Z</time>
      </trkpt>
      <trkpt lat="44.94479" lon="5.51996">
        <ele>1960.75</ele>
        <time>2014-10-04T13:10:57Z</time>
      </trkpt>
      <trkpt lat="44.94483" lon="5.51996">
        <ele>1962.19</ele>
        <time>2014-10-04T13:11:02Z</time>
      </trkpt>
      <trkpt lat="44.9449" lon="5.51997">
        <ele>1964.11</ele>
        <time>2014-10-04T13:11:14Z</time>
      </trkpt>
      <trkpt lat="44.94504" lon="5.52">
        <ele>1966.99</ele>
        <time>2014-10-04T13:11:24Z</time>
      </trkpt>
      <trkpt lat="44.94504" lon="5.52">
        <ele>1967.48</ele>
        <time>2014-10-04T13:11:25Z</time>
      </trkpt>
      <trkpt lat="44.94506" lon="5.52001">
        <ele>1969.88</ele>
        <time>2014-10-04T13:11:34Z</time>
      </trkpt>
      <trkpt lat="44.94509" lon="5.52002">
        <ele>1970.84</ele>
        <time>2014-10-04T13:11:39Z</time>
      </trkpt>
      <trkpt lat="44.94521" lon="5.52002">
        <ele>1973.24</ele>
        <time>2014-10-04T13:11:50Z</time>
      </trkpt>
      <trkpt lat="44.94521" lon="5.52002">
        <ele>1973.24</ele>
        <time>2014-10-04T13:11:58Z</time>
      </trkpt>
      <trkpt lat="44.94523" lon="5.51999">
        <ele>1973.72</ele>
        <time>2014-10-04T13:12:03Z</time>
      </trkpt>
      <trkpt lat="44.94531" lon="5.5199">
        <ele>1971.8</ele>
        <time>2014-10-04T13:12:13Z</time>
      </trkpt>
      <trkpt lat="44.94531" lon="5.5199">
        <ele>1971.8</ele>
        <time>2014-10-04T13:12:20Z</time>
      </trkpt>
      <trkpt lat="44.94531" lon="5.51991">
        <ele>1971.8</ele>
        <time>2014-10-04T13:12:22Z</time>
      </trkpt>
      <trkpt lat="44.94532" lon="5.51995">
        <ele>1970.84</ele>
        <time>2014-10-04T13:12:26Z</time>
      </trkpt>
      <trkpt lat="44.94531" lon="5.52005">
        <ele>1969.88</ele>
        <time>2014-10-04T13:12:31Z</time>
      </trkpt>
      <trkpt lat="44.94533" lon="5.5201">
        <ele>1968.92</ele>
        <time>2014-10-04T13:12:36Z</time>
      </trkpt>
      <trkpt lat="44.94538" lon="5.52026">
        <ele>1967.96</ele>
        <time>2014-10-04T13:12:45Z</time>
      </trkpt>
      <trkpt lat="44.94539" lon="5.52028">
        <ele>1967.48</ele>
        <time>2014-10-04T13:12:47Z</time>
      </trkpt>
      <trkpt lat="44.94544" lon="5.52036">
        <ele>1966.99</ele>
        <time>2014-10-04T13:12:54Z</time>
      </trkpt>
      <trkpt lat="44.9455" lon="5.52046">
        <ele>1968.44</ele>
        <time>2014-10-04T13:13:03Z</time>
      </trkpt>
      <trkpt lat="44.94554" lon="5.52049">
        <ele>1968.44</ele>
        <time>2014-10-04T13:13:08Z</time>
      </trkpt>
      <trkpt lat="44.94559" lon="5.52053">
        <ele>1967.96</ele>
        <time>2014-10-04T13:13:13Z</time>
      </trkpt>
      <trkpt lat="44.94564" lon="5.52059">
        <ele>1967.96</ele>
        <time>2014-10-04T13:13:18Z</time>
      </trkpt>
      <trkpt lat="44.94567" lon="5.5206">
        <ele>1967.96</ele>
        <time>2014-10-04T13:13:21Z</time>
      </trkpt>
      <trkpt lat="44.94571" lon="5.52063">
        <ele>1968.44</ele>
        <time>2014-10-04T13:13:26Z</time>
      </trkpt>
      <trkpt lat="44.94575" lon="5.52064">
        <ele>1967.96</ele>
        <time>2014-10-04T13:13:31Z</time>
      </trkpt>
      <trkpt lat="44.94577" lon="5.52068">
        <ele>1967.48</ele>
        <time>2014-10-04T13:13:34Z</time>
      </trkpt>
      <trkpt lat="44.94583" lon="5.52073">
        <ele>1967.96</ele>
        <time>2014-10-04T13:13:40Z</time>
      </trkpt>
      <trkpt lat="44.94586" lon="5.52078">
        <ele>1966.99</ele>
        <time>2014-10-04T13:13:44Z</time>
      </trkpt>
      <trkpt lat="44.94588" lon="5.52082">
        <ele>1966.99</ele>
        <time>2014-10-04T13:13:47Z</time>
      </trkpt>
      <trkpt lat="44.94595" lon="5.52089">
        <ele>1967.48</ele>
        <time>2014-10-04T13:13:55Z</time>
      </trkpt>
      <trkpt lat="44.94596" lon="5.52092">
        <ele>1966.99</ele>
        <time>2014-10-04T13:13:57Z</time>
      </trkpt>
      <trkpt lat="44.946" lon="5.52099">
        <ele>1966.99</ele>
        <time>2014-10-04T13:14:03Z</time>
      </trkpt>
      <trkpt lat="44.94602" lon="5.52103">
        <ele>1966.99</ele>
        <time>2014-10-04T13:14:06Z</time>
      </trkpt>
      <trkpt lat="44.94606" lon="5.52111">
        <ele>1966.51</ele>
        <time>2014-10-04T13:14:12Z</time>
      </trkpt>
      <trkpt lat="44.94609" lon="5.5212">
        <ele>1966.99</ele>
        <time>2014-10-04T13:14:17Z</time>
      </trkpt>
      <trkpt lat="44.94613" lon="5.52129">
        <ele>1966.51</ele>
        <time>2014-10-04T13:14:28Z</time>
      </trkpt>
      <trkpt lat="44.94615" lon="5.52131">
        <ele>1966.51</ele>
        <time>2014-10-04T13:14:32Z</time>
      </trkpt>
      <trkpt lat="44.94617" lon="5.52139">
        <ele>1966.51</ele>
        <time>2014-10-04T13:14:37Z</time>
      </trkpt>
      <trkpt lat="44.9462" lon="5.52148">
        <ele>1966.99</ele>
        <time>2014-10-04T13:14:43Z</time>
      </trkpt>
      <trkpt lat="44.94622" lon="5.52151">
        <ele>1967.48</ele>
        <time>2014-10-04T13:14:46Z</time>
      </trkpt>
      <trkpt lat="44.94625" lon="5.52154">
        <ele>1967.48</ele>
        <time>2014-10-04T13:14:48Z</time>
      </trkpt>
      <trkpt lat="44.94627" lon="5.52159">
        <ele>1967.48</ele>
        <time>2014-10-04T13:14:52Z</time>
      </trkpt>
      <trkpt lat="44.94633" lon="5.52164">
        <ele>1967.96</ele>
        <time>2014-10-04T13:14:59Z</time>
      </trkpt>
      <trkpt lat="44.94636" lon="5.52167">
        <ele>1967.48</ele>
        <time>2014-10-04T13:15:03Z</time>
      </trkpt>
      <trkpt lat="44.94643" lon="5.52172">
        <ele>1966.03</ele>
        <time>2014-10-04T13:15:09Z</time>
      </trkpt>
      <trkpt lat="44.94645" lon="5.52175">
        <ele>1966.03</ele>
        <time>2014-10-04T13:15:12Z</time>
      </trkpt>
      <trkpt lat="44.94647" lon="5.52177">
        <ele>1966.51</ele>
        <time>2014-10-04T13:15:24Z</time>
      </trkpt>
      <trkpt lat="44.94647" lon="5.52177">
        <ele>1966.51</ele>
        <time>2014-10-04T13:15:36Z</time>
      </trkpt>
      <trkpt lat="44.9465" lon="5.52181">
        <ele>1965.07</ele>
        <time>2014-10-04T13:15:41Z</time>
      </trkpt>
      <trkpt lat="44.94653" lon="5.52183">
        <ele>1965.07</ele>
        <time>2014-10-04T13:15:44Z</time>
      </trkpt>
      <trkpt lat="44.9466" lon="5.52188">
        <ele>1963.15</ele>
        <time>2014-10-04T13:15:52Z</time>
      </trkpt>
      <trkpt lat="44.94671" lon="5.52197">
        <ele>1961.23</ele>
        <time>2014-10-04T13:16:01Z</time>
      </trkpt>
      <trkpt lat="44.94671" lon="5.52197">
        <ele>1961.71</ele>
        <time>2014-10-04T13:16:02Z</time>
      </trkpt>
      <trkpt lat="44.9468" lon="5.52205">
        <ele>1960.27</ele>
        <time>2014-10-04T13:16:11Z</time>
      </trkpt>
      <trkpt lat="44.94683" lon="5.52206">
        <ele>1959.78</ele>
        <time>2014-10-04T13:16:13Z</time>
      </trkpt>
      <trkpt lat="44.94687" lon="5.52214">
        <ele>1959.3</ele>
        <time>2014-10-04T13:16:19Z</time>
      </trkpt>
      <trkpt lat="44.94699" lon="5.52214">
        <ele>1957.38</ele>
        <time>2014-10-04T13:16:29Z</time>
      </trkpt>
      <trkpt lat="44.94712" lon="5.52216">
        <ele>1956.42</ele>
        <time>2014-10-04T13:16:39Z</time>
      </trkpt>
      <trkpt lat="44.94713" lon="5.52216">
        <ele>1956.42</ele>
        <time>2014-10-04T13:16:40Z</time>
      </trkpt>
      <trkpt lat="44.94715" lon="5.52217">
        <ele>1956.42</ele>
        <time>2014-10-04T13:16:42Z</time>
      </trkpt>
      <trkpt lat="44.94717" lon="5.52219">
        <ele>1956.42</ele>
        <time>2014-10-04T13:16:44Z</time>
      </trkpt>
      <trkpt lat="44.94722" lon="5.5222">
        <ele>1954.02</ele>
        <time>2014-10-04T13:16:49Z</time>
      </trkpt>
      <trkpt lat="44.94725" lon="5.52222">
        <ele>1953.54</ele>
        <time>2014-10-04T13:16:52Z</time>
      </trkpt>
      <trkpt lat="44.94735" lon="5.52224">
        <ele>1951.13</ele>
        <time>2014-10-04T13:17:01Z</time>
      </trkpt>
      <trkpt lat="44.94739" lon="5.52223">
        <ele>1949.69</ele>
        <time>2014-10-04T13:17:05Z</time>
      </trkpt>
      <trkpt lat="44.94742" lon="5.52225">
        <ele>1949.21</ele>
        <time>2014-10-04T13:17:09Z</time>
      </trkpt>
      <trkpt lat="44.94751" lon="5.5223">
        <ele>1946.81</ele>
        <time>2014-10-04T13:17:19Z</time>
      </trkpt>
      <trkpt lat="44.94753" lon="5.52231">
        <ele>1945.85</ele>
        <time>2014-10-04T13:17:22Z</time>
      </trkpt>
      <trkpt lat="44.94755" lon="5.52231">
        <ele>1944.88</ele>
        <time>2014-10-04T13:17:36Z</time>
      </trkpt>
      <trkpt lat="44.94756" lon="5.52231">
        <ele>1944.88</ele>
        <time>2014-10-04T13:17:52Z</time>
      </trkpt>
      <trkpt lat="44.94759" lon="5.52233">
        <ele>1944.4</ele>
        <time>2014-10-04T13:18:15Z</time>
      </trkpt>
      <trkpt lat="44.9476" lon="5.52237">
        <ele>1943.92</ele>
        <time>2014-10-04T13:18:25Z</time>
      </trkpt>
      <trkpt lat="44.9476" lon="5.52237">
        <ele>1943.92</ele>
        <time>2014-10-04T13:18:29Z</time>
      </trkpt>
      <trkpt lat="44.94764" lon="5.52236">
        <ele>1941.52</ele>
        <time>2014-10-04T13:18:41Z</time>
      </trkpt>
      <trkpt lat="44.94765" lon="5.52238">
        <ele>1941.52</ele>
        <time>2014-10-04T13:18:50Z</time>
      </trkpt>
      <trkpt lat="44.94766" lon="5.52235">
        <ele>1941.04</ele>
        <time>2014-10-04T13:18:52Z</time>
      </trkpt>
      <trkpt lat="44.94768" lon="5.52228">
        <ele>1940.08</ele>
        <time>2014-10-04T13:18:57Z</time>
      </trkpt>
      <trkpt lat="44.94771" lon="5.52218">
        <ele>1937.67</ele>
        <time>2014-10-04T13:19:06Z</time>
      </trkpt>
      <trkpt lat="44.94775" lon="5.52207">
        <ele>1934.31</ele>
        <time>2014-10-04T13:19:15Z</time>
      </trkpt>
      <trkpt lat="44.94775" lon="5.52205">
        <ele>1933.83</ele>
        <time>2014-10-04T13:19:16Z</time>
      </trkpt>
      <trkpt lat="44.94778" lon="5.522">
        <ele>1932.87</ele>
        <time>2014-10-04T13:19:20Z</time>
      </trkpt>
      <trkpt lat="44.9478" lon="5.52197">
        <ele>1931.91</ele>
        <time>2014-10-04T13:19:23Z</time>
      </trkpt>
      <trkpt lat="44.9478" lon="5.52191">
        <ele>1929.98</ele>
        <time>2014-10-04T13:19:27Z</time>
      </trkpt>
      <trkpt lat="44.9478" lon="5.52186">
        <ele>1929.5</ele>
        <time>2014-10-04T13:19:30Z</time>
      </trkpt>
      <trkpt lat="44.94783" lon="5.52184">
        <ele>1927.58</ele>
        <time>2014-10-04T13:19:34Z</time>
      </trkpt>
      <trkpt lat="44.94784" lon="5.52181">
        <ele>1927.1</ele>
        <time>2014-10-04T13:19:36Z</time>
      </trkpt>
      <trkpt lat="44.94783" lon="5.52173">
        <ele>1923.74</ele>
        <time>2014-10-04T13:19:46Z</time>
      </trkpt>
      <trkpt lat="44.94786" lon="5.52171">
        <ele>1921.33</ele>
        <time>2014-10-04T13:19:52Z</time>
      </trkpt>
      <trkpt lat="44.9479" lon="5.52168">
        <ele>1919.41</ele>
        <time>2014-10-04T13:19:59Z</time>
      </trkpt>
      <trkpt lat="44.94794" lon="5.52162">
        <ele>1915.56</ele>
        <time>2014-10-04T13:20:09Z</time>
      </trkpt>
      <trkpt lat="44.94794" lon="5.52162">
        <ele>1914.12</ele>
        <time>2014-10-04T13:20:12Z</time>
      </trkpt>
      <trkpt lat="44.94794" lon="5.52161">
        <ele>1912.68</ele>
        <time>2014-10-04T13:20:17Z</time>
      </trkpt>
      <trkpt lat="44.948" lon="5.52159">
        <ele>1910.76</ele>
        <time>2014-10-04T13:20:24Z</time>
      </trkpt>
      <trkpt lat="44.94803" lon="5.52155">
        <ele>1908.83</ele>
        <time>2014-10-04T13:20:29Z</time>
      </trkpt>
      <trkpt lat="44.94809" lon="5.52155">
        <ele>1905.47</ele>
        <time>2014-10-04T13:20:40Z</time>
      </trkpt>
      <trkpt lat="44.94817" lon="5.5215">
        <ele>1902.11</ele>
        <time>2014-10-04T13:20:50Z</time>
      </trkpt>
      <trkpt lat="44.94819" lon="5.52148">
        <ele>1900.18</ele>
        <time>2014-10-04T13:20:56Z</time>
      </trkpt>
      <trkpt lat="44.94827" lon="5.52146">
        <ele>1900.66</ele>
        <time>2014-10-04T13:21:02Z</time>
      </trkpt>
      <trkpt lat="44.94839" lon="5.52144">
        <ele>1900.66</ele>
        <time>2014-10-04T13:21:10Z</time>
      </trkpt>
      <trkpt lat="44.94841" lon="5.52143">
        <ele>1901.14</ele>
        <time>2014-10-04T13:21:12Z</time>
      </trkpt>
      <trkpt lat="44.9485" lon="5.52144">
        <ele>1900.18</ele>
        <time>2014-10-04T13:21:19Z</time>
      </trkpt>
      <trkpt lat="44.94853" lon="5.52144">
        <ele>1900.18</ele>
        <time>2014-10-04T13:21:22Z</time>
      </trkpt>
      <trkpt lat="44.94861" lon="5.52143">
        <ele>1899.7</ele>
        <time>2014-10-04T13:21:28Z</time>
      </trkpt>
      <trkpt lat="44.94873" lon="5.52151">
        <ele>1899.7</ele>
        <time>2014-10-04T13:21:38Z</time>
      </trkpt>
      <trkpt lat="44.94874" lon="5.52151">
        <ele>1899.7</ele>
        <time>2014-10-04T13:21:39Z</time>
      </trkpt>
      <trkpt lat="44.94876" lon="5.52153">
        <ele>1899.22</ele>
        <time>2014-10-04T13:21:41Z</time>
      </trkpt>
      <trkpt lat="44.94878" lon="5.52154">
        <ele>1898.74</ele>
        <time>2014-10-04T13:21:43Z</time>
      </trkpt>
      <trkpt lat="44.9488" lon="5.52157">
        <ele>1897.78</ele>
        <time>2014-10-04T13:21:46Z</time>
      </trkpt>
      <trkpt lat="44.94883" lon="5.5216">
        <ele>1897.3</ele>
        <time>2014-10-04T13:21:50Z</time>
      </trkpt>
      <trkpt lat="44.94892" lon="5.52167">
        <ele>1896.34</ele>
        <time>2014-10-04T13:21:59Z</time>
      </trkpt>
      <trkpt lat="44.94896" lon="5.52169">
        <ele>1895.38</ele>
        <time>2014-10-04T13:22:03Z</time>
      </trkpt>
      <trkpt lat="44.94899" lon="5.52172">
        <ele>1894.9</ele>
        <time>2014-10-04T13:22:05Z</time>
      </trkpt>
      <trkpt lat="44.94904" lon="5.52177">
        <ele>1893.45</ele>
        <time>2014-10-04T13:22:10Z</time>
      </trkpt>
      <trkpt lat="44.94906" lon="5.52178">
        <ele>1892.97</ele>
        <time>2014-10-04T13:22:12Z</time>
      </trkpt>
      <trkpt lat="44.94911" lon="5.52179">
        <ele>1891.53</ele>
        <time>2014-10-04T13:22:16Z</time>
      </trkpt>
      <trkpt lat="44.94922" lon="5.52179">
        <ele>1888.17</ele>
        <time>2014-10-04T13:22:26Z</time>
      </trkpt>
      <trkpt lat="44.94928" lon="5.52178">
        <ele>1885.28</ele>
        <time>2014-10-04T13:22:32Z</time>
      </trkpt>
      <trkpt lat="44.9493" lon="5.52179">
        <ele>1884.8</ele>
        <time>2014-10-04T13:22:34Z</time>
      </trkpt>
      <trkpt lat="44.94935" lon="5.5218">
        <ele>1883.36</ele>
        <time>2014-10-04T13:22:38Z</time>
      </trkpt>
      <trkpt lat="44.94946" lon="5.52181">
        <ele>1880</ele>
        <time>2014-10-04T13:22:47Z</time>
      </trkpt>
      <trkpt lat="44.94948" lon="5.52181">
        <ele>1879.51</ele>
        <time>2014-10-04T13:22:49Z</time>
      </trkpt>
      <trkpt lat="44.9495" lon="5.52181">
        <ele>1878.55</ele>
        <time>2014-10-04T13:22:52Z</time>
      </trkpt>
      <trkpt lat="44.94953" lon="5.5218">
        <ele>1877.59</ele>
        <time>2014-10-04T13:22:55Z</time>
      </trkpt>
      <trkpt lat="44.94957" lon="5.5218">
        <ele>1874.23</ele>
        <time>2014-10-04T13:23:02Z</time>
      </trkpt>
      <trkpt lat="44.94958" lon="5.5218">
        <ele>1874.23</ele>
        <time>2014-10-04T13:23:03Z</time>
      </trkpt>
      <trkpt lat="44.94963" lon="5.52179">
        <ele>1872.3</ele>
        <time>2014-10-04T13:23:07Z</time>
      </trkpt>
      <trkpt lat="44.94968" lon="5.52175">
        <ele>1870.38</ele>
        <time>2014-10-04T13:23:12Z</time>
      </trkpt>
      <trkpt lat="44.9497" lon="5.52174">
        <ele>1869.42</ele>
        <time>2014-10-04T13:23:15Z</time>
      </trkpt>
      <trkpt lat="44.94974" lon="5.52171">
        <ele>1867.98</ele>
        <time>2014-10-04T13:23:18Z</time>
      </trkpt>
      <trkpt lat="44.94975" lon="5.5217">
        <ele>1867.5</ele>
        <time>2014-10-04T13:23:19Z</time>
      </trkpt>
      <trkpt lat="44.94983" lon="5.52171">
        <ele>1864.13</ele>
        <time>2014-10-04T13:23:30Z</time>
      </trkpt>
      <trkpt lat="44.94988" lon="5.52176">
        <ele>1860.77</ele>
        <time>2014-10-04T13:23:40Z</time>
      </trkpt>
      <trkpt lat="44.9499" lon="5.5218">
        <ele>1858.85</ele>
        <time>2014-10-04T13:23:48Z</time>
      </trkpt>
      <trkpt lat="44.94994" lon="5.52184">
        <ele>1856.44</ele>
        <time>2014-10-04T13:23:55Z</time>
      </trkpt>
      <trkpt lat="44.94999" lon="5.52189">
        <ele>1854.52</ele>
        <time>2014-10-04T13:24:03Z</time>
      </trkpt>
      <trkpt lat="44.95" lon="5.5219">
        <ele>1853.56</ele>
        <time>2014-10-04T13:24:05Z</time>
      </trkpt>
      <trkpt lat="44.95001" lon="5.52191">
        <ele>1852.6</ele>
        <time>2014-10-04T13:24:09Z</time>
      </trkpt>
      <trkpt lat="44.95003" lon="5.52194">
        <ele>1851.16</ele>
        <time>2014-10-04T13:24:13Z</time>
      </trkpt>
      <trkpt lat="44.95005" lon="5.52195">
        <ele>1850.19</ele>
        <time>2014-10-04T13:24:16Z</time>
      </trkpt>
      <trkpt lat="44.95006" lon="5.52196">
        <ele>1849.23</ele>
        <time>2014-10-04T13:24:19Z</time>
      </trkpt>
      <trkpt lat="44.95007" lon="5.52198">
        <ele>1848.27</ele>
        <time>2014-10-04T13:24:21Z</time>
      </trkpt>
      <trkpt lat="44.95014" lon="5.5221">
        <ele>1845.39</ele>
        <time>2014-10-04T13:24:31Z</time>
      </trkpt>
      <trkpt lat="44.95014" lon="5.52211">
        <ele>1844.91</ele>
        <time>2014-10-04T13:24:32Z</time>
      </trkpt>
      <trkpt lat="44.95018" lon="5.52216">
        <ele>1842.5</ele>
        <time>2014-10-04T13:24:40Z</time>
      </trkpt>
      <trkpt lat="44.95024" lon="5.52213">
        <ele>1840.1</ele>
        <time>2014-10-04T13:24:48Z</time>
      </trkpt>
      <trkpt lat="44.95028" lon="5.52213">
        <ele>1837.22</ele>
        <time>2014-10-04T13:24:58Z</time>
      </trkpt>
      <trkpt lat="44.95037" lon="5.52213">
        <ele>1834.33</ele>
        <time>2014-10-04T13:25:08Z</time>
      </trkpt>
      <trkpt lat="44.95042" lon="5.52215">
        <ele>1831.93</ele>
        <time>2014-10-04T13:25:16Z</time>
      </trkpt>
      <trkpt lat="44.95048" lon="5.52217">
        <ele>1829.05</ele>
        <time>2014-10-04T13:25:25Z</time>
      </trkpt>
      <trkpt lat="44.95049" lon="5.52216">
        <ele>1826.64</ele>
        <time>2014-10-04T13:25:34Z</time>
      </trkpt>
      <trkpt lat="44.95049" lon="5.52217">
        <ele>1825.68</ele>
        <time>2014-10-04T13:25:46Z</time>
      </trkpt>
      <trkpt lat="44.95051" lon="5.52218">
        <ele>1823.76</ele>
        <time>2014-10-04T13:26:04Z</time>
      </trkpt>
      <trkpt lat="44.95054" lon="5.52221">
        <ele>1823.28</ele>
        <time>2014-10-04T13:26:16Z</time>
      </trkpt>
      <trkpt lat="44.95059" lon="5.52217">
        <ele>1823.28</ele>
        <time>2014-10-04T13:26:22Z</time>
      </trkpt>
      <trkpt lat="44.95062" lon="5.52214">
        <ele>1822.8</ele>
        <time>2014-10-04T13:26:25Z</time>
      </trkpt>
      <trkpt lat="44.95071" lon="5.52212">
        <ele>1821.84</ele>
        <time>2014-10-04T13:26:32Z</time>
      </trkpt>
      <trkpt lat="44.95077" lon="5.52211">
        <ele>1822.32</ele>
        <time>2014-10-04T13:26:38Z</time>
      </trkpt>
      <trkpt lat="44.95083" lon="5.52213">
        <ele>1821.35</ele>
        <time>2014-10-04T13:26:49Z</time>
      </trkpt>
      <trkpt lat="44.95087" lon="5.52212">
        <ele>1820.87</ele>
        <time>2014-10-04T13:26:52Z</time>
      </trkpt>
      <trkpt lat="44.95099" lon="5.52212">
        <ele>1819.91</ele>
        <time>2014-10-04T13:27:00Z</time>
      </trkpt>
      <trkpt lat="44.95099" lon="5.52212">
        <ele>1819.91</ele>
        <time>2014-10-04T13:27:02Z</time>
      </trkpt>
      <trkpt lat="44.95102" lon="5.5221">
        <ele>1819.91</ele>
        <time>2014-10-04T13:27:04Z</time>
      </trkpt>
      <trkpt lat="44.95105" lon="5.52208">
        <ele>1820.39</ele>
        <time>2014-10-04T13:27:06Z</time>
      </trkpt>
      <trkpt lat="44.95108" lon="5.52202">
        <ele>1821.35</ele>
        <time>2014-10-04T13:27:13Z</time>
      </trkpt>
      <trkpt lat="44.9511" lon="5.52199">
        <ele>1821.35</ele>
        <time>2014-10-04T13:27:25Z</time>
      </trkpt>
      <trkpt lat="44.9511" lon="5.52199">
        <ele>1821.35</ele>
        <time>2014-10-04T13:27:29Z</time>
      </trkpt>
      <trkpt lat="44.9511" lon="5.52199">
        <ele>1820.87</ele>
        <time>2014-10-04T13:27:38Z</time>
      </trkpt>
      <trkpt lat="44.95109" lon="5.52201">
        <ele>1820.87</ele>
        <time>2014-10-04T13:27:40Z</time>
      </trkpt>
      <trkpt lat="44.95106" lon="5.52208">
        <ele>1820.87</ele>
        <time>2014-10-04T13:27:44Z</time>
      </trkpt>
      <trkpt lat="44.95105" lon="5.52213">
        <ele>1820.87</ele>
        <time>2014-10-04T13:27:49Z</time>
      </trkpt>
      <trkpt lat="44.95104" lon="5.52218">
        <ele>1821.84</ele>
        <time>2014-10-04T13:27:54Z</time>
      </trkpt>
      <trkpt lat="44.95105" lon="5.52223">
        <ele>1823.28</ele>
        <time>2014-10-04T13:27:59Z</time>
      </trkpt>
      <trkpt lat="44.95106" lon="5.52227">
        <ele>1824.24</ele>
        <time>2014-10-04T13:28:03Z</time>
      </trkpt>
      <trkpt lat="44.95108" lon="5.52229">
        <ele>1824.72</ele>
        <time>2014-10-04T13:28:06Z</time>
      </trkpt>
      <trkpt lat="44.95111" lon="5.52227">
        <ele>1824.72</ele>
        <time>2014-10-04T13:28:12Z</time>
      </trkpt>
      <trkpt lat="44.95114" lon="5.52226">
        <ele>1825.68</ele>
        <time>2014-10-04T13:28:16Z</time>
      </trkpt>
      <trkpt lat="44.95121" lon="5.5222">
        <ele>1827.6</ele>
        <time>2014-10-04T13:28:26Z</time>
      </trkpt>
      <trkpt lat="44.95121" lon="5.52219">
        <ele>1827.6</ele>
        <time>2014-10-04T13:28:28Z</time>
      </trkpt>
      <trkpt lat="44.95129" lon="5.52215">
        <ele>1830.01</ele>
        <time>2014-10-04T13:28:37Z</time>
      </trkpt>
      <trkpt lat="44.95134" lon="5.52211">
        <ele>1831.45</ele>
        <time>2014-10-04T13:28:45Z</time>
      </trkpt>
      <trkpt lat="44.95137" lon="5.52209">
        <ele>1832.41</ele>
        <time>2014-10-04T13:28:50Z</time>
      </trkpt>
      <trkpt lat="44.95143" lon="5.52206">
        <ele>1833.85</ele>
        <time>2014-10-04T13:28:59Z</time>
      </trkpt>
      <trkpt lat="44.95146" lon="5.52206">
        <ele>1835.77</ele>
        <time>2014-10-04T13:29:06Z</time>
      </trkpt>
      <trkpt lat="44.95152" lon="5.52204">
        <ele>1837.22</ele>
        <time>2014-10-04T13:29:15Z</time>
      </trkpt>
      <trkpt lat="44.95156" lon="5.52203">
        <ele>1838.66</ele>
        <time>2014-10-04T13:29:21Z</time>
      </trkpt>
      <trkpt lat="44.95159" lon="5.52205">
        <ele>1840.1</ele>
        <time>2014-10-04T13:29:27Z</time>
      </trkpt>
      <trkpt lat="44.95163" lon="5.52209">
        <ele>1842.98</ele>
        <time>2014-10-04T13:29:37Z</time>
      </trkpt>
      <trkpt lat="44.95164" lon="5.5221">
        <ele>1842.98</ele>
        <time>2014-10-04T13:29:39Z</time>
      </trkpt>
      <trkpt lat="44.9517" lon="5.52213">
        <ele>1844.91</ele>
        <time>2014-10-04T13:29:48Z</time>
      </trkpt>
      <trkpt lat="44.95172" lon="5.52216">
        <ele>1846.35</ele>
        <time>2014-10-04T13:29:55Z</time>
      </trkpt>
      <trkpt lat="44.95176" lon="5.52219">
        <ele>1848.27</ele>
        <time>2014-10-04T13:30:04Z</time>
      </trkpt>
      <trkpt lat="44.95178" lon="5.52219">
        <ele>1848.27</ele>
        <time>2014-10-04T13:30:17Z</time>
      </trkpt>
      <trkpt lat="44.9518" lon="5.52221">
        <ele>1848.75</ele>
        <time>2014-10-04T13:30:46Z</time>
      </trkpt>
      <trkpt lat="44.95184" lon="5.52224">
        <ele>1851.16</ele>
        <time>2014-10-04T13:30:55Z</time>
      </trkpt>
      <trkpt lat="44.9519" lon="5.52231">
        <ele>1852.6</ele>
        <time>2014-10-04T13:31:03Z</time>
      </trkpt>
      <trkpt lat="44.9519" lon="5.52231">
        <ele>1853.08</ele>
        <time>2014-10-04T13:31:04Z</time>
      </trkpt>
      <trkpt lat="44.95196" lon="5.52233">
        <ele>1854.04</ele>
        <time>2014-10-04T13:31:13Z</time>
      </trkpt>
      <trkpt lat="44.95201" lon="5.52236">
        <ele>1855.96</ele>
        <time>2014-10-04T13:31:22Z</time>
      </trkpt>
      <trkpt lat="44.95206" lon="5.52239">
        <ele>1856.92</ele>
        <time>2014-10-04T13:31:26Z</time>
      </trkpt>
      <trkpt lat="44.9521" lon="5.5224">
        <ele>1857.4</ele>
        <time>2014-10-04T13:31:29Z</time>
      </trkpt>
      <trkpt lat="44.95212" lon="5.52242">
        <ele>1858.37</ele>
        <time>2014-10-04T13:31:32Z</time>
      </trkpt>
      <trkpt lat="44.95216" lon="5.52246">
        <ele>1860.29</ele>
        <time>2014-10-04T13:31:41Z</time>
      </trkpt>
      <trkpt lat="44.95221" lon="5.52251">
        <ele>1861.73</ele>
        <time>2014-10-04T13:31:49Z</time>
      </trkpt>
      <trkpt lat="44.95224" lon="5.52255">
        <ele>1863.17</ele>
        <time>2014-10-04T13:31:56Z</time>
      </trkpt>
      <trkpt lat="44.95231" lon="5.52261">
        <ele>1865.09</ele>
        <time>2014-10-04T13:32:05Z</time>
      </trkpt>
      <trkpt lat="44.95234" lon="5.52263">
        <ele>1865.58</ele>
        <time>2014-10-04T13:32:08Z</time>
      </trkpt>
      <trkpt lat="44.95236" lon="5.52267">
        <ele>1867.5</ele>
        <time>2014-10-04T13:32:17Z</time>
      </trkpt>
      <trkpt lat="44.95238" lon="5.52269">
        <ele>1868.46</ele>
        <time>2014-10-04T13:32:23Z</time>
      </trkpt>
      <trkpt lat="44.95244" lon="5.52273">
        <ele>1870.38</ele>
        <time>2014-10-04T13:32:33Z</time>
      </trkpt>
      <trkpt lat="44.9525" lon="5.52275">
        <ele>1871.82</ele>
        <time>2014-10-04T13:32:41Z</time>
      </trkpt>
      <trkpt lat="44.95251" lon="5.52277">
        <ele>1872.3</ele>
        <time>2014-10-04T13:32:46Z</time>
      </trkpt>
      <trkpt lat="44.95253" lon="5.52277">
        <ele>1875.19</ele>
        <time>2014-10-04T13:32:55Z</time>
      </trkpt>
      <trkpt lat="44.95255" lon="5.52275">
        <ele>1875.19</ele>
        <time>2014-10-04T13:33:06Z</time>
      </trkpt>
      <trkpt lat="44.95255" lon="5.52275">
        <ele>1875.67</ele>
        <time>2014-10-04T13:33:17Z</time>
      </trkpt>
      <trkpt lat="44.95258" lon="5.52273">
        <ele>1877.59</ele>
        <time>2014-10-04T13:33:26Z</time>
      </trkpt>
      <trkpt lat="44.95259" lon="5.52271">
        <ele>1877.59</ele>
        <time>2014-10-04T13:33:27Z</time>
      </trkpt>
      <trkpt lat="44.95261" lon="5.52266">
        <ele>1877.11</ele>
        <time>2014-10-04T13:33:32Z</time>
      </trkpt>
      <trkpt lat="44.9527" lon="5.52262">
        <ele>1877.59</ele>
        <time>2014-10-04T13:33:40Z</time>
      </trkpt>
      <trkpt lat="44.9527" lon="5.52262">
        <ele>1878.07</ele>
        <time>2014-10-04T13:34:04Z</time>
      </trkpt>
      <trkpt lat="44.95277" lon="5.52261">
        <ele>1879.03</ele>
        <time>2014-10-04T13:34:12Z</time>
      </trkpt>
      <trkpt lat="44.95283" lon="5.52261">
        <ele>1880.48</ele>
        <time>2014-10-04T13:34:20Z</time>
      </trkpt>
      <trkpt lat="44.95289" lon="5.52261">
        <ele>1880.96</ele>
        <time>2014-10-04T13:34:27Z</time>
      </trkpt>
      <trkpt lat="44.95292" lon="5.52262">
        <ele>1881.44</ele>
        <time>2014-10-04T13:34:30Z</time>
      </trkpt>
      <trkpt lat="44.95296" lon="5.52263">
        <ele>1881.92</ele>
        <time>2014-10-04T13:34:33Z</time>
      </trkpt>
      <trkpt lat="44.95304" lon="5.52264">
        <ele>1883.36</ele>
        <time>2014-10-04T13:34:42Z</time>
      </trkpt>
      <trkpt lat="44.95312" lon="5.52262">
        <ele>1883.84</ele>
        <time>2014-10-04T13:34:50Z</time>
      </trkpt>
      <trkpt lat="44.95317" lon="5.52262">
        <ele>1884.32</ele>
        <time>2014-10-04T13:34:57Z</time>
      </trkpt>
      <trkpt lat="44.95318" lon="5.52263">
        <ele>1885.28</ele>
        <time>2014-10-04T13:35:02Z</time>
      </trkpt>
      <trkpt lat="44.9532" lon="5.52264">
        <ele>1886.24</ele>
        <time>2014-10-04T13:35:05Z</time>
      </trkpt>
      <trkpt lat="44.95327" lon="5.52267">
        <ele>1886.72</ele>
        <time>2014-10-04T13:35:13Z</time>
      </trkpt>
      <trkpt lat="44.95327" lon="5.52267">
        <ele>1886.72</ele>
        <time>2014-10-04T13:35:14Z</time>
      </trkpt>
      <trkpt lat="44.95328" lon="5.52268">
        <ele>1887.69</ele>
        <time>2014-10-04T13:35:17Z</time>
      </trkpt>
      <trkpt lat="44.95329" lon="5.5227">
        <ele>1888.17</ele>
        <time>2014-10-04T13:35:20Z</time>
      </trkpt>
      <trkpt lat="44.95335" lon="5.52273">
        <ele>1889.13</ele>
        <time>2014-10-04T13:35:28Z</time>
      </trkpt>
      <trkpt lat="44.95337" lon="5.52275">
        <ele>1890.09</ele>
        <time>2014-10-04T13:35:38Z</time>
      </trkpt>
      <trkpt lat="44.95337" lon="5.52273">
        <ele>1888.65</ele>
        <time>2014-10-04T13:35:49Z</time>
      </trkpt>
      <trkpt lat="44.95337" lon="5.52274">
        <ele>1888.17</ele>
        <time>2014-10-04T13:35:51Z</time>
      </trkpt>
      <trkpt lat="44.95343" lon="5.52279">
        <ele>1888.17</ele>
        <time>2014-10-04T13:36:00Z</time>
      </trkpt>
      <trkpt lat="44.95347" lon="5.52284">
        <ele>1888.65</ele>
        <time>2014-10-04T13:36:07Z</time>
      </trkpt>
      <trkpt lat="44.95352" lon="5.52289">
        <ele>1889.61</ele>
        <time>2014-10-04T13:36:15Z</time>
      </trkpt>
      <trkpt lat="44.95353" lon="5.52291">
        <ele>1890.09</ele>
        <time>2014-10-04T13:36:17Z</time>
      </trkpt>
      <trkpt lat="44.9536" lon="5.52295">
        <ele>1890.09</ele>
        <time>2014-10-04T13:36:27Z</time>
      </trkpt>
      <trkpt lat="44.95361" lon="5.52295">
        <ele>1889.61</ele>
        <time>2014-10-04T13:36:30Z</time>
      </trkpt>
      <trkpt lat="44.95368" lon="5.523">
        <ele>1888.65</ele>
        <time>2014-10-04T13:36:40Z</time>
      </trkpt>
      <trkpt lat="44.95372" lon="5.52301">
        <ele>1887.69</ele>
        <time>2014-10-04T13:36:46Z</time>
      </trkpt>
      <trkpt lat="44.95377" lon="5.523">
        <ele>1887.21</ele>
        <time>2014-10-04T13:36:50Z</time>
      </trkpt>
      <trkpt lat="44.95383" lon="5.52302">
        <ele>1887.69</ele>
        <time>2014-10-04T13:36:55Z</time>
      </trkpt>
      <trkpt lat="44.95393" lon="5.52303">
        <ele>1888.17</ele>
        <time>2014-10-04T13:37:05Z</time>
      </trkpt>
      <trkpt lat="44.95395" lon="5.52304">
        <ele>1888.65</ele>
        <time>2014-10-04T13:37:06Z</time>
      </trkpt>
      <trkpt lat="44.95402" lon="5.52305">
        <ele>1889.13</ele>
        <time>2014-10-04T13:37:14Z</time>
      </trkpt>
      <trkpt lat="44.95405" lon="5.52305">
        <ele>1889.61</ele>
        <time>2014-10-04T13:37:18Z</time>
      </trkpt>
      <trkpt lat="44.9541" lon="5.52304">
        <ele>1890.57</ele>
        <time>2014-10-04T13:37:22Z</time>
      </trkpt>
      <trkpt lat="44.95414" lon="5.52304">
        <ele>1890.57</ele>
        <time>2014-10-04T13:37:26Z</time>
      </trkpt>
      <trkpt lat="44.95424" lon="5.52301">
        <ele>1892.01</ele>
        <time>2014-10-04T13:37:37Z</time>
      </trkpt>
      <trkpt lat="44.95427" lon="5.523">
        <ele>1892.49</ele>
        <time>2014-10-04T13:37:40Z</time>
      </trkpt>
      <trkpt lat="44.9543" lon="5.52297">
        <ele>1892.49</ele>
        <time>2014-10-04T13:37:47Z</time>
      </trkpt>
      <trkpt lat="44.95439" lon="5.52294">
        <ele>1893.45</ele>
        <time>2014-10-04T13:37:56Z</time>
      </trkpt>
      <trkpt lat="44.9544" lon="5.52294">
        <ele>1893.45</ele>
        <time>2014-10-04T13:37:57Z</time>
      </trkpt>
      <trkpt lat="44.95447" lon="5.52289">
        <ele>1892.49</ele>
        <time>2014-10-04T13:38:02Z</time>
      </trkpt>
      <trkpt lat="44.95455" lon="5.52285">
        <ele>1892.49</ele>
        <time>2014-10-04T13:38:10Z</time>
      </trkpt>
      <trkpt lat="44.95461" lon="5.52283">
        <ele>1893.45</ele>
        <time>2014-10-04T13:38:18Z</time>
      </trkpt>
      <trkpt lat="44.95468" lon="5.52281">
        <ele>1894.42</ele>
        <time>2014-10-04T13:38:27Z</time>
      </trkpt>
      <trkpt lat="44.95473" lon="5.52278">
        <ele>1895.38</ele>
        <time>2014-10-04T13:38:34Z</time>
      </trkpt>
      <trkpt lat="44.95475" lon="5.52276">
        <ele>1895.86</ele>
        <time>2014-10-04T13:38:37Z</time>
      </trkpt>
      <trkpt lat="44.95481" lon="5.52271">
        <ele>1896.34</ele>
        <time>2014-10-04T13:38:45Z</time>
      </trkpt>
      <trkpt lat="44.95482" lon="5.5227">
        <ele>1895.86</ele>
        <time>2014-10-04T13:38:47Z</time>
      </trkpt>
      <trkpt lat="44.95486" lon="5.52264">
        <ele>1897.3</ele>
        <time>2014-10-04T13:38:58Z</time>
      </trkpt>
      <trkpt lat="44.9549" lon="5.52261">
        <ele>1899.22</ele>
        <time>2014-10-04T13:39:08Z</time>
      </trkpt>
      <trkpt lat="44.95494" lon="5.52253">
        <ele>1900.18</ele>
        <time>2014-10-04T13:39:17Z</time>
      </trkpt>
      <trkpt lat="44.95497" lon="5.52252">
        <ele>1899.7</ele>
        <time>2014-10-04T13:39:36Z</time>
      </trkpt>
      <trkpt lat="44.95497" lon="5.52252">
        <ele>1899.7</ele>
        <time>2014-10-04T13:40:02Z</time>
      </trkpt>
      <trkpt lat="44.95497" lon="5.52251">
        <ele>1899.7</ele>
        <time>2014-10-04T13:40:09Z</time>
      </trkpt>
      <trkpt lat="44.955" lon="5.52247">
        <ele>1900.66</ele>
        <time>2014-10-04T13:40:14Z</time>
      </trkpt>
      <trkpt lat="44.95503" lon="5.52242">
        <ele>1901.14</ele>
        <time>2014-10-04T13:40:17Z</time>
      </trkpt>
      <trkpt lat="44.95505" lon="5.52241">
        <ele>1901.14</ele>
        <time>2014-10-04T13:40:19Z</time>
      </trkpt>
      <trkpt lat="44.95514" lon="5.52233">
        <ele>1901.14</ele>
        <time>2014-10-04T13:40:26Z</time>
      </trkpt>
      <trkpt lat="44.95517" lon="5.52229">
        <ele>1902.11</ele>
        <time>2014-10-04T13:40:30Z</time>
      </trkpt>
      <trkpt lat="44.95524" lon="5.52226">
        <ele>1904.03</ele>
        <time>2014-10-04T13:40:39Z</time>
      </trkpt>
      <trkpt lat="44.95529" lon="5.52225">
        <ele>1904.51</ele>
        <time>2014-10-04T13:40:45Z</time>
      </trkpt>
      <trkpt lat="44.95538" lon="5.52227">
        <ele>1905.95</ele>
        <time>2014-10-04T13:40:54Z</time>
      </trkpt>
      <trkpt lat="44.95542" lon="5.5223">
        <ele>1905.47</ele>
        <time>2014-10-04T13:41:02Z</time>
      </trkpt>
      <trkpt lat="44.95544" lon="5.5223">
        <ele>1904.99</ele>
        <time>2014-10-04T13:41:09Z</time>
      </trkpt>
      <trkpt lat="44.95551" lon="5.52229">
        <ele>1902.11</ele>
        <time>2014-10-04T13:41:17Z</time>
      </trkpt>
      <trkpt lat="44.95553" lon="5.5223">
        <ele>1900.18</ele>
        <time>2014-10-04T13:41:26Z</time>
      </trkpt>
      <trkpt lat="44.95554" lon="5.52232">
        <ele>1898.74</ele>
        <time>2014-10-04T13:41:32Z</time>
      </trkpt>
      <trkpt lat="44.95556" lon="5.52231">
        <ele>1897.78</ele>
        <time>2014-10-04T13:41:36Z</time>
      </trkpt>
      <trkpt lat="44.95559" lon="5.52231">
        <ele>1898.74</ele>
        <time>2014-10-04T13:41:39Z</time>
      </trkpt>
      <trkpt lat="44.95561" lon="5.52229">
        <ele>1898.26</ele>
        <time>2014-10-04T13:41:43Z</time>
      </trkpt>
      <trkpt lat="44.95562" lon="5.5223">
        <ele>1899.22</ele>
        <time>2014-10-04T13:41:51Z</time>
      </trkpt>
      <trkpt lat="44.95565" lon="5.5223">
        <ele>1900.18</ele>
        <time>2014-10-04T13:41:58Z</time>
      </trkpt>
      <trkpt lat="44.9557" lon="5.52231">
        <ele>1902.59</ele>
        <time>2014-10-04T13:42:06Z</time>
      </trkpt>
      <trkpt lat="44.95571" lon="5.52231">
        <ele>1902.59</ele>
        <time>2014-10-04T13:42:08Z</time>
      </trkpt>
      <trkpt lat="44.95581" lon="5.52228">
        <ele>1902.59</ele>
        <time>2014-10-04T13:42:17Z</time>
      </trkpt>
      <trkpt lat="44.95584" lon="5.52229">
        <ele>1902.59</ele>
        <time>2014-10-04T13:42:21Z</time>
      </trkpt>
      <trkpt lat="44.95586" lon="5.52229">
        <ele>1901.63</ele>
        <time>2014-10-04T13:42:35Z</time>
      </trkpt>
      <trkpt lat="44.95586" lon="5.5223">
        <ele>1901.63</ele>
        <time>2014-10-04T13:42:36Z</time>
      </trkpt>
      <trkpt lat="44.9559" lon="5.52238">
        <ele>1901.63</ele>
        <time>2014-10-04T13:42:42Z</time>
      </trkpt>
      <trkpt lat="44.95592" lon="5.52244">
        <ele>1902.11</ele>
        <time>2014-10-04T13:42:47Z</time>
      </trkpt>
      <trkpt lat="44.95594" lon="5.5225">
        <ele>1902.11</ele>
        <time>2014-10-04T13:42:58Z</time>
      </trkpt>
      <trkpt lat="44.95595" lon="5.5225">
        <ele>1903.07</ele>
        <time>2014-10-04T13:43:10Z</time>
      </trkpt>
      <trkpt lat="44.95602" lon="5.52259">
        <ele>1901.63</ele>
        <time>2014-10-04T13:43:18Z</time>
      </trkpt>
      <trkpt lat="44.95605" lon="5.52262">
        <ele>1901.63</ele>
        <time>2014-10-04T13:43:21Z</time>
      </trkpt>
      <trkpt lat="44.95615" lon="5.52269">
        <ele>1901.14</ele>
        <time>2014-10-04T13:43:30Z</time>
      </trkpt>
      <trkpt lat="44.95622" lon="5.52272">
        <ele>1901.14</ele>
        <time>2014-10-04T13:43:37Z</time>
      </trkpt>
      <trkpt lat="44.95628" lon="5.52278">
        <ele>1901.63</ele>
        <time>2014-10-04T13:43:43Z</time>
      </trkpt>
      <trkpt lat="44.95636" lon="5.52286">
        <ele>1900.18</ele>
        <time>2014-10-04T13:43:53Z</time>
      </trkpt>
      <trkpt lat="44.95643" lon="5.52293">
        <ele>1900.66</ele>
        <time>2014-10-04T13:44:02Z</time>
      </trkpt>
      <trkpt lat="44.9565" lon="5.52297">
        <ele>1899.7</ele>
        <time>2014-10-04T13:44:10Z</time>
      </trkpt>
      <trkpt lat="44.95659" lon="5.52304">
        <ele>1899.22</ele>
        <time>2014-10-04T13:44:18Z</time>
      </trkpt>
      <trkpt lat="44.9566" lon="5.52306">
        <ele>1899.7</ele>
        <time>2014-10-04T13:44:28Z</time>
      </trkpt>
      <trkpt lat="44.95661" lon="5.52306">
        <ele>1899.7</ele>
        <time>2014-10-04T13:45:07Z</time>
      </trkpt>
      <trkpt lat="44.95663" lon="5.52307">
        <ele>1899.22</ele>
        <time>2014-10-04T13:45:13Z</time>
      </trkpt>
      <trkpt lat="44.95671" lon="5.52313">
        <ele>1898.74</ele>
        <time>2014-10-04T13:45:22Z</time>
      </trkpt>
      <trkpt lat="44.95677" lon="5.52318">
        <ele>1898.26</ele>
        <time>2014-10-04T13:45:28Z</time>
      </trkpt>
      <trkpt lat="44.95687" lon="5.52326">
        <ele>1897.3</ele>
        <time>2014-10-04T13:45:39Z</time>
      </trkpt>
      <trkpt lat="44.95689" lon="5.52327">
        <ele>1897.3</ele>
        <time>2014-10-04T13:45:41Z</time>
      </trkpt>
      <trkpt lat="44.95694" lon="5.52331">
        <ele>1896.34</ele>
        <time>2014-10-04T13:45:49Z</time>
      </trkpt>
      <trkpt lat="44.95697" lon="5.52335">
        <ele>1896.34</ele>
        <time>2014-10-04T13:45:53Z</time>
      </trkpt>
      <trkpt lat="44.95699" lon="5.52336">
        <ele>1896.34</ele>
        <time>2014-10-04T13:45:55Z</time>
      </trkpt>
      <trkpt lat="44.95705" lon="5.52341">
        <ele>1895.38</ele>
        <time>2014-10-04T13:46:04Z</time>
      </trkpt>
      <trkpt lat="44.95706" lon="5.52342">
        <ele>1895.38</ele>
        <time>2014-10-04T13:46:06Z</time>
      </trkpt>
      <trkpt lat="44.95712" lon="5.52353">
        <ele>1895.38</ele>
        <time>2014-10-04T13:46:14Z</time>
      </trkpt>
      <trkpt lat="44.95714" lon="5.52354">
        <ele>1895.38</ele>
        <time>2014-10-04T13:46:16Z</time>
      </trkpt>
      <trkpt lat="44.95719" lon="5.52361">
        <ele>1895.38</ele>
        <time>2014-10-04T13:46:22Z</time>
      </trkpt>
      <trkpt lat="44.95728" lon="5.52364">
        <ele>1894.42</ele>
        <time>2014-10-04T13:46:29Z</time>
      </trkpt>
      <trkpt lat="44.95733" lon="5.52367">
        <ele>1892.97</ele>
        <time>2014-10-04T13:46:34Z</time>
      </trkpt>
      <trkpt lat="44.95734" lon="5.52371">
        <ele>1892.49</ele>
        <time>2014-10-04T13:46:36Z</time>
      </trkpt>
      <trkpt lat="44.9574" lon="5.52376">
        <ele>1891.05</ele>
        <time>2014-10-04T13:46:41Z</time>
      </trkpt>
      <trkpt lat="44.95744" lon="5.52382">
        <ele>1890.09</ele>
        <time>2014-10-04T13:46:47Z</time>
      </trkpt>
      <trkpt lat="44.95746" lon="5.52387">
        <ele>1889.61</ele>
        <time>2014-10-04T13:46:52Z</time>
      </trkpt>
      <trkpt lat="44.9575" lon="5.52393">
        <ele>1888.17</ele>
        <time>2014-10-04T13:46:58Z</time>
      </trkpt>
      <trkpt lat="44.95754" lon="5.52396">
        <ele>1885.28</ele>
        <time>2014-10-04T13:47:04Z</time>
      </trkpt>
      <trkpt lat="44.95763" lon="5.52401">
        <ele>1882.88</ele>
        <time>2014-10-04T13:47:12Z</time>
      </trkpt>
      <trkpt lat="44.95769" lon="5.52405">
        <ele>1880</ele>
        <time>2014-10-04T13:47:20Z</time>
      </trkpt>
      <trkpt lat="44.95772" lon="5.52405">
        <ele>1879.03</ele>
        <time>2014-10-04T13:47:23Z</time>
      </trkpt>
      <trkpt lat="44.95775" lon="5.52405">
        <ele>1877.59</ele>
        <time>2014-10-04T13:47:29Z</time>
      </trkpt>
      <trkpt lat="44.95779" lon="5.52405">
        <ele>1875.67</ele>
        <time>2014-10-04T13:47:35Z</time>
      </trkpt>
      <trkpt lat="44.95781" lon="5.52407">
        <ele>1875.19</ele>
        <time>2014-10-04T13:47:47Z</time>
      </trkpt>
      <trkpt lat="44.95781" lon="5.52407">
        <ele>1875.19</ele>
        <time>2014-10-04T13:48:18Z</time>
      </trkpt>
      <trkpt lat="44.95781" lon="5.52406">
        <ele>1875.19</ele>
        <time>2014-10-04T13:48:41Z</time>
      </trkpt>
      <trkpt lat="44.95784" lon="5.52408">
        <ele>1875.67</ele>
        <time>2014-10-04T13:48:46Z</time>
      </trkpt>
      <trkpt lat="44.95795" lon="5.52415">
        <ele>1875.19</ele>
        <time>2014-10-04T13:48:55Z</time>
      </trkpt>
      <trkpt lat="44.95801" lon="5.52417">
        <ele>1875.67</ele>
        <time>2014-10-04T13:49:00Z</time>
      </trkpt>
      <trkpt lat="44.95806" lon="5.52419">
        <ele>1875.19</ele>
        <time>2014-10-04T13:49:06Z</time>
      </trkpt>
      <trkpt lat="44.9581" lon="5.52425">
        <ele>1874.23</ele>
        <time>2014-10-04T13:49:12Z</time>
      </trkpt>
      <trkpt lat="44.95812" lon="5.52429">
        <ele>1874.71</ele>
        <time>2014-10-04T13:49:15Z</time>
      </trkpt>
      <trkpt lat="44.95815" lon="5.52431">
        <ele>1874.23</ele>
        <time>2014-10-04T13:49:18Z</time>
      </trkpt>
      <trkpt lat="44.95821" lon="5.52435">
        <ele>1872.79</ele>
        <time>2014-10-04T13:49:25Z</time>
      </trkpt>
      <trkpt lat="44.95832" lon="5.52441">
        <ele>1872.3</ele>
        <time>2014-10-04T13:49:34Z</time>
      </trkpt>
      <trkpt lat="44.95833" lon="5.52442">
        <ele>1872.3</ele>
        <time>2014-10-04T13:49:35Z</time>
      </trkpt>
      <trkpt lat="44.95838" lon="5.52445">
        <ele>1872.3</ele>
        <time>2014-10-04T13:49:39Z</time>
      </trkpt>
      <trkpt lat="44.95842" lon="5.52446">
        <ele>1872.3</ele>
        <time>2014-10-04T13:49:42Z</time>
      </trkpt>
      <trkpt lat="44.95847" lon="5.52449">
        <ele>1872.3</ele>
        <time>2014-10-04T13:49:47Z</time>
      </trkpt>
      <trkpt lat="44.9585" lon="5.52452">
        <ele>1872.79</ele>
        <time>2014-10-04T13:49:51Z</time>
      </trkpt>
      <trkpt lat="44.95854" lon="5.52453">
        <ele>1872.79</ele>
        <time>2014-10-04T13:49:55Z</time>
      </trkpt>
      <trkpt lat="44.95861" lon="5.52458">
        <ele>1873.75</ele>
        <time>2014-10-04T13:50:03Z</time>
      </trkpt>
      <trkpt lat="44.95862" lon="5.52458">
        <ele>1873.75</ele>
        <time>2014-10-04T13:50:05Z</time>
      </trkpt>
      <trkpt lat="44.95874" lon="5.52462">
        <ele>1874.23</ele>
        <time>2014-10-04T13:50:14Z</time>
      </trkpt>
      <trkpt lat="44.95878" lon="5.52462">
        <ele>1874.23</ele>
        <time>2014-10-04T13:50:17Z</time>
      </trkpt>
      <trkpt lat="44.95881" lon="5.52463">
        <ele>1875.19</ele>
        <time>2014-10-04T13:50:20Z</time>
      </trkpt>
      <trkpt lat="44.9589" lon="5.52463">
        <ele>1876.15</ele>
        <time>2014-10-04T13:50:28Z</time>
      </trkpt>
      <trkpt lat="44.95898" lon="5.52465">
        <ele>1877.11</ele>
        <time>2014-10-04T13:50:36Z</time>
      </trkpt>
      <trkpt lat="44.95903" lon="5.52465">
        <ele>1879.51</ele>
        <time>2014-10-04T13:50:44Z</time>
      </trkpt>
      <trkpt lat="44.95911" lon="5.52462">
        <ele>1879.51</ele>
        <time>2014-10-04T13:50:51Z</time>
      </trkpt>
      <trkpt lat="44.95917" lon="5.52459">
        <ele>1880.96</ele>
        <time>2014-10-04T13:50:58Z</time>
      </trkpt>
      <trkpt lat="44.95921" lon="5.52457">
        <ele>1882.88</ele>
        <time>2014-10-04T13:51:06Z</time>
      </trkpt>
      <trkpt lat="44.95922" lon="5.52457">
        <ele>1883.36</ele>
        <time>2014-10-04T13:51:08Z</time>
      </trkpt>
      <trkpt lat="44.95924" lon="5.52455">
        <ele>1884.32</ele>
        <time>2014-10-04T13:51:10Z</time>
      </trkpt>
      <trkpt lat="44.95929" lon="5.52452">
        <ele>1885.28</ele>
        <time>2014-10-04T13:51:16Z</time>
      </trkpt>
      <trkpt lat="44.9593" lon="5.52449">
        <ele>1885.28</ele>
        <time>2014-10-04T13:51:19Z</time>
      </trkpt>
      <trkpt lat="44.95933" lon="5.52446">
        <ele>1885.76</ele>
        <time>2014-10-04T13:51:24Z</time>
      </trkpt>
      <trkpt lat="44.95939" lon="5.52441">
        <ele>1887.69</ele>
        <time>2014-10-04T13:51:33Z</time>
      </trkpt>
      <trkpt lat="44.95944" lon="5.52436">
        <ele>1888.65</ele>
        <time>2014-10-04T13:51:39Z</time>
      </trkpt>
      <trkpt lat="44.95951" lon="5.52437">
        <ele>1889.13</ele>
        <time>2014-10-04T13:51:46Z</time>
      </trkpt>
      <trkpt lat="44.9596" lon="5.52433">
        <ele>1888.17</ele>
        <time>2014-10-04T13:51:54Z</time>
      </trkpt>
      <trkpt lat="44.95966" lon="5.52434">
        <ele>1888.17</ele>
        <time>2014-10-04T13:51:59Z</time>
      </trkpt>
      <trkpt lat="44.95968" lon="5.52435">
        <ele>1888.65</ele>
        <time>2014-10-04T13:52:01Z</time>
      </trkpt>
      <trkpt lat="44.95978" lon="5.52439">
        <ele>1888.17</ele>
        <time>2014-10-04T13:52:10Z</time>
      </trkpt>
      <trkpt lat="44.95978" lon="5.52439">
        <ele>1887.69</ele>
        <time>2014-10-04T13:52:11Z</time>
      </trkpt>
      <trkpt lat="44.95986" lon="5.52445">
        <ele>1887.69</ele>
        <time>2014-10-04T13:52:19Z</time>
      </trkpt>
      <trkpt lat="44.95994" lon="5.52453">
        <ele>1886.72</ele>
        <time>2014-10-04T13:52:27Z</time>
      </trkpt>
      <trkpt lat="44.95999" lon="5.52457">
        <ele>1886.72</ele>
        <time>2014-10-04T13:52:32Z</time>
      </trkpt>
      <trkpt lat="44.96004" lon="5.52465">
        <ele>1886.24</ele>
        <time>2014-10-04T13:52:37Z</time>
      </trkpt>
      <trkpt lat="44.9601" lon="5.52478">
        <ele>1886.24</ele>
        <time>2014-10-04T13:52:46Z</time>
      </trkpt>
      <trkpt lat="44.96012" lon="5.52481">
        <ele>1886.24</ele>
        <time>2014-10-04T13:52:50Z</time>
      </trkpt>
      <trkpt lat="44.96018" lon="5.5249">
        <ele>1884.8</ele>
        <time>2014-10-04T13:53:00Z</time>
      </trkpt>
      <trkpt lat="44.96019" lon="5.52492">
        <ele>1884.8</ele>
        <time>2014-10-04T13:53:11Z</time>
      </trkpt>
      <trkpt lat="44.9602" lon="5.52493">
        <ele>1885.76</ele>
        <time>2014-10-04T13:53:17Z</time>
      </trkpt>
      <trkpt lat="44.96022" lon="5.52492">
        <ele>1886.24</ele>
        <time>2014-10-04T13:53:20Z</time>
      </trkpt>
      <trkpt lat="44.96026" lon="5.5249">
        <ele>1886.24</ele>
        <time>2014-10-04T13:53:25Z</time>
      </trkpt>
      <trkpt lat="44.96029" lon="5.5249">
        <ele>1889.13</ele>
        <time>2014-10-04T13:53:34Z</time>
      </trkpt>
      <trkpt lat="44.9603" lon="5.52489">
        <ele>1889.13</ele>
        <time>2014-10-04T13:53:40Z</time>
      </trkpt>
      <trkpt lat="44.96038" lon="5.52478">
        <ele>1889.61</ele>
        <time>2014-10-04T13:53:49Z</time>
      </trkpt>
      <trkpt lat="44.96043" lon="5.52475">
        <ele>1889.13</ele>
        <time>2014-10-04T13:53:57Z</time>
      </trkpt>
      <trkpt lat="44.96052" lon="5.52472">
        <ele>1889.13</ele>
        <time>2014-10-04T13:54:04Z</time>
      </trkpt>
      <trkpt lat="44.96062" lon="5.52463">
        <ele>1889.13</ele>
        <time>2014-10-04T13:54:14Z</time>
      </trkpt>
      <trkpt lat="44.96063" lon="5.52461">
        <ele>1889.61</ele>
        <time>2014-10-04T13:54:28Z</time>
      </trkpt>
      <trkpt lat="44.96063" lon="5.52461">
        <ele>1884.8</ele>
        <time>2014-10-04T13:54:31Z</time>
      </trkpt>
      <trkpt lat="44.96063" lon="5.52461">
        <ele>1892.49</ele>
        <time>2014-10-04T13:54:32Z</time>
      </trkpt>
      <trkpt lat="44.96063" lon="5.52461">
        <ele>1888.65</ele>
        <time>2014-10-04T13:54:33Z</time>
      </trkpt>
      <trkpt lat="44.96067" lon="5.52459">
        <ele>1888.65</ele>
        <time>2014-10-04T13:54:41Z</time>
      </trkpt>
      <trkpt lat="44.9607" lon="5.52458">
        <ele>1887.69</ele>
        <time>2014-10-04T13:54:46Z</time>
      </trkpt>
      <trkpt lat="44.96078" lon="5.52454">
        <ele>1887.69</ele>
        <time>2014-10-04T13:54:55Z</time>
      </trkpt>
      <trkpt lat="44.96079" lon="5.52453">
        <ele>1887.69</ele>
        <time>2014-10-04T13:54:56Z</time>
      </trkpt>
      <trkpt lat="44.96083" lon="5.5245">
        <ele>1888.17</ele>
        <time>2014-10-04T13:55:03Z</time>
      </trkpt>
      <trkpt lat="44.9609" lon="5.52444">
        <ele>1888.17</ele>
        <time>2014-10-04T13:55:10Z</time>
      </trkpt>
      <trkpt lat="44.96092" lon="5.52443">
        <ele>1888.17</ele>
        <time>2014-10-04T13:55:12Z</time>
      </trkpt>
      <trkpt lat="44.96094" lon="5.52443">
        <ele>1888.65</ele>
        <time>2014-10-04T13:55:14Z</time>
      </trkpt>
      <trkpt lat="44.96098" lon="5.52441">
        <ele>1889.13</ele>
        <time>2014-10-04T13:55:19Z</time>
      </trkpt>
      <trkpt lat="44.96106" lon="5.52439">
        <ele>1889.61</ele>
        <time>2014-10-04T13:55:28Z</time>
      </trkpt>
      <trkpt lat="44.9611" lon="5.52439">
        <ele>1890.57</ele>
        <time>2014-10-04T13:55:34Z</time>
      </trkpt>
      <trkpt lat="44.96113" lon="5.52437">
        <ele>1891.53</ele>
        <time>2014-10-04T13:55:41Z</time>
      </trkpt>
      <trkpt lat="44.96115" lon="5.52437">
        <ele>1892.49</ele>
        <time>2014-10-04T13:55:44Z</time>
      </trkpt>
      <trkpt lat="44.96117" lon="5.52437">
        <ele>1892.49</ele>
        <time>2014-10-04T13:55:47Z</time>
      </trkpt>
      <trkpt lat="44.9612" lon="5.52436">
        <ele>1892.49</ele>
        <time>2014-10-04T13:55:51Z</time>
      </trkpt>
      <trkpt lat="44.96123" lon="5.52437">
        <ele>1892.49</ele>
        <time>2014-10-04T13:55:55Z</time>
      </trkpt>
      <trkpt lat="44.96135" lon="5.52438">
        <ele>1892.49</ele>
        <time>2014-10-04T13:56:05Z</time>
      </trkpt>
      <trkpt lat="44.96137" lon="5.52438">
        <ele>1891.53</ele>
        <time>2014-10-04T13:56:20Z</time>
      </trkpt>
      <trkpt lat="44.96137" lon="5.52439">
        <ele>1892.49</ele>
        <time>2014-10-04T13:56:25Z</time>
      </trkpt>
      <trkpt lat="44.96137" lon="5.52442">
        <ele>1892.97</ele>
        <time>2014-10-04T13:56:28Z</time>
      </trkpt>
      <trkpt lat="44.96138" lon="5.52443">
        <ele>1893.93</ele>
        <time>2014-10-04T13:56:31Z</time>
      </trkpt>
      <trkpt lat="44.96138" lon="5.52446">
        <ele>1894.9</ele>
        <time>2014-10-04T13:56:34Z</time>
      </trkpt>
      <trkpt lat="44.96139" lon="5.52451">
        <ele>1895.86</ele>
        <time>2014-10-04T13:56:40Z</time>
      </trkpt>
      <trkpt lat="44.96144" lon="5.52464">
        <ele>1896.82</ele>
        <time>2014-10-04T13:56:49Z</time>
      </trkpt>
      <trkpt lat="44.96144" lon="5.52464">
        <ele>1896.82</ele>
        <time>2014-10-04T13:56:51Z</time>
      </trkpt>
      <trkpt lat="44.96148" lon="5.52472">
        <ele>1897.3</ele>
        <time>2014-10-04T13:57:01Z</time>
      </trkpt>
      <trkpt lat="44.9615" lon="5.52473">
        <ele>1897.78</ele>
        <time>2014-10-04T13:57:04Z</time>
      </trkpt>
      <trkpt lat="44.96158" lon="5.52479">
        <ele>1898.26</ele>
        <time>2014-10-04T13:57:12Z</time>
      </trkpt>
      <trkpt lat="44.96163" lon="5.5248">
        <ele>1899.22</ele>
        <time>2014-10-04T13:57:18Z</time>
      </trkpt>
      <trkpt lat="44.96167" lon="5.52483">
        <ele>1901.14</ele>
        <time>2014-10-04T13:57:26Z</time>
      </trkpt>
      <trkpt lat="44.96174" lon="5.52486">
        <ele>1901.14</ele>
        <time>2014-10-04T13:57:35Z</time>
      </trkpt>
      <trkpt lat="44.9618" lon="5.52488">
        <ele>1902.59</ele>
        <time>2014-10-04T13:57:47Z</time>
      </trkpt>
      <trkpt lat="44.96185" lon="5.52489">
        <ele>1903.55</ele>
        <time>2014-10-04T13:57:56Z</time>
      </trkpt>
      <trkpt lat="44.96188" lon="5.5249">
        <ele>1904.51</ele>
        <time>2014-10-04T13:58:01Z</time>
      </trkpt>
      <trkpt lat="44.962" lon="5.52488">
        <ele>1904.99</ele>
        <time>2014-10-04T13:58:11Z</time>
      </trkpt>
      <trkpt lat="44.96201" lon="5.52488">
        <ele>1904.51</ele>
        <time>2014-10-04T13:58:13Z</time>
      </trkpt>
      <trkpt lat="44.96204" lon="5.52488">
        <ele>1904.51</ele>
        <time>2014-10-04T13:58:16Z</time>
      </trkpt>
      <trkpt lat="44.96207" lon="5.52487">
        <ele>1905.47</ele>
        <time>2014-10-04T13:58:20Z</time>
      </trkpt>
      <trkpt lat="44.96213" lon="5.52486">
        <ele>1905.95</ele>
        <time>2014-10-04T13:58:30Z</time>
      </trkpt>
      <trkpt lat="44.96218" lon="5.52486">
        <ele>1907.39</ele>
        <time>2014-10-04T13:58:38Z</time>
      </trkpt>
      <trkpt lat="44.96223" lon="5.52486">
        <ele>1908.35</ele>
        <time>2014-10-04T13:58:46Z</time>
      </trkpt>
      <trkpt lat="44.96224" lon="5.52488">
        <ele>1908.83</ele>
        <time>2014-10-04T13:58:49Z</time>
      </trkpt>
      <trkpt lat="44.96235" lon="5.5249">
        <ele>1907.39</ele>
        <time>2014-10-04T13:59:00Z</time>
      </trkpt>
      <trkpt lat="44.96237" lon="5.52491">
        <ele>1907.87</ele>
        <time>2014-10-04T13:59:02Z</time>
      </trkpt>
      <trkpt lat="44.96243" lon="5.52499">
        <ele>1907.39</ele>
        <time>2014-10-04T13:59:08Z</time>
      </trkpt>
      <trkpt lat="44.96246" lon="5.52506">
        <ele>1906.91</ele>
        <time>2014-10-04T13:59:15Z</time>
      </trkpt>
      <trkpt lat="44.9625" lon="5.52514">
        <ele>1905.95</ele>
        <time>2014-10-04T13:59:22Z</time>
      </trkpt>
      <trkpt lat="44.96252" lon="5.52516">
        <ele>1905.47</ele>
        <time>2014-10-04T13:59:27Z</time>
      </trkpt>
      <trkpt lat="44.96255" lon="5.52525">
        <ele>1905.47</ele>
        <time>2014-10-04T13:59:34Z</time>
      </trkpt>
      <trkpt lat="44.96259" lon="5.52531">
        <ele>1905.47</ele>
        <time>2014-10-04T13:59:39Z</time>
      </trkpt>
      <trkpt lat="44.96265" lon="5.52544">
        <ele>1905.95</ele>
        <time>2014-10-04T13:59:47Z</time>
      </trkpt>
      <trkpt lat="44.96267" lon="5.52546">
        <ele>1905.47</ele>
        <time>2014-10-04T13:59:49Z</time>
      </trkpt>
      <trkpt lat="44.9627" lon="5.52549">
        <ele>1905.47</ele>
        <time>2014-10-04T13:59:52Z</time>
      </trkpt>
      <trkpt lat="44.96271" lon="5.52552">
        <ele>1905.47</ele>
        <time>2014-10-04T13:59:56Z</time>
      </trkpt>
      <trkpt lat="44.96274" lon="5.52559">
        <ele>1904.99</ele>
        <time>2014-10-04T14:00:02Z</time>
      </trkpt>
      <trkpt lat="44.96275" lon="5.52565">
        <ele>1904.03</ele>
        <time>2014-10-04T14:00:07Z</time>
      </trkpt>
      <trkpt lat="44.96277" lon="5.52568">
        <ele>1904.03</ele>
        <time>2014-10-04T14:00:11Z</time>
      </trkpt>
      <trkpt lat="44.96278" lon="5.52576">
        <ele>1903.55</ele>
        <time>2014-10-04T14:00:19Z</time>
      </trkpt>
      <trkpt lat="44.96282" lon="5.52588">
        <ele>1903.55</ele>
        <time>2014-10-04T14:00:28Z</time>
      </trkpt>
      <trkpt lat="44.96282" lon="5.5259">
        <ele>1903.07</ele>
        <time>2014-10-04T14:00:29Z</time>
      </trkpt>
      <trkpt lat="44.96286" lon="5.52596">
        <ele>1902.59</ele>
        <time>2014-10-04T14:00:34Z</time>
      </trkpt>
      <trkpt lat="44.96289" lon="5.52601">
        <ele>1902.11</ele>
        <time>2014-10-04T14:00:39Z</time>
      </trkpt>
      <trkpt lat="44.96292" lon="5.52609">
        <ele>1901.63</ele>
        <time>2014-10-04T14:00:45Z</time>
      </trkpt>
      <trkpt lat="44.96298" lon="5.52614">
        <ele>1901.63</ele>
        <time>2014-10-04T14:00:53Z</time>
      </trkpt>
      <trkpt lat="44.96302" lon="5.52622">
        <ele>1900.18</ele>
        <time>2014-10-04T14:01:03Z</time>
      </trkpt>
      <trkpt lat="44.96304" lon="5.52627">
        <ele>1900.66</ele>
        <time>2014-10-04T14:01:06Z</time>
      </trkpt>
      <trkpt lat="44.96305" lon="5.52628">
        <ele>1900.66</ele>
        <time>2014-10-04T14:01:08Z</time>
      </trkpt>
      <trkpt lat="44.9631" lon="5.52638">
        <ele>1901.14</ele>
        <time>2014-10-04T14:01:18Z</time>
      </trkpt>
      <trkpt lat="44.96312" lon="5.52645">
        <ele>1902.59</ele>
        <time>2014-10-04T14:01:26Z</time>
      </trkpt>
      <trkpt lat="44.96312" lon="5.52648">
        <ele>1901.14</ele>
        <time>2014-10-04T14:01:31Z</time>
      </trkpt>
      <trkpt lat="44.96312" lon="5.52655">
        <ele>1900.18</ele>
        <time>2014-10-04T14:01:37Z</time>
      </trkpt>
      <trkpt lat="44.96315" lon="5.52664">
        <ele>1900.66</ele>
        <time>2014-10-04T14:01:48Z</time>
      </trkpt>
      <trkpt lat="44.96316" lon="5.52668">
        <ele>1901.14</ele>
        <time>2014-10-04T14:01:51Z</time>
      </trkpt>
      <trkpt lat="44.96321" lon="5.52674">
        <ele>1901.63</ele>
        <time>2014-10-04T14:01:59Z</time>
      </trkpt>
      <trkpt lat="44.96321" lon="5.52675">
        <ele>1902.11</ele>
        <time>2014-10-04T14:02:00Z</time>
      </trkpt>
      <trkpt lat="44.96325" lon="5.52685">
        <ele>1904.03</ele>
        <time>2014-10-04T14:02:10Z</time>
      </trkpt>
      <trkpt lat="44.96329" lon="5.52688">
        <ele>1904.03</ele>
        <time>2014-10-04T14:02:13Z</time>
      </trkpt>
      <trkpt lat="44.96333" lon="5.52695">
        <ele>1904.03</ele>
        <time>2014-10-04T14:02:19Z</time>
      </trkpt>
      <trkpt lat="44.96337" lon="5.52701">
        <ele>1903.07</ele>
        <time>2014-10-04T14:02:25Z</time>
      </trkpt>
      <trkpt lat="44.96338" lon="5.52707">
        <ele>1902.11</ele>
        <time>2014-10-04T14:02:31Z</time>
      </trkpt>
      <trkpt lat="44.9634" lon="5.52715">
        <ele>1901.63</ele>
        <time>2014-10-04T14:02:36Z</time>
      </trkpt>
      <trkpt lat="44.96344" lon="5.52719">
        <ele>1901.14</ele>
        <time>2014-10-04T14:02:42Z</time>
      </trkpt>
      <trkpt lat="44.96346" lon="5.52721">
        <ele>1901.63</ele>
        <time>2014-10-04T14:02:44Z</time>
      </trkpt>
      <trkpt lat="44.96348" lon="5.52721">
        <ele>1901.14</ele>
        <time>2014-10-04T14:02:46Z</time>
      </trkpt>
      <trkpt lat="44.96351" lon="5.52723">
        <ele>1901.14</ele>
        <time>2014-10-04T14:02:50Z</time>
      </trkpt>
      <trkpt lat="44.96356" lon="5.52725">
        <ele>1900.66</ele>
        <time>2014-10-04T14:02:53Z</time>
      </trkpt>
      <trkpt lat="44.9636" lon="5.52727">
        <ele>1900.18</ele>
        <time>2014-10-04T14:03:00Z</time>
      </trkpt>
      <trkpt lat="44.96366" lon="5.52729">
        <ele>1899.22</ele>
        <time>2014-10-04T14:03:04Z</time>
      </trkpt>
      <trkpt lat="44.96368" lon="5.5273">
        <ele>1899.22</ele>
        <time>2014-10-04T14:03:07Z</time>
      </trkpt>
      <trkpt lat="44.96375" lon="5.52733">
        <ele>1899.7</ele>
        <time>2014-10-04T14:03:17Z</time>
      </trkpt>
      <trkpt lat="44.96379" lon="5.52736">
        <ele>1899.7</ele>
        <time>2014-10-04T14:03:22Z</time>
      </trkpt>
      <trkpt lat="44.96385" lon="5.52741">
        <ele>1900.18</ele>
        <time>2014-10-04T14:03:28Z</time>
      </trkpt>
      <trkpt lat="44.96393" lon="5.52747">
        <ele>1900.18</ele>
        <time>2014-10-04T14:03:35Z</time>
      </trkpt>
      <trkpt lat="44.96401" lon="5.52754">
        <ele>1900.66</ele>
        <time>2014-10-04T14:03:44Z</time>
      </trkpt>
      <trkpt lat="44.96403" lon="5.52754">
        <ele>1900.18</ele>
        <time>2014-10-04T14:03:48Z</time>
      </trkpt>
      <trkpt lat="44.96405" lon="5.52755">
        <ele>1901.14</ele>
        <time>2014-10-04T14:03:52Z</time>
      </trkpt>
      <trkpt lat="44.9641" lon="5.52759">
        <ele>1901.63</ele>
        <time>2014-10-04T14:04:00Z</time>
      </trkpt>
      <trkpt lat="44.96411" lon="5.52761">
        <ele>1901.63</ele>
        <time>2014-10-04T14:04:03Z</time>
      </trkpt>
      <trkpt lat="44.96417" lon="5.52764">
        <ele>1901.63</ele>
        <time>2014-10-04T14:04:12Z</time>
      </trkpt>
      <trkpt lat="44.96422" lon="5.52765">
        <ele>1901.63</ele>
        <time>2014-10-04T14:04:22Z</time>
      </trkpt>
      <trkpt lat="44.96428" lon="5.5277">
        <ele>1901.63</ele>
        <time>2014-10-04T14:04:30Z</time>
      </trkpt>
      <trkpt lat="44.96432" lon="5.52775">
        <ele>1901.14</ele>
        <time>2014-10-04T14:04:36Z</time>
      </trkpt>
      <trkpt lat="44.96434" lon="5.52779">
        <ele>1901.63</ele>
        <time>2014-10-04T14:04:39Z</time>
      </trkpt>
      <trkpt lat="44.96434" lon="5.52782">
        <ele>1902.59</ele>
        <time>2014-10-04T14:04:43Z</time>
      </trkpt>
      <trkpt lat="44.96437" lon="5.52786">
        <ele>1903.55</ele>
        <time>2014-10-04T14:04:52Z</time>
      </trkpt>
      <trkpt lat="44.9644" lon="5.52789">
        <ele>1904.99</ele>
        <time>2014-10-04T14:05:00Z</time>
      </trkpt>
      <trkpt lat="44.96441" lon="5.52794">
        <ele>1906.91</ele>
        <time>2014-10-04T14:05:08Z</time>
      </trkpt>
      <trkpt lat="44.96442" lon="5.52799">
        <ele>1908.83</ele>
        <time>2014-10-04T14:05:16Z</time>
      </trkpt>
      <trkpt lat="44.96443" lon="5.52804">
        <ele>1910.76</ele>
        <time>2014-10-04T14:05:26Z</time>
      </trkpt>
      <trkpt lat="44.96443" lon="5.52806">
        <ele>1912.2</ele>
        <time>2014-10-04T14:05:34Z</time>
      </trkpt>
      <trkpt lat="44.96445" lon="5.52814">
        <ele>1914.12</ele>
        <time>2014-10-04T14:05:44Z</time>
      </trkpt>
      <trkpt lat="44.96447" lon="5.52819">
        <ele>1916.53</ele>
        <time>2014-10-04T14:05:55Z</time>
      </trkpt>
      <trkpt lat="44.96448" lon="5.52822">
        <ele>1917.01</ele>
        <time>2014-10-04T14:05:58Z</time>
      </trkpt>
      <trkpt lat="44.96449" lon="5.52826">
        <ele>1918.45</ele>
        <time>2014-10-04T14:06:04Z</time>
      </trkpt>
      <trkpt lat="44.96452" lon="5.52829">
        <ele>1919.89</ele>
        <time>2014-10-04T14:06:09Z</time>
      </trkpt>
      <trkpt lat="44.96454" lon="5.52835">
        <ele>1920.37</ele>
        <time>2014-10-04T14:06:22Z</time>
      </trkpt>
      <trkpt lat="44.96455" lon="5.52845">
        <ele>1921.81</ele>
        <time>2014-10-04T14:06:30Z</time>
      </trkpt>
      <trkpt lat="44.96455" lon="5.52845">
        <ele>1921.81</ele>
        <time>2014-10-04T14:06:31Z</time>
      </trkpt>
      <trkpt lat="44.96461" lon="5.52857">
        <ele>1923.25</ele>
        <time>2014-10-04T14:06:40Z</time>
      </trkpt>
      <trkpt lat="44.96463" lon="5.52866">
        <ele>1924.22</ele>
        <time>2014-10-04T14:06:48Z</time>
      </trkpt>
      <trkpt lat="44.96464" lon="5.52869">
        <ele>1925.18</ele>
        <time>2014-10-04T14:06:52Z</time>
      </trkpt>
      <trkpt lat="44.96464" lon="5.52871">
        <ele>1925.66</ele>
        <time>2014-10-04T14:06:55Z</time>
      </trkpt>
      <trkpt lat="44.96464" lon="5.52874">
        <ele>1926.62</ele>
        <time>2014-10-04T14:06:59Z</time>
      </trkpt>
      <trkpt lat="44.96467" lon="5.52885">
        <ele>1927.58</ele>
        <time>2014-10-04T14:07:06Z</time>
      </trkpt>
      <trkpt lat="44.96469" lon="5.52888">
        <ele>1927.58</ele>
        <time>2014-10-04T14:07:09Z</time>
      </trkpt>
      <trkpt lat="44.96478" lon="5.52894">
        <ele>1926.14</ele>
        <time>2014-10-04T14:07:20Z</time>
      </trkpt>
      <trkpt lat="44.96483" lon="5.52894">
        <ele>1927.58</ele>
        <time>2014-10-04T14:07:28Z</time>
      </trkpt>
      <trkpt lat="44.96487" lon="5.52893">
        <ele>1928.54</ele>
        <time>2014-10-04T14:07:34Z</time>
      </trkpt>
      <trkpt lat="44.96491" lon="5.52893">
        <ele>1929.02</ele>
        <time>2014-10-04T14:07:38Z</time>
      </trkpt>
      <trkpt lat="44.96492" lon="5.52892">
        <ele>1928.54</ele>
        <time>2014-10-04T14:07:40Z</time>
      </trkpt>
      <trkpt lat="44.965" lon="5.52895">
        <ele>1928.54</ele>
        <time>2014-10-04T14:07:50Z</time>
      </trkpt>
      <trkpt lat="44.965" lon="5.52895">
        <ele>1928.54</ele>
        <time>2014-10-04T14:07:51Z</time>
      </trkpt>
      <trkpt lat="44.96505" lon="5.52897">
        <ele>1928.06</ele>
        <time>2014-10-04T14:07:57Z</time>
      </trkpt>
      <trkpt lat="44.96508" lon="5.52903">
        <ele>1928.06</ele>
        <time>2014-10-04T14:08:00Z</time>
      </trkpt>
      <trkpt lat="44.9651" lon="5.52904">
        <ele>1927.1</ele>
        <time>2014-10-04T14:08:02Z</time>
      </trkpt>
      <trkpt lat="44.96519" lon="5.52915">
        <ele>1927.58</ele>
        <time>2014-10-04T14:08:11Z</time>
      </trkpt>
      <trkpt lat="44.96523" lon="5.5292">
        <ele>1927.58</ele>
        <time>2014-10-04T14:08:16Z</time>
      </trkpt>
      <trkpt lat="44.96527" lon="5.52922">
        <ele>1928.54</ele>
        <time>2014-10-04T14:08:21Z</time>
      </trkpt>
      <trkpt lat="44.96528" lon="5.52922">
        <ele>1928.54</ele>
        <time>2014-10-04T14:08:23Z</time>
      </trkpt>
      <trkpt lat="44.96533" lon="5.52921">
        <ele>1929.02</ele>
        <time>2014-10-04T14:08:28Z</time>
      </trkpt>
      <trkpt lat="44.96537" lon="5.52917">
        <ele>1928.54</ele>
        <time>2014-10-04T14:08:34Z</time>
      </trkpt>
      <trkpt lat="44.9654" lon="5.5291">
        <ele>1927.58</ele>
        <time>2014-10-04T14:08:40Z</time>
      </trkpt>
      <trkpt lat="44.96544" lon="5.52897">
        <ele>1927.1</ele>
        <time>2014-10-04T14:08:50Z</time>
      </trkpt>
      <trkpt lat="44.9655" lon="5.52896">
        <ele>1927.1</ele>
        <time>2014-10-04T14:08:59Z</time>
      </trkpt>
      <trkpt lat="44.96555" lon="5.52894">
        <ele>1927.58</ele>
        <time>2014-10-04T14:09:04Z</time>
      </trkpt>
      <trkpt lat="44.96562" lon="5.52892">
        <ele>1927.1</ele>
        <time>2014-10-04T14:09:08Z</time>
      </trkpt>
      <trkpt lat="44.96565" lon="5.5289">
        <ele>1926.62</ele>
        <time>2014-10-04T14:09:11Z</time>
      </trkpt>
      <trkpt lat="44.96571" lon="5.52889">
        <ele>1925.66</ele>
        <time>2014-10-04T14:09:21Z</time>
      </trkpt>
      <trkpt lat="44.96574" lon="5.5289">
        <ele>1925.18</ele>
        <time>2014-10-04T14:09:24Z</time>
      </trkpt>
      <trkpt lat="44.96577" lon="5.52888">
        <ele>1924.7</ele>
        <time>2014-10-04T14:09:29Z</time>
      </trkpt>
      <trkpt lat="44.96581" lon="5.5288">
        <ele>1924.7</ele>
        <time>2014-10-04T14:09:39Z</time>
      </trkpt>
      <trkpt lat="44.96585" lon="5.52876">
        <ele>1925.18</ele>
        <time>2014-10-04T14:09:42Z</time>
      </trkpt>
      <trkpt lat="44.96588" lon="5.52872">
        <ele>1924.22</ele>
        <time>2014-10-04T14:09:46Z</time>
      </trkpt>
      <trkpt lat="44.9659" lon="5.52871">
        <ele>1924.22</ele>
        <time>2014-10-04T14:09:49Z</time>
      </trkpt>
      <trkpt lat="44.96596" lon="5.52866">
        <ele>1923.74</ele>
        <time>2014-10-04T14:09:56Z</time>
      </trkpt>
      <trkpt lat="44.96601" lon="5.52864">
        <ele>1922.77</ele>
        <time>2014-10-04T14:10:00Z</time>
      </trkpt>
      <trkpt lat="44.96606" lon="5.52864">
        <ele>1922.77</ele>
        <time>2014-10-04T14:10:06Z</time>
      </trkpt>
      <trkpt lat="44.96611" lon="5.52864">
        <ele>1923.25</ele>
        <time>2014-10-04T14:10:13Z</time>
      </trkpt>
      <trkpt lat="44.96617" lon="5.52863">
        <ele>1923.25</ele>
        <time>2014-10-04T14:10:19Z</time>
      </trkpt>
      <trkpt lat="44.96621" lon="5.52864">
        <ele>1923.25</ele>
        <time>2014-10-04T14:10:23Z</time>
      </trkpt>
      <trkpt lat="44.96625" lon="5.52863">
        <ele>1922.77</ele>
        <time>2014-10-04T14:10:27Z</time>
      </trkpt>
      <trkpt lat="44.96626" lon="5.52864">
        <ele>1923.25</ele>
        <time>2014-10-04T14:10:29Z</time>
      </trkpt>
      <trkpt lat="44.96629" lon="5.52866">
        <ele>1922.77</ele>
        <time>2014-10-04T14:10:42Z</time>
      </trkpt>
      <trkpt lat="44.96632" lon="5.5287">
        <ele>1923.25</ele>
        <time>2014-10-04T14:10:46Z</time>
      </trkpt>
      <trkpt lat="44.96636" lon="5.52871">
        <ele>1922.77</ele>
        <time>2014-10-04T14:10:56Z</time>
      </trkpt>
      <trkpt lat="44.96641" lon="5.52866">
        <ele>1923.74</ele>
        <time>2014-10-04T14:11:06Z</time>
      </trkpt>
      <trkpt lat="44.96647" lon="5.5286">
        <ele>1925.18</ele>
        <time>2014-10-04T14:11:17Z</time>
      </trkpt>
      <trkpt lat="44.96654" lon="5.5286">
        <ele>1926.62</ele>
        <time>2014-10-04T14:11:27Z</time>
      </trkpt>
      <trkpt lat="44.9666" lon="5.5286">
        <ele>1928.54</ele>
        <time>2014-10-04T14:11:35Z</time>
      </trkpt>
      <trkpt lat="44.96667" lon="5.52861">
        <ele>1929.5</ele>
        <time>2014-10-04T14:11:43Z</time>
      </trkpt>
      <trkpt lat="44.9667" lon="5.52862">
        <ele>1930.46</ele>
        <time>2014-10-04T14:11:50Z</time>
      </trkpt>
      <trkpt lat="44.96672" lon="5.52862">
        <ele>1930.95</ele>
        <time>2014-10-04T14:11:53Z</time>
      </trkpt>
      <trkpt lat="44.96674" lon="5.52862">
        <ele>1931.43</ele>
        <time>2014-10-04T14:11:56Z</time>
      </trkpt>
      <trkpt lat="44.9668" lon="5.52861">
        <ele>1931.43</ele>
        <time>2014-10-04T14:12:00Z</time>
      </trkpt>
      <trkpt lat="44.96688" lon="5.5286">
        <ele>1930.95</ele>
        <time>2014-10-04T14:12:06Z</time>
      </trkpt>
      <trkpt lat="44.96691" lon="5.52859">
        <ele>1930.95</ele>
        <time>2014-10-04T14:12:09Z</time>
      </trkpt>
      <trkpt lat="44.96694" lon="5.52858">
        <ele>1930.46</ele>
        <time>2014-10-04T14:12:23Z</time>
      </trkpt>
      <trkpt lat="44.96694" lon="5.52858">
        <ele>1925.66</ele>
        <time>2014-10-04T14:12:24Z</time>
      </trkpt>
      <trkpt lat="44.96694" lon="5.52858">
        <ele>1930.95</ele>
        <time>2014-10-04T14:12:25Z</time>
      </trkpt>
      <trkpt lat="44.96694" lon="5.52858">
        <ele>1930.46</ele>
        <time>2014-10-04T14:12:30Z</time>
      </trkpt>
      <trkpt lat="44.96696" lon="5.5286">
        <ele>1930.46</ele>
        <time>2014-10-04T14:12:33Z</time>
      </trkpt>
      <trkpt lat="44.96699" lon="5.52865">
        <ele>1931.91</ele>
        <time>2014-10-04T14:12:41Z</time>
      </trkpt>
      <trkpt lat="44.96703" lon="5.52873">
        <ele>1933.35</ele>
        <time>2014-10-04T14:12:49Z</time>
      </trkpt>
      <trkpt lat="44.96707" lon="5.52879">
        <ele>1935.27</ele>
        <time>2014-10-04T14:12:57Z</time>
      </trkpt>
      <trkpt lat="44.96709" lon="5.52881">
        <ele>1935.27</ele>
        <time>2014-10-04T14:13:00Z</time>
      </trkpt>
      <trkpt lat="44.96711" lon="5.52887">
        <ele>1937.67</ele>
        <time>2014-10-04T14:13:08Z</time>
      </trkpt>
      <trkpt lat="44.96713" lon="5.5289">
        <ele>1939.12</ele>
        <time>2014-10-04T14:13:14Z</time>
      </trkpt>
      <trkpt lat="44.96714" lon="5.52897">
        <ele>1940.56</ele>
        <time>2014-10-04T14:13:23Z</time>
      </trkpt>
      <trkpt lat="44.96718" lon="5.52905">
        <ele>1942</ele>
        <time>2014-10-04T14:13:33Z</time>
      </trkpt>
      <trkpt lat="44.9672" lon="5.5291">
        <ele>1943.92</ele>
        <time>2014-10-04T14:13:42Z</time>
      </trkpt>
      <trkpt lat="44.96721" lon="5.52912">
        <ele>1944.4</ele>
        <time>2014-10-04T14:13:44Z</time>
      </trkpt>
      <trkpt lat="44.96723" lon="5.52914">
        <ele>1944.88</ele>
        <time>2014-10-04T14:13:47Z</time>
      </trkpt>
      <trkpt lat="44.96728" lon="5.52921">
        <ele>1947.29</ele>
        <time>2014-10-04T14:13:56Z</time>
      </trkpt>
      <trkpt lat="44.96729" lon="5.52922">
        <ele>1947.29</ele>
        <time>2014-10-04T14:13:57Z</time>
      </trkpt>
      <trkpt lat="44.96731" lon="5.52925">
        <ele>1948.25</ele>
        <time>2014-10-04T14:14:00Z</time>
      </trkpt>
      <trkpt lat="44.96732" lon="5.52927">
        <ele>1949.21</ele>
        <time>2014-10-04T14:14:03Z</time>
      </trkpt>
      <trkpt lat="44.96732" lon="5.52931">
        <ele>1950.17</ele>
        <time>2014-10-04T14:14:08Z</time>
      </trkpt>
      <trkpt lat="44.96735" lon="5.52938">
        <ele>1951.61</ele>
        <time>2014-10-04T14:14:16Z</time>
      </trkpt>
      <trkpt lat="44.96739" lon="5.52944">
        <ele>1954.02</ele>
        <time>2014-10-04T14:14:25Z</time>
      </trkpt>
      <trkpt lat="44.96738" lon="5.52946">
        <ele>1953.06</ele>
        <time>2014-10-04T14:14:27Z</time>
      </trkpt>
      <trkpt lat="44.96738" lon="5.52951">
        <ele>1955.46</ele>
        <time>2014-10-04T14:14:35Z</time>
      </trkpt>
      <trkpt lat="44.96738" lon="5.52953">
        <ele>1956.9</ele>
        <time>2014-10-04T14:14:40Z</time>
      </trkpt>
      <trkpt lat="44.96739" lon="5.52955">
        <ele>1957.38</ele>
        <time>2014-10-04T14:14:42Z</time>
      </trkpt>
      <trkpt lat="44.96741" lon="5.52959">
        <ele>1959.3</ele>
        <time>2014-10-04T14:14:52Z</time>
      </trkpt>
      <trkpt lat="44.96744" lon="5.52964">
        <ele>1960.75</ele>
        <time>2014-10-04T14:15:05Z</time>
      </trkpt>
      <trkpt lat="44.96746" lon="5.52966">
        <ele>1962.19</ele>
        <time>2014-10-04T14:15:10Z</time>
      </trkpt>
      <trkpt lat="44.96752" lon="5.52972">
        <ele>1963.15</ele>
        <time>2014-10-04T14:15:18Z</time>
      </trkpt>
      <trkpt lat="44.96754" lon="5.52975">
        <ele>1964.11</ele>
        <time>2014-10-04T14:15:23Z</time>
      </trkpt>
      <trkpt lat="44.96757" lon="5.5298">
        <ele>1965.55</ele>
        <time>2014-10-04T14:15:28Z</time>
      </trkpt>
      <trkpt lat="44.96758" lon="5.52982">
        <ele>1966.03</ele>
        <time>2014-10-04T14:15:31Z</time>
      </trkpt>
      <trkpt lat="44.96759" lon="5.52984">
        <ele>1966.03</ele>
        <time>2014-10-04T14:15:33Z</time>
      </trkpt>
      <trkpt lat="44.96762" lon="5.52989">
        <ele>1967.48</ele>
        <time>2014-10-04T14:15:40Z</time>
      </trkpt>
      <trkpt lat="44.96764" lon="5.52993">
        <ele>1969.4</ele>
        <time>2014-10-04T14:15:48Z</time>
      </trkpt>
      <trkpt lat="44.96767" lon="5.52999">
        <ele>1971.8</ele>
        <time>2014-10-04T14:15:58Z</time>
      </trkpt>
      <trkpt lat="44.96767" lon="5.52999">
        <ele>1971.32</ele>
        <time>2014-10-04T14:15:59Z</time>
      </trkpt>
      <trkpt lat="44.96768" lon="5.53002">
        <ele>1972.76</ele>
        <time>2014-10-04T14:16:02Z</time>
      </trkpt>
      <trkpt lat="44.96771" lon="5.53006">
        <ele>1975.17</ele>
        <time>2014-10-04T14:16:10Z</time>
      </trkpt>
      <trkpt lat="44.96771" lon="5.53007">
        <ele>1973.72</ele>
        <time>2014-10-04T14:16:19Z</time>
      </trkpt>
      <trkpt lat="44.96771" lon="5.53008">
        <ele>1974.69</ele>
        <time>2014-10-04T14:16:24Z</time>
      </trkpt>
      <trkpt lat="44.96772" lon="5.53008">
        <ele>1975.17</ele>
        <time>2014-10-04T14:16:26Z</time>
      </trkpt>
      <trkpt lat="44.96774" lon="5.53014">
        <ele>1977.09</ele>
        <time>2014-10-04T14:16:36Z</time>
      </trkpt>
      <trkpt lat="44.96777" lon="5.53019">
        <ele>1978.05</ele>
        <time>2014-10-04T14:16:41Z</time>
      </trkpt>
      <trkpt lat="44.96778" lon="5.53021">
        <ele>1978.53</ele>
        <time>2014-10-04T14:16:44Z</time>
      </trkpt>
      <trkpt lat="44.96779" lon="5.53026">
        <ele>1979.49</ele>
        <time>2014-10-04T14:16:49Z</time>
      </trkpt>
      <trkpt lat="44.9678" lon="5.53028">
        <ele>1980.93</ele>
        <time>2014-10-04T14:16:52Z</time>
      </trkpt>
      <trkpt lat="44.9678" lon="5.53035">
        <ele>1982.38</ele>
        <time>2014-10-04T14:17:00Z</time>
      </trkpt>
      <trkpt lat="44.96781" lon="5.53037">
        <ele>1982.86</ele>
        <time>2014-10-04T14:17:03Z</time>
      </trkpt>
      <trkpt lat="44.96784" lon="5.5304">
        <ele>1983.82</ele>
        <time>2014-10-04T14:17:13Z</time>
      </trkpt>
      <trkpt lat="44.96786" lon="5.53036">
        <ele>1982.38</ele>
        <time>2014-10-04T14:17:20Z</time>
      </trkpt>
      <trkpt lat="44.96789" lon="5.53036">
        <ele>1982.38</ele>
        <time>2014-10-04T14:17:23Z</time>
      </trkpt>
      <trkpt lat="44.96793" lon="5.53041">
        <ele>1983.82</ele>
        <time>2014-10-04T14:17:30Z</time>
      </trkpt>
      <trkpt lat="44.96793" lon="5.53041">
        <ele>1982.86</ele>
        <time>2014-10-04T14:17:31Z</time>
      </trkpt>
      <trkpt lat="44.96793" lon="5.53048">
        <ele>1983.82</ele>
        <time>2014-10-04T14:17:37Z</time>
      </trkpt>
      <trkpt lat="44.96788" lon="5.53055">
        <ele>1986.22</ele>
        <time>2014-10-04T14:17:46Z</time>
      </trkpt>
      <trkpt lat="44.96787" lon="5.53058">
        <ele>1986.7</ele>
        <time>2014-10-04T14:17:49Z</time>
      </trkpt>
      <trkpt lat="44.96784" lon="5.53062">
        <ele>1988.62</ele>
        <time>2014-10-04T14:17:53Z</time>
      </trkpt>
      <trkpt lat="44.96782" lon="5.53064">
        <ele>1990.07</ele>
        <time>2014-10-04T14:18:05Z</time>
      </trkpt>
      <trkpt lat="44.96782" lon="5.53064">
        <ele>1989.1</ele>
        <time>2014-10-04T14:18:29Z</time>
      </trkpt>
      <trkpt lat="44.96786" lon="5.53066">
        <ele>1990.07</ele>
        <time>2014-10-04T14:18:43Z</time>
      </trkpt>
      <trkpt lat="44.96786" lon="5.53066">
        <ele>1990.07</ele>
        <time>2014-10-04T14:18:54Z</time>
      </trkpt>
      <trkpt lat="44.96783" lon="5.53066">
        <ele>1991.03</ele>
        <time>2014-10-04T14:19:05Z</time>
      </trkpt>
      <trkpt lat="44.96784" lon="5.53066">
        <ele>1990.55</ele>
        <time>2014-10-04T14:19:06Z</time>
      </trkpt>
      <trkpt lat="44.96786" lon="5.53066">
        <ele>1990.55</ele>
        <time>2014-10-04T14:19:18Z</time>
      </trkpt>
      <trkpt lat="44.96787" lon="5.53066">
        <ele>1991.03</ele>
        <time>2014-10-04T14:19:42Z</time>
      </trkpt>
      <trkpt lat="44.96787" lon="5.53066">
        <ele>1989.59</ele>
        <time>2014-10-04T14:19:48Z</time>
      </trkpt>
      <trkpt lat="44.96789" lon="5.53072">
        <ele>1990.07</ele>
        <time>2014-10-04T14:21:23Z</time>
      </trkpt>
      <trkpt lat="44.96789" lon="5.53073">
        <ele>1989.59</ele>
        <time>2014-10-04T14:21:24Z</time>
      </trkpt>
      <trkpt lat="44.96785" lon="5.53075">
        <ele>1989.59</ele>
        <time>2014-10-04T14:21:30Z</time>
      </trkpt>
      <trkpt lat="44.96793" lon="5.53063">
        <ele>1988.62</ele>
        <time>2014-10-04T14:21:39Z</time>
      </trkpt>
      <trkpt lat="44.96795" lon="5.53061">
        <ele>1988.62</ele>
        <time>2014-10-04T14:21:42Z</time>
      </trkpt>
      <trkpt lat="44.96805" lon="5.53058">
        <ele>1987.66</ele>
        <time>2014-10-04T14:21:50Z</time>
      </trkpt>
      <trkpt lat="44.96814" lon="5.53054">
        <ele>1986.7</ele>
        <time>2014-10-04T14:21:59Z</time>
      </trkpt>
      <trkpt lat="44.9682" lon="5.53044">
        <ele>1983.82</ele>
        <time>2014-10-04T14:22:12Z</time>
      </trkpt>
      <trkpt lat="44.96821" lon="5.53044">
        <ele>1984.3</ele>
        <time>2014-10-04T14:22:22Z</time>
      </trkpt>
      <trkpt lat="44.96827" lon="5.53033">
        <ele>1984.78</ele>
        <time>2014-10-04T14:27:26Z</time>
      </trkpt>
      <trkpt lat="44.96826" lon="5.53033">
        <ele>1984.78</ele>
        <time>2014-10-04T14:27:27Z</time>
      </trkpt>
      <trkpt lat="44.96822" lon="5.53044">
        <ele>1985.74</ele>
        <time>2014-10-04T14:27:41Z</time>
      </trkpt>
      <trkpt lat="44.96822" lon="5.5304">
        <ele>1985.26</ele>
        <time>2014-10-04T14:27:44Z</time>
      </trkpt>
      <trkpt lat="44.96822" lon="5.53038">
        <ele>1985.26</ele>
        <time>2014-10-04T14:27:46Z</time>
      </trkpt>
      <trkpt lat="44.96822" lon="5.53035">
        <ele>1984.3</ele>
        <time>2014-10-04T14:27:48Z</time>
      </trkpt>
      <trkpt lat="44.96824" lon="5.53033">
        <ele>1984.3</ele>
        <time>2014-10-04T14:27:51Z</time>
      </trkpt>
      <trkpt lat="44.96825" lon="5.53024">
        <ele>1983.34</ele>
        <time>2014-10-04T14:27:58Z</time>
      </trkpt>
      <trkpt lat="44.96825" lon="5.5302">
        <ele>1981.41</ele>
        <time>2014-10-04T14:28:01Z</time>
      </trkpt>
      <trkpt lat="44.96826" lon="5.53012">
        <ele>1979.97</ele>
        <time>2014-10-04T14:28:08Z</time>
      </trkpt>
      <trkpt lat="44.96824" lon="5.53008">
        <ele>1979.97</ele>
        <time>2014-10-04T14:28:11Z</time>
      </trkpt>
      <trkpt lat="44.96825" lon="5.53002">
        <ele>1979.01</ele>
        <time>2014-10-04T14:28:15Z</time>
      </trkpt>
      <trkpt lat="44.96828" lon="5.52995">
        <ele>1977.09</ele>
        <time>2014-10-04T14:28:20Z</time>
      </trkpt>
      <trkpt lat="44.96832" lon="5.52987">
        <ele>1975.17</ele>
        <time>2014-10-04T14:28:28Z</time>
      </trkpt>
      <trkpt lat="44.96833" lon="5.52985">
        <ele>1975.17</ele>
        <time>2014-10-04T14:28:30Z</time>
      </trkpt>
      <trkpt lat="44.96837" lon="5.52977">
        <ele>1972.76</ele>
        <time>2014-10-04T14:28:38Z</time>
      </trkpt>
      <trkpt lat="44.9684" lon="5.52971">
        <ele>1970.84</ele>
        <time>2014-10-04T14:28:44Z</time>
      </trkpt>
      <trkpt lat="44.9684" lon="5.5297">
        <ele>1970.36</ele>
        <time>2014-10-04T14:28:45Z</time>
      </trkpt>
      <trkpt lat="44.96845" lon="5.52962">
        <ele>1966.99</ele>
        <time>2014-10-04T14:28:55Z</time>
      </trkpt>
      <trkpt lat="44.96846" lon="5.52958">
        <ele>1966.03</ele>
        <time>2014-10-04T14:28:59Z</time>
      </trkpt>
      <trkpt lat="44.96848" lon="5.5295">
        <ele>1964.59</ele>
        <time>2014-10-04T14:29:05Z</time>
      </trkpt>
      <trkpt lat="44.96848" lon="5.52944">
        <ele>1963.15</ele>
        <time>2014-10-04T14:29:11Z</time>
      </trkpt>
      <trkpt lat="44.96849" lon="5.52939">
        <ele>1961.23</ele>
        <time>2014-10-04T14:29:15Z</time>
      </trkpt>
      <trkpt lat="44.96851" lon="5.52936">
        <ele>1960.27</ele>
        <time>2014-10-04T14:29:20Z</time>
      </trkpt>
      <trkpt lat="44.96852" lon="5.52936">
        <ele>1959.78</ele>
        <time>2014-10-04T14:29:22Z</time>
      </trkpt>
      <trkpt lat="44.96857" lon="5.52934">
        <ele>1959.78</ele>
        <time>2014-10-04T14:29:25Z</time>
      </trkpt>
      <trkpt lat="44.9686" lon="5.52931">
        <ele>1959.3</ele>
        <time>2014-10-04T14:29:28Z</time>
      </trkpt>
      <trkpt lat="44.96863" lon="5.52929">
        <ele>1959.3</ele>
        <time>2014-10-04T14:29:31Z</time>
      </trkpt>
      <trkpt lat="44.96872" lon="5.52925">
        <ele>1958.34</ele>
        <time>2014-10-04T14:29:38Z</time>
      </trkpt>
      <trkpt lat="44.96878" lon="5.52919">
        <ele>1956.42</ele>
        <time>2014-10-04T14:29:45Z</time>
      </trkpt>
      <trkpt lat="44.96888" lon="5.52917">
        <ele>1955.46</ele>
        <time>2014-10-04T14:29:59Z</time>
      </trkpt>
      <trkpt lat="44.96897" lon="5.52914">
        <ele>1953.06</ele>
        <time>2014-10-04T14:30:08Z</time>
      </trkpt>
      <trkpt lat="44.969" lon="5.52914">
        <ele>1951.61</ele>
        <time>2014-10-04T14:30:12Z</time>
      </trkpt>
      <trkpt lat="44.96905" lon="5.52911">
        <ele>1950.17</ele>
        <time>2014-10-04T14:30:17Z</time>
      </trkpt>
      <trkpt lat="44.96908" lon="5.5291">
        <ele>1949.69</ele>
        <time>2014-10-04T14:30:22Z</time>
      </trkpt>
      <trkpt lat="44.96909" lon="5.52907">
        <ele>1948.73</ele>
        <time>2014-10-04T14:30:29Z</time>
      </trkpt>
      <trkpt lat="44.96913" lon="5.52909">
        <ele>1948.25</ele>
        <time>2014-10-04T14:30:33Z</time>
      </trkpt>
      <trkpt lat="44.9692" lon="5.52918">
        <ele>1947.77</ele>
        <time>2014-10-04T14:30:40Z</time>
      </trkpt>
      <trkpt lat="44.96929" lon="5.52919">
        <ele>1946.33</ele>
        <time>2014-10-04T14:30:46Z</time>
      </trkpt>
      <trkpt lat="44.96935" lon="5.52922">
        <ele>1944.4</ele>
        <time>2014-10-04T14:30:53Z</time>
      </trkpt>
      <trkpt lat="44.96944" lon="5.52929">
        <ele>1942</ele>
        <time>2014-10-04T14:31:02Z</time>
      </trkpt>
      <trkpt lat="44.96953" lon="5.52928">
        <ele>1939.12</ele>
        <time>2014-10-04T14:31:12Z</time>
      </trkpt>
      <trkpt lat="44.96958" lon="5.52927">
        <ele>1937.67</ele>
        <time>2014-10-04T14:31:15Z</time>
      </trkpt>
      <trkpt lat="44.96966" lon="5.52927">
        <ele>1935.75</ele>
        <time>2014-10-04T14:31:22Z</time>
      </trkpt>
      <trkpt lat="44.96972" lon="5.52923">
        <ele>1935.27</ele>
        <time>2014-10-04T14:31:27Z</time>
      </trkpt>
      <trkpt lat="44.96976" lon="5.52918">
        <ele>1933.83</ele>
        <time>2014-10-04T14:31:33Z</time>
      </trkpt>
      <trkpt lat="44.96977" lon="5.52916">
        <ele>1934.31</ele>
        <time>2014-10-04T14:31:35Z</time>
      </trkpt>
      <trkpt lat="44.96978" lon="5.52911">
        <ele>1934.31</ele>
        <time>2014-10-04T14:31:38Z</time>
      </trkpt>
      <trkpt lat="44.96983" lon="5.52906">
        <ele>1934.79</ele>
        <time>2014-10-04T14:31:44Z</time>
      </trkpt>
      <trkpt lat="44.96984" lon="5.52903">
        <ele>1934.31</ele>
        <time>2014-10-04T14:31:46Z</time>
      </trkpt>
      <trkpt lat="44.96987" lon="5.52894">
        <ele>1932.39</ele>
        <time>2014-10-04T14:31:53Z</time>
      </trkpt>
      <trkpt lat="44.96991" lon="5.52879">
        <ele>1931.91</ele>
        <time>2014-10-04T14:32:00Z</time>
      </trkpt>
      <trkpt lat="44.96991" lon="5.52876">
        <ele>1931.43</ele>
        <time>2014-10-04T14:32:02Z</time>
      </trkpt>
      <trkpt lat="44.96993" lon="5.52869">
        <ele>1930.95</ele>
        <time>2014-10-04T14:32:07Z</time>
      </trkpt>
      <trkpt lat="44.96994" lon="5.52867">
        <ele>1929.98</ele>
        <time>2014-10-04T14:32:09Z</time>
      </trkpt>
      <trkpt lat="44.96993" lon="5.52859">
        <ele>1928.06</ele>
        <time>2014-10-04T14:32:19Z</time>
      </trkpt>
      <trkpt lat="44.96993" lon="5.52859">
        <ele>1928.54</ele>
        <time>2014-10-04T14:32:39Z</time>
      </trkpt>
      <trkpt lat="44.96992" lon="5.5286">
        <ele>1928.54</ele>
        <time>2014-10-04T14:32:52Z</time>
      </trkpt>
      <trkpt lat="44.96992" lon="5.5286">
        <ele>1928.06</ele>
        <time>2014-10-04T14:32:54Z</time>
      </trkpt>
      <trkpt lat="44.96998" lon="5.52866">
        <ele>1927.58</ele>
        <time>2014-10-04T14:42:11Z</time>
      </trkpt>
      <trkpt lat="44.96996" lon="5.52862">
        <ele>1927.58</ele>
        <time>2014-10-04T14:42:12Z</time>
      </trkpt>
      <trkpt lat="44.97" lon="5.52857">
        <ele>1926.62</ele>
        <time>2014-10-04T14:42:22Z</time>
      </trkpt>
      <trkpt lat="44.97003" lon="5.52844">
        <ele>1923.74</ele>
        <time>2014-10-04T14:42:32Z</time>
      </trkpt>
      <trkpt lat="44.97004" lon="5.52842">
        <ele>1922.77</ele>
        <time>2014-10-04T14:42:34Z</time>
      </trkpt>
      <trkpt lat="44.9701" lon="5.52836">
        <ele>1919.41</ele>
        <time>2014-10-04T14:42:43Z</time>
      </trkpt>
      <trkpt lat="44.97016" lon="5.52828">
        <ele>1916.04</ele>
        <time>2014-10-04T14:42:51Z</time>
      </trkpt>
      <trkpt lat="44.97018" lon="5.52823">
        <ele>1913.64</ele>
        <time>2014-10-04T14:42:56Z</time>
      </trkpt>
      <trkpt lat="44.97019" lon="5.5282">
        <ele>1912.2</ele>
        <time>2014-10-04T14:43:01Z</time>
      </trkpt>
      <trkpt lat="44.97022" lon="5.52819">
        <ele>1911.24</ele>
        <time>2014-10-04T14:43:04Z</time>
      </trkpt>
      <trkpt lat="44.97026" lon="5.5282">
        <ele>1910.28</ele>
        <time>2014-10-04T14:43:08Z</time>
      </trkpt>
      <trkpt lat="44.97028" lon="5.52821">
        <ele>1909.32</ele>
        <time>2014-10-04T14:43:11Z</time>
      </trkpt>
      <trkpt lat="44.97033" lon="5.52827">
        <ele>1906.91</ele>
        <time>2014-10-04T14:43:18Z</time>
      </trkpt>
      <trkpt lat="44.97038" lon="5.52828">
        <ele>1905.47</ele>
        <time>2014-10-04T14:43:26Z</time>
      </trkpt>
      <trkpt lat="44.97041" lon="5.52827">
        <ele>1904.99</ele>
        <time>2014-10-04T14:43:29Z</time>
      </trkpt>
      <trkpt lat="44.97051" lon="5.52827">
        <ele>1902.59</ele>
        <time>2014-10-04T14:43:38Z</time>
      </trkpt>
      <trkpt lat="44.97063" lon="5.52823">
        <ele>1899.22</ele>
        <time>2014-10-04T14:43:47Z</time>
      </trkpt>
      <trkpt lat="44.97066" lon="5.52823">
        <ele>1897.3</ele>
        <time>2014-10-04T14:43:52Z</time>
      </trkpt>
      <trkpt lat="44.97068" lon="5.52822">
        <ele>1897.3</ele>
        <time>2014-10-04T14:43:54Z</time>
      </trkpt>
      <trkpt lat="44.97075" lon="5.52822">
        <ele>1895.86</ele>
        <time>2014-10-04T14:44:00Z</time>
      </trkpt>
      <trkpt lat="44.97076" lon="5.52819">
        <ele>1894.9</ele>
        <time>2014-10-04T14:44:02Z</time>
      </trkpt>
      <trkpt lat="44.9708" lon="5.52815">
        <ele>1893.93</ele>
        <time>2014-10-04T14:44:06Z</time>
      </trkpt>
      <trkpt lat="44.97086" lon="5.52808">
        <ele>1891.05</ele>
        <time>2014-10-04T14:44:13Z</time>
      </trkpt>
      <trkpt lat="44.97088" lon="5.52807">
        <ele>1889.61</ele>
        <time>2014-10-04T14:44:17Z</time>
      </trkpt>
      <trkpt lat="44.97096" lon="5.52805">
        <ele>1886.72</ele>
        <time>2014-10-04T14:44:28Z</time>
      </trkpt>
      <trkpt lat="44.97098" lon="5.52804">
        <ele>1886.24</ele>
        <time>2014-10-04T14:44:30Z</time>
      </trkpt>
      <trkpt lat="44.97099" lon="5.52801">
        <ele>1884.8</ele>
        <time>2014-10-04T14:44:34Z</time>
      </trkpt>
      <trkpt lat="44.97101" lon="5.52801">
        <ele>1884.32</ele>
        <time>2014-10-04T14:44:36Z</time>
      </trkpt>
      <trkpt lat="44.97103" lon="5.52799">
        <ele>1883.36</ele>
        <time>2014-10-04T14:44:38Z</time>
      </trkpt>
      <trkpt lat="44.97105" lon="5.52789">
        <ele>1880.48</ele>
        <time>2014-10-04T14:44:48Z</time>
      </trkpt>
      <trkpt lat="44.97108" lon="5.52788">
        <ele>1879.03</ele>
        <time>2014-10-04T14:44:52Z</time>
      </trkpt>
      <trkpt lat="44.97115" lon="5.52782">
        <ele>1877.11</ele>
        <time>2014-10-04T14:45:01Z</time>
      </trkpt>
      <trkpt lat="44.97121" lon="5.5278">
        <ele>1874.71</ele>
        <time>2014-10-04T14:45:11Z</time>
      </trkpt>
      <trkpt lat="44.97122" lon="5.52779">
        <ele>1874.71</ele>
        <time>2014-10-04T14:45:13Z</time>
      </trkpt>
      <trkpt lat="44.97129" lon="5.52777">
        <ele>1871.34</ele>
        <time>2014-10-04T14:45:24Z</time>
      </trkpt>
      <trkpt lat="44.9713" lon="5.52776">
        <ele>1871.34</ele>
        <time>2014-10-04T14:45:25Z</time>
      </trkpt>
      <trkpt lat="44.97133" lon="5.52772">
        <ele>1869.42</ele>
        <time>2014-10-04T14:45:29Z</time>
      </trkpt>
      <trkpt lat="44.97134" lon="5.52769">
        <ele>1868.46</ele>
        <time>2014-10-04T14:45:32Z</time>
      </trkpt>
      <trkpt lat="44.97138" lon="5.52766">
        <ele>1867.02</ele>
        <time>2014-10-04T14:45:37Z</time>
      </trkpt>
      <trkpt lat="44.9714" lon="5.52761">
        <ele>1864.13</ele>
        <time>2014-10-04T14:45:45Z</time>
      </trkpt>
      <trkpt lat="44.97145" lon="5.52757">
        <ele>1862.21</ele>
        <time>2014-10-04T14:45:54Z</time>
      </trkpt>
      <trkpt lat="44.97147" lon="5.52757">
        <ele>1861.25</ele>
        <time>2014-10-04T14:45:57Z</time>
      </trkpt>
      <trkpt lat="44.97151" lon="5.52754">
        <ele>1859.33</ele>
        <time>2014-10-04T14:46:01Z</time>
      </trkpt>
      <trkpt lat="44.97159" lon="5.52751">
        <ele>1856.92</ele>
        <time>2014-10-04T14:46:11Z</time>
      </trkpt>
      <trkpt lat="44.97164" lon="5.52745">
        <ele>1853.56</ele>
        <time>2014-10-04T14:46:19Z</time>
      </trkpt>
      <trkpt lat="44.97166" lon="5.52742">
        <ele>1852.6</ele>
        <time>2014-10-04T14:46:23Z</time>
      </trkpt>
      <trkpt lat="44.97168" lon="5.52739">
        <ele>1852.12</ele>
        <time>2014-10-04T14:46:26Z</time>
      </trkpt>
      <trkpt lat="44.97178" lon="5.52731">
        <ele>1848.27</ele>
        <time>2014-10-04T14:46:37Z</time>
      </trkpt>
      <trkpt lat="44.9718" lon="5.52729">
        <ele>1847.79</ele>
        <time>2014-10-04T14:46:39Z</time>
      </trkpt>
      <trkpt lat="44.97191" lon="5.5272">
        <ele>1844.43</ele>
        <time>2014-10-04T14:46:50Z</time>
      </trkpt>
      <trkpt lat="44.97193" lon="5.52719">
        <ele>1843.95</ele>
        <time>2014-10-04T14:46:52Z</time>
      </trkpt>
      <trkpt lat="44.97196" lon="5.52718">
        <ele>1843.47</ele>
        <time>2014-10-04T14:46:55Z</time>
      </trkpt>
      <trkpt lat="44.972" lon="5.5271">
        <ele>1841.54</ele>
        <time>2014-10-04T14:47:04Z</time>
      </trkpt>
      <trkpt lat="44.97208" lon="5.52705">
        <ele>1840.1</ele>
        <time>2014-10-04T14:47:11Z</time>
      </trkpt>
      <trkpt lat="44.97219" lon="5.52702">
        <ele>1839.62</ele>
        <time>2014-10-04T14:47:21Z</time>
      </trkpt>
      <trkpt lat="44.9722" lon="5.52701">
        <ele>1839.62</ele>
        <time>2014-10-04T14:47:24Z</time>
      </trkpt>
      <trkpt lat="44.97226" lon="5.52696">
        <ele>1840.1</ele>
        <time>2014-10-04T14:47:30Z</time>
      </trkpt>
      <trkpt lat="44.97235" lon="5.52693">
        <ele>1840.58</ele>
        <time>2014-10-04T14:47:37Z</time>
      </trkpt>
      <trkpt lat="44.9724" lon="5.52692">
        <ele>1840.58</ele>
        <time>2014-10-04T14:47:41Z</time>
      </trkpt>
      <trkpt lat="44.97246" lon="5.52691">
        <ele>1841.54</ele>
        <time>2014-10-04T14:47:51Z</time>
      </trkpt>
      <trkpt lat="44.97245" lon="5.52693">
        <ele>1841.06</ele>
        <time>2014-10-04T14:47:55Z</time>
      </trkpt>
      <trkpt lat="44.97243" lon="5.52694">
        <ele>1840.58</ele>
        <time>2014-10-04T14:48:08Z</time>
      </trkpt>
      <trkpt lat="44.97243" lon="5.52694">
        <ele>1840.58</ele>
        <time>2014-10-04T14:48:38Z</time>
      </trkpt>
      <trkpt lat="44.97244" lon="5.52694">
        <ele>1840.58</ele>
        <time>2014-10-04T14:48:42Z</time>
      </trkpt>
      <trkpt lat="44.97242" lon="5.5269">
        <ele>1839.62</ele>
        <time>2014-10-04T14:48:47Z</time>
      </trkpt>
      <trkpt lat="44.9724" lon="5.52688">
        <ele>1839.62</ele>
        <time>2014-10-04T14:48:49Z</time>
      </trkpt>
      <trkpt lat="44.97235" lon="5.52684">
        <ele>1838.66</ele>
        <time>2014-10-04T14:48:55Z</time>
      </trkpt>
      <trkpt lat="44.97233" lon="5.52682">
        <ele>1838.66</ele>
        <time>2014-10-04T14:48:57Z</time>
      </trkpt>
      <trkpt lat="44.97233" lon="5.52679">
        <ele>1838.66</ele>
        <time>2014-10-04T14:49:00Z</time>
      </trkpt>
      <trkpt lat="44.97232" lon="5.52672">
        <ele>1835.77</ele>
        <time>2014-10-04T14:49:06Z</time>
      </trkpt>
      <trkpt lat="44.97231" lon="5.52669">
        <ele>1834.33</ele>
        <time>2014-10-04T14:49:09Z</time>
      </trkpt>
      <trkpt lat="44.97231" lon="5.52669">
        <ele>1834.33</ele>
        <time>2014-10-04T14:49:10Z</time>
      </trkpt>
      <trkpt lat="44.97229" lon="5.52669">
        <ele>1833.85</ele>
        <time>2014-10-04T14:49:12Z</time>
      </trkpt>
      <trkpt lat="44.97229" lon="5.5266">
        <ele>1830.97</ele>
        <time>2014-10-04T14:49:23Z</time>
      </trkpt>
      <trkpt lat="44.97231" lon="5.52659">
        <ele>1830.97</ele>
        <time>2014-10-04T14:49:36Z</time>
      </trkpt>
      <trkpt lat="44.97231" lon="5.52659">
        <ele>1830.49</ele>
        <time>2014-10-04T14:49:41Z</time>
      </trkpt>
      <trkpt lat="44.97252" lon="5.52625">
        <ele>1831.45</ele>
        <time>2014-10-04T15:13:02Z</time>
      </trkpt>
      <trkpt lat="44.97252" lon="5.52626">
        <ele>1830.97</ele>
        <time>2014-10-04T15:13:03Z</time>
      </trkpt>
      <trkpt lat="44.97231" lon="5.52659">
        <ele>1830.49</ele>
        <time>2014-10-04T15:13:18Z</time>
      </trkpt>
      <trkpt lat="44.97236" lon="5.5265">
        <ele>1827.6</ele>
        <time>2014-10-04T15:13:28Z</time>
      </trkpt>
      <trkpt lat="44.9724" lon="5.52644">
        <ele>1825.2</ele>
        <time>2014-10-04T15:13:39Z</time>
      </trkpt>
      <trkpt lat="44.97241" lon="5.52642">
        <ele>1824.72</ele>
        <time>2014-10-04T15:13:41Z</time>
      </trkpt>
      <trkpt lat="44.97245" lon="5.52638">
        <ele>1822.8</ele>
        <time>2014-10-04T15:13:50Z</time>
      </trkpt>
      <trkpt lat="44.97248" lon="5.52635">
        <ele>1821.84</ele>
        <time>2014-10-04T15:13:54Z</time>
      </trkpt>
      <trkpt lat="44.9725" lon="5.52631">
        <ele>1821.35</ele>
        <time>2014-10-04T15:13:59Z</time>
      </trkpt>
      <trkpt lat="44.97253" lon="5.52628">
        <ele>1819.91</ele>
        <time>2014-10-04T15:14:03Z</time>
      </trkpt>
      <trkpt lat="44.97258" lon="5.52623">
        <ele>1817.99</ele>
        <time>2014-10-04T15:14:10Z</time>
      </trkpt>
      <trkpt lat="44.97261" lon="5.5262">
        <ele>1816.07</ele>
        <time>2014-10-04T15:14:15Z</time>
      </trkpt>
      <trkpt lat="44.97269" lon="5.52611">
        <ele>1813.18</ele>
        <time>2014-10-04T15:14:26Z</time>
      </trkpt>
      <trkpt lat="44.97279" lon="5.52605">
        <ele>1810.3</ele>
        <time>2014-10-04T15:14:37Z</time>
      </trkpt>
      <trkpt lat="44.97279" lon="5.526">
        <ele>1810.3</ele>
        <time>2014-10-04T15:14:42Z</time>
      </trkpt>
      <trkpt lat="44.97284" lon="5.52596">
        <ele>1808.38</ele>
        <time>2014-10-04T15:14:48Z</time>
      </trkpt>
      <trkpt lat="44.97287" lon="5.52594">
        <ele>1807.42</ele>
        <time>2014-10-04T15:14:51Z</time>
      </trkpt>
      <trkpt lat="44.97293" lon="5.52591">
        <ele>1806.45</ele>
        <time>2014-10-04T15:14:57Z</time>
      </trkpt>
      <trkpt lat="44.97295" lon="5.52589">
        <ele>1805.49</ele>
        <time>2014-10-04T15:14:59Z</time>
      </trkpt>
      <trkpt lat="44.97301" lon="5.52583">
        <ele>1804.05</ele>
        <time>2014-10-04T15:15:05Z</time>
      </trkpt>
      <trkpt lat="44.97306" lon="5.5258">
        <ele>1802.61</ele>
        <time>2014-10-04T15:15:10Z</time>
      </trkpt>
      <trkpt lat="44.97312" lon="5.52577">
        <ele>1800.69</ele>
        <time>2014-10-04T15:15:16Z</time>
      </trkpt>
      <trkpt lat="44.97314" lon="5.5257">
        <ele>1798.28</ele>
        <time>2014-10-04T15:15:29Z</time>
      </trkpt>
      <trkpt lat="44.97317" lon="5.52565">
        <ele>1797.32</ele>
        <time>2014-10-04T15:15:36Z</time>
      </trkpt>
      <trkpt lat="44.97322" lon="5.52558">
        <ele>1793.96</ele>
        <time>2014-10-04T15:15:47Z</time>
      </trkpt>
      <trkpt lat="44.97322" lon="5.52558">
        <ele>1793.48</ele>
        <time>2014-10-04T15:15:49Z</time>
      </trkpt>
      <trkpt lat="44.97329" lon="5.52546">
        <ele>1792.03</ele>
        <time>2014-10-04T15:16:01Z</time>
      </trkpt>
      <trkpt lat="44.9733" lon="5.52545">
        <ele>1791.55</ele>
        <time>2014-10-04T15:16:02Z</time>
      </trkpt>
      <trkpt lat="44.97336" lon="5.5254">
        <ele>1789.63</ele>
        <time>2014-10-04T15:16:08Z</time>
      </trkpt>
      <trkpt lat="44.97341" lon="5.52535">
        <ele>1788.19</ele>
        <time>2014-10-04T15:16:14Z</time>
      </trkpt>
      <trkpt lat="44.97344" lon="5.52533">
        <ele>1787.23</ele>
        <time>2014-10-04T15:16:17Z</time>
      </trkpt>
      <trkpt lat="44.97348" lon="5.52523">
        <ele>1785.31</ele>
        <time>2014-10-04T15:16:32Z</time>
      </trkpt>
      <trkpt lat="44.9735" lon="5.52522">
        <ele>1784.34</ele>
        <time>2014-10-04T15:16:38Z</time>
      </trkpt>
      <trkpt lat="44.97356" lon="5.5251">
        <ele>1781.46</ele>
        <time>2014-10-04T15:16:50Z</time>
      </trkpt>
      <trkpt lat="44.97361" lon="5.525">
        <ele>1779.06</ele>
        <time>2014-10-04T15:17:00Z</time>
      </trkpt>
      <trkpt lat="44.97367" lon="5.52489">
        <ele>1776.17</ele>
        <time>2014-10-04T15:17:09Z</time>
      </trkpt>
      <trkpt lat="44.97369" lon="5.52485">
        <ele>1774.73</ele>
        <time>2014-10-04T15:17:12Z</time>
      </trkpt>
      <trkpt lat="44.97368" lon="5.5248">
        <ele>1774.25</ele>
        <time>2014-10-04T15:17:28Z</time>
      </trkpt>
      <trkpt lat="44.97369" lon="5.52479">
        <ele>1773.77</ele>
        <time>2014-10-04T15:17:36Z</time>
      </trkpt>
      <trkpt lat="44.97376" lon="5.52468">
        <ele>1770.89</ele>
        <time>2014-10-04T15:17:46Z</time>
      </trkpt>
      <trkpt lat="44.97378" lon="5.52464">
        <ele>1769.44</ele>
        <time>2014-10-04T15:17:50Z</time>
      </trkpt>
      <trkpt lat="44.97381" lon="5.5246">
        <ele>1768.48</ele>
        <time>2014-10-04T15:17:53Z</time>
      </trkpt>
      <trkpt lat="44.97387" lon="5.52455">
        <ele>1767.04</ele>
        <time>2014-10-04T15:18:03Z</time>
      </trkpt>
      <trkpt lat="44.97392" lon="5.52446">
        <ele>1766.08</ele>
        <time>2014-10-04T15:18:10Z</time>
      </trkpt>
      <trkpt lat="44.97393" lon="5.52443">
        <ele>1765.12</ele>
        <time>2014-10-04T15:18:12Z</time>
      </trkpt>
      <trkpt lat="44.97395" lon="5.5244">
        <ele>1763.68</ele>
        <time>2014-10-04T15:18:25Z</time>
      </trkpt>
      <trkpt lat="44.97397" lon="5.52433">
        <ele>1761.27</ele>
        <time>2014-10-04T15:18:33Z</time>
      </trkpt>
      <trkpt lat="44.97398" lon="5.52431">
        <ele>1760.79</ele>
        <time>2014-10-04T15:18:35Z</time>
      </trkpt>
      <trkpt lat="44.97402" lon="5.52421">
        <ele>1759.35</ele>
        <time>2014-10-04T15:18:42Z</time>
      </trkpt>
      <trkpt lat="44.97405" lon="5.52416">
        <ele>1758.87</ele>
        <time>2014-10-04T15:18:45Z</time>
      </trkpt>
      <trkpt lat="44.97413" lon="5.5241">
        <ele>1756.95</ele>
        <time>2014-10-04T15:18:52Z</time>
      </trkpt>
      <trkpt lat="44.97414" lon="5.52408">
        <ele>1755.99</ele>
        <time>2014-10-04T15:18:57Z</time>
      </trkpt>
      <trkpt lat="44.97421" lon="5.52391">
        <ele>1753.1</ele>
        <time>2014-10-04T15:19:08Z</time>
      </trkpt>
      <trkpt lat="44.97426" lon="5.52385">
        <ele>1752.14</ele>
        <time>2014-10-04T15:19:13Z</time>
      </trkpt>
      <trkpt lat="44.97433" lon="5.52377">
        <ele>1751.66</ele>
        <time>2014-10-04T15:19:20Z</time>
      </trkpt>
      <trkpt lat="44.97438" lon="5.52363">
        <ele>1751.66</ele>
        <time>2014-10-04T15:19:30Z</time>
      </trkpt>
      <trkpt lat="44.97438" lon="5.52363">
        <ele>1751.18</ele>
        <time>2014-10-04T15:19:44Z</time>
      </trkpt>
      <trkpt lat="44.9744" lon="5.52358">
        <ele>1751.18</ele>
        <time>2014-10-04T15:19:49Z</time>
      </trkpt>
      <trkpt lat="44.97446" lon="5.5235">
        <ele>1750.22</ele>
        <time>2014-10-04T15:19:55Z</time>
      </trkpt>
      <trkpt lat="44.97448" lon="5.52345">
        <ele>1749.74</ele>
        <time>2014-10-04T15:19:58Z</time>
      </trkpt>
      <trkpt lat="44.97452" lon="5.5234">
        <ele>1749.26</ele>
        <time>2014-10-04T15:20:03Z</time>
      </trkpt>
      <trkpt lat="44.97456" lon="5.52334">
        <ele>1749.74</ele>
        <time>2014-10-04T15:20:14Z</time>
      </trkpt>
      <trkpt lat="44.97455" lon="5.52333">
        <ele>1749.74</ele>
        <time>2014-10-04T15:20:24Z</time>
      </trkpt>
      <trkpt lat="44.97459" lon="5.52328">
        <ele>1750.22</ele>
        <time>2014-10-04T15:38:02Z</time>
      </trkpt>
      <trkpt lat="44.97458" lon="5.52328">
        <ele>1749.74</ele>
        <time>2014-10-04T15:38:03Z</time>
      </trkpt>
      <trkpt lat="44.97456" lon="5.52323">
        <ele>1747.81</ele>
        <time>2014-10-04T15:38:20Z</time>
      </trkpt>
      <trkpt lat="44.97457" lon="5.5232">
        <ele>1747.33</ele>
        <time>2014-10-04T15:38:27Z</time>
      </trkpt>
      <trkpt lat="44.97462" lon="5.52313">
        <ele>1745.89</ele>
        <time>2014-10-04T15:38:38Z</time>
      </trkpt>
      <trkpt lat="44.97466" lon="5.52305">
        <ele>1743.49</ele>
        <time>2014-10-04T15:38:48Z</time>
      </trkpt>
      <trkpt lat="44.97474" lon="5.52295">
        <ele>1740.12</ele>
        <time>2014-10-04T15:39:02Z</time>
      </trkpt>
      <trkpt lat="44.97481" lon="5.52289">
        <ele>1737.24</ele>
        <time>2014-10-04T15:39:14Z</time>
      </trkpt>
      <trkpt lat="44.97482" lon="5.52287">
        <ele>1736.76</ele>
        <time>2014-10-04T15:39:16Z</time>
      </trkpt>
      <trkpt lat="44.97488" lon="5.5228">
        <ele>1735.32</ele>
        <time>2014-10-04T15:39:23Z</time>
      </trkpt>
      <trkpt lat="44.97495" lon="5.5227">
        <ele>1733.39</ele>
        <time>2014-10-04T15:39:33Z</time>
      </trkpt>
      <trkpt lat="44.975" lon="5.52264">
        <ele>1731.95</ele>
        <time>2014-10-04T15:39:41Z</time>
      </trkpt>
      <trkpt lat="44.97507" lon="5.52261">
        <ele>1730.99</ele>
        <time>2014-10-04T15:39:50Z</time>
      </trkpt>
      <trkpt lat="44.97511" lon="5.52254">
        <ele>1730.51</ele>
        <time>2014-10-04T15:39:55Z</time>
      </trkpt>
      <trkpt lat="44.97516" lon="5.52242">
        <ele>1728.59</ele>
        <time>2014-10-04T15:40:04Z</time>
      </trkpt>
      <trkpt lat="44.97519" lon="5.52234">
        <ele>1727.15</ele>
        <time>2014-10-04T15:40:11Z</time>
      </trkpt>
      <trkpt lat="44.97519" lon="5.5223">
        <ele>1726.67</ele>
        <time>2014-10-04T15:40:13Z</time>
      </trkpt>
      <trkpt lat="44.97522" lon="5.52219">
        <ele>1725.7</ele>
        <time>2014-10-04T15:40:21Z</time>
      </trkpt>
      <trkpt lat="44.97528" lon="5.5221">
        <ele>1724.26</ele>
        <time>2014-10-04T15:40:30Z</time>
      </trkpt>
      <trkpt lat="44.97536" lon="5.52205">
        <ele>1720.42</ele>
        <time>2014-10-04T15:40:42Z</time>
      </trkpt>
      <trkpt lat="44.97539" lon="5.52202">
        <ele>1719.46</ele>
        <time>2014-10-04T15:40:45Z</time>
      </trkpt>
      <trkpt lat="44.97547" lon="5.52199">
        <ele>1716.57</ele>
        <time>2014-10-04T15:40:55Z</time>
      </trkpt>
      <trkpt lat="44.97553" lon="5.52194">
        <ele>1713.21</ele>
        <time>2014-10-04T15:41:06Z</time>
      </trkpt>
      <trkpt lat="44.97556" lon="5.52192">
        <ele>1712.25</ele>
        <time>2014-10-04T15:41:10Z</time>
      </trkpt>
      <trkpt lat="44.97562" lon="5.52186">
        <ele>1710.8</ele>
        <time>2014-10-04T15:41:18Z</time>
      </trkpt>
      <trkpt lat="44.97567" lon="5.52174">
        <ele>1711.28</ele>
        <time>2014-10-04T15:41:26Z</time>
      </trkpt>
      <trkpt lat="44.9757" lon="5.52164">
        <ele>1710.8</ele>
        <time>2014-10-04T15:41:33Z</time>
      </trkpt>
      <trkpt lat="44.97574" lon="5.52157">
        <ele>1710.32</ele>
        <time>2014-10-04T15:41:40Z</time>
      </trkpt>
      <trkpt lat="44.97578" lon="5.52148">
        <ele>1709.84</ele>
        <time>2014-10-04T15:41:46Z</time>
      </trkpt>
      <trkpt lat="44.97582" lon="5.52139">
        <ele>1709.36</ele>
        <time>2014-10-04T15:41:50Z</time>
      </trkpt>
      <trkpt lat="44.97586" lon="5.52135">
        <ele>1709.36</ele>
        <time>2014-10-04T15:41:54Z</time>
      </trkpt>
      <trkpt lat="44.97588" lon="5.52135">
        <ele>1708.88</ele>
        <time>2014-10-04T15:41:56Z</time>
      </trkpt>
      <trkpt lat="44.97593" lon="5.52136">
        <ele>1707.92</ele>
        <time>2014-10-04T15:42:04Z</time>
      </trkpt>
      <trkpt lat="44.97596" lon="5.52134">
        <ele>1707.44</ele>
        <time>2014-10-04T15:42:06Z</time>
      </trkpt>
      <trkpt lat="44.97606" lon="5.52132">
        <ele>1706.48</ele>
        <time>2014-10-04T15:42:13Z</time>
      </trkpt>
      <trkpt lat="44.97611" lon="5.52129">
        <ele>1705.52</ele>
        <time>2014-10-04T15:42:17Z</time>
      </trkpt>
      <trkpt lat="44.97616" lon="5.5211">
        <ele>1704.07</ele>
        <time>2014-10-04T15:42:29Z</time>
      </trkpt>
      <trkpt lat="44.97618" lon="5.52105">
        <ele>1703.11</ele>
        <time>2014-10-04T15:42:34Z</time>
      </trkpt>
      <trkpt lat="44.97625" lon="5.52095">
        <ele>1701.67</ele>
        <time>2014-10-04T15:42:44Z</time>
      </trkpt>
      <trkpt lat="44.97627" lon="5.52094">
        <ele>1701.19</ele>
        <time>2014-10-04T15:42:45Z</time>
      </trkpt>
      <trkpt lat="44.9763" lon="5.52085">
        <ele>1701.19</ele>
        <time>2014-10-04T15:42:51Z</time>
      </trkpt>
      <trkpt lat="44.97632" lon="5.52073">
        <ele>1701.19</ele>
        <time>2014-10-04T15:42:58Z</time>
      </trkpt>
      <trkpt lat="44.97637" lon="5.52061">
        <ele>1701.19</ele>
        <time>2014-10-04T15:43:04Z</time>
      </trkpt>
      <trkpt lat="44.97645" lon="5.52046">
        <ele>1701.19</ele>
        <time>2014-10-04T15:43:17Z</time>
      </trkpt>
      <trkpt lat="44.97653" lon="5.52037">
        <ele>1699.75</ele>
        <time>2014-10-04T15:43:29Z</time>
      </trkpt>
      <trkpt lat="44.97657" lon="5.52033">
        <ele>1699.75</ele>
        <time>2014-10-04T15:43:34Z</time>
      </trkpt>
      <trkpt lat="44.97663" lon="5.52024">
        <ele>1697.83</ele>
        <time>2014-10-04T15:43:47Z</time>
      </trkpt>
      <trkpt lat="44.97671" lon="5.52015">
        <ele>1696.86</ele>
        <time>2014-10-04T15:43:56Z</time>
      </trkpt>
      <trkpt lat="44.97683" lon="5.51995">
        <ele>1693.98</ele>
        <time>2014-10-04T15:44:10Z</time>
      </trkpt>
      <trkpt lat="44.97687" lon="5.51992">
        <ele>1693.02</ele>
        <time>2014-10-04T15:44:23Z</time>
      </trkpt>
      <trkpt lat="44.97688" lon="5.51992">
        <ele>1695.42</ele>
        <time>2014-10-04T15:44:37Z</time>
      </trkpt>
      <trkpt lat="44.97696" lon="5.51993">
        <ele>1696.38</ele>
        <time>2014-10-04T15:44:48Z</time>
      </trkpt>
      <trkpt lat="44.977" lon="5.51995">
        <ele>1698.79</ele>
        <time>2014-10-04T15:44:58Z</time>
      </trkpt>
      <trkpt lat="44.97702" lon="5.51998">
        <ele>1700.23</ele>
        <time>2014-10-04T15:45:10Z</time>
      </trkpt>
      <trkpt lat="44.97707" lon="5.52004">
        <ele>1700.71</ele>
        <time>2014-10-04T15:45:22Z</time>
      </trkpt>
      <trkpt lat="44.97707" lon="5.52004">
        <ele>1700.71</ele>
        <time>2014-10-04T15:45:27Z</time>
      </trkpt>
      <trkpt lat="44.97718" lon="5.52007">
        <ele>1698.79</ele>
        <time>2014-10-04T15:45:39Z</time>
      </trkpt>
      <trkpt lat="44.9772" lon="5.52007">
        <ele>1698.31</ele>
        <time>2014-10-04T15:45:41Z</time>
      </trkpt>
      <trkpt lat="44.97722" lon="5.5201">
        <ele>1698.79</ele>
        <time>2014-10-04T15:45:45Z</time>
      </trkpt>
      <trkpt lat="44.97727" lon="5.52016">
        <ele>1701.19</ele>
        <time>2014-10-04T15:45:54Z</time>
      </trkpt>
      <trkpt lat="44.97735" lon="5.52015">
        <ele>1701.67</ele>
        <time>2014-10-04T15:46:04Z</time>
      </trkpt>
      <trkpt lat="44.97742" lon="5.52016">
        <ele>1702.15</ele>
        <time>2014-10-04T15:46:14Z</time>
      </trkpt>
    </trkseg>
  </trk>
</gpx>